GFSGBSN_sfc_wetblb_000.txt.gz
Wetbulb
58.96 57.88 56.78 55.98 55.75 55.74 55.68 55.43 54.92 55.12 55.34 55.47 55.91 55.70 55.37 55.38 55.46 55.82 56.43 56.54 56.79 57.20 57.03 57.21 57.33 57.92 54.46 47.22 46.27 54.89 60.81 62.07 60.64 63.64 60.93 56.86 52.43 50.34 47.23 48.06 48.78 46.35 48.66 50.35 51.21 50.34 48.15
58.71 58.22 57.44 56.29 55.53 55.62 55.73 55.35 55.16 55.15 55.18 55.58 55.90 55.90 55.49 55.42 55.41 55.23 55.50 55.77 56.48 56.75 56.79 57.02 57.29 57.85 51.04 41.43 53.14 55.32 55.56 57.05 59.74 61.88 60.83 57.51 53.20 53.84 49.92 49.20 47.98 48.97 48.20 47.79 48.35 48.62 48.22
59.07 58.46 57.85 57.11 55.69 55.46 55.64 55.83 55.64 55.50 55.49 55.62 55.48 55.36 55.46 55.50 55.27 55.29 55.43 55.41 55.83 56.43 56.47 56.74 57.33 54.53 49.08 45.19 52.80 55.19 55.03 56.91 60.74 61.36 58.87 57.93 56.52 54.25 51.44 48.61 50.99 48.67 44.61 46.11 46.86 47.51 47.34
59.42 58.51 58.17 57.16 55.72 55.49 55.65 55.93 55.52 55.64 55.89 55.79 55.32 54.97 55.17 55.08 55.05 55.48 55.57 55.80 55.66 55.83 56.11 56.86 57.54 52.66 44.18 53.32 53.99 53.48 55.48 55.02 59.05 61.59 61.42 60.17 58.47 54.39 52.87 50.41 46.32 42.34 41.59 38.18 43.71 46.05 47.48
59.29 58.15 57.88 57.38 56.07 55.71 55.93 55.77 55.58 55.71 55.97 55.84 55.46 55.20 55.17 54.17 53.59 54.63 55.08 55.31 55.62 56.04 56.67 57.09 52.15 48.36 41.74 57.34 51.47 53.04 54.07 53.18 56.80 58.96 61.00 61.23 57.25 51.93 51.45 44.91 40.85 39.45 35.46 36.56 40.51 45.73 45.42
58.50 58.09 57.93 58.05 57.02 55.97 55.78 55.34 55.27 55.25 55.69 55.57 55.58 55.79 56.17 55.64 54.75 55.06 55.43 55.50 55.19 55.43 54.60 54.35 52.13 45.11 47.69 47.24 52.56 54.34 55.19 55.11 55.36 56.12 56.43 55.88 53.57 47.70 45.34 41.89 35.85 35.76 35.49 36.57 36.74 41.98 43.19
59.15 58.13 58.06 58.02 57.77 56.33 55.64 55.17 55.16 55.30 55.16 55.30 55.49 55.47 55.63 56.13 55.96 55.83 54.25 52.15 46.44 44.44 49.30 44.39 44.19 44.86 47.36 51.82 55.06 53.79 56.85 54.09 55.55 53.75 48.98 52.54 47.80 43.94 44.67 44.90 41.77 40.06 37.05 36.17 39.53 43.86 42.95
59.93 58.83 58.34 57.79 57.93 56.53 55.43 55.23 55.18 55.27 55.37 55.35 55.19 55.04 55.17 55.85 55.72 56.09 53.82 48.80 47.90 48.00 41.72 46.55 46.92 47.16 52.36 52.18 47.16 51.96 57.75 51.80 50.29 46.72 50.33 48.34 44.37 48.03 48.25 44.65 41.94 40.02 37.31 36.28 40.68 44.29 42.00
59.57 59.10 58.64 57.96 57.39 56.87 55.05 55.09 55.33 55.59 55.47 55.19 55.09 55.14 55.74 55.77 55.21 54.73 51.55 50.52 54.05 51.21 40.81 44.36 47.50 45.85 49.11 51.26 48.91 50.15 54.80 52.66 47.88 46.59 47.69 45.24 47.38 49.78 46.50 41.94 41.54 38.90 36.81 36.93 39.20 42.38 41.91
58.86 59.19 58.21 58.09 57.01 57.01 55.65 54.92 55.04 55.38 55.90 56.17 55.67 56.11 55.88 55.24 51.53 53.43 51.31 53.94 54.75 53.61 38.03 38.23 43.02 46.77 50.15 51.80 47.63 53.79 54.54 52.64 49.18 45.16 47.79 45.20 45.70 46.77 45.23 41.90 40.74 36.19 41.90 42.49 40.94 37.40 33.87
58.40 58.74 58.44 57.80 57.32 56.60 56.47 55.70 55.24 55.21 55.89 56.23 56.32 56.12 55.42 55.20 52.95 50.25 53.03 55.25 55.26 50.57 27.40 40.36 43.57 52.90 51.11 47.85 49.06 48.55 53.51 51.71 47.15 46.21 44.20 44.09 43.74 44.04 42.35 41.92 42.46 40.36 44.27 41.02 39.64 35.27 33.31
58.23 58.51 58.67 58.16 57.41 57.02 56.35 56.43 56.21 55.65 56.06 56.13 56.50 56.09 55.18 54.44 54.36 55.11 55.54 55.20 52.01 37.97 27.88 38.74 45.56 45.46 42.37 47.28 46.50 48.53 49.51 52.30 52.48 45.74 43.96 42.26 45.53 44.08 42.99 43.98 44.21 44.76 40.42 38.73 36.24 34.30 29.53
58.42 58.43 58.65 58.37 57.95 57.33 56.89 56.15 55.97 55.94 55.86 55.85 56.21 56.08 54.72 55.51 50.95 55.89 54.90 50.78 37.09 33.64 41.10 39.69 41.04 43.80 42.71 42.58 44.03 46.15 45.15 45.00 42.93 37.72 37.21 40.57 39.34 40.02 43.70 39.54 40.09 39.72 35.67 30.26 29.10 28.65 29.31
59.01 58.45 58.38 58.18 58.17 57.56 57.23 56.74 55.86 55.59 55.66 55.18 55.50 55.64 54.88 53.54 56.24 55.08 52.22 44.68 35.25 38.43 39.24 44.40 43.35 42.90 40.49 43.00 42.79 43.74 42.81 40.11 42.91 39.39 35.50 34.28 33.71 38.59 41.04 40.44 37.98 36.67 36.53 31.22 27.58 27.33 31.02
58.69 58.58 58.33 58.09 58.26 57.73 56.73 56.07 55.57 55.49 55.04 55.17 54.91 51.98 51.32 52.91 55.56 54.13 47.74 39.49 38.15 40.59 42.60 41.93 42.13 39.21 40.33 43.12 42.42 41.49 41.05 40.59 42.14 42.31 37.97 35.11 33.38 39.37 40.89 40.20 41.34 36.77 34.93 38.37 34.13 31.68 30.56
58.30 58.36 58.25 58.15 57.97 57.62 56.82 56.00 55.76 55.62 55.52 55.21 49.10 47.92 50.79 54.16 54.76 51.94 46.46 41.72 43.19 46.16 44.49 44.69 38.57 40.82 38.61 38.87 38.73 40.04 38.88 44.77 45.05 45.95 44.36 38.62 31.97 37.98 39.40 40.65 38.79 37.98 40.05 33.94 33.18 28.28 26.12
57.53 57.75 58.20 57.96 57.72 57.21 56.75 56.29 55.94 55.99 55.69 54.78 47.06 45.52 51.59 54.16 54.34 49.64 42.37 43.19 45.63 47.05 48.09 45.64 43.02 40.87 39.35 39.25 39.46 40.11 41.11 44.33 46.69 45.75 44.97 41.29 37.34 35.39 38.10 36.79 36.64 36.48 34.27 34.43 34.57 32.55 28.34
57.25 57.24 57.79 57.86 57.11 56.65 56.69 56.65 56.13 55.66 55.39 49.58 46.25 41.50 52.52 54.31 43.72 43.55 43.07 46.38 47.47 47.56 49.40 47.38 45.84 43.15 42.60 44.01 41.96 40.64 40.94 43.30 47.12 47.00 43.16 43.08 37.99 32.79 35.44 38.92 39.82 37.88 37.55 35.73 31.40 29.96 30.10
56.96 56.79 57.25 57.43 56.56 56.25 56.40 56.47 56.04 55.17 54.28 45.89 42.79 46.28 52.81 52.21 41.44 39.86 43.70 44.73 46.50 46.41 46.24 47.18 46.18 47.55 46.94 43.98 40.97 42.63 43.02 47.31 47.55 45.99 43.76 44.33 38.20 32.41 33.63 36.94 38.95 37.56 38.39 37.27 36.33 34.61 31.58
56.50 56.38 56.71 57.00 56.50 56.10 56.10 55.98 55.67 55.35 54.79 47.04 43.32 40.69 43.82 43.66 42.61 41.96 41.77 41.26 42.56 47.22 45.94 46.50 46.08 47.25 44.93 42.62 43.84 41.31 41.88 45.29 46.25 45.83 47.41 45.73 38.13 36.18 34.33 35.35 37.95 36.26 38.79 38.25 36.26 31.17 31.43
56.17 55.85 55.91 56.57 56.50 56.26 55.82 55.61 55.45 55.06 54.30 48.24 41.72 39.68 42.01 39.74 39.19 39.42 40.82 42.57 40.62 41.30 45.18 45.94 44.48 44.50 43.59 40.24 40.42 40.02 41.89 42.84 44.81 46.14 43.15 41.65 36.16 36.16 36.52 37.75 37.33 37.75 38.02 38.35 36.35 34.87 33.36
55.94 55.42 55.69 56.03 56.04 56.32 55.05 55.24 55.23 54.61 53.48 44.49 41.14 39.61 40.72 39.28 40.34 38.77 38.62 37.90 39.09 39.99 42.13 42.13 40.93 41.46 42.20 39.58 40.33 40.41 42.08 41.54 41.68 42.67 41.50 41.30 35.99 35.95 33.04 36.45 36.20 34.41 35.79 35.94 36.32 37.29 37.19
55.69 55.10 55.13 54.93 55.38 55.96 55.45 54.96 55.02 54.32 51.03 42.97 43.74 43.59 40.15 39.67 37.60 36.85 36.90 38.33 39.45 41.63 41.97 42.03 42.87 40.83 38.21 38.91 41.11 41.84 43.51 43.33 43.27 41.86 39.72 38.38 35.53 32.96 29.17 34.62 35.12 32.42 35.07 34.50 33.75 34.64 35.62
54.91 54.45 54.49 54.36 54.92 55.42 55.30 55.16 55.02 54.36 50.75 45.48 45.00 43.82 38.35 35.98 37.44 38.22 39.63 39.53 39.16 39.57 39.52 39.42 41.29 39.49 40.54 40.95 40.93 40.81 40.22 40.22 40.26 38.86 39.86 35.89 33.52 32.22 29.07 31.29 26.25 34.32 38.68 39.63 37.10 38.04 37.67
54.12 54.12 53.98 54.38 55.10 55.17 54.91 55.03 55.14 54.60 53.38 45.78 45.84 42.98 38.94 34.96 37.60 38.34 38.24 37.79 37.87 37.59 37.41 37.65 38.04 38.55 39.53 38.51 35.76 34.91 34.70 35.74 36.76 38.38 37.99 36.65 33.48 30.23 28.80 28.00 32.88 35.72 37.83 38.09 36.77 35.72 39.24
53.50 53.80 53.66 54.24 54.70 54.44 54.33 54.60 54.88 54.64 53.32 47.02 45.62 46.34 41.94 37.78 36.44 39.99 37.69 36.16 34.63 34.53 34.13 35.46 38.25 39.82 39.16 37.88 36.76 31.74 30.52 32.73 31.06 33.90 37.48 36.10 35.08 32.65 25.39 25.20 26.51 33.93 38.71 40.53 38.69 30.63 40.01
53.03 53.22 53.36 53.71 53.68 53.62 53.82 53.95 54.44 54.38 53.11 49.98 47.31 47.72 45.69 39.40 39.97 39.57 36.70 37.67 37.22 35.09 33.80 33.88 35.09 36.33 38.85 36.07 34.39 31.29 32.72 34.01 31.39 31.28 30.90 30.19 30.17 28.89 29.13 27.11 30.83 37.29 40.23 40.40 30.56 30.60 39.08
52.55 52.90 52.58 52.67 52.67 52.81 53.11 53.62 53.85 54.16 52.92 50.93 48.32 48.20 47.00 42.08 41.62 43.43 43.18 38.73 38.72 37.66 37.11 37.01 38.33 37.95 36.14 34.78 34.41 32.20 32.28 32.50 30.77 32.15 32.18 31.17 28.17 28.05 28.54 26.13 24.43 39.08 39.54 35.39 37.46 39.04 38.79
51.96 52.09 51.90 51.76 52.14 52.27 52.78 53.23 53.51 54.01 53.45 52.43 47.33 49.07 48.69 45.71 44.38 46.45 46.47 46.06 43.33 43.95 38.85 37.11 39.36 36.68 38.39 35.44 34.10 32.88 31.44 30.19 30.31 29.59 33.25 31.76 35.08 32.94 32.80 31.62 38.73 38.76 39.34 39.85 40.84 39.52 38.36

GFSGBSN_sfc_wetblb_003.txt.gz
Wetbulb
59.77 59.18 58.31 57.38 56.51 56.06 56.15 56.05 55.62 55.36 55.60 55.35 55.69 55.91 55.75 55.70 55.64 55.78 56.38 56.99 57.29 57.55 57.58 57.70 57.85 57.89 53.68 47.05 45.48 53.81 59.27 60.16 58.71 58.28 57.72 57.63 49.98 48.89 46.42 47.23 47.81 45.25 47.94 49.77 50.47 50.16 48.59
60.50 59.46 58.91 58.02 57.35 56.12 56.04 56.22 55.89 55.62 55.57 55.51 55.68 55.51 55.88 55.78 55.65 55.81 55.68 56.26 56.86 57.20 57.19 57.24 57.47 57.57 50.03 40.52 52.35 54.14 53.58 54.76 56.73 56.04 58.92 58.03 52.09 51.70 48.85 48.19 47.41 48.79 48.60 49.07 48.03 47.82 47.05
60.20 59.92 59.03 58.51 57.30 56.17 55.64 55.91 56.20 55.59 55.65 55.79 55.54 55.42 55.41 55.24 55.67 55.73 55.67 55.84 56.19 56.42 56.96 56.85 57.15 53.72 47.95 44.84 51.61 53.44 53.76 53.12 56.47 57.22 58.28 59.59 56.09 53.68 50.51 47.92 51.04 47.94 43.96 45.49 46.53 47.57 46.15
59.75 59.52 58.65 58.22 57.52 56.54 55.71 56.00 56.22 55.87 55.77 56.16 55.53 55.48 55.17 55.05 55.44 55.49 55.84 55.67 55.79 56.12 56.28 56.63 57.08 51.52 43.78 52.81 53.64 52.43 53.53 53.74 56.03 58.75 60.44 59.84 56.94 54.70 50.48 50.02 45.22 42.09 40.84 37.97 43.48 44.81 46.01
59.46 58.83 58.36 58.09 58.01 57.22 56.32 55.94 56.13 56.00 55.45 55.94 55.72 55.48 55.89 56.14 55.45 55.03 55.14 55.47 55.55 55.72 56.24 56.20 50.56 48.47 42.67 54.50 49.71 51.93 52.48 51.29 52.96 56.24 59.65 60.65 57.01 52.26 50.21 44.68 40.15 41.66 34.50 35.99 40.18 43.91 43.27
60.06 59.07 58.27 58.29 58.27 58.31 57.27 55.82 55.69 55.63 55.67 55.16 54.45 55.31 55.74 56.06 56.49 55.88 55.11 55.22 54.80 54.04 53.60 52.84 51.26 44.18 46.33 44.59 50.10 52.07 53.08 52.09 53.42 53.53 55.45 55.52 52.83 46.45 45.64 44.06 39.79 36.82 35.20 36.48 36.19 40.86 41.26
59.87 60.01 58.83 58.57 58.05 58.09 57.21 55.88 55.57 55.55 55.49 55.50 55.29 55.05 55.23 55.64 56.49 56.70 54.15 50.25 44.97 44.72 47.21 43.24 44.53 44.43 45.84 49.71 52.64 50.01 52.48 50.60 52.59 52.02 48.24 52.08 46.86 43.78 44.67 45.10 45.15 40.04 37.53 35.40 37.95 41.63 39.60
59.31 59.53 59.32 58.61 58.22 57.49 57.16 55.80 55.45 55.58 55.72 55.53 55.37 54.78 54.84 55.80 56.08 55.81 52.69 46.36 47.10 47.50 41.33 46.92 46.33 46.65 48.87 51.52 46.74 48.76 53.24 47.54 48.10 44.22 49.50 47.78 44.17 47.75 48.17 45.57 41.83 40.24 36.44 36.30 40.06 42.38 39.64
58.85 59.04 59.21 58.30 58.21 57.31 56.87 55.68 55.08 55.35 55.62 56.04 56.16 55.35 55.65 56.05 55.51 54.26 49.35 48.23 53.79 52.29 41.84 42.56 45.70 45.51 46.79 49.61 45.38 47.73 51.11 49.92 44.98 44.30 46.99 44.19 46.15 50.40 48.38 45.15 41.75 38.73 36.51 36.19 37.05 41.05 40.31
58.57 58.73 58.84 58.65 57.85 57.42 56.67 56.58 55.49 55.30 55.69 56.15 56.27 55.68 55.63 55.64 51.45 52.92 49.60 53.48 54.43 53.47 34.32 36.77 41.87 45.16 47.11 48.14 44.19 52.98 53.10 50.88 45.73 42.58 46.86 46.68 47.78 48.31 46.22 42.55 45.70 41.24 42.05 39.96 39.25 36.73 33.00
58.93 58.70 58.60 58.69 58.23 57.59 57.09 56.42 56.29 56.07 56.03 55.96 56.32 56.10 55.45 55.01 53.20 49.78 52.13 54.21 54.16 50.28 19.72 39.04 42.27 51.74 49.40 44.38 46.62 47.95 54.14 52.22 43.64 43.72 46.60 42.82 44.90 45.63 45.63 45.09 43.33 41.03 42.20 39.78 38.84 35.20 31.67
59.13 58.93 58.77 58.49 58.48 58.04 57.36 56.98 56.29 55.82 56.08 56.01 56.16 56.48 55.76 54.51 53.98 54.19 55.46 54.49 50.57 35.72 27.55 37.34 43.22 41.75 42.78 44.88 46.14 49.08 49.88 52.07 50.68 46.38 45.02 43.31 48.71 48.88 47.04 45.91 42.80 42.96 39.14 37.53 34.97 33.25 28.51
59.11 59.28 59.18 58.74 58.52 58.27 57.89 57.08 56.66 56.33 55.92 55.64 55.61 55.98 55.35 55.53 50.42 55.93 55.31 50.18 36.02 31.50 38.66 37.66 37.68 41.57 40.98 41.40 43.76 46.26 45.97 45.47 42.02 38.77 39.25 39.69 39.49 43.32 43.15 40.56 40.73 38.90 35.57 29.71 28.49 28.28 28.27
58.94 58.91 59.05 59.00 58.22 58.42 58.09 57.35 56.43 55.90 55.85 55.19 55.10 55.28 54.89 53.99 56.73 55.29 51.82 41.48 31.36 36.81 37.04 42.91 42.29 40.89 37.29 42.61 43.44 45.39 43.92 41.87 45.30 41.12 38.75 33.93 34.30 38.12 40.06 39.83 36.87 36.16 36.88 30.76 26.10 26.37 28.54
58.46 58.45 58.41 58.66 58.51 58.42 57.78 57.32 56.78 56.35 55.69 55.29 55.14 51.18 51.65 53.71 56.20 54.64 46.01 33.77 37.52 39.61 42.63 40.57 40.34 36.81 39.20 42.05 43.00 43.06 41.66 41.50 43.55 43.58 38.28 33.25 33.54 38.22 39.37 39.38 41.27 35.31 33.85 37.56 33.42 29.79 28.54
58.20 57.97 57.88 58.29 58.54 57.95 57.30 57.16 56.97 56.56 55.78 55.30 50.09 47.02 49.65 54.12 55.59 51.77 43.62 40.46 42.20 44.59 44.56 42.37 37.16 40.23 37.18 39.16 39.82 40.06 39.82 43.25 42.52 42.59 40.81 37.40 30.87 37.10 38.12 39.77 38.25 37.61 39.48 33.45 31.87 27.42 25.38
57.70 57.51 57.54 58.06 58.29 57.51 56.91 56.90 56.89 56.72 55.76 54.15 46.17 44.38 51.52 55.12 55.07 47.87 41.93 42.13 43.21 46.43 47.24 43.62 40.45 39.71 39.75 38.64 39.67 39.17 39.66 43.45 46.36 45.14 44.19 38.38 35.25 33.76 36.86 35.34 35.12 34.58 32.75 33.25 34.02 31.07 26.99
57.55 57.37 57.30 57.63 57.63 56.94 56.58 56.66 56.67 56.35 55.24 48.96 45.09 40.88 52.39 53.88 45.42 45.53 43.08 46.34 45.69 45.03 49.09 47.51 44.06 41.59 38.61 38.80 38.20 39.12 38.87 41.64 46.74 46.78 41.95 41.14 36.47 31.42 32.90 37.89 38.32 35.54 35.44 34.30 30.41 28.58 28.17
57.42 57.08 56.93 57.12 57.02 56.54 56.21 56.36 56.29 56.14 54.12 45.41 41.90 46.40 52.62 51.24 41.42 41.50 45.72 45.82 47.17 46.77 46.48 45.89 42.27 43.54 44.38 40.58 40.05 40.16 41.38 45.06 46.47 44.98 43.89 43.24 36.30 31.41 32.13 36.27 37.28 35.88 36.15 35.15 34.35 32.77 28.97
57.10 56.70 56.58 56.55 56.58 56.35 56.01 55.79 55.81 55.84 54.70 48.08 42.55 40.76 44.14 47.65 43.60 43.58 41.19 43.19 43.44 47.56 45.87 45.84 45.69 46.14 43.43 41.46 42.59 39.57 40.44 43.74 45.47 45.22 47.10 44.96 37.18 34.11 31.97 33.77 36.59 34.32 36.52 35.64 35.23 30.16 29.95
56.76 56.58 56.33 55.77 56.23 56.30 55.98 55.17 55.44 55.56 54.53 47.69 40.87 39.01 40.72 37.07 39.24 41.50 41.32 42.70 42.03 41.94 45.83 45.48 44.69 45.10 43.25 39.44 39.60 38.98 41.15 41.96 44.28 45.58 42.42 40.88 35.76 35.36 34.68 36.00 36.71 36.54 37.00 35.74 34.14 33.36 32.09
56.39 56.22 56.12 55.80 55.96 55.69 55.86 55.02 55.12 55.03 53.11 44.54 40.17 39.40 40.11 38.55 39.56 39.76 39.88 38.07 38.27 39.36 43.18 42.82 43.04 42.78 43.76 41.18 40.48 39.87 41.36 41.37 41.62 41.89 39.36 39.24 34.11 33.63 30.01 34.06 34.05 32.12 34.01 36.76 35.82 35.54 34.58
56.34 56.06 55.71 55.20 54.90 55.10 55.58 54.98 54.82 54.56 50.57 42.47 43.00 42.97 40.25 39.23 36.90 36.07 37.51 39.35 39.67 40.21 40.81 43.41 42.80 40.64 39.98 39.46 40.40 41.46 42.10 40.87 40.94 40.35 38.11 36.61 33.79 31.43 27.29 31.84 32.19 29.88 33.60 33.48 33.04 33.91 35.30
56.03 55.70 55.01 54.76 54.49 54.83 55.33 55.12 54.72 54.34 49.53 44.96 44.42 42.97 38.46 35.63 36.38 37.06 38.57 38.68 39.58 39.30 38.94 39.14 40.69 39.68 40.60 42.55 40.99 43.00 41.61 40.83 40.59 38.86 38.48 34.35 32.62 31.63 28.66 31.12 25.13 33.84 38.47 38.80 36.31 37.30 37.90
55.87 55.39 54.68 54.44 54.42 54.98 55.15 54.99 54.88 54.49 52.88 44.63 44.77 42.41 38.15 34.38 36.22 36.63 37.15 36.33 37.16 36.90 36.41 37.05 37.82 38.25 40.35 39.00 37.69 36.17 36.34 36.81 37.43 38.25 36.88 37.24 34.73 31.19 30.79 29.20 31.58 34.49 37.50 36.41 36.85 36.00 39.46
55.79 55.02 54.41 54.29 54.39 54.81 54.67 54.65 54.75 54.57 53.02 45.81 44.79 45.13 39.92 37.19 35.89 38.68 36.92 35.75 34.53 33.23 33.87 35.15 37.27 38.79 39.35 37.53 36.29 31.26 29.95 32.72 31.60 34.29 36.97 36.54 35.73 33.90 27.65 26.76 28.01 34.39 38.66 40.73 39.04 32.11 39.00
55.25 54.58 54.26 54.13 54.53 54.51 54.33 54.18 54.45 54.27 53.09 48.89 45.89 46.45 43.71 37.53 38.76 37.88 36.36 36.91 37.08 35.39 33.45 33.23 34.80 35.52 38.03 35.47 33.39 29.06 31.37 33.78 30.75 31.08 30.45 31.00 31.24 30.30 30.71 29.03 32.16 37.53 39.48 40.21 30.66 30.99 38.06
54.60 54.15 53.75 53.90 54.12 53.90 53.85 53.94 54.00 54.05 52.91 50.21 47.34 46.84 45.89 39.99 40.48 42.44 42.25 38.20 37.57 37.04 36.81 36.00 37.51 37.01 35.01 34.79 34.32 33.01 32.28 32.72 31.86 32.07 30.73 30.35 28.38 28.96 29.52 28.01 27.81 38.54 38.57 35.42 36.61 37.92 38.22
53.79 53.52 53.47 53.41 53.50 53.24 53.38 53.66 53.70 53.90 53.17 51.67 46.52 47.89 47.61 43.91 42.54 44.99 44.97 44.34 42.49 42.28 37.33 35.81 38.57 36.13 37.81 34.56 33.09 32.49 31.54 30.59 31.41 30.23 33.28 32.27 34.66 32.51 32.53 31.66 37.76 37.86 38.22 38.88 39.46 38.36 38.03

GFSGBSN_sfc_wetblb_006.txt.gz
Wetbulb
60.96 60.39 59.34 59.09 58.26 57.22 56.39 56.36 56.22 55.92 55.81 55.66 55.61 56.08 56.09 55.99 56.06 55.92 55.89 56.42 56.90 57.45 57.65 57.83 57.85 57.66 53.44 46.82 44.84 51.94 58.07 56.82 57.67 56.72 55.40 56.17 50.38 48.05 45.82 46.39 47.04 44.43 46.67 48.61 49.38 49.41 48.51
60.56 60.20 60.03 59.18 58.80 58.01 56.68 56.09 56.17 56.20 56.12 56.04 55.96 56.00 55.63 55.71 56.01 55.88 55.99 55.67 56.32 56.84 56.96 57.51 57.65 57.33 48.89 41.21 50.66 53.14 52.93 52.16 54.46 54.47 54.98 56.55 53.12 50.38 48.06 47.28 47.14 47.91 48.41 48.60 48.32 48.58 46.77
60.30 59.59 59.43 58.76 58.61 57.87 56.89 55.82 55.93 56.31 56.32 56.17 56.44 56.08 55.95 55.38 55.30 55.56 55.98 55.76 55.70 56.48 56.69 56.87 57.24 53.48 47.65 44.12 50.48 51.95 53.46 51.51 52.69 54.75 52.71 57.01 57.88 52.70 51.19 47.19 49.59 48.11 44.27 46.00 45.59 46.25 46.39
60.24 59.11 58.69 58.27 58.19 58.00 57.22 56.17 56.09 56.40 56.61 56.40 56.54 56.21 55.80 55.74 55.46 55.48 55.62 56.06 55.75 56.31 55.88 56.36 56.70 50.00 42.41 51.89 52.67 51.00 51.35 52.25 53.44 55.74 55.25 59.52 59.77 53.84 51.47 50.47 45.64 43.00 40.64 37.49 43.31 43.83 45.06
60.49 59.92 58.69 58.31 58.19 58.22 58.15 57.41 56.19 56.13 56.24 56.19 55.91 55.17 55.33 55.93 55.98 56.22 55.50 55.47 55.78 55.50 55.50 55.54 50.86 47.64 41.85 53.36 48.70 50.65 50.72 48.48 52.41 54.15 56.74 59.89 56.17 52.09 51.40 45.60 42.10 41.89 38.01 35.95 39.70 43.35 42.72
59.87 60.00 59.72 58.74 58.50 58.22 58.17 58.07 56.56 55.91 55.94 56.07 56.06 55.10 54.57 55.22 55.84 56.10 56.09 54.77 54.59 53.22 52.57 52.25 50.70 42.97 44.36 43.99 48.56 50.38 51.23 50.79 50.98 51.85 51.91 54.62 52.33 47.90 45.73 42.17 38.64 38.91 38.25 35.05 36.17 40.09 39.99
59.37 59.24 59.45 59.20 58.58 58.33 57.46 57.85 56.62 55.99 55.97 56.11 56.27 56.00 54.67 54.87 55.15 56.48 55.26 51.44 44.46 42.84 46.13 42.40 41.97 42.42 45.20 47.74 51.24 48.99 50.46 48.96 49.87 48.49 45.66 51.01 46.66 43.53 43.94 46.98 42.74 40.86 36.93 37.42 38.10 40.75 37.74
58.89 59.02 59.09 59.04 58.41 58.21 57.29 57.10 56.51 55.73 55.91 56.00 56.71 56.25 55.08 54.76 55.84 56.38 53.08 45.49 44.77 46.89 39.43 45.03 46.44 44.46 47.81 49.55 44.91 47.20 51.00 46.05 46.22 38.61 46.79 47.86 42.98 47.30 46.57 46.27 45.07 40.63 39.14 35.50 39.81 40.79 38.06
58.68 58.89 58.68 58.79 58.64 57.98 57.33 56.71 56.67 55.78 55.58 55.84 56.55 55.63 55.41 55.49 56.06 54.68 49.59 46.98 53.20 50.83 40.80 41.66 44.70 45.01 45.75 47.99 43.96 44.67 48.73 47.23 43.43 38.19 43.76 43.29 46.37 49.33 47.31 42.86 42.61 40.22 38.73 37.00 37.84 39.55 39.16
58.94 59.05 58.84 58.65 58.62 58.32 57.66 56.95 56.40 56.35 56.07 56.28 56.25 55.47 54.93 55.67 52.00 52.22 48.58 52.22 53.51 51.60 34.66 36.57 39.86 43.66 46.73 46.77 42.05 49.50 50.40 48.07 44.28 37.96 44.09 45.85 48.31 47.61 46.33 43.76 44.17 40.00 41.41 42.01 38.84 35.82 31.77
59.23 59.26 59.22 58.88 58.42 58.52 58.02 57.56 56.86 56.31 56.47 56.46 56.41 55.97 55.86 55.70 51.90 49.79 52.27 53.22 53.18 49.01 21.69 37.76 40.55 49.21 47.21 42.61 43.88 45.81 50.53 48.27 41.92 40.86 45.23 43.57 45.09 45.38 44.72 45.15 45.52 42.25 43.51 41.72 40.50 34.15 30.17
59.40 59.25 59.53 59.23 58.96 58.55 58.28 57.89 57.43 56.83 56.57 56.07 56.19 56.34 55.96 53.97 53.63 53.68 54.43 53.46 49.27 34.46 23.71 34.84 41.77 40.07 40.42 41.93 43.95 46.77 47.41 50.93 48.79 43.68 43.94 42.38 47.47 47.41 47.19 47.07 45.95 45.04 41.34 39.22 36.70 32.97 28.00
59.36 59.04 59.29 59.29 59.02 58.62 58.35 58.08 57.64 56.97 56.59 56.21 55.89 55.74 54.68 55.33 50.22 55.40 53.75 48.18 33.47 28.16 37.25 35.09 36.04 39.68 39.61 38.64 41.48 43.18 41.62 41.34 39.73 36.41 37.71 38.43 43.87 44.56 47.24 41.50 42.45 41.87 38.78 32.05 29.36 27.69 27.65
59.16 58.87 58.74 58.50 58.57 58.76 58.25 57.98 57.55 57.25 56.61 55.96 55.48 55.20 54.47 54.32 55.89 54.61 50.20 39.10 29.44 34.82 33.93 40.83 39.43 38.80 36.40 39.95 41.03 41.40 41.35 40.72 43.92 38.37 38.65 36.03 34.77 38.78 41.17 42.87 39.95 39.47 37.01 29.99 26.00 25.83 27.67
58.61 58.30 58.44 58.31 57.85 58.54 58.30 57.53 57.22 57.22 56.55 55.84 55.09 51.29 51.49 53.61 55.91 52.98 42.59 32.46 33.83 37.53 40.20 39.62 38.97 34.54 36.05 39.81 41.33 41.93 40.85 40.35 43.24 41.91 35.76 35.83 34.73 37.33 39.78 39.94 44.12 35.28 34.97 36.65 31.69 27.73 27.82
58.45 57.98 57.96 57.78 57.53 58.16 58.23 57.08 56.89 57.04 56.44 55.62 49.56 46.59 48.22 54.53 55.74 49.72 39.64 35.37 39.75 44.54 42.74 40.86 34.27 37.84 36.05 37.51 39.19 38.89 39.77 44.75 43.53 43.73 41.09 36.94 30.35 37.96 37.19 40.96 39.44 37.93 39.77 32.75 31.49 26.96 25.12
58.20 57.75 57.60 57.62 57.54 57.57 57.49 56.72 56.67 56.91 56.35 54.45 47.03 42.79 51.63 54.82 54.15 46.08 36.78 36.66 43.33 45.87 44.34 41.51 39.01 37.39 39.10 36.92 39.99 38.19 38.84 43.09 44.85 41.29 40.56 37.06 33.86 34.60 37.12 35.19 35.11 34.42 32.89 32.36 33.73 30.50 26.62
57.87 57.58 57.17 57.54 57.01 56.98 57.05 56.43 56.43 56.56 55.29 48.87 43.81 40.78 52.98 53.71 44.14 45.15 40.19 45.80 45.45 45.57 48.17 45.74 44.68 42.72 40.10 38.85 39.71 39.58 39.36 41.15 45.86 44.56 39.75 39.72 34.19 30.64 34.49 36.72 37.30 34.70 34.45 34.24 30.72 27.20 26.79
57.78 57.23 56.95 57.08 56.35 56.25 56.49 56.41 55.97 56.10 53.92 44.12 41.40 47.34 52.67 51.92 41.54 42.33 45.66 44.61 45.99 45.10 45.90 45.55 41.13 43.77 42.81 39.59 38.76 41.77 42.76 44.90 45.73 44.15 41.63 41.36 34.54 30.56 33.53 35.51 36.25 34.67 34.00 33.72 32.91 31.17 26.69
57.50 56.98 56.76 56.65 56.01 55.79 56.00 55.94 55.25 55.64 54.73 45.33 44.55 41.37 46.80 48.12 46.37 43.22 43.07 42.64 43.56 47.59 46.29 46.17 43.02 43.62 42.77 40.88 41.66 39.25 40.47 43.82 45.28 44.42 47.21 45.33 36.71 33.43 31.31 32.55 35.89 33.13 34.27 33.45 34.17 28.95 28.54
57.08 56.83 56.55 56.51 56.18 55.68 55.75 55.44 55.09 55.36 54.98 46.69 40.77 41.25 43.58 38.84 40.95 41.86 43.20 44.19 42.85 42.16 45.70 45.83 42.97 42.82 40.84 38.04 38.31 38.37 39.76 40.84 42.81 45.75 41.70 42.05 35.33 34.12 33.22 35.86 36.52 35.97 36.12 33.98 33.29 34.13 32.46
56.81 56.79 56.36 56.24 56.11 55.82 55.46 55.11 54.89 55.05 53.13 44.08 39.78 39.62 40.97 38.05 40.37 40.74 39.93 39.74 39.88 40.55 42.55 43.06 41.89 42.28 41.51 40.69 39.34 38.52 40.07 39.67 39.44 39.95 39.24 40.38 34.34 33.52 29.72 33.43 32.65 32.40 35.08 34.44 34.05 33.43 32.09
56.64 56.51 56.28 55.84 55.61 55.41 54.79 54.79 54.79 54.66 51.09 42.54 41.62 44.32 42.01 39.36 38.15 38.33 39.26 39.91 39.96 41.28 41.94 42.68 42.80 42.20 38.75 40.04 39.61 40.76 40.36 39.61 41.04 40.65 37.59 35.75 33.80 32.42 28.42 31.20 30.78 28.97 32.54 34.45 34.04 34.23 35.80
56.30 56.25 55.97 55.46 55.14 54.76 54.37 54.76 54.93 54.41 50.50 44.38 43.23 42.57 37.82 36.36 38.11 38.06 39.76 40.02 38.92 39.47 39.49 39.27 41.14 41.86 40.29 41.74 41.99 42.35 41.60 40.25 39.52 37.52 37.61 34.69 32.61 31.05 26.31 28.78 22.42 31.55 36.11 35.44 34.58 34.66 35.85
56.13 56.02 55.88 55.33 54.93 54.35 54.35 54.85 55.00 54.53 52.76 43.72 43.65 41.86 37.78 34.11 35.75 35.62 36.74 36.33 36.12 36.44 37.15 37.77 38.14 39.39 41.47 40.27 38.36 38.61 36.49 37.28 36.31 36.41 36.14 36.61 33.95 29.96 28.65 26.17 30.34 33.78 35.16 35.68 35.76 34.81 38.45
55.75 56.03 55.68 55.14 54.37 53.80 54.26 54.77 54.86 54.46 53.28 44.68 43.87 43.95 39.14 36.36 35.25 37.35 35.79 35.06 33.78 33.03 33.79 35.83 37.34 39.17 40.24 39.49 37.17 33.57 33.17 34.65 31.51 32.66 36.04 35.84 35.34 32.75 26.11 25.47 25.83 32.92 37.62 39.72 39.83 33.18 39.95
56.05 55.76 55.34 54.59 54.02 53.86 54.46 54.39 54.49 54.31 53.22 47.59 44.57 45.51 41.47 36.70 37.91 37.36 35.46 36.03 35.91 33.68 32.07 33.04 34.36 36.01 37.99 35.70 33.62 32.07 31.53 33.35 30.38 30.52 30.31 31.12 30.99 29.80 30.93 28.85 31.44 37.01 39.49 40.05 31.58 32.70 39.30
54.24 55.32 54.73 53.99 53.78 54.17 54.43 54.18 54.12 54.08 53.04 49.64 45.96 45.78 44.50 38.80 39.10 41.92 41.55 37.27 36.66 36.17 34.20 34.84 36.82 36.65 35.29 34.47 33.86 32.24 31.28 32.52 31.16 31.36 29.89 29.93 27.89 28.02 29.04 27.26 27.22 37.84 38.42 35.14 36.64 37.42 38.55
53.16 54.80 54.01 53.24 53.30 53.86 53.88 53.96 53.95 53.91 53.54 51.17 45.20 46.77 46.71 42.25 41.58 43.93 43.98 43.74 41.99 41.57 36.57 35.25 37.04 35.46 37.36 34.59 33.41 32.93 31.43 30.34 31.63 30.45 33.49 31.34 33.35 31.33 32.49 32.19 37.71 37.18 37.70 38.74 39.42 38.26 37.71

GFSGBSN_sfc_wetblb_009.txt.gz
Wetbulb
61.63 60.50 60.38 60.18 59.54 58.73 57.57 56.36 56.10 56.32 56.21 56.22 55.92 55.69 56.02 55.95 56.42 56.23 56.15 56.02 56.80 57.29 57.70 57.90 58.11 57.95 53.37 47.68 46.17 52.56 57.34 56.05 54.97 57.37 53.97 53.76 53.28 50.22 48.70 48.68 48.27 46.09 48.30 49.50 49.99 50.10 49.78
61.37 60.33 59.67 60.13 59.30 59.25 58.26 56.79 55.88 56.13 56.21 56.34 56.26 56.07 56.10 55.78 55.75 56.27 56.06 56.02 55.98 56.58 57.28 57.25 57.53 57.11 49.61 41.67 51.24 53.93 52.43 52.31 51.80 54.89 53.75 54.64 54.42 51.91 49.36 48.74 49.21 49.56 49.64 50.39 50.21 50.71 49.36
60.99 60.18 58.98 59.05 58.52 58.43 58.17 57.14 55.94 55.92 56.29 56.82 56.46 56.72 56.42 55.93 55.81 55.67 55.78 56.04 55.92 55.86 56.63 57.01 57.04 53.33 47.91 44.66 51.43 52.41 52.94 51.73 52.07 53.60 52.05 55.25 56.97 52.12 51.13 48.22 50.46 49.67 47.11 48.08 48.17 49.10 48.95
60.11 60.37 59.53 58.74 58.56 58.12 58.20 57.64 56.71 56.09 56.50 56.78 56.74 56.69 56.48 55.95 56.15 55.98 55.75 55.80 56.18 56.22 55.74 56.27 56.05 50.54 43.22 52.35 53.37 51.56 51.11 50.25 52.38 53.46 54.77 55.49 57.17 54.59 51.52 51.30 48.13 46.69 45.52 42.89 47.63 46.84 47.24
59.80 59.92 60.22 59.36 58.77 58.48 58.23 58.37 57.93 56.70 56.22 56.45 56.63 56.35 55.49 54.91 55.59 56.34 56.46 55.81 55.70 55.72 55.33 54.66 50.31 48.12 41.52 53.07 49.00 50.52 50.70 47.71 50.99 54.10 54.80 55.85 54.98 53.08 51.58 45.51 41.95 42.99 39.77 40.05 43.61 46.73 46.72
58.88 59.33 59.81 59.73 59.29 58.88 58.65 57.82 58.40 57.24 56.23 56.07 56.75 57.08 56.41 54.98 55.04 55.32 56.26 56.09 54.73 53.79 52.64 52.14 50.14 43.15 45.37 43.83 48.70 50.24 50.42 49.97 48.04 51.71 51.18 51.56 50.89 48.58 47.81 44.58 38.15 37.59 39.95 39.82 39.82 43.88 43.27
58.48 59.33 59.29 59.61 59.59 58.71 58.64 57.80 57.70 57.27 56.23 56.52 56.93 56.75 56.64 55.30 54.34 55.16 54.81 52.58 45.24 44.07 46.49 41.84 42.47 41.77 44.98 47.43 50.69 48.71 49.99 47.92 47.55 49.11 41.98 47.52 45.48 43.31 44.80 46.96 44.97 41.64 41.59 41.35 42.33 43.60 41.74
58.56 59.32 59.19 59.62 59.18 58.77 58.13 57.90 57.08 56.96 55.96 56.05 56.81 56.67 56.40 55.61 55.20 55.36 54.61 45.81 44.80 45.69 38.72 44.87 45.19 44.75 47.27 49.47 44.50 47.03 49.80 43.18 43.34 41.15 43.24 44.27 42.02 47.36 47.82 46.77 44.06 41.55 40.10 39.17 41.59 42.69 41.91
58.50 58.83 59.50 59.45 58.99 58.89 58.48 57.83 57.05 56.60 56.41 55.75 56.36 56.46 55.27 54.22 55.24 54.68 51.10 48.68 51.80 50.68 39.26 41.66 43.56 44.32 45.42 46.30 42.99 44.40 46.60 44.94 43.55 39.57 40.42 40.40 45.09 49.17 47.12 45.13 44.24 41.71 40.14 39.21 40.35 41.52 42.01
58.84 59.22 59.94 59.46 58.98 58.67 58.75 58.19 57.50 56.73 56.50 56.57 56.55 56.51 55.95 54.90 52.57 52.36 49.11 52.45 52.18 49.73 33.78 36.75 38.62 42.18 46.09 46.82 41.20 48.04 48.53 45.94 43.92 38.31 40.02 43.47 47.84 46.84 45.93 43.50 44.79 40.85 42.92 43.32 40.67 40.33 36.52
58.51 59.16 59.64 59.56 59.22 58.96 58.51 58.30 57.99 57.38 56.88 56.45 56.55 56.56 55.96 54.81 51.60 49.37 51.25 52.37 51.64 46.67 23.19 37.88 39.22 48.81 46.74 41.82 43.01 44.10 49.55 46.62 41.36 38.98 42.41 42.26 46.00 44.70 43.82 44.47 45.48 42.68 45.47 43.96 42.46 38.95 35.49
58.90 59.27 59.47 59.38 59.21 59.07 58.47 58.16 58.27 57.73 57.24 56.63 56.22 56.14 55.70 53.46 53.20 53.13 53.80 52.87 49.19 32.46 23.11 35.13 40.91 40.00 40.00 41.80 42.57 45.02 44.60 48.20 48.61 41.32 42.99 44.27 48.58 48.45 46.98 47.05 47.16 42.71 41.58 40.46 38.63 36.24 31.20
58.01 58.90 59.16 59.13 58.81 58.72 58.33 58.32 58.40 57.81 57.36 56.69 56.25 56.10 54.28 54.27 49.84 54.68 53.08 47.04 32.29 26.81 36.53 34.30 35.92 39.22 37.94 36.77 39.05 40.61 39.59 38.75 37.81 33.80 34.58 41.43 44.77 47.34 48.94 42.30 43.56 42.78 41.18 34.19 30.79 30.04 30.64
58.33 58.30 58.65 58.83 58.47 58.23 58.28 58.36 58.08 57.73 57.49 56.59 55.93 55.45 54.24 53.03 54.79 53.26 50.16 38.94 27.71 34.70 32.32 39.38 38.10 37.77 35.40 37.80 39.31 39.58 37.99 35.05 41.49 39.22 35.10 36.28 36.48 41.54 46.46 43.32 40.39 41.86 41.10 34.13 28.59 28.19 30.70
57.89 58.06 58.15 58.22 58.19 57.91 58.01 58.27 57.70 57.27 56.84 56.44 55.59 51.47 50.92 52.39 55.10 52.67 42.25 31.00 31.80 35.93 36.12 37.31 36.91 33.20 35.05 37.75 39.51 38.37 37.14 36.48 40.32 41.13 34.88 35.37 35.34 40.37 42.53 43.14 44.78 37.90 38.12 40.12 32.94 31.79 30.83
57.70 57.70 57.97 58.16 57.82 57.66 57.60 57.90 57.26 56.97 56.72 55.94 49.64 47.62 48.73 53.86 54.22 47.83 36.30 34.26 36.64 39.50 40.78 39.33 31.36 34.68 30.88 35.12 35.06 36.95 36.13 41.48 41.90 43.88 41.38 38.77 31.73 37.86 38.21 42.25 40.29 41.16 42.48 35.72 34.17 29.28 27.70
57.66 57.55 57.90 58.05 57.65 57.06 57.11 57.41 56.75 56.61 56.73 54.40 48.39 42.46 51.61 55.09 51.16 43.06 33.99 35.14 39.55 45.19 42.27 38.28 37.12 35.21 36.19 34.82 36.36 36.36 36.04 43.15 45.47 43.51 40.15 36.91 34.74 33.47 37.67 37.10 35.02 36.54 36.61 36.00 36.03 33.13 29.89
57.00 57.56 57.70 57.60 57.08 56.65 56.66 56.92 56.53 56.14 54.14 50.31 42.10 41.96 53.15 52.39 41.66 40.95 37.73 40.80 43.87 42.98 44.86 42.30 41.51 40.92 37.68 37.70 35.46 39.07 38.15 42.12 47.25 43.89 37.40 38.05 34.69 30.48 33.25 37.77 38.85 37.66 37.01 37.36 32.76 29.54 29.46
55.86 56.96 57.61 57.22 56.60 56.06 56.09 56.43 56.22 55.30 54.29 43.51 41.36 46.52 53.30 51.28 37.83 38.01 41.82 43.13 45.26 43.69 44.52 43.92 40.86 42.41 41.33 38.96 37.58 41.56 41.87 45.25 46.08 43.98 39.93 40.37 34.64 30.71 34.38 37.16 38.01 35.54 35.14 36.18 34.75 33.17 28.69
54.91 57.00 57.08 56.83 56.36 55.77 55.57 55.71 55.73 55.03 54.36 45.54 44.01 42.79 46.43 46.88 46.54 43.19 42.85 41.91 42.27 47.57 46.35 46.76 42.21 43.48 40.81 39.48 41.18 39.78 41.97 44.22 46.12 45.66 47.27 44.49 36.22 33.98 31.76 33.44 35.96 33.79 33.78 34.08 36.76 31.30 30.66
52.70 56.52 56.82 56.62 56.48 56.05 55.49 55.35 55.35 54.90 54.85 47.96 42.38 39.06 44.90 40.23 41.89 42.74 44.55 43.42 42.01 41.68 46.30 46.09 43.23 42.21 41.51 37.58 38.86 38.46 41.89 41.78 43.79 46.12 43.29 42.35 35.77 34.93 33.06 36.39 36.85 36.40 35.72 34.11 34.34 36.70 34.86
52.01 54.58 56.49 56.44 56.45 56.15 55.37 55.10 54.93 54.65 53.97 46.40 39.26 37.27 39.46 39.82 40.09 42.86 42.08 42.56 41.62 41.97 42.44 42.57 41.83 42.29 42.49 40.65 39.65 37.77 40.10 41.26 40.33 40.46 40.58 40.45 34.76 33.91 30.93 34.22 35.41 34.97 35.95 36.56 35.95 34.04 34.58
51.15 52.45 56.03 56.44 56.32 55.92 55.16 54.56 54.59 54.67 51.82 42.50 41.50 41.60 39.76 40.43 38.46 40.08 39.94 41.36 41.72 42.19 43.53 41.72 43.31 41.51 41.38 40.05 39.93 42.18 43.02 41.98 43.55 39.91 37.73 38.45 34.91 32.92 30.40 32.48 32.82 30.89 33.80 34.84 35.91 35.24 38.06
50.86 51.67 53.04 56.33 55.86 55.44 54.76 54.23 54.42 54.72 50.78 44.19 42.48 41.70 38.41 37.92 38.09 38.76 39.85 40.93 41.31 41.23 42.45 39.18 41.10 40.96 40.15 41.50 40.90 42.02 41.29 40.50 42.77 37.84 39.02 36.40 34.84 33.08 28.07 30.36 24.13 34.18 36.41 37.78 36.84 35.50 36.70
50.04 51.44 52.18 56.13 55.54 55.02 54.46 54.12 54.56 54.94 53.15 44.85 43.37 42.13 38.01 35.61 37.66 37.47 38.66 37.11 37.24 38.17 37.57 37.94 38.32 39.34 41.86 40.96 40.82 39.28 38.88 37.30 36.78 36.23 36.56 36.59 34.69 30.58 28.38 26.72 31.01 34.45 35.37 34.76 35.69 34.89 37.71
49.88 50.61 51.39 55.81 55.13 54.53 54.07 53.93 54.59 54.90 54.15 45.18 43.28 43.74 38.46 36.07 35.35 36.78 36.13 35.98 35.53 34.01 35.87 36.40 39.03 41.28 42.79 40.58 37.57 35.15 34.14 35.75 32.47 33.90 36.18 36.56 36.43 35.12 28.51 26.14 26.98 34.24 38.01 40.08 40.09 33.21 39.63
49.34 50.53 51.40 55.36 54.92 54.16 53.72 53.73 54.49 54.59 53.71 47.89 44.38 44.77 40.27 36.83 37.53 35.55 35.00 36.06 36.22 34.20 34.63 35.32 36.69 38.38 41.46 38.43 34.26 32.22 32.39 34.30 31.29 30.91 31.52 32.01 31.70 30.46 31.35 28.55 31.85 37.75 39.61 39.95 32.18 34.51 39.98
47.67 48.63 50.14 54.48 54.49 53.88 53.78 53.93 54.28 54.29 53.72 50.13 45.77 45.26 42.97 39.19 39.51 40.30 39.84 36.14 36.32 35.08 34.52 35.34 38.01 37.66 37.52 36.93 36.52 33.39 33.39 32.63 31.39 31.85 31.23 31.81 29.73 29.28 29.82 28.07 27.63 39.07 39.31 35.90 37.82 38.28 38.96
47.60 48.67 49.35 53.54 53.83 53.57 53.78 54.15 54.18 54.12 53.76 51.79 45.45 45.93 45.66 41.33 41.56 43.34 43.24 42.04 40.79 40.21 35.70 34.86 36.39 35.35 37.33 34.97 33.38 33.13 31.30 30.94 32.00 30.65 33.43 31.27 33.59 31.84 32.51 32.07 37.55 37.52 38.32 38.76 39.49 38.37 38.51

GFSGBSN_sfc_wetblb_012.txt.gz
Wetbulb
61.31 62.15 60.64 60.30 60.85 59.95 59.49 58.19 57.10 56.78 56.98 56.80 56.66 56.23 55.80 55.86 55.43 55.84 55.88 55.93 56.12 57.32 57.73 58.10 58.37 58.26 55.83 48.87 48.43 57.76 56.87 56.51 57.14 57.97 55.80 53.18 53.18 53.84 51.13 53.67 54.02 51.25 53.03 53.85 54.72 54.28 53.91
60.86 61.81 60.49 59.70 59.82 59.65 59.50 59.16 57.65 56.64 56.78 56.81 56.97 56.49 56.16 56.03 55.76 55.39 55.80 56.00 56.34 56.13 57.29 57.76 57.89 57.69 51.68 42.40 54.99 56.33 56.73 55.38 53.77 55.71 54.57 54.27 54.10 55.86 53.97 53.80 52.79 54.04 53.46 53.52 54.54 54.24 54.61
60.12 60.66 60.74 59.84 59.27 58.86 58.74 58.93 57.91 56.75 56.51 56.69 57.44 56.81 56.93 56.41 56.13 56.06 55.45 55.98 56.20 56.12 56.42 57.33 57.27 55.13 48.98 46.90 54.32 54.93 54.08 53.36 54.53 53.90 53.22 55.44 56.26 54.75 54.93 52.35 56.03 54.60 50.28 52.58 53.38 53.89 53.23
59.85 60.43 60.33 60.31 59.56 58.99 58.59 58.56 58.30 57.52 56.70 56.77 57.24 57.18 57.08 56.62 56.17 56.08 55.86 55.93 56.08 56.56 55.94 56.20 55.97 53.36 44.46 53.62 56.15 53.66 54.22 52.64 54.88 54.52 55.14 56.48 56.10 53.56 52.26 55.51 53.29 50.52 51.09 46.37 52.11 53.43 53.80
59.63 60.10 59.83 60.04 60.31 59.52 59.00 58.90 59.05 58.47 57.62 56.78 56.89 57.67 56.89 56.15 55.71 55.80 56.19 56.62 56.25 56.13 55.86 55.76 52.25 49.54 43.08 53.52 49.86 53.21 53.91 49.87 52.27 52.87 53.62 54.93 53.39 50.77 52.38 46.31 46.10 49.34 43.82 45.57 48.04 53.04 52.21
59.31 59.34 60.00 59.97 59.81 59.82 59.55 59.02 58.57 58.23 58.46 57.12 56.92 57.27 57.36 56.90 55.66 55.22 55.23 55.94 56.42 55.18 53.99 53.28 51.93 45.20 46.98 44.61 49.79 51.07 53.16 51.28 48.71 50.71 49.05 49.85 47.57 46.85 48.44 45.01 38.77 42.25 43.80 45.67 46.04 49.51 48.59
59.09 59.04 59.71 59.47 59.77 59.55 59.35 58.99 58.56 57.63 58.19 57.64 57.09 57.04 57.23 57.09 56.25 54.56 53.96 51.94 45.61 44.55 47.29 43.63 43.41 43.37 45.51 49.63 52.31 49.59 51.57 48.95 48.52 46.99 41.30 47.13 41.25 39.14 44.99 48.49 47.79 47.35 45.87 45.19 48.02 49.70 47.01
59.47 59.21 59.60 59.37 59.49 59.66 59.34 58.79 58.42 57.60 57.50 57.37 56.88 56.93 57.08 56.92 56.27 55.56 53.97 46.72 46.27 47.29 40.77 46.10 45.94 45.85 48.81 49.52 44.57 47.65 51.71 44.01 43.04 38.44 42.36 42.31 38.79 44.81 48.24 48.82 47.69 47.66 44.75 44.05 48.26 47.32 46.76
59.34 58.99 59.42 59.79 59.88 59.66 59.27 59.03 58.41 57.73 57.10 57.39 56.54 56.58 56.74 55.89 54.61 53.45 51.97 50.08 52.35 51.02 39.38 41.63 44.49 44.33 45.44 47.50 43.38 45.05 48.29 44.84 41.11 39.35 38.17 39.30 40.99 47.51 46.74 46.49 45.71 46.04 43.58 44.99 45.08 46.46 48.22
58.88 59.20 59.45 59.54 59.45 59.26 59.20 59.36 58.71 58.07 57.58 57.01 56.75 56.62 56.64 55.76 51.69 53.21 50.29 51.08 51.02 50.10 33.06 36.20 40.04 42.63 46.14 47.10 41.55 48.50 49.59 44.96 42.91 38.68 39.35 40.85 45.35 45.16 45.77 44.59 47.21 41.75 48.59 47.26 45.38 43.74 41.23
59.03 59.01 58.97 58.97 58.82 58.81 58.81 58.80 58.56 58.36 57.96 57.03 56.71 56.73 56.51 55.30 51.75 48.95 51.10 51.20 50.49 46.60 24.36 38.65 39.52 48.43 46.20 42.34 43.84 44.22 50.53 45.46 40.16 40.57 39.25 38.60 41.04 44.09 43.73 44.85 48.23 45.50 49.11 47.47 46.19 43.56 41.51
58.31 58.63 58.43 58.78 58.64 58.44 58.52 58.68 58.49 58.38 57.86 57.27 56.63 56.47 55.91 54.09 53.63 52.66 52.53 51.14 47.96 32.31 24.29 35.44 40.32 39.52 39.60 41.78 41.95 44.87 45.34 47.26 46.82 41.88 41.00 41.76 48.31 45.14 47.81 48.40 49.20 47.84 45.88 45.19 44.52 41.40 37.94
57.35 57.98 58.14 58.27 58.75 58.40 58.16 58.20 58.24 58.11 57.74 57.22 56.82 56.20 54.77 54.09 48.99 55.14 51.95 46.45 32.24 28.03 37.16 35.15 36.08 39.22 37.92 36.66 38.72 40.32 40.27 38.61 35.87 34.84 34.87 37.99 42.40 47.52 49.94 44.87 44.92 46.94 43.53 36.39 34.97 34.87 36.48
56.43 57.10 57.95 58.30 58.45 58.09 57.97 58.06 58.16 58.27 57.73 56.98 56.57 55.91 54.77 53.73 55.40 54.87 48.68 38.33 28.84 34.10 33.98 38.98 38.48 38.19 34.89 38.28 38.04 39.51 38.29 35.26 39.68 39.53 35.83 32.83 35.80 45.09 49.18 46.74 41.03 42.19 44.94 39.20 32.12 34.42 37.72
54.29 57.05 57.23 57.55 57.96 57.98 57.90 57.78 57.80 57.74 57.03 56.52 56.21 53.35 52.16 53.79 55.33 52.18 42.37 31.44 32.57 35.82 37.38 36.70 37.70 34.09 34.00 37.65 36.83 38.34 37.42 36.37 37.91 39.89 35.09 34.05 36.27 44.90 47.96 46.87 46.53 41.31 39.77 45.13 38.43 38.50 37.95
52.64 54.15 56.88 57.28 57.77 57.83 57.65 57.57 57.43 57.48 56.60 56.36 50.38 48.69 48.38 53.15 54.23 48.92 36.66 34.83 36.48 40.58 38.50 39.74 33.33 36.41 33.08 35.72 35.27 36.73 36.39 39.74 38.30 42.75 44.83 39.18 33.35 41.55 42.15 46.73 42.57 44.70 47.91 38.22 40.34 33.33 32.39
51.98 54.13 56.65 56.91 57.19 57.03 57.19 57.19 57.20 57.02 56.69 54.95 49.88 44.08 51.43 53.83 51.20 41.48 33.73 36.19 39.22 43.04 40.88 39.02 36.89 35.76 36.97 36.13 35.95 36.81 36.79 40.98 42.56 43.64 45.61 43.87 40.86 34.78 41.47 40.42 41.00 43.34 41.59 42.30 42.62 39.81 37.03
52.06 53.05 56.11 56.73 56.64 56.65 56.91 56.72 57.05 56.63 54.66 51.52 48.51 42.55 52.33 51.46 39.70 39.17 35.62 38.88 42.48 42.14 42.96 42.12 42.25 40.12 38.02 38.75 34.53 36.78 37.33 41.00 45.40 46.56 41.79 44.76 43.01 37.26 37.12 42.14 45.39 46.74 43.84 43.80 39.17 35.45 38.56
51.44 52.23 54.34 56.41 56.29 56.26 56.42 56.40 56.59 56.31 53.58 47.19 45.12 46.34 50.73 49.58 37.25 36.78 39.64 40.38 41.13 41.75 41.18 40.23 41.44 42.92 42.55 38.78 35.12 37.79 41.87 45.27 46.90 46.14 44.23 44.76 41.55 35.72 35.49 39.71 41.38 42.21 43.67 46.00 45.06 41.26 39.03
51.14 51.64 52.70 55.46 56.03 55.97 55.88 55.81 55.90 55.86 55.33 49.33 46.37 41.88 45.81 47.39 46.04 41.36 38.98 39.42 39.89 46.12 44.11 45.21 44.79 45.74 42.08 39.32 42.05 39.24 42.71 45.84 48.24 47.51 47.96 46.42 42.73 40.55 36.59 39.48 43.16 40.18 42.32 44.83 44.56 39.65 40.00
51.12 51.23 51.88 52.75 56.00 56.08 55.73 55.37 55.54 55.48 54.51 49.20 45.62 44.28 45.59 38.90 40.44 41.71 42.65 41.69 40.99 41.50 45.87 46.90 44.15 44.28 42.14 38.64 40.15 41.10 43.68 44.17 46.95 47.95 46.87 45.89 40.16 41.85 40.94 41.99 43.31 42.04 41.36 41.22 41.22 43.38 39.99
50.30 50.85 51.55 52.07 54.39 56.15 55.66 55.06 55.17 55.11 54.35 47.67 43.86 42.84 44.79 45.27 45.24 42.51 41.07 41.95 41.41 42.89 43.53 42.66 42.62 44.54 44.77 41.77 42.67 41.37 43.01 44.36 43.44 46.56 45.53 44.97 40.54 40.12 37.89 40.09 41.72 40.12 42.14 42.51 43.06 43.83 43.67
49.59 49.69 50.80 51.96 52.92 55.91 55.48 54.76 54.82 54.84 52.64 46.62 46.80 46.48 44.60 43.89 41.81 41.98 41.63 41.90 42.64 44.24 43.70 44.25 45.53 44.29 42.83 45.37 47.77 48.64 49.22 48.82 47.46 45.04 44.43 44.39 41.76 39.14 36.76 38.13 38.81 36.54 40.97 41.34 42.49 44.32 43.57
48.62 49.74 50.06 51.06 52.33 54.97 55.23 54.67 54.46 54.57 52.42 48.23 47.49 47.14 43.06 40.84 40.51 40.97 42.06 43.87 42.95 43.96 43.46 41.06 44.56 44.26 43.96 44.55 46.97 48.83 47.61 44.09 46.50 43.54 47.92 43.23 42.23 39.69 35.49 36.33 30.67 41.63 42.28 45.55 43.59 44.81 45.46
48.38 48.87 50.25 50.95 51.29 54.62 55.12 54.58 54.36 54.61 53.29 48.94 47.04 47.59 44.05 41.04 42.30 40.17 40.21 40.83 40.55 40.04 39.08 39.49 39.49 41.66 46.76 44.84 43.56 40.14 38.74 39.69 38.97 39.91 41.96 44.03 41.25 37.66 34.45 34.53 38.34 38.64 39.63 40.12 40.99 42.42 44.71
47.86 48.73 48.62 49.19 49.89 53.46 54.62 54.28 54.22 54.55 54.36 49.14 47.02 49.11 45.07 40.87 41.20 40.65 38.68 42.04 39.45 38.02 37.70 37.93 40.49 42.92 46.18 42.86 43.47 37.00 35.17 37.66 34.29 36.48 39.07 39.83 43.16 39.91 34.75 32.41 32.52 39.09 41.94 44.12 44.86 38.69 44.17
47.47 47.98 48.32 49.12 49.57 50.86 54.34 53.91 53.89 54.31 53.71 49.69 47.62 49.61 46.13 41.42 42.96 41.69 40.91 40.53 40.56 40.03 36.66 37.25 38.92 41.51 45.30 41.05 37.53 37.34 35.77 39.35 35.21 35.03 35.84 36.42 37.15 36.01 36.98 34.23 37.99 41.96 43.57 44.91 37.00 39.87 44.02
46.81 47.33 48.21 49.05 49.77 50.34 54.23 53.63 53.64 54.20 53.62 50.94 48.93 49.51 48.27 43.29 44.88 44.99 43.68 40.12 39.25 41.22 38.29 38.58 41.40 40.89 40.85 40.06 39.08 36.65 36.31 39.16 36.91 38.44 38.05 37.02 36.46 35.87 37.98 34.68 32.66 43.31 42.22 40.63 43.28 44.51 45.07
46.52 46.73 47.59 48.53 48.97 49.93 53.89 53.54 53.74 54.20 53.88 52.26 48.09 49.13 49.43 46.24 45.53 46.75 46.99 46.56 44.38 43.70 40.47 38.16 43.29 41.37 43.71 40.00 40.22 39.39 36.78 36.51 38.26 34.46 38.18 36.79 41.43 38.08 39.54 39.21 41.37 42.39 42.86 43.67 46.66 44.26 43.93

GFSGBSN_sfc_wetblb_015.txt.gz
Wetbulb
60.22 61.49 61.85 61.31 60.62 60.53 60.68 60.05 58.68 57.72 57.29 57.30 57.25 57.16 56.65 56.30 56.54 56.55 56.51 56.01 55.69 56.10 57.07 57.97 58.29 58.14 56.40 49.67 49.88 58.80 57.46 56.58 58.75 59.25 56.68 54.42 51.31 51.72 49.21 52.81 53.69 51.41 53.50 54.73 55.45 55.40 55.10
59.98 60.40 61.60 61.35 60.62 59.86 60.03 59.70 59.85 58.41 57.37 57.05 57.21 57.36 56.88 56.67 56.70 56.36 56.48 56.23 56.19 55.61 55.73 57.41 58.05 57.96 52.97 43.42 56.29 57.71 57.82 56.94 55.48 56.39 55.86 55.81 52.41 53.69 51.67 51.47 51.45 53.97 54.34 54.09 55.02 54.66 54.91
60.29 59.58 61.00 61.34 60.82 60.16 59.45 59.17 59.59 58.78 57.59 56.87 56.97 57.51 57.15 57.01 56.99 56.94 56.52 56.23 56.16 55.60 55.42 56.32 57.29 55.87 49.48 47.28 55.14 56.36 55.64 54.48 55.56 54.54 53.66 56.21 55.86 53.42 53.39 49.84 53.99 53.75 50.17 52.53 53.36 54.23 53.43
59.79 59.64 60.66 60.87 61.11 60.85 60.13 59.26 59.41 58.91 58.15 57.30 56.84 57.13 57.94 57.28 57.13 56.63 56.42 56.28 55.92 56.16 55.60 55.83 56.11 53.99 45.56 55.11 56.85 54.62 54.95 53.30 54.76 55.00 54.10 56.24 56.90 52.80 51.01 54.41 50.99 49.13 49.77 44.65 51.48 53.30 54.02
59.21 59.80 60.34 60.47 60.29 60.95 60.39 59.97 59.31 58.88 58.78 58.19 57.34 57.35 58.02 57.17 56.97 56.58 56.27 56.68 56.76 56.03 55.84 55.82 52.82 50.88 43.88 54.70 50.75 54.08 54.86 51.03 52.60 53.67 53.86 54.81 53.88 49.43 49.89 46.50 44.62 47.06 42.99 44.82 48.24 53.60 52.69
58.50 59.78 60.34 60.37 60.43 59.87 60.26 60.65 59.90 59.34 58.80 58.96 58.29 57.66 57.71 57.86 57.08 56.34 55.29 55.71 56.58 55.65 54.66 54.24 52.43 45.48 48.02 45.79 50.87 52.29 54.46 52.84 49.77 49.96 48.75 49.12 48.26 44.40 45.18 44.05 37.79 42.39 42.70 45.01 45.54 50.73 51.79
58.59 59.42 59.95 59.60 59.67 59.76 59.95 60.11 59.88 59.35 58.74 59.09 58.42 57.44 57.36 57.31 57.22 56.22 53.88 51.88 46.42 44.10 48.04 44.87 45.26 45.07 46.71 50.74 52.63 50.35 52.12 50.10 49.15 46.69 41.28 45.65 40.46 37.68 42.19 43.57 46.26 46.50 45.74 45.37 48.70 51.32 50.27
58.87 59.27 59.48 59.39 59.72 59.67 59.73 60.00 59.80 59.48 58.71 58.55 58.12 57.31 57.28 57.26 57.17 56.34 53.62 47.63 47.15 48.05 41.09 46.99 47.37 47.22 49.47 50.66 45.01 48.16 52.23 45.04 43.44 39.19 42.70 40.71 36.59 43.62 45.50 45.11 44.81 45.57 44.55 45.98 48.31 50.54 48.81
59.34 59.22 59.16 59.35 59.37 59.66 59.82 59.64 59.49 59.06 58.57 58.13 57.72 57.03 56.97 56.80 55.87 53.73 50.76 49.54 52.11 50.76 40.41 41.43 45.23 44.83 45.94 47.97 43.56 45.57 48.73 46.03 41.91 38.97 38.65 37.00 39.71 44.97 43.56 42.20 43.18 44.92 44.23 45.04 44.86 48.63 48.94
58.91 58.90 58.99 58.96 59.27 58.87 58.80 58.95 59.00 59.08 58.74 57.90 57.43 56.91 56.70 56.06 50.87 52.20 49.80 53.12 52.51 50.84 32.96 36.88 40.14 43.17 45.41 45.48 40.84 48.45 50.43 46.47 42.46 38.28 39.10 38.07 42.74 38.57 41.88 40.16 43.21 41.20 48.10 47.66 46.17 45.34 40.34
57.04 57.64 57.95 58.48 58.62 58.62 58.38 58.56 58.78 58.80 58.24 57.75 57.23 57.16 56.76 55.62 53.22 49.83 51.04 51.41 50.96 47.31 25.90 39.63 40.26 48.38 46.13 41.23 43.81 44.25 49.83 46.81 39.77 39.24 38.07 36.78 38.78 37.89 39.97 41.03 46.59 43.41 49.38 47.25 46.68 45.35 43.54
54.09 54.76 57.00 57.31 58.03 58.18 58.02 58.13 58.58 58.57 57.95 57.50 57.21 56.85 56.41 54.38 53.24 53.11 51.65 50.90 47.94 32.35 25.75 35.83 40.09 38.79 38.97 41.39 41.89 44.97 44.68 47.87 45.94 39.91 40.01 39.07 44.04 43.54 43.17 45.79 46.69 48.47 47.95 46.87 46.17 43.62 37.19
51.44 52.63 55.02 57.02 57.10 57.64 57.77 57.75 58.09 58.11 57.79 57.35 57.21 56.68 55.03 53.86 49.36 54.36 51.16 46.18 32.07 28.15 37.86 34.97 35.78 38.85 38.33 37.30 38.91 40.71 38.90 38.19 35.91 31.72 32.90 36.69 36.84 43.21 46.77 44.07 46.83 46.13 42.39 35.71 34.55 34.76 36.03
51.88 51.94 52.32 53.49 56.85 56.94 57.82 57.60 57.86 58.20 57.78 57.09 56.83 56.46 54.79 52.73 55.56 52.62 48.09 37.43 28.14 34.81 34.40 38.79 37.87 37.75 35.29 37.53 38.10 38.64 37.47 34.94 39.14 36.62 33.96 31.90 31.26 37.88 44.85 43.85 41.12 42.57 43.70 38.07 31.26 33.33 37.59
51.18 52.40 51.78 52.46 53.48 56.80 57.24 57.38 57.52 57.58 56.94 56.73 56.33 55.13 52.74 52.75 54.98 51.83 41.79 30.70 32.97 36.16 38.20 37.35 37.76 35.11 35.20 37.02 37.59 37.34 35.98 36.30 38.70 38.41 33.60 33.92 34.34 44.34 46.63 47.21 45.30 40.95 40.92 45.88 40.90 42.28 40.21
50.87 52.67 52.24 52.53 53.11 56.87 56.81 57.27 57.28 57.22 56.76 56.48 52.21 49.15 48.97 55.26 55.21 48.93 37.54 33.70 36.79 40.86 40.01 38.88 32.95 37.22 32.38 34.01 34.96 35.28 36.65 40.17 38.70 40.74 40.33 37.63 33.58 40.18 44.20 46.59 44.91 44.95 48.53 40.39 42.16 34.30 33.57
50.78 51.80 51.81 52.23 54.16 56.33 56.45 56.93 57.03 57.27 56.99 56.09 49.47 44.25 52.40 55.09 52.66 41.96 32.41 35.06 38.88 42.88 41.72 37.92 36.89 36.81 37.04 34.63 36.57 35.36 36.46 40.64 41.65 40.72 41.24 40.24 34.48 35.17 42.00 42.13 40.86 42.19 41.52 44.09 44.77 42.48 37.48
50.54 50.64 52.01 52.19 52.27 55.77 56.37 56.65 56.93 57.18 56.56 52.26 47.91 40.25 52.25 52.66 40.44 38.87 35.21 37.62 41.90 41.62 42.89 40.61 42.01 40.48 38.47 38.45 37.08 37.33 36.52 39.76 44.08 43.60 38.60 42.90 40.12 34.60 37.09 44.23 48.08 46.43 43.29 44.93 39.98 37.66 41.14
50.05 50.46 51.58 51.51 51.65 52.42 56.17 56.37 56.70 56.84 54.10 48.25 44.18 46.67 51.69 49.46 35.78 36.25 38.13 38.59 40.38 40.30 40.56 40.78 40.66 42.52 42.78 39.35 36.23 38.83 40.46 44.62 45.89 42.58 42.41 44.33 39.84 35.33 35.84 39.68 42.63 42.42 44.86 46.69 46.28 45.62 40.84
49.55 50.24 51.15 51.23 51.62 52.24 55.78 55.98 56.10 56.39 54.44 49.53 45.19 41.96 44.05 45.77 44.57 39.90 37.39 37.67 37.59 43.31 41.88 43.19 42.33 43.75 41.77 40.03 41.92 38.52 39.02 44.74 46.92 44.76 47.66 47.15 42.18 40.48 36.94 40.39 42.05 39.74 42.74 45.53 44.03 40.33 41.04
48.89 49.62 50.11 50.44 50.93 52.55 54.73 55.62 55.67 55.95 55.28 49.88 45.27 43.94 44.60 38.32 40.08 40.77 41.19 40.04 39.29 40.41 42.85 43.74 42.72 42.62 41.19 38.08 39.36 39.68 40.99 43.96 45.78 46.81 46.52 46.21 40.83 43.11 43.56 44.62 44.41 43.24 43.39 43.66 43.12 44.36 41.22
48.45 49.25 49.78 49.95 50.08 51.30 52.67 55.25 55.16 55.45 55.05 48.02 43.32 43.42 47.23 44.32 42.99 41.71 40.70 38.76 38.40 40.33 43.19 42.34 41.03 44.75 43.85 41.16 40.88 40.26 43.09 44.04 43.15 46.76 45.34 46.78 41.16 42.47 40.35 42.92 43.72 42.16 44.10 44.76 44.55 45.21 45.18
48.01 48.62 49.40 49.90 51.20 50.82 51.70 54.85 54.77 55.06 53.31 47.42 47.34 48.85 46.72 44.66 45.14 42.41 41.08 39.56 40.94 43.07 45.57 46.10 45.33 44.93 44.02 44.97 47.42 49.55 49.68 49.07 48.23 45.98 44.43 42.88 42.42 40.79 37.60 41.11 41.41 37.86 42.69 43.62 44.36 45.63 45.47
47.31 48.19 48.54 48.93 49.29 50.46 50.87 53.22 54.63 54.80 53.46 49.47 47.29 46.86 44.90 39.50 42.63 42.65 42.93 43.74 41.83 43.68 43.30 45.05 46.17 43.11 48.72 50.30 50.83 50.61 47.02 44.78 47.15 48.17 48.15 43.20 42.63 41.74 37.64 39.37 31.62 42.70 45.36 46.67 45.03 46.12 47.51
46.87 47.85 48.16 48.82 48.91 49.30 50.32 52.90 54.70 54.74 54.19 49.61 47.79 46.58 45.94 40.77 44.53 42.76 42.00 43.61 41.62 43.52 42.68 39.94 44.47 43.83 49.86 48.25 44.31 40.69 39.10 39.43 39.45 40.63 45.97 46.44 43.34 39.84 36.06 36.74 41.44 43.39 41.97 43.18 43.74 43.40 47.93
46.46 47.60 47.72 48.13 48.53 49.34 49.97 50.82 54.66 54.56 54.58 50.93 47.95 49.54 47.12 42.70 43.25 43.25 42.74 43.25 39.99 39.18 38.21 38.58 43.06 47.42 48.05 43.44 42.32 36.55 34.44 36.91 35.36 38.06 41.37 44.47 45.98 41.53 38.72 34.17 32.57 40.52 43.80 45.85 47.72 39.59 49.17
45.81 47.16 47.38 47.76 48.00 48.80 49.77 50.25 54.34 54.15 54.24 51.17 48.73 49.56 47.76 43.33 46.43 44.22 42.68 42.63 43.55 41.22 38.69 39.41 41.72 44.82 47.85 42.38 40.06 39.66 38.04 41.93 36.23 35.96 35.10 36.21 38.89 35.80 36.21 35.97 40.73 44.07 44.93 46.48 37.39 40.96 45.45
45.21 46.70 46.87 47.29 47.69 49.04 49.34 49.71 53.80 53.80 53.93 51.51 48.87 49.32 48.93 46.55 47.10 46.39 45.46 41.72 40.96 42.44 40.25 39.70 42.42 43.79 44.68 40.61 39.64 39.81 39.55 40.60 40.65 42.63 39.91 38.18 36.17 36.24 38.26 35.38 33.24 45.49 43.71 41.01 44.60 46.37 46.88
44.98 46.60 46.49 46.89 47.34 48.48 49.78 49.91 53.66 53.73 53.76 52.66 48.22 49.93 51.80 48.10 47.20 48.56 48.31 47.79 45.37 43.89 42.00 40.05 43.16 42.79 46.05 41.91 42.32 41.44 38.05 40.51 41.50 35.85 41.61 38.95 43.35 41.26 42.28 41.43 43.69 45.61 45.01 46.57 48.29 46.89 47.10

GFSGBSN_sfc_wetblb_018.txt.gz
Wetbulb
60.87 61.60 61.47 61.00 61.59 61.87 61.30 61.35 60.72 59.39 58.61 57.82 57.51 57.44 57.18 56.72 56.54 56.62 56.52 56.47 56.47 56.62 57.51 57.94 58.08 58.36 55.74 49.05 49.00 58.15 58.13 57.89 58.09 58.08 55.65 53.65 50.82 49.08 46.88 50.18 51.92 50.51 52.33 53.85 54.07 53.84 53.51
59.61 60.94 61.35 61.14 61.48 61.79 60.65 60.30 60.57 60.55 59.24 58.31 57.40 57.46 57.51 56.96 56.82 56.71 56.27 56.25 56.38 56.80 56.39 57.35 57.97 58.24 52.23 43.14 55.28 57.26 57.48 56.54 55.62 55.16 54.88 54.74 52.13 51.88 48.58 48.76 48.15 52.11 52.53 53.35 53.88 53.39 53.20
59.28 59.61 60.59 60.83 60.88 61.31 61.21 60.36 60.07 59.99 59.83 58.64 57.57 57.45 58.17 57.20 57.05 57.02 56.79 56.45 56.10 56.47 56.55 56.52 57.40 55.35 49.26 46.33 55.04 55.48 55.90 54.74 54.97 53.66 50.61 54.83 54.63 51.65 50.55 47.09 51.92 50.82 47.63 51.50 51.67 52.61 51.91
59.66 59.17 59.87 60.62 60.64 61.00 61.00 60.83 60.08 59.44 59.49 58.92 57.88 57.68 57.91 58.39 57.34 57.36 56.53 56.25 56.35 56.56 56.59 56.35 56.83 53.64 44.95 54.82 55.75 54.22 54.29 52.75 54.03 53.81 52.96 53.69 55.01 51.89 49.21 51.15 49.34 47.16 47.34 42.35 49.48 51.94 52.21
59.83 59.39 59.55 60.48 60.53 60.67 60.77 60.65 60.39 59.72 59.07 59.02 58.55 58.31 57.94 58.29 57.94 57.59 56.46 56.01 56.21 57.03 56.42 56.11 52.30 50.19 42.69 55.87 50.41 53.19 54.01 50.27 51.84 52.49 52.57 53.29 51.76 48.63 48.49 43.87 41.84 44.89 38.96 41.34 44.92 51.46 51.11
59.85 59.79 59.67 59.92 60.47 60.60 60.28 60.42 60.46 60.11 59.59 59.43 59.35 58.53 57.97 57.98 57.82 57.32 55.65 54.71 55.22 55.73 55.16 54.21 51.96 45.03 47.23 45.38 50.43 51.93 53.47 52.72 49.24 49.32 48.20 47.45 46.05 43.29 43.96 40.86 32.88 37.44 39.97 41.81 42.70 48.15 49.49
58.41 59.39 59.56 59.69 59.78 60.01 59.90 59.86 60.14 60.18 59.89 59.43 58.95 58.61 57.76 57.64 57.36 56.79 54.40 52.46 47.16 45.31 48.33 44.24 44.85 44.18 46.83 50.75 52.23 49.88 51.72 49.73 48.72 45.84 39.00 43.71 38.92 36.18 39.45 41.36 41.87 42.04 41.95 42.01 44.87 50.02 47.41
56.50 57.56 59.00 59.40 59.21 59.46 59.68 59.72 59.78 59.52 59.52 59.42 58.66 58.25 57.72 57.48 57.30 56.47 54.10 47.26 47.82 48.27 40.87 47.30 47.32 47.15 49.43 50.47 44.47 47.37 51.59 44.36 42.90 37.91 40.85 39.15 35.16 40.45 42.59 42.79 41.48 41.48 40.49 41.51 45.66 48.97 47.65
54.97 56.45 57.43 58.73 59.06 58.80 59.31 59.32 59.38 59.29 59.13 58.99 58.37 57.97 57.54 57.14 56.10 54.32 51.25 49.13 52.85 50.61 40.72 43.09 45.90 45.35 46.33 47.96 43.85 45.17 48.10 45.01 40.64 37.58 37.70 34.93 37.94 42.48 40.75 39.27 39.04 39.20 39.72 41.17 42.04 47.01 48.11
53.55 55.10 55.76 55.52 57.51 58.08 58.16 58.60 58.46 58.64 58.50 58.30 58.02 57.78 57.08 55.83 51.15 51.72 48.71 53.07 53.33 51.55 34.00 36.57 40.36 44.06 45.99 45.87 40.73 48.50 49.65 45.55 41.04 36.75 37.98 37.17 40.99 39.36 38.68 37.46 39.78 35.74 43.38 43.17 44.44 41.37 37.16
52.37 53.56 53.61 54.09 54.72 56.78 57.29 57.70 57.87 58.23 57.99 57.69 57.75 57.59 56.73 55.01 52.62 49.43 51.63 52.42 51.66 47.62 24.52 38.82 40.52 48.67 46.46 41.34 42.73 42.95 48.97 45.49 38.74 38.10 38.76 34.68 36.90 36.83 36.22 37.83 40.38 38.42 45.03 43.29 43.63 42.18 41.65
51.67 52.55 52.59 52.83 52.99 53.08 55.72 57.16 57.41 57.77 57.72 57.42 57.38 57.16 56.31 53.85 52.54 52.43 52.50 51.57 48.25 32.63 24.24 35.75 40.08 39.14 40.06 40.82 40.97 43.72 43.20 46.73 45.25 39.54 39.55 37.48 42.86 40.49 39.15 40.75 40.41 42.24 42.16 43.01 43.66 41.86 35.42
51.02 51.75 52.11 52.06 51.98 51.70 52.98 56.68 57.05 57.44 57.52 57.28 57.28 56.91 55.25 53.80 47.81 53.02 51.69 46.56 31.69 27.16 38.06 35.16 35.87 38.61 37.30 37.57 38.14 38.88 38.46 36.90 34.24 30.73 30.45 35.72 36.40 40.04 41.86 38.25 41.02 41.00 38.35 33.24 33.56 33.49 31.11
50.51 51.24 51.64 52.33 50.77 51.47 53.32 55.85 56.96 57.46 57.32 56.91 56.83 56.68 55.31 52.81 53.56 51.95 48.37 37.38 26.35 34.98 34.62 38.93 37.84 37.37 34.88 37.56 37.46 37.69 36.85 33.83 37.80 36.02 31.76 29.06 27.32 36.57 40.15 36.93 38.13 39.15 35.55 32.88 28.23 29.08 31.78
50.17 50.80 51.23 51.86 51.07 51.90 52.98 54.13 56.71 56.65 56.50 56.46 56.30 55.12 52.96 52.69 53.08 50.80 42.67 29.55 31.42 35.88 38.44 36.47 36.83 34.11 34.55 36.43 36.66 35.99 35.47 34.60 36.64 37.64 30.90 31.77 31.19 40.99 40.76 39.71 43.03 39.38 33.04 41.02 37.28 36.78 33.96
49.76 50.42 51.13 51.18 51.87 51.66 52.97 55.49 56.51 56.49 56.37 56.29 53.08 51.10 50.31 53.79 52.94 47.67 38.34 33.78 35.94 40.56 40.32 38.94 33.77 35.53 31.50 33.54 33.89 34.36 34.08 38.00 37.11 40.32 40.17 34.52 30.62 39.72 41.08 43.33 43.09 43.40 43.77 37.53 38.50 31.02 29.15
49.37 49.97 50.56 51.13 51.57 51.12 51.96 53.54 56.38 56.73 56.53 55.89 49.56 44.85 50.85 53.66 51.16 43.04 32.51 34.35 38.01 41.50 41.30 37.75 36.36 35.64 35.55 33.85 35.39 34.03 34.82 38.37 40.78 39.38 39.50 36.61 33.65 36.23 40.53 40.08 37.75 39.61 39.85 41.99 41.49 38.29 32.27
48.60 49.61 49.97 50.74 50.79 51.17 51.50 52.35 56.27 56.65 56.41 53.04 47.81 40.73 52.49 53.18 41.43 40.23 35.80 37.68 40.41 40.07 42.39 40.45 40.12 38.87 37.30 37.44 34.73 34.67 34.41 38.61 43.06 41.64 35.98 37.73 35.20 32.51 35.25 41.90 44.74 42.39 41.86 41.01 35.57 33.53 35.93
48.09 48.77 49.59 50.33 50.49 51.17 51.76 52.84 55.78 56.53 55.33 49.60 44.44 45.34 52.11 50.34 36.32 36.05 38.55 36.92 39.20 40.31 40.63 40.06 38.92 40.31 41.93 37.99 34.22 36.70 38.50 43.96 43.47 41.02 38.04 38.49 34.14 32.58 34.71 38.74 44.22 41.26 42.97 43.37 42.15 40.31 35.32
47.49 48.13 49.19 49.74 50.40 50.72 51.12 51.18 54.48 56.28 55.01 50.68 44.91 40.00 44.46 46.07 44.43 39.68 36.92 35.31 36.03 41.52 39.94 42.21 40.82 42.44 40.12 38.08 40.07 37.47 38.07 43.53 44.84 43.22 46.78 45.28 39.22 34.32 33.66 36.96 40.75 39.75 42.05 43.10 41.54 35.39 35.86
46.72 47.88 48.49 49.53 49.73 51.26 51.49 51.14 52.42 55.83 54.15 50.89 45.01 42.26 43.18 37.10 38.93 40.50 39.01 38.39 36.56 36.39 41.59 42.43 40.22 40.36 39.53 36.24 37.83 37.12 39.47 42.23 43.95 44.72 43.38 41.06 38.11 38.51 38.50 42.60 42.32 41.83 41.62 42.24 40.42 41.29 35.32
46.12 47.19 47.96 49.04 49.29 49.12 49.86 51.41 52.53 55.45 54.24 48.57 43.15 41.26 44.49 43.08 41.96 39.98 39.84 37.55 36.65 39.61 41.31 39.99 38.52 42.96 42.77 38.10 39.57 37.23 40.35 41.37 40.68 43.34 41.18 41.07 37.98 40.36 38.73 42.15 42.05 40.40 42.43 42.58 42.46 41.77 41.17
45.63 46.42 47.66 48.76 48.96 49.02 49.29 49.79 50.74 54.26 53.14 47.67 48.01 47.31 44.58 43.21 43.19 40.41 40.57 38.88 39.08 40.67 41.87 42.97 42.52 40.65 42.12 42.42 45.32 45.59 46.31 46.50 45.58 42.52 40.96 41.28 39.82 38.09 33.27 38.54 39.10 34.16 40.19 41.99 42.94 43.72 43.26
45.32 45.90 47.27 48.24 48.56 48.26 48.83 50.02 50.46 53.76 53.87 49.89 47.43 47.23 43.25 38.69 40.44 40.77 43.02 42.57 41.73 41.34 41.29 45.41 46.17 43.67 47.27 48.78 49.81 48.44 46.10 44.65 44.00 45.05 45.74 40.27 38.83 38.87 33.95 34.16 26.40 37.18 40.98 43.91 42.66 43.40 44.31
45.16 45.57 46.90 47.65 48.23 48.23 48.48 49.65 50.52 54.64 54.42 49.56 47.93 46.93 44.60 40.06 42.15 41.45 43.08 42.55 43.22 43.50 43.74 42.37 44.94 45.63 46.18 45.44 42.87 39.60 38.60 40.12 39.99 41.77 43.10 43.80 40.89 37.09 31.44 32.28 37.45 38.90 39.07 39.03 39.29 40.29 44.32
44.82 45.17 46.51 47.20 47.77 47.91 48.16 49.46 50.09 50.65 54.72 51.21 48.16 50.11 46.30 41.93 39.93 42.92 41.97 42.92 40.45 39.73 38.52 40.15 42.90 44.08 45.34 43.87 41.56 35.14 33.34 36.77 35.57 37.96 42.40 43.66 42.25 39.32 34.66 28.76 27.23 35.79 40.52 43.22 43.05 34.55 42.60
44.48 45.06 46.10 47.03 47.35 47.76 48.10 48.97 50.28 50.54 54.41 51.54 49.20 50.50 47.29 42.25 44.74 43.12 40.60 40.87 44.33 41.18 38.58 39.26 40.15 42.05 46.90 41.17 38.31 36.64 36.36 40.40 35.30 35.13 35.23 37.95 37.96 36.33 35.85 32.93 36.05 41.06 41.29 43.16 33.24 35.57 42.18
44.22 44.83 45.59 46.79 47.10 47.50 47.96 48.75 50.33 50.98 53.98 52.33 48.98 50.07 48.13 44.70 45.62 46.02 45.94 41.58 42.32 42.05 38.75 40.54 41.10 42.44 43.07 38.71 38.73 38.53 37.36 38.52 38.01 39.50 36.59 36.34 35.34 35.80 36.12 33.75 30.70 42.16 40.98 37.33 40.94 41.81 43.02
44.03 44.38 45.29 46.46 46.70 47.23 47.70 48.90 49.98 50.75 53.80 52.96 47.98 49.83 50.53 46.51 46.61 47.97 48.25 47.71 45.70 45.42 41.83 41.32 42.09 42.93 45.57 42.05 40.56 39.15 36.47 37.68 36.83 35.02 41.93 36.66 39.42 37.84 38.16 38.09 42.40 43.02 42.52 43.23 45.26 42.98 42.89

GFSGBSN_sfc_wetblb_021.txt.gz
Wetbulb
60.38 60.31 60.82 60.46 61.12 61.34 61.84 61.78 61.40 60.99 59.80 58.89 58.01 57.46 57.45 57.13 56.64 56.48 56.06 56.22 56.33 56.16 56.27 57.43 57.73 58.31 55.67 48.78 48.12 57.02 58.63 58.67 57.78 57.25 55.33 53.32 49.48 46.61 42.96 46.28 47.69 47.56 49.95 52.47 53.52 53.32 52.68
60.87 60.38 60.50 60.65 61.15 61.21 61.26 61.53 61.24 61.06 60.51 59.64 58.61 57.65 57.70 57.49 56.87 56.76 56.44 55.95 56.08 56.05 55.95 55.91 57.36 57.91 51.57 42.20 53.44 55.48 56.12 54.51 54.73 55.60 53.83 53.53 51.04 50.56 46.27 45.29 45.42 48.92 49.32 50.53 52.61 52.91 52.65
60.28 61.06 60.26 60.28 60.72 61.05 60.88 61.18 60.88 60.38 59.68 60.20 59.30 58.24 58.16 57.89 57.06 56.97 56.87 56.87 56.16 55.97 55.85 55.70 56.10 55.03 49.18 45.36 52.91 53.04 55.95 54.02 53.52 52.20 49.54 53.64 53.98 51.71 50.22 44.70 49.35 48.46 45.72 47.14 48.28 51.13 51.35
59.43 59.83 61.09 60.11 60.29 60.44 60.27 60.76 60.46 60.50 59.80 59.88 59.44 58.71 58.04 58.00 57.66 57.13 57.18 56.31 56.22 56.61 55.98 55.88 55.92 52.27 44.26 53.99 54.09 52.91 52.94 51.08 51.85 51.69 51.36 51.45 52.02 50.16 48.86 49.62 45.95 43.73 45.25 39.94 46.02 48.88 51.86
56.42 57.96 59.13 60.27 60.03 60.16 60.41 60.25 60.33 60.51 60.35 59.61 59.66 59.05 58.29 58.00 58.25 58.02 57.27 55.91 55.59 56.10 56.93 56.14 51.64 48.71 42.16 55.48 50.25 52.14 51.95 49.38 50.23 50.15 50.35 52.17 48.98 47.75 46.12 42.31 38.26 41.83 35.96 38.19 42.12 48.58 48.73
54.45 55.17 57.08 58.06 59.37 59.58 60.16 60.09 59.90 60.01 60.36 59.77 59.54 59.10 58.52 58.03 57.99 57.61 56.66 54.74 54.42 54.46 55.45 54.62 51.93 44.43 46.92 44.34 50.00 51.18 51.51 51.43 47.74 47.76 47.79 45.79 42.76 39.43 39.67 39.36 31.75 34.40 35.50 37.82 38.76 44.25 46.79
53.16 54.03 54.77 56.94 57.62 59.52 59.18 59.58 59.43 59.81 59.64 59.23 59.24 58.71 58.48 57.77 57.59 57.10 53.45 49.83 44.74 44.20 48.54 44.39 44.23 43.01 46.37 49.95 51.56 49.62 50.87 48.54 47.83 44.20 39.18 41.85 36.47 33.64 36.79 39.73 38.97 37.90 36.87 36.67 41.20 46.37 45.19
52.65 52.50 53.33 54.72 56.45 57.57 58.71 58.93 58.98 59.17 59.37 58.83 58.59 58.53 58.50 57.62 57.59 56.93 51.52 44.89 46.84 47.76 41.11 47.53 47.48 46.72 48.93 50.76 44.10 47.10 50.58 43.15 41.87 37.86 39.34 36.87 33.86 38.53 41.08 41.18 40.39 38.60 36.15 36.16 40.71 44.91 44.52
51.68 52.15 52.39 52.68 54.35 54.65 56.59 58.22 58.41 58.68 58.61 58.25 58.04 58.14 57.97 57.10 56.89 53.51 50.24 48.05 51.15 50.64 41.69 42.89 45.92 45.52 46.67 48.38 43.47 44.31 47.45 44.04 39.73 36.97 37.09 33.93 36.30 41.24 39.55 37.84 37.15 37.62 35.74 35.85 36.64 42.54 45.10
50.80 51.60 51.85 52.07 53.20 53.50 55.20 56.08 57.02 57.59 57.52 57.47 57.65 57.71 57.30 56.45 50.54 49.85 47.94 51.58 50.60 50.86 34.68 36.72 39.97 44.32 46.12 46.75 41.02 48.63 49.34 45.00 40.99 36.36 37.81 36.12 39.59 37.76 37.39 36.00 37.12 32.49 39.55 39.39 38.28 38.68 35.60
50.13 50.77 51.12 51.70 52.29 53.03 53.88 54.16 54.80 56.64 56.87 56.90 57.36 57.45 56.93 54.49 48.27 47.00 50.11 52.07 51.86 48.52 21.74 37.61 40.48 48.58 46.53 41.48 42.63 42.88 49.51 45.65 38.50 37.44 37.62 33.66 35.64 35.52 34.18 35.87 38.58 34.81 40.51 38.67 38.61 37.02 37.19
49.66 50.24 50.79 51.33 51.94 52.00 52.92 52.49 54.24 55.97 56.59 56.64 56.87 57.06 56.04 52.31 51.57 51.81 52.13 51.12 48.09 32.87 20.43 35.39 40.04 38.87 38.98 41.57 41.65 43.97 43.12 46.31 45.08 39.90 39.04 36.56 40.90 38.84 37.27 39.12 39.37 40.26 37.51 37.02 38.48 37.94 31.57
48.95 49.70 50.39 51.00 51.67 51.57 52.12 51.68 53.82 54.49 56.33 56.70 56.80 56.85 54.83 53.35 46.75 52.15 50.89 45.34 31.88 25.73 36.71 34.52 35.50 38.26 36.62 37.14 38.43 39.42 38.41 37.57 35.24 30.81 30.98 34.97 35.83 38.93 41.10 36.78 38.33 37.73 33.10 25.16 26.89 27.85 28.12
48.61 49.31 50.05 50.64 51.15 51.80 51.79 51.51 53.57 55.07 55.86 56.25 56.66 56.46 54.87 52.86 52.51 51.35 47.98 38.49 25.83 31.96 33.15 39.21 37.57 36.92 34.66 36.59 37.43 37.76 36.53 34.08 38.29 35.08 31.66 26.52 22.72 34.89 38.88 36.63 34.99 34.92 32.64 27.31 19.61 26.24 31.04
48.18 48.85 49.67 50.31 50.44 51.35 52.22 51.46 52.27 53.50 55.54 55.87 56.30 54.87 52.73 51.94 52.42 50.57 42.22 30.02 28.75 32.92 38.44 37.16 36.80 34.03 34.25 36.61 35.79 35.21 33.90 35.25 35.82 36.39 27.86 27.24 27.65 38.62 39.12 39.93 38.45 34.07 30.15 36.62 33.45 34.93 32.72
47.97 48.38 49.14 49.44 50.49 51.45 50.65 50.89 51.85 54.35 55.40 55.83 53.13 51.81 50.74 52.58 52.36 47.67 38.25 33.24 33.80 40.65 40.37 38.60 33.40 35.26 31.23 33.03 32.79 34.66 32.36 35.92 35.89 38.07 38.34 33.97 28.05 36.33 37.40 40.49 39.37 38.61 40.75 31.10 32.18 28.01 27.20
47.72 47.86 48.57 49.15 50.08 50.74 50.54 50.62 51.02 55.01 55.67 55.76 50.22 46.26 51.50 52.70 51.24 43.37 32.28 35.23 37.96 42.19 41.96 37.92 35.99 35.49 35.26 32.62 33.50 32.05 32.34 36.41 38.76 38.37 39.04 36.94 32.88 32.92 35.51 35.27 34.10 36.40 34.49 37.30 36.87 33.56 30.27
47.23 47.62 48.18 48.75 49.29 50.31 50.68 51.65 52.02 54.17 55.69 53.90 48.14 41.26 51.75 51.48 40.51 39.27 35.66 38.14 40.99 40.38 42.26 39.84 39.38 38.58 37.15 36.57 33.51 32.22 32.17 35.29 42.40 40.88 35.24 37.59 34.33 29.38 32.57 41.50 42.51 40.53 37.23 37.43 31.33 33.32 35.59
46.97 47.31 47.63 48.32 48.62 50.10 50.49 51.12 51.59 51.81 54.69 50.54 44.71 45.58 51.13 48.86 35.33 35.67 38.99 38.44 39.86 39.32 39.44 39.10 38.58 39.72 39.72 37.17 32.96 34.92 36.11 42.62 42.14 40.07 37.03 37.89 33.06 27.07 33.28 37.66 41.38 38.42 39.78 41.10 38.82 39.66 35.78
46.60 46.61 47.10 48.49 48.40 49.79 49.44 49.98 51.09 52.04 54.47 51.03 45.49 39.70 44.94 46.32 44.21 39.95 37.36 36.21 36.43 40.46 39.56 41.16 40.27 40.80 38.73 36.99 37.87 35.70 36.20 41.86 42.82 41.86 43.28 40.41 35.87 33.28 31.83 35.78 40.23 37.39 38.66 39.01 38.11 35.67 35.34
46.42 46.06 46.65 47.37 48.30 49.21 48.97 50.06 50.82 51.61 54.88 50.27 45.31 41.78 42.97 37.23 39.09 40.45 39.96 38.66 35.90 34.91 39.97 41.23 38.79 39.08 37.40 33.72 35.77 34.76 38.28 39.67 41.71 43.89 42.48 40.25 33.57 36.26 36.50 38.29 40.65 40.60 39.37 39.33 39.08 39.57 35.89
46.09 45.71 46.38 46.91 48.08 48.87 49.12 49.14 50.36 50.84 54.19 48.84 42.26 41.82 43.76 40.89 41.41 39.89 39.31 37.68 36.96 37.72 39.32 38.91 37.22 39.84 39.25 35.90 36.96 35.65 39.36 38.66 38.57 41.69 38.35 39.96 33.26 38.69 37.67 41.39 40.69 39.77 41.82 41.90 41.45 41.46 39.59
45.78 45.29 46.08 46.81 47.94 48.24 48.69 48.88 49.63 50.82 51.81 48.05 47.65 47.63 45.17 43.07 40.57 38.72 38.50 38.54 38.33 39.03 40.59 42.30 40.70 39.83 38.03 41.20 44.04 43.35 44.37 43.60 43.70 40.47 37.87 37.93 37.23 38.35 31.90 40.26 40.10 36.18 40.12 40.81 41.62 42.12 42.44
45.49 45.12 45.69 46.30 47.51 47.97 48.82 48.85 49.50 50.73 51.22 49.99 47.89 47.56 42.47 39.31 40.65 40.11 41.58 41.17 39.59 40.56 39.04 42.46 42.09 40.75 43.95 47.62 46.31 47.62 46.29 43.96 45.10 44.73 42.89 37.89 37.98 39.00 33.80 33.26 26.26 36.47 41.75 43.93 42.82 42.99 43.19
45.52 45.14 45.27 46.12 47.18 47.71 48.32 48.52 49.25 50.44 50.85 49.60 47.82 47.61 44.77 39.63 42.22 41.46 39.63 41.62 42.73 42.66 42.28 41.92 44.63 43.22 46.38 45.65 41.57 39.16 39.28 40.23 39.72 41.12 41.65 41.61 38.52 37.04 31.20 30.80 34.32 36.37 38.12 37.55 38.40 38.31 41.51
45.45 45.42 45.03 45.73 46.52 47.33 47.87 48.28 49.26 49.96 51.07 50.45 48.34 50.09 46.59 41.65 40.45 42.68 38.07 41.09 38.98 39.78 39.60 41.79 44.00 43.39 46.46 43.58 41.15 33.28 31.93 33.80 36.09 38.41 41.23 42.97 42.48 37.89 32.04 26.33 26.20 34.52 39.21 40.36 39.90 33.25 40.40
45.36 45.41 44.72 45.09 46.31 47.11 47.72 48.03 48.88 49.72 50.34 51.12 48.84 50.77 47.58 42.01 44.43 44.10 40.11 40.15 44.07 41.29 39.13 39.72 41.02 41.73 46.36 41.04 38.01 35.57 35.31 38.99 35.28 35.74 34.54 37.70 38.16 32.08 33.97 32.53 33.44 39.60 40.18 41.09 31.80 33.73 40.40
45.05 45.07 44.47 44.79 45.84 46.84 47.43 47.83 48.58 49.77 50.53 51.35 48.57 50.71 48.22 43.96 45.31 45.89 44.15 40.26 42.45 42.13 38.45 40.98 41.14 42.21 42.29 38.68 38.36 38.44 37.00 37.25 35.20 38.83 35.90 35.79 35.38 35.48 35.57 33.27 28.41 39.96 38.62 34.96 38.87 39.73 40.28
44.84 44.56 44.32 44.42 45.32 46.38 47.10 47.51 48.54 49.40 50.51 52.07 47.27 50.14 50.95 46.33 45.85 48.20 46.61 46.72 45.42 46.99 43.72 41.84 42.02 42.82 44.57 40.68 38.39 40.32 37.19 35.52 35.74 34.27 38.22 36.06 38.78 37.36 36.70 37.30 42.08 40.86 40.29 42.04 42.57 40.94 39.71

GFSGBSN_sfc_wetblb_024.txt.gz
Wetbulb
59.18 60.66 61.24 60.77 60.08 60.71 61.27 61.58 61.70 61.48 61.34 60.33 59.33 58.44 57.88 57.65 57.19 56.56 56.34 55.84 55.96 56.04 55.94 57.15 57.54 58.16 54.82 48.04 48.23 55.47 58.76 59.10 57.26 58.37 55.56 52.89 48.75 46.55 42.15 44.23 45.63 43.94 47.40 50.56 52.27 52.54 52.36
57.72 58.43 59.83 60.43 60.83 60.27 60.18 60.87 61.02 61.35 61.47 60.75 59.80 58.92 58.26 57.72 57.55 56.93 56.68 56.05 55.89 55.73 55.82 55.61 56.79 57.57 50.42 40.90 52.79 54.50 56.04 53.93 54.59 54.89 53.78 53.45 50.41 49.55 45.33 44.10 42.87 45.30 46.41 47.78 49.84 50.16 51.32
55.38 55.84 56.68 58.48 59.70 60.65 60.32 60.57 60.54 60.87 60.76 60.63 60.37 59.72 58.80 58.23 57.74 57.16 57.04 56.82 56.43 55.76 55.75 55.65 56.01 54.70 48.56 44.34 52.03 52.42 52.94 52.29 53.01 52.22 50.29 54.02 53.53 49.80 48.47 44.09 46.98 46.13 42.97 45.38 46.13 46.95 48.08
54.65 54.92 55.42 55.93 57.17 58.92 60.09 59.97 60.22 60.31 60.42 60.78 60.27 60.09 59.01 58.48 57.79 57.40 57.61 56.80 56.12 56.09 55.82 56.01 55.81 51.85 42.91 53.15 53.19 51.78 51.59 50.79 51.52 51.17 50.62 50.54 50.52 46.87 46.00 47.67 44.45 41.86 40.59 36.67 43.29 46.51 47.89
53.58 53.88 53.93 54.43 54.91 56.49 58.61 59.38 59.63 59.94 60.07 60.19 60.13 59.71 59.11 58.35 58.11 58.22 58.00 56.65 55.99 55.49 56.48 56.23 51.14 47.60 39.92 54.14 49.85 51.30 51.06 48.73 49.08 49.08 49.52 51.82 47.78 44.46 44.60 42.72 38.51 38.25 32.58 35.08 40.19 46.52 46.55
52.52 52.51 53.01 53.13 53.48 54.73 57.17 57.89 59.68 59.49 59.54 59.81 59.53 59.28 59.11 58.29 58.06 57.71 57.39 55.82 54.11 53.83 54.77 55.06 52.02 44.89 46.36 43.97 49.51 50.45 50.59 50.58 46.92 46.74 45.94 44.50 41.47 38.31 38.14 38.42 31.43 34.61 32.13 34.62 35.56 42.26 44.51
51.94 51.98 52.16 52.73 53.15 53.41 54.33 56.24 56.60 59.23 59.09 58.67 58.70 58.35 58.42 58.03 57.76 57.57 54.23 49.49 43.97 43.71 48.54 45.62 44.40 42.98 45.15 49.15 51.03 49.20 50.14 47.75 46.27 42.95 36.65 40.72 35.51 33.24 35.73 37.85 38.19 36.36 34.26 33.86 37.32 42.56 41.21
50.86 51.48 51.77 51.92 52.58 52.80 53.27 54.49 55.29 57.20 58.64 58.23 58.03 58.23 58.02 58.09 57.70 56.97 50.34 43.50 44.58 45.75 40.21 46.54 47.16 46.16 47.89 50.02 43.86 47.02 49.91 42.48 41.06 36.70 38.38 37.73 34.29 37.45 38.60 38.51 38.53 37.47 34.80 34.11 37.62 40.99 41.21
49.29 50.47 50.80 51.11 51.78 51.89 52.81 53.38 54.46 55.32 58.03 58.08 57.55 57.66 57.65 57.88 56.92 54.00 49.78 47.52 49.71 48.91 41.17 42.87 45.57 45.17 46.25 48.13 43.55 44.09 46.96 43.53 39.20 37.03 37.19 33.27 35.36 39.56 38.22 36.83 35.69 36.53 35.30 34.63 35.05 38.66 40.03
50.08 48.98 50.39 50.51 51.14 51.50 52.22 52.64 53.43 54.29 56.83 56.83 56.85 57.26 57.32 56.82 51.35 49.27 47.55 50.31 50.03 50.01 33.71 36.51 39.91 44.24 46.33 47.47 41.81 48.78 49.02 44.84 40.64 36.26 36.87 36.50 39.32 37.36 36.53 35.05 36.72 32.01 38.76 38.45 37.13 34.91 28.96
49.62 49.19 49.78 49.92 50.66 51.05 51.57 52.38 52.72 53.73 55.14 55.77 56.44 57.07 57.06 55.04 48.13 46.82 48.22 50.79 50.86 47.90 15.92 35.98 40.14 48.63 46.64 42.53 43.25 43.11 49.62 45.33 38.59 37.32 37.41 33.61 35.09 35.53 33.94 35.27 38.55 34.00 39.29 36.69 36.68 34.67 34.00
49.06 48.73 49.25 49.52 50.47 50.70 51.15 51.76 52.40 52.93 53.76 54.70 56.06 56.75 56.35 52.53 51.62 51.51 51.93 51.77 47.05 25.54 15.88 34.98 39.92 38.59 39.17 41.47 41.90 44.10 43.51 46.53 45.17 39.87 39.04 36.04 40.62 38.90 36.90 38.61 39.14 39.54 36.45 36.03 33.97 32.80 27.43
48.82 48.34 48.91 49.33 50.05 50.16 50.24 51.22 51.70 52.37 53.20 54.04 55.03 56.52 54.47 52.21 47.90 52.26 51.03 45.19 28.68 18.17 35.37 34.16 35.37 37.77 36.38 37.08 38.01 39.65 38.81 37.72 35.30 31.60 29.68 35.18 36.11 39.11 41.03 36.03 38.38 37.00 32.90 24.69 23.88 23.15 21.89
48.65 48.03 48.70 48.78 49.20 50.09 50.05 50.82 52.19 52.02 52.90 53.83 54.34 56.21 54.58 51.94 52.34 51.51 47.78 37.26 20.27 29.70 32.52 38.91 37.32 37.42 33.60 36.22 36.89 37.79 36.97 34.39 37.78 36.00 32.46 29.06 26.26 35.02 39.14 36.67 34.17 34.12 32.78 24.31 15.96 18.88 22.02
48.29 47.90 48.22 48.41 49.24 49.99 49.71 51.36 51.33 51.23 51.64 53.15 54.09 54.50 52.01 51.67 52.43 50.24 41.54 30.08 24.61 31.59 37.20 35.67 36.15 32.77 33.30 36.46 35.94 35.71 35.31 33.86 35.55 37.35 30.05 28.70 28.33 37.39 38.30 39.23 37.67 33.45 30.48 34.28 26.43 29.72 27.40
48.08 47.73 47.80 48.28 48.83 49.55 49.34 51.48 51.02 51.30 51.41 52.56 51.35 51.33 49.79 52.24 52.24 47.00 37.46 33.30 32.86 40.21 39.90 38.28 32.13 35.32 31.07 33.23 33.71 33.28 32.15 34.67 35.10 37.51 37.85 31.07 23.36 34.00 36.70 39.16 39.05 36.19 37.06 28.18 29.37 19.25 19.80
47.66 47.73 47.65 47.77 48.41 48.56 49.16 50.61 51.06 51.37 51.99 53.85 50.14 45.11 50.48 52.37 50.59 41.57 32.09 34.87 37.16 41.78 41.18 37.18 35.80 35.61 35.34 32.57 32.97 31.26 31.32 35.00 36.96 36.84 37.65 34.46 29.84 30.91 35.10 33.05 31.94 33.99 31.72 33.42 31.39 29.86 23.62
47.57 47.52 47.55 47.19 48.58 48.46 49.12 49.58 50.51 51.54 52.67 52.59 48.71 37.47 50.26 51.29 39.31 38.27 34.94 37.75 41.23 40.23 42.21 40.31 39.33 38.27 36.67 36.35 31.90 30.81 31.05 33.88 39.40 39.18 33.10 36.71 33.86 27.38 29.46 37.32 38.72 36.71 33.84 34.12 27.54 26.30 32.66
47.59 47.34 47.17 46.67 48.75 48.65 48.95 49.72 49.91 51.31 51.84 50.31 44.92 44.81 50.28 48.74 32.79 34.62 39.06 38.46 40.01 39.41 39.99 38.69 37.57 38.99 39.77 37.08 33.54 33.32 34.97 40.43 41.58 39.10 36.52 37.99 32.93 26.73 28.76 33.99 36.79 34.30 36.22 36.54 37.26 35.95 29.41
47.23 46.93 46.67 46.33 48.06 48.99 48.70 49.33 49.66 50.87 51.99 50.85 44.81 37.21 43.84 45.33 44.08 38.29 36.69 37.01 36.73 40.71 39.96 40.30 39.20 40.80 38.58 35.49 37.81 34.58 35.01 40.44 42.24 41.33 43.01 40.63 35.68 31.04 27.93 33.75 38.09 34.27 35.92 37.61 36.57 31.37 30.18
46.84 46.71 46.21 46.19 47.17 48.59 48.95 48.98 49.65 50.13 51.37 50.34 45.37 40.53 42.72 36.60 38.86 39.99 39.58 38.96 36.49 36.38 39.42 40.59 38.08 38.66 37.03 33.49 34.50 34.28 36.83 38.67 41.52 43.05 41.31 38.51 33.31 35.41 35.41 35.37 36.21 38.53 37.03 37.76 32.35 35.72 31.95
46.61 46.65 46.22 46.03 46.89 47.86 48.61 48.64 49.23 49.96 51.70 48.55 42.66 41.75 43.51 40.40 41.73 40.16 39.78 38.18 37.17 37.55 38.34 37.04 36.76 38.97 39.67 34.89 34.90 33.26 37.57 37.94 37.10 40.46 38.48 39.71 32.27 32.69 31.99 36.56 37.04 36.54 39.23 38.78 36.28 35.33 35.01
46.37 46.17 46.18 45.91 46.29 47.27 48.64 49.05 49.01 49.92 50.76 47.96 47.48 46.34 44.02 41.20 40.24 39.00 38.79 38.71 38.79 40.33 40.58 41.46 40.36 39.05 37.51 38.66 40.87 41.45 42.68 42.25 42.31 39.25 37.76 37.25 34.39 33.64 33.47 39.05 38.09 35.80 39.55 34.60 35.25 39.26 37.50
46.28 46.01 46.03 46.02 45.57 46.66 47.88 48.27 48.83 49.67 50.29 48.28 48.22 45.94 42.16 39.19 40.32 39.47 40.58 40.60 39.76 39.76 39.08 42.01 42.16 40.25 41.43 45.25 45.25 45.10 45.69 42.74 42.89 41.81 42.33 36.09 35.39 37.24 34.20 36.88 26.09 36.47 41.19 44.54 41.99 42.77 42.49
45.97 46.04 45.85 46.07 45.20 46.31 47.32 48.24 48.66 49.33 50.54 47.94 48.40 46.96 44.04 39.62 41.85 41.48 41.42 40.36 41.00 42.04 40.86 41.66 43.32 43.77 45.19 45.64 40.55 38.27 38.24 39.29 39.99 41.85 42.95 40.21 37.13 34.93 32.80 30.44 33.29 35.57 37.61 37.56 39.20 39.13 39.34
45.91 46.01 45.54 45.80 44.75 45.79 46.82 47.80 48.40 49.27 50.15 49.05 48.23 49.80 45.87 41.91 40.51 43.16 39.81 41.70 38.92 38.54 39.53 42.17 44.55 44.61 46.18 44.13 40.67 34.42 30.58 32.48 34.63 37.39 40.57 40.83 41.17 36.80 29.87 26.72 26.99 34.14 38.37 39.02 38.49 32.20 38.78
45.75 45.77 45.34 44.92 44.59 45.61 46.45 47.48 48.09 48.94 49.76 49.39 49.20 50.62 47.52 41.92 44.18 44.00 40.79 40.06 42.28 41.36 38.67 39.95 41.90 41.05 45.93 40.76 37.32 34.53 32.20 37.23 33.45 34.79 34.68 37.36 35.63 33.06 30.93 31.85 32.52 38.56 38.97 39.26 30.27 32.81 38.64
45.58 45.39 45.24 44.40 44.46 45.35 46.10 47.23 47.99 48.66 49.53 49.32 49.04 49.33 48.54 44.03 44.92 45.37 44.16 41.87 42.60 42.34 38.18 41.12 41.25 41.36 42.18 38.68 37.58 38.36 36.67 36.54 34.33 38.26 33.29 36.05 35.22 34.14 33.09 28.62 25.60 39.14 38.80 33.88 37.31 38.68 38.47
45.22 45.06 44.92 44.20 44.27 44.82 45.68 47.11 47.95 48.31 49.27 50.07 47.38 50.53 51.27 46.58 45.49 48.61 47.64 47.30 45.84 46.52 43.62 42.68 41.83 42.45 44.13 40.71 40.06 37.90 37.51 34.42 33.65 31.14 35.72 33.50 37.72 35.32 35.88 34.42 39.37 39.23 38.95 40.52 40.67 39.66 38.56

GFSGBSN_sfc_wetblb_027.txt.gz
Wetbulb
56.07 56.16 56.44 56.58 57.63 59.60 60.83 60.73 60.90 60.83 60.32 61.11 60.92 59.67 58.68 57.96 57.80 57.29 56.88 56.41 56.30 56.09 55.84 57.00 57.42 57.87 54.13 48.13 47.73 54.56 59.65 58.72 57.50 58.82 55.28 52.90 47.57 45.17 41.15 42.81 44.64 42.90 45.40 48.46 50.15 51.26 51.00
55.09 55.37 55.33 55.64 56.28 57.01 57.74 59.25 60.50 60.51 60.50 60.96 61.43 60.20 59.39 58.57 57.79 57.58 56.97 56.74 56.20 55.94 55.82 55.50 56.67 57.35 49.62 39.89 51.52 53.46 53.99 53.73 54.37 55.82 54.35 53.38 49.85 49.00 45.30 43.05 41.86 43.83 44.56 45.30 47.21 48.00 49.08
53.85 54.32 54.36 54.49 54.46 55.02 55.77 56.90 59.10 59.79 59.93 60.12 60.59 60.35 59.69 58.98 57.78 57.77 57.21 56.98 56.71 56.13 55.65 55.57 55.90 54.29 47.88 44.36 50.95 51.65 52.37 50.87 51.74 53.63 51.74 53.65 52.97 49.40 48.65 43.82 45.95 44.80 41.18 43.29 44.64 45.55 45.41
52.91 53.24 53.37 53.57 54.03 53.94 54.05 56.22 57.32 58.39 59.34 59.59 59.87 59.97 59.73 59.05 58.16 57.83 57.32 57.48 57.04 56.19 55.60 55.87 55.72 51.14 41.91 52.16 52.16 51.20 50.87 49.50 50.35 51.76 50.16 50.87 53.44 48.27 46.47 48.43 43.62 40.16 38.34 34.55 40.88 45.02 46.16
51.71 52.21 52.56 52.71 52.93 53.25 53.78 53.69 55.86 57.07 58.33 59.31 59.47 59.33 59.56 58.78 58.41 58.20 57.86 57.34 56.31 55.33 56.03 56.17 50.87 46.44 39.30 52.36 49.28 50.78 50.67 48.05 48.23 48.27 48.66 51.86 49.43 45.23 45.80 42.23 39.08 38.43 31.49 33.07 37.81 44.73 44.75
51.22 50.83 50.88 51.43 52.01 52.51 53.04 53.42 53.79 54.91 55.98 57.52 58.83 58.79 58.95 58.58 58.31 57.89 57.29 56.38 54.72 53.49 53.87 55.16 51.38 44.35 45.64 43.35 49.06 50.02 50.15 50.14 46.50 46.01 45.03 44.14 43.34 40.82 41.15 39.36 30.23 32.05 31.70 31.46 33.68 40.28 41.70
50.86 50.49 50.57 50.44 51.35 51.78 52.11 52.69 53.37 53.75 55.01 56.35 57.95 57.92 58.10 57.95 57.94 57.80 55.08 50.04 44.08 41.93 47.49 45.29 44.88 43.62 44.75 48.66 50.61 48.66 49.41 47.61 45.88 42.30 36.00 39.60 34.16 32.32 35.35 36.77 36.53 35.69 33.15 31.64 36.05 40.66 38.06
50.59 50.89 50.59 50.02 50.32 51.30 51.53 51.70 52.31 53.10 53.76 55.44 56.35 57.66 57.65 57.83 58.03 57.32 50.78 44.16 43.19 45.34 39.25 46.10 47.04 45.66 47.60 49.22 43.52 46.49 49.46 42.57 40.81 35.75 37.81 36.32 33.24 36.09 37.42 36.76 36.33 35.72 33.95 33.59 36.15 39.49 37.53
49.70 50.11 49.89 49.75 50.45 50.70 50.87 51.49 52.08 52.60 53.30 54.27 54.36 57.21 57.03 57.47 57.40 54.31 49.81 47.56 49.17 47.92 38.43 42.00 44.81 44.89 46.10 47.69 43.56 43.84 46.40 42.58 38.33 35.68 36.00 33.06 34.21 39.30 37.21 35.05 34.01 33.97 32.82 33.57 33.85 36.92 37.89
49.96 49.88 49.91 49.41 49.91 50.15 50.72 50.92 51.50 52.04 52.49 53.93 53.75 56.96 56.63 56.88 52.94 51.71 48.28 50.76 49.30 48.35 29.88 34.11 40.00 43.51 46.38 46.94 41.47 47.88 47.90 44.04 40.40 35.91 36.88 36.03 38.70 36.52 34.90 33.62 34.94 30.56 36.63 36.73 35.73 33.89 27.63
49.85 49.80 49.41 49.24 49.32 49.72 50.03 50.91 50.83 51.46 51.59 52.16 53.45 53.70 56.29 56.10 49.51 47.76 48.19 49.88 49.65 44.64 12.30 35.55 40.16 48.69 47.06 42.36 43.17 42.41 48.70 45.10 38.28 37.37 36.25 33.30 34.73 34.43 32.90 34.82 37.54 33.94 38.58 36.66 35.90 32.07 29.80
49.76 49.37 49.31 48.89 49.23 49.14 49.67 50.69 50.83 50.44 50.78 51.86 52.71 53.24 55.60 51.77 50.91 49.34 50.57 50.86 48.04 29.17 15.58 34.05 39.63 38.88 39.71 41.66 42.15 44.04 43.56 46.78 44.84 39.65 38.89 35.05 39.24 37.65 36.23 38.18 38.42 39.24 36.52 35.99 34.91 31.61 24.34
49.43 48.96 48.90 48.58 48.90 49.43 49.78 50.14 49.86 50.01 51.49 51.65 52.45 53.99 54.56 52.18 47.02 51.34 51.07 46.03 31.03 19.93 33.83 33.16 34.33 37.42 36.20 36.18 37.63 39.89 37.88 38.08 35.55 31.16 31.06 35.76 36.00 37.73 39.59 35.12 38.06 37.00 33.07 24.81 23.24 23.54 20.54
49.16 48.64 48.51 48.38 48.57 48.91 49.35 49.24 49.71 51.94 51.74 51.55 52.47 53.76 53.87 52.62 52.30 51.66 47.80 36.10 21.20 28.81 30.44 38.41 36.64 36.12 32.25 35.38 36.50 37.40 36.13 33.23 38.29 36.81 32.15 29.06 27.88 35.14 38.46 36.02 33.48 33.14 32.60 25.78 17.75 17.71 19.00
48.98 48.64 48.19 48.06 48.26 48.52 48.80 49.17 50.19 51.29 51.07 51.02 51.69 50.44 50.78 51.80 52.29 50.86 41.63 28.95 24.24 29.27 35.95 35.45 35.84 32.62 32.91 35.49 36.07 35.82 35.38 33.96 35.85 35.82 30.42 28.52 25.29 36.10 37.90 38.79 37.81 33.67 30.02 34.57 27.64 26.95 24.47
48.59 48.42 48.16 48.07 47.94 48.17 48.52 49.59 50.81 50.90 50.89 51.03 48.18 47.19 48.03 52.41 52.27 47.31 37.24 29.96 30.90 37.95 38.47 37.51 30.02 33.93 30.30 32.49 33.33 33.76 32.92 33.66 35.01 36.76 38.42 32.05 23.73 32.87 35.88 39.02 38.71 35.47 36.17 28.46 29.47 18.67 15.39
48.21 48.09 48.06 47.76 47.10 47.62 48.34 49.53 50.30 50.41 51.13 51.28 47.24 41.69 50.16 52.58 50.27 41.95 32.68 35.02 35.58 41.10 40.07 36.48 34.26 35.59 34.27 32.52 34.09 31.79 30.48 33.90 36.02 35.53 37.90 35.68 30.24 26.91 34.64 33.04 31.17 33.26 31.35 31.82 30.64 26.09 16.43
48.01 47.87 47.92 47.41 46.50 47.34 48.25 49.32 50.02 50.48 51.20 50.33 44.94 35.20 50.29 51.00 38.98 37.75 34.50 37.48 41.18 39.76 41.10 39.89 39.39 37.53 36.05 36.01 33.79 32.01 30.22 33.03 37.86 37.74 34.35 36.67 32.33 26.14 29.05 36.44 38.09 36.05 32.74 32.94 25.85 22.41 25.70
47.77 47.64 47.47 47.08 46.62 48.13 48.60 49.15 49.60 50.33 50.63 47.73 40.76 42.33 49.87 47.94 31.47 33.37 38.46 38.36 40.02 39.47 39.77 39.26 38.34 39.18 39.69 36.73 34.17 32.72 33.21 38.89 39.03 37.31 34.98 37.14 32.26 25.96 28.48 32.42 35.88 33.28 34.54 35.19 34.06 32.54 25.06
47.45 47.26 47.16 46.77 46.53 47.43 48.55 48.73 49.45 49.69 50.70 48.07 42.14 35.15 42.89 43.04 42.11 36.24 36.72 36.49 36.55 41.09 40.40 40.86 39.05 40.23 37.95 36.88 38.55 34.04 33.60 38.94 39.68 39.19 42.50 40.08 34.93 30.92 25.59 31.15 33.64 31.37 33.35 35.07 33.62 28.02 28.31
47.02 46.96 46.79 46.57 46.58 46.35 47.97 49.17 49.66 49.50 50.21 49.17 44.56 37.59 39.92 35.20 38.10 36.94 38.20 38.11 36.27 36.59 39.94 41.08 37.84 38.32 37.29 34.64 34.27 34.40 35.71 37.30 40.74 42.81 41.14 38.11 32.23 34.21 34.15 34.30 34.68 34.29 35.04 34.26 31.78 33.24 30.07
46.82 46.74 46.76 46.51 46.60 46.12 47.18 48.59 49.39 49.33 50.64 48.14 42.51 41.60 41.68 40.11 40.97 39.45 38.30 37.36 36.58 37.52 38.21 36.55 36.69 38.15 38.55 36.31 35.04 32.37 35.75 36.03 36.76 40.24 39.33 39.20 32.13 32.25 30.81 34.67 35.08 34.26 35.80 36.12 34.86 34.59 35.51
46.49 46.56 46.79 46.34 46.39 45.77 46.51 48.61 49.22 49.23 49.47 45.65 47.58 47.17 43.17 41.25 40.09 38.85 38.53 38.99 38.77 40.16 40.36 41.29 39.53 38.22 37.93 39.51 41.60 40.83 40.65 40.93 41.54 38.96 37.68 36.25 33.57 32.56 29.26 37.25 35.49 31.43 34.80 36.44 37.05 38.38 37.16
46.25 46.32 46.58 46.08 46.16 45.32 45.97 47.59 48.72 48.96 49.33 47.37 47.53 46.60 41.51 37.80 39.48 39.26 40.05 40.35 39.56 40.55 39.03 41.16 41.88 39.94 42.49 44.28 42.16 41.51 41.52 41.12 42.44 41.19 41.40 36.83 34.47 34.54 31.97 35.18 28.21 37.38 41.86 40.55 38.33 38.54 38.57
46.14 46.27 46.28 45.92 45.43 44.97 45.92 46.86 48.00 48.78 49.51 47.15 48.39 46.51 41.99 39.35 40.92 40.58 41.00 40.74 41.68 42.10 40.96 40.82 43.29 44.39 45.80 44.13 38.35 37.69 37.32 38.41 39.49 41.18 39.78 41.06 37.16 34.36 33.26 31.13 34.18 34.89 38.74 37.90 36.71 37.24 39.97
46.08 46.11 46.06 45.79 44.98 44.65 45.58 46.45 47.72 48.63 49.29 47.71 47.62 49.41 45.45 40.15 39.73 43.32 41.31 41.48 39.94 39.42 39.30 40.43 44.99 45.07 44.97 41.75 39.56 33.06 31.99 35.04 33.84 37.22 40.59 41.56 40.49 35.88 33.48 28.34 26.07 32.83 36.68 38.50 40.69 32.20 39.75
45.83 45.95 45.73 45.55 44.91 44.54 44.98 46.03 47.39 48.55 48.92 47.97 47.37 49.93 46.48 41.29 43.68 43.80 40.72 40.54 42.52 40.43 38.48 39.99 41.40 40.15 45.02 39.70 36.56 34.04 31.74 34.86 31.87 33.85 32.49 34.58 36.98 34.29 32.58 31.55 31.79 37.70 39.54 38.40 30.04 31.93 37.83
45.55 45.64 45.42 45.31 45.21 44.29 44.65 45.34 47.22 48.33 48.46 48.19 46.95 49.81 48.21 43.96 44.26 45.47 44.62 42.88 42.76 40.98 37.63 40.53 40.17 41.31 40.96 38.13 36.31 36.65 35.80 34.79 34.26 37.29 35.57 34.13 34.13 33.33 31.45 27.95 24.32 37.98 38.23 33.71 36.04 37.73 37.54
45.41 45.53 45.24 45.01 45.08 44.40 44.41 45.16 47.06 47.52 47.99 48.71 46.41 50.43 51.23 46.49 45.00 48.59 47.58 47.27 46.36 46.66 43.52 42.76 41.47 41.95 43.61 40.14 39.61 39.33 37.15 36.15 32.28 29.48 34.20 32.64 36.56 33.52 33.92 32.77 38.53 38.50 38.14 39.79 39.66 38.67 36.67

GFSGBSN_sfc_wetblb_030.txt.gz
Wetbulb
54.26 54.36 54.53 54.71 54.97 55.26 55.55 56.10 56.94 58.36 60.24 60.23 60.63 60.59 60.10 59.09 58.06 57.77 57.18 56.87 56.32 56.17 55.66 56.89 57.40 57.74 53.41 47.64 47.75 53.68 59.52 57.23 56.85 58.10 55.47 53.16 46.40 44.22 40.47 41.74 43.02 42.12 44.47 47.10 47.65 47.91 49.03
52.84 53.74 53.84 53.92 53.61 53.85 54.33 54.85 55.16 56.24 58.03 59.46 59.72 60.19 60.08 59.71 58.47 57.84 57.45 56.83 56.24 55.92 55.85 55.41 56.33 56.92 48.99 37.91 49.53 52.18 52.25 52.19 54.40 57.23 54.53 53.11 50.40 48.28 43.83 42.46 40.95 42.66 43.39 43.88 45.54 45.93 46.28
52.49 52.18 52.17 52.20 52.91 53.23 53.26 53.61 54.10 54.39 56.03 58.34 59.28 59.59 59.50 59.35 58.88 57.85 57.79 57.03 56.73 56.09 55.66 55.48 55.86 53.61 46.85 43.68 50.44 50.68 51.60 49.33 50.40 53.81 52.79 53.92 52.58 48.44 47.99 42.33 45.46 43.65 40.19 41.91 42.90 44.28 43.75
52.44 52.03 52.28 51.96 51.46 52.09 52.79 53.06 53.44 54.03 54.59 55.86 57.16 58.89 59.03 59.00 58.76 58.14 57.79 57.20 57.19 56.41 55.73 55.73 55.67 49.88 40.35 51.14 51.05 50.73 49.99 48.52 49.60 50.38 49.93 50.93 54.09 48.95 45.85 46.25 44.57 42.05 40.19 33.44 39.62 42.86 44.41
52.34 51.49 51.75 51.49 51.99 50.85 51.82 52.39 52.76 53.18 53.87 54.52 56.08 56.92 58.47 58.70 58.53 58.06 58.12 57.47 56.80 56.22 55.92 55.89 49.50 44.91 38.63 51.47 48.44 50.10 49.52 46.73 47.41 47.89 48.17 51.67 48.79 42.88 42.61 40.92 37.53 39.98 33.46 32.74 36.79 42.30 42.76
51.12 51.03 50.79 51.00 51.30 50.85 51.24 51.94 52.12 52.56 52.56 53.51 54.02 55.67 56.88 58.07 58.17 57.68 58.03 56.60 55.55 53.23 53.26 54.53 50.93 42.08 44.20 42.99 48.03 49.34 49.30 49.40 45.75 45.60 44.62 43.41 42.67 40.05 40.09 38.24 28.32 29.95 33.59 35.34 34.65 38.41 39.19
50.40 50.01 50.38 50.85 50.70 50.70 50.77 51.15 51.72 52.13 52.24 52.79 53.56 54.96 55.25 57.65 57.73 57.38 55.03 50.75 45.08 40.85 46.65 43.12 45.11 43.22 44.27 47.95 49.91 47.88 48.82 46.86 45.19 41.93 35.87 39.07 34.49 33.55 36.50 37.24 37.98 36.16 34.06 34.40 36.25 39.30 36.60
50.82 50.92 50.82 50.42 50.23 50.19 50.52 50.71 51.18 51.63 51.90 52.45 52.91 54.14 54.85 56.57 57.73 57.43 52.10 45.30 45.02 44.28 38.08 44.75 45.98 45.87 47.44 48.77 43.07 45.88 48.70 41.73 40.18 35.29 37.27 35.33 32.43 35.66 37.01 36.29 35.49 35.63 34.17 33.32 35.65 38.03 36.77
50.95 50.79 50.45 50.23 50.02 50.01 49.97 50.30 50.69 51.06 51.40 51.85 52.15 52.85 54.25 55.29 57.37 54.09 49.70 46.82 49.02 47.20 37.09 40.48 44.08 44.58 45.63 47.51 43.06 43.17 45.55 41.86 37.41 34.63 35.20 31.51 33.06 38.58 36.70 34.18 32.72 32.21 30.81 30.92 30.99 34.80 36.48
50.61 50.24 50.27 50.01 49.74 49.50 49.59 49.99 50.28 50.72 50.82 51.06 51.14 51.49 53.01 53.54 53.96 51.48 48.12 49.97 50.23 47.03 25.23 32.22 39.68 42.96 45.65 46.27 40.36 47.42 47.00 42.54 38.27 34.37 35.37 34.52 38.11 36.27 34.22 32.89 33.71 30.00 35.24 34.87 33.46 31.56 25.75
49.95 50.18 49.95 49.83 49.30 49.12 48.90 49.93 50.11 50.16 50.17 50.11 50.68 51.04 52.24 52.91 51.50 48.01 49.69 49.66 49.80 40.50 13.93 35.06 39.91 48.62 46.97 40.91 42.14 41.72 47.68 44.05 37.61 36.04 35.91 32.95 33.82 33.96 33.23 33.71 35.39 32.19 36.85 34.65 34.44 31.84 29.71
50.23 50.12 49.66 49.53 49.04 48.89 49.16 49.44 49.79 49.79 49.54 50.49 51.31 51.10 52.06 51.33 52.20 50.97 51.13 51.11 45.32 24.97 18.90 34.20 39.49 39.17 39.85 41.51 42.10 43.51 43.70 46.39 44.47 39.40 38.65 35.97 38.74 37.45 34.91 37.06 37.10 38.59 35.87 35.32 35.37 32.47 25.28
49.86 49.78 49.33 49.21 48.78 48.64 48.90 49.12 49.12 50.03 50.15 51.33 51.68 51.52 51.42 52.26 47.59 51.37 51.39 45.51 29.59 24.09 33.02 32.18 34.27 37.29 37.28 36.86 37.95 39.94 38.64 38.24 35.57 31.72 31.26 35.21 36.57 38.75 39.35 34.02 37.30 36.73 33.58 25.03 23.52 23.73 20.79
49.55 49.41 48.98 48.82 48.59 48.51 48.21 49.06 49.95 49.99 51.10 51.19 50.95 51.74 51.54 51.88 51.81 51.52 47.81 35.76 19.89 28.36 29.96 38.16 35.73 35.40 32.19 35.23 35.82 36.67 36.53 34.16 38.59 36.61 32.59 29.16 22.92 35.33 38.44 34.83 31.64 33.10 32.52 25.75 18.50 18.28 17.74
49.26 49.14 48.64 48.43 48.44 48.24 47.81 48.94 50.11 50.65 50.11 50.70 50.81 49.58 49.69 51.59 52.17 50.54 41.17 27.38 25.33 29.01 35.11 34.58 35.28 31.06 30.88 34.98 35.17 35.74 35.24 32.11 35.45 36.58 30.86 28.61 25.93 34.82 37.25 37.78 36.38 33.70 29.83 34.22 28.56 28.54 24.43
49.20 48.79 48.40 48.30 48.19 48.00 47.55 48.70 49.73 50.25 50.15 50.39 45.35 46.04 46.42 52.23 52.19 47.06 36.75 29.33 30.10 35.96 37.67 36.32 28.49 32.41 30.42 32.58 32.56 33.97 32.96 33.47 35.33 37.65 38.81 33.10 26.16 31.83 35.12 37.44 37.92 35.69 36.53 28.06 28.93 19.96 18.43
48.54 48.36 48.17 48.08 47.74 47.48 47.15 48.50 49.36 50.21 50.07 51.01 46.32 41.08 48.11 52.31 49.86 41.47 32.05 33.03 33.95 40.00 39.20 35.22 32.46 32.22 32.89 31.84 33.80 32.49 29.65 32.99 35.44 34.50 36.57 35.78 31.37 26.98 34.29 32.15 30.82 33.50 31.57 32.70 30.32 27.39 16.16
48.07 48.07 47.92 47.64 47.27 47.19 46.82 48.23 49.31 50.04 49.93 48.77 42.57 36.06 49.21 50.65 37.04 37.81 35.07 36.66 40.65 38.42 40.18 38.84 37.70 36.86 35.44 35.02 33.72 32.79 29.44 32.18 36.86 36.55 32.91 35.81 33.45 27.07 28.93 36.20 37.65 35.76 32.42 32.03 24.72 22.08 24.79
47.61 47.81 47.68 47.33 46.93 46.90 47.04 47.84 49.22 49.84 49.99 46.12 40.48 41.29 49.96 46.59 31.19 32.84 37.71 37.78 39.35 38.33 38.39 38.33 37.20 38.66 39.41 36.37 33.63 34.45 32.67 37.83 37.76 36.75 34.05 35.67 31.69 23.97 26.15 31.68 35.12 32.29 33.90 34.24 32.95 31.45 24.43
47.38 47.43 47.33 47.14 46.88 46.72 47.25 47.49 49.08 49.56 50.34 47.24 39.42 35.66 40.62 42.79 41.19 36.35 35.05 36.24 35.84 40.33 40.08 40.90 39.37 40.06 37.56 36.82 38.31 34.68 34.19 37.90 38.34 38.12 41.33 39.64 34.04 29.19 24.99 30.01 32.78 31.10 32.18 34.11 32.43 27.21 26.45
47.09 47.14 47.15 47.08 46.94 46.63 46.40 47.69 48.73 49.53 50.05 48.04 42.15 36.11 38.48 32.25 35.35 37.65 37.88 36.71 35.63 35.86 40.02 41.68 37.89 37.30 37.08 33.93 34.82 35.69 35.48 36.11 38.87 40.26 39.39 37.82 32.18 33.42 33.66 34.14 34.15 33.42 33.81 33.04 30.73 31.49 28.17
46.71 46.93 47.02 47.11 46.73 46.59 45.89 47.09 48.52 49.35 50.32 46.61 40.81 40.09 41.78 37.27 39.43 36.91 37.94 36.86 36.36 37.56 38.06 36.81 37.40 38.27 38.50 36.27 34.89 32.68 34.12 34.71 34.48 38.02 38.01 39.46 32.04 32.47 30.72 34.41 34.27 32.06 34.27 34.99 34.01 33.41 32.98
46.34 46.60 46.83 46.92 46.68 46.13 45.46 46.67 47.97 48.93 49.09 43.99 46.52 47.55 44.04 39.62 38.75 37.10 36.76 37.53 37.66 39.26 40.22 40.27 38.87 38.14 37.26 38.77 41.26 40.91 40.67 40.12 38.63 38.51 37.91 35.85 33.33 32.27 28.60 33.84 34.02 31.88 34.28 34.92 35.36 36.65 35.03
46.21 46.40 46.68 46.76 46.33 45.86 45.23 46.05 47.29 49.02 49.09 46.27 46.30 46.61 42.39 37.05 38.61 37.78 39.71 40.21 39.28 39.55 38.66 40.87 41.22 39.95 42.40 45.02 43.91 42.28 38.72 38.98 39.55 39.42 41.14 36.03 34.90 33.44 30.27 33.52 28.01 36.98 42.25 40.49 37.28 38.32 37.91
46.27 46.31 46.49 46.29 46.13 45.66 44.98 45.63 46.63 48.16 49.27 46.31 47.39 45.88 43.36 38.39 40.52 40.01 40.27 39.68 40.36 41.81 41.01 41.07 42.72 44.23 45.92 43.66 39.02 34.33 34.55 36.09 37.86 40.37 39.86 40.23 37.73 33.09 32.00 30.84 34.54 36.44 39.36 36.45 35.12 35.29 40.22
46.45 46.29 46.31 46.01 45.86 45.67 44.79 45.12 46.04 47.78 48.72 46.94 46.45 48.85 46.07 40.05 39.01 42.49 40.63 41.16 39.30 39.39 40.06 41.65 44.36 46.16 44.87 41.21 38.24 31.30 30.18 34.49 33.68 36.72 40.16 39.82 39.34 35.73 32.68 29.26 27.35 34.18 37.75 40.70 40.18 33.36 39.56
46.29 45.98 46.07 45.94 45.80 45.68 45.12 44.85 45.73 47.45 48.38 46.76 46.52 49.48 47.17 41.47 42.24 42.20 39.78 40.65 42.60 40.35 38.24 39.96 40.88 40.43 43.92 38.72 35.28 34.08 31.29 35.80 31.94 32.16 34.10 35.60 36.49 33.68 33.36 31.36 31.57 37.69 39.02 38.50 30.29 31.80 38.64
45.96 46.00 45.90 45.91 45.67 45.67 45.22 44.63 45.49 47.09 47.80 46.26 45.39 48.30 47.77 42.66 42.37 44.16 44.73 42.50 42.07 41.63 36.90 40.40 39.40 40.88 40.62 36.52 35.87 36.04 35.13 35.85 32.59 35.06 35.12 33.49 33.96 33.02 33.08 30.53 23.98 38.09 37.11 32.48 35.67 37.30 37.87
45.94 45.88 45.83 45.66 45.49 45.39 44.71 44.57 45.47 46.82 47.39 47.01 44.45 48.79 51.51 46.37 45.16 47.72 47.25 47.20 47.41 46.10 43.12 42.56 41.28 41.75 42.45 37.86 38.79 39.35 37.23 34.54 31.24 28.92 32.89 31.40 35.20 32.47 33.75 32.32 37.63 38.10 38.09 39.33 39.15 37.85 35.69

GFSGBSN_sfc_wetblb_033.txt.gz
Wetbulb
53.58 53.38 53.26 53.24 52.86 52.64 53.27 53.73 53.84 54.27 55.39 56.37 58.04 59.49 59.68 59.94 59.88 58.53 58.03 57.14 56.76 56.42 56.00 56.22 57.26 57.49 53.66 48.92 48.60 54.39 58.39 56.80 57.97 58.15 55.63 52.64 47.81 45.70 42.70 44.06 45.50 44.97 45.91 47.85 48.66 47.26 47.85
53.32 53.18 52.81 52.98 52.80 53.00 52.19 52.42 53.09 53.35 54.18 54.98 56.33 57.91 58.32 59.34 59.76 59.10 58.06 57.32 56.87 56.26 55.95 55.36 56.22 56.38 49.12 38.59 49.88 51.72 52.33 52.45 56.07 57.39 55.33 54.02 50.59 48.79 45.23 44.29 43.20 44.66 44.81 44.98 46.10 46.37 47.25
52.51 52.93 52.47 52.12 52.29 51.90 51.89 51.70 52.11 52.50 52.89 54.03 54.91 55.92 57.32 58.56 59.20 58.90 58.19 57.63 56.99 56.39 55.89 55.42 56.03 53.24 46.68 43.44 51.17 51.37 51.76 50.25 51.81 56.15 53.63 55.23 53.23 49.37 48.42 44.57 47.24 45.35 42.02 43.25 44.11 45.22 44.90
51.81 51.74 51.73 51.77 51.64 51.62 51.45 51.11 51.38 52.53 52.61 52.71 53.24 54.40 55.60 56.98 58.18 58.79 58.35 57.78 57.24 56.88 56.25 55.84 55.99 49.95 39.75 50.92 51.47 51.07 51.04 49.60 50.81 52.05 52.55 54.92 54.74 51.04 47.55 46.68 44.50 42.28 41.87 36.53 41.70 43.87 44.93
51.46 51.31 51.59 51.67 51.94 51.75 51.15 51.09 51.68 51.68 52.33 52.91 52.87 53.46 54.03 55.69 57.04 58.27 58.23 58.09 57.41 56.87 56.34 56.15 49.67 44.52 39.29 51.35 47.92 50.54 49.94 47.30 48.35 49.02 50.28 53.44 49.46 44.49 45.14 40.62 36.85 39.52 32.55 35.03 37.56 43.41 43.46
51.88 51.54 51.82 51.54 51.42 51.37 51.29 51.16 51.15 51.30 51.82 52.29 52.45 52.93 53.74 54.78 55.21 57.60 57.89 57.11 56.18 54.23 53.97 54.28 51.22 42.76 44.00 43.18 47.88 49.00 49.95 49.42 46.11 45.95 45.28 44.84 43.55 40.22 40.62 37.24 28.15 31.51 33.15 34.68 35.34 39.92 40.13
52.60 51.91 51.45 51.10 51.08 50.75 50.75 50.41 50.53 50.94 51.22 51.54 51.93 52.26 52.88 53.83 54.58 56.84 55.79 51.20 44.93 43.28 47.27 41.99 44.19 42.42 44.29 48.05 50.07 47.55 49.25 47.12 45.83 42.81 37.31 40.35 36.64 33.91 37.06 37.77 37.36 35.94 34.85 33.96 37.90 40.91 37.98
51.77 50.69 50.89 50.83 51.00 50.79 50.45 50.39 50.44 50.47 50.82 51.09 51.31 51.56 51.84 52.83 54.71 55.55 53.06 45.52 44.69 44.48 37.74 44.22 45.29 46.23 47.48 48.79 42.80 45.70 48.84 42.15 40.82 36.04 37.96 36.55 33.05 37.18 38.35 38.36 37.14 36.86 34.61 33.81 36.91 39.25 37.50
50.94 51.38 51.25 51.03 50.64 50.49 50.19 49.92 49.71 50.13 50.53 50.59 50.48 50.79 51.46 51.70 53.65 53.07 49.52 47.47 48.24 46.98 36.88 39.95 43.23 43.47 45.32 46.87 42.70 42.81 45.53 42.12 38.25 35.57 35.68 32.76 34.97 38.64 37.05 34.73 33.47 33.38 32.36 32.47 32.16 35.57 36.86
51.21 51.44 51.17 50.76 50.34 50.14 49.91 49.64 49.63 50.05 50.23 49.85 50.23 50.18 50.26 51.08 48.70 51.86 47.75 49.71 50.03 47.59 25.34 32.15 39.33 42.73 45.69 46.95 40.89 47.78 46.98 42.95 39.00 35.00 35.77 35.08 38.13 36.37 34.81 33.36 34.42 30.08 35.26 34.74 33.27 31.64 26.67
51.02 50.89 50.50 50.24 49.87 49.72 49.52 49.50 49.64 49.59 49.49 49.94 49.95 50.18 50.44 50.83 48.39 48.20 49.82 50.82 48.53 43.73 12.86 34.43 39.42 48.81 46.48 41.06 41.24 42.12 47.57 44.19 37.00 35.96 36.43 32.51 34.86 34.39 33.59 34.36 35.73 32.80 36.85 34.67 34.23 31.99 30.68
50.68 50.54 50.18 49.89 49.58 49.32 49.21 49.38 48.84 49.73 49.74 50.19 51.45 51.72 51.46 48.60 49.26 48.89 51.47 50.30 44.95 29.40 15.37 33.92 39.46 39.75 40.17 41.16 42.09 43.07 43.31 46.13 44.16 38.54 37.64 34.95 39.11 37.54 35.73 37.41 37.30 38.20 35.17 35.30 35.06 32.47 25.90
50.03 49.99 49.93 49.44 49.09 49.02 48.96 48.96 48.50 49.73 50.52 50.14 50.92 51.47 50.24 49.53 44.56 52.49 51.53 45.91 29.59 21.53 33.13 32.92 34.26 38.45 37.92 36.50 38.44 40.12 38.75 37.27 34.99 30.64 30.64 36.01 36.67 39.27 39.01 34.47 36.77 36.28 33.81 25.28 23.94 24.49 22.71
49.74 49.60 49.22 49.05 48.89 48.75 48.65 48.39 48.38 49.83 50.34 49.71 51.04 50.77 50.30 49.85 51.82 52.03 47.63 36.50 23.80 28.79 29.81 36.91 36.17 36.37 33.30 36.39 36.25 37.63 36.90 34.74 38.42 36.56 32.39 28.28 24.37 35.32 38.93 35.93 32.87 33.37 32.37 25.86 18.79 19.54 21.70
49.09 48.71 48.71 48.68 48.61 48.61 48.34 48.33 48.27 49.74 49.87 49.19 49.45 46.22 45.65 48.74 51.89 51.13 40.32 28.57 24.96 29.19 34.69 34.39 34.67 31.60 31.24 34.35 35.11 35.53 34.98 34.31 36.62 38.35 31.47 29.50 26.98 35.18 37.07 37.89 36.96 33.58 30.28 34.33 28.18 28.65 25.48
48.50 48.39 48.36 48.48 48.39 48.20 48.05 48.17 48.07 49.57 49.94 49.76 46.06 45.06 45.65 51.03 52.05 47.07 35.86 31.36 30.16 35.68 37.28 35.97 29.33 31.81 28.81 31.97 31.80 33.44 33.23 34.35 34.79 37.35 37.59 32.86 24.59 31.36 35.09 37.95 38.31 35.58 36.44 28.40 29.06 20.04 18.70
48.05 48.20 48.24 48.21 47.98 47.84 47.56 47.81 47.88 49.10 49.84 50.10 44.72 40.30 46.82 51.49 50.05 39.69 31.70 32.25 34.79 38.74 38.68 34.22 32.47 31.51 32.00 31.66 32.83 32.83 30.55 33.67 36.24 35.14 38.45 35.96 31.43 27.92 34.83 32.11 30.57 33.22 31.11 32.97 31.40 29.04 21.90
48.32 48.15 47.92 47.85 47.73 47.45 47.35 47.38 47.99 48.99 49.82 47.66 43.26 33.88 47.41 50.50 34.30 33.26 34.07 36.52 40.79 37.98 39.83 38.17 37.42 35.98 33.55 33.54 33.44 32.67 31.23 32.12 36.69 36.16 33.29 35.61 33.08 26.86 27.65 34.33 36.62 35.23 33.16 32.69 26.83 24.67 27.27
48.13 47.96 47.82 47.61 47.51 47.33 47.03 46.97 47.63 48.89 49.67 45.53 40.09 41.16 48.34 44.93 30.74 33.24 38.07 37.78 39.36 37.43 37.62 37.42 36.56 38.33 38.35 35.73 32.26 34.35 33.08 37.53 37.38 35.93 33.15 35.28 31.20 24.73 23.98 30.71 34.22 32.19 33.81 34.19 33.56 31.73 26.38
47.79 47.47 47.55 47.41 47.46 47.15 46.70 46.39 47.59 48.80 50.08 47.72 39.94 34.86 36.43 41.65 40.70 36.94 34.80 35.39 35.86 39.76 38.91 40.24 39.09 39.91 37.07 36.05 37.50 34.32 35.05 37.47 37.53 37.46 40.77 39.20 32.93 27.49 23.45 28.86 33.80 30.27 31.84 33.66 32.04 27.22 27.27
47.34 47.03 47.35 47.43 47.29 47.03 46.41 46.16 47.26 48.59 50.13 47.39 41.38 36.68 38.55 32.24 35.51 36.70 37.08 36.89 34.99 34.95 39.18 40.48 37.83 37.59 35.82 33.31 34.20 34.70 36.08 36.00 38.54 39.66 39.59 37.16 32.02 32.15 32.50 33.49 33.80 32.87 32.57 32.88 30.62 31.38 27.44
47.25 47.18 47.21 47.32 47.21 46.91 46.20 45.80 47.11 48.43 50.10 45.20 40.48 39.83 39.61 36.81 38.81 37.14 36.68 35.23 35.74 36.84 36.90 36.27 35.54 37.36 37.55 34.89 35.59 32.61 35.29 34.28 34.41 37.13 36.80 38.48 32.43 33.22 31.15 34.64 34.72 31.98 34.28 34.37 32.99 33.17 32.44
47.18 47.02 46.98 47.19 46.87 46.72 46.05 45.48 46.77 47.83 48.88 43.03 44.20 46.37 43.35 38.10 37.34 36.75 36.03 36.70 36.80 39.10 39.33 39.03 38.74 37.89 36.83 38.68 40.42 41.46 39.41 39.79 38.85 37.49 36.54 37.05 33.93 32.24 28.78 34.79 34.00 31.71 35.49 36.77 35.54 35.51 34.12
46.89 46.95 46.92 46.91 46.61 46.57 46.21 45.34 45.99 47.21 48.40 45.50 45.23 44.53 41.50 35.91 37.54 36.39 37.63 38.81 38.35 38.80 38.04 40.10 41.11 38.89 42.13 45.00 44.12 42.72 40.83 39.72 39.73 38.87 40.03 36.26 34.35 33.61 29.78 33.07 27.39 37.68 42.32 39.88 37.86 37.40 37.65
46.84 46.70 46.46 46.74 46.45 46.37 46.24 45.54 45.77 46.77 48.68 45.56 46.33 44.04 43.29 37.43 38.89 38.69 39.19 38.27 40.17 41.09 39.92 40.53 42.64 43.87 46.42 43.64 38.54 35.18 35.00 34.89 36.55 37.89 37.86 38.67 36.47 32.89 30.93 30.69 33.79 36.30 37.35 37.94 37.27 36.77 39.82
46.21 46.51 46.53 46.65 46.28 46.05 46.16 45.46 45.40 46.48 48.20 45.46 45.19 48.02 45.40 40.41 38.07 42.30 39.74 41.03 38.78 38.86 40.10 41.72 44.99 46.71 45.37 40.89 37.55 31.26 29.66 30.86 32.92 36.78 40.05 39.71 39.40 35.59 32.46 28.96 26.46 34.34 38.54 40.52 40.02 33.12 40.52
46.66 46.51 46.34 46.42 46.28 46.07 45.96 45.10 45.15 46.30 47.85 45.57 44.43 48.27 45.66 40.75 41.56 43.20 40.52 40.31 42.69 40.65 38.70 40.07 41.20 41.18 44.14 38.07 34.20 32.90 30.57 33.59 31.09 31.59 34.22 35.21 35.30 32.20 32.50 32.11 31.47 37.09 38.33 39.14 30.35 33.58 39.43
46.64 46.45 46.25 46.27 45.88 45.62 45.70 44.61 44.93 46.26 47.83 45.57 43.47 47.10 45.80 40.67 42.74 43.48 44.13 41.97 42.06 40.96 37.71 40.21 39.48 39.91 39.28 36.19 34.44 35.80 33.87 35.63 33.28 33.09 33.23 33.96 33.35 34.12 33.72 30.46 26.03 37.69 37.78 34.04 36.69 37.72 38.81
46.08 46.09 45.92 45.56 45.35 45.51 44.94 44.19 44.57 46.04 47.00 46.95 42.13 46.27 47.38 46.12 43.29 47.12 47.73 47.23 46.64 45.74 42.90 42.32 40.88 41.16 42.39 38.50 36.11 38.54 34.50 35.92 31.14 28.47 33.24 31.17 35.15 33.71 33.68 32.94 38.05 38.48 38.77 39.10 38.60 37.46 36.84

GFSGBSN_sfc_wetblb_036.txt.gz
Wetbulb
53.19 53.39 53.16 52.97 52.58 52.64 52.97 52.15 52.10 52.42 53.38 53.73 54.11 55.18 56.88 58.33 59.21 59.79 59.16 58.46 57.68 57.05 56.40 55.87 56.98 57.33 55.71 50.01 50.70 57.14 57.79 58.01 60.48 60.68 57.26 54.30 51.63 50.24 47.02 47.98 48.92 47.36 48.57 49.90 51.30 51.28 50.94
52.81 52.74 52.42 52.61 52.62 52.63 52.43 52.09 51.90 51.64 52.45 53.35 53.55 53.34 55.13 55.96 58.08 59.03 59.22 58.50 57.75 56.91 56.68 55.58 56.16 56.66 50.56 42.71 53.82 54.96 55.55 56.66 59.45 58.10 56.92 55.93 52.96 50.81 48.24 47.73 47.08 48.06 48.22 48.65 49.59 49.71 50.22
52.29 52.71 52.62 52.67 52.59 52.82 52.64 52.41 51.84 51.81 51.67 52.77 53.33 53.64 53.43 54.59 56.49 58.23 59.03 58.60 57.75 56.94 56.65 55.89 56.45 54.47 49.02 46.09 53.92 54.82 54.63 54.60 57.05 57.87 54.71 55.41 53.80 50.70 51.38 47.07 50.05 48.49 44.95 47.43 47.99 48.55 47.85
52.60 52.54 52.49 52.46 52.36 52.18 51.84 51.57 51.69 51.56 51.60 52.05 52.81 53.12 53.32 53.77 54.82 56.51 58.20 58.71 57.97 57.28 56.58 56.23 56.44 52.36 43.87 52.52 55.21 52.60 53.86 53.20 56.61 57.86 57.16 56.75 55.83 51.79 49.97 49.56 47.06 43.95 44.45 40.50 45.73 46.37 47.60
52.86 52.90 52.22 52.23 52.20 52.17 51.81 51.32 51.24 51.12 51.25 51.62 52.02 52.52 52.96 53.43 54.77 55.20 57.03 58.54 57.95 57.24 56.81 56.61 51.91 47.80 43.48 52.26 48.62 51.72 53.52 51.31 53.15 53.60 54.01 56.57 54.14 49.08 48.42 44.32 41.76 42.84 38.48 39.30 41.79 46.41 45.75
53.22 51.85 51.85 51.78 52.07 51.91 51.53 51.15 50.98 51.05 50.63 51.00 51.56 51.93 52.26 52.93 53.46 54.85 55.83 58.13 57.17 56.26 55.11 54.66 51.75 45.08 47.41 44.98 49.08 50.87 52.78 52.45 49.98 50.25 48.76 48.54 47.30 43.32 42.79 40.85 34.69 37.11 37.75 39.52 39.08 43.12 43.96
51.98 51.66 51.92 51.78 51.94 51.93 51.42 51.18 50.92 50.51 50.55 50.46 50.87 51.22 51.56 52.03 52.54 53.76 53.33 52.38 44.78 43.96 48.30 44.29 45.00 44.30 45.86 49.92 52.27 49.29 51.52 50.04 49.75 48.21 41.86 44.66 40.22 37.05 40.11 41.58 41.98 39.66 38.55 38.05 41.41 43.86 41.64
51.91 52.32 52.32 51.95 51.36 51.49 50.98 50.95 50.74 50.36 50.20 50.40 50.61 50.51 51.23 51.25 52.06 52.43 52.51 46.77 46.73 49.33 41.04 46.86 47.68 47.22 48.73 49.93 44.28 47.31 51.45 45.12 44.24 40.55 43.08 39.91 35.93 41.46 42.23 41.85 40.03 39.09 37.28 37.40 40.69 42.56 41.02
52.12 52.15 52.06 51.59 51.29 51.16 50.73 50.53 50.38 50.32 50.13 50.28 50.29 50.14 50.48 50.77 50.74 50.02 48.64 48.60 52.10 50.67 42.25 42.04 45.49 45.74 47.00 48.34 43.98 44.91 47.98 45.44 42.47 39.53 39.94 37.78 38.67 40.93 39.92 38.84 37.47 37.81 36.44 36.90 36.53 39.70 40.48
51.99 51.36 51.35 51.19 51.12 50.43 50.12 50.10 49.90 49.97 49.35 50.07 50.34 50.51 50.73 50.64 46.93 47.99 46.56 52.04 50.98 49.93 37.28 36.53 40.50 43.73 46.83 47.72 42.14 49.08 49.38 45.56 41.68 38.48 39.54 38.85 42.02 38.44 37.98 36.71 38.19 33.92 39.31 37.66 35.95 34.57 31.31
51.35 51.20 51.07 50.64 50.48 49.86 49.72 49.89 49.72 49.39 49.72 50.17 50.80 51.48 51.16 51.33 46.61 44.89 49.97 51.61 50.65 47.23 26.57 37.87 40.12 49.38 47.13 42.79 43.88 43.94 49.54 45.27 39.40 38.63 39.24 36.33 37.37 37.36 35.79 36.94 39.35 35.48 39.27 37.43 36.96 34.94 33.26
50.38 50.70 50.12 49.87 49.74 49.38 49.35 49.28 49.39 48.94 49.85 50.15 50.62 50.23 51.12 49.95 48.70 48.45 52.04 50.45 47.09 33.56 25.39 34.73 40.39 40.41 40.19 41.31 42.32 44.50 43.91 46.51 45.24 39.60 39.73 39.04 41.98 40.14 39.61 40.56 40.48 40.18 37.26 36.46 36.43 33.77 27.07
49.64 49.81 49.42 49.19 49.21 49.15 48.98 48.94 48.92 48.70 49.98 50.16 50.06 50.07 50.14 49.75 44.30 50.96 51.21 45.29 30.89 29.02 36.40 33.19 34.84 39.48 38.44 36.97 39.52 40.59 39.09 37.57 36.04 31.95 32.52 37.15 37.83 40.97 41.34 36.68 39.80 38.11 33.74 28.09 26.10 25.39 26.18
49.63 49.09 49.02 49.05 49.03 48.88 48.62 48.68 48.76 48.59 49.00 49.65 49.82 50.43 50.16 48.91 51.79 51.33 47.95 35.62 28.27 32.03 33.52 38.19 37.65 38.05 34.80 37.11 37.46 38.09 37.35 35.14 39.88 37.58 34.39 31.72 30.46 37.73 40.66 37.48 34.95 34.57 33.90 29.16 22.13 25.80 28.98
49.32 49.25 48.90 48.78 48.79 48.68 48.62 48.40 48.60 48.27 50.13 49.90 50.30 49.38 49.07 50.24 51.98 50.23 39.38 31.39 31.12 33.74 36.90 35.09 35.83 32.72 32.35 35.65 36.44 36.01 35.93 35.43 38.12 38.83 32.38 31.92 30.16 37.88 40.34 40.49 39.35 34.52 31.01 37.12 29.88 31.29 26.91
49.36 49.12 48.80 48.52 48.59 48.49 48.41 48.24 48.32 48.23 49.94 50.17 45.18 46.36 45.95 51.31 51.52 46.20 35.30 33.66 33.49 39.01 39.05 38.42 31.84 34.39 30.18 32.51 33.51 33.79 34.20 38.54 37.74 41.02 41.55 35.86 30.33 35.78 37.72 40.02 40.05 37.58 38.99 29.46 30.77 21.77 21.56
48.93 48.82 48.46 48.38 48.27 48.21 48.04 47.91 47.60 48.49 49.62 49.92 44.34 40.68 46.68 51.89 47.51 38.18 32.51 33.86 37.35 40.88 40.93 37.30 34.87 33.72 34.88 33.30 34.82 33.81 34.92 37.14 40.07 38.80 41.71 38.06 33.34 31.82 35.09 33.10 33.67 33.66 32.04 33.58 33.30 31.21 24.87
48.65 48.50 48.10 48.14 47.93 47.94 47.81 47.25 47.49 48.65 49.55 47.32 42.58 35.74 47.33 49.95 35.53 35.28 34.18 38.03 40.80 39.42 42.16 40.25 40.09 38.18 36.34 36.30 34.57 34.96 34.25 36.43 40.54 40.49 36.06 38.55 34.28 28.78 31.96 38.42 39.97 38.50 35.41 34.47 28.36 26.74 29.35
48.40 48.47 47.94 47.90 47.86 47.68 47.60 46.75 47.42 48.58 49.66 45.90 40.14 39.90 47.54 47.69 32.95 34.93 37.13 38.68 40.04 39.21 39.54 39.27 38.22 40.15 40.01 36.79 33.60 36.09 36.24 40.14 40.61 39.67 37.56 38.87 32.92 28.08 31.67 34.51 36.87 33.76 35.70 35.84 35.41 33.37 28.70
48.21 48.19 47.89 47.70 47.75 47.42 47.47 46.48 46.90 48.42 49.79 48.90 40.26 34.88 38.51 41.12 41.33 37.36 37.04 37.04 36.62 42.29 40.96 41.83 40.07 41.23 39.05 36.78 38.32 35.59 35.82 39.27 40.41 40.48 41.80 41.30 35.22 31.68 28.70 33.48 36.50 32.24 33.76 34.96 32.76 28.54 29.73
47.94 47.88 48.01 47.60 47.60 47.31 47.27 46.35 46.87 48.42 49.80 48.33 42.78 37.71 39.75 34.50 37.07 39.38 39.86 38.48 36.62 36.58 41.29 42.03 38.70 39.02 37.62 34.62 35.15 35.41 37.16 38.13 40.12 40.31 40.22 38.31 32.27 34.61 34.92 35.68 35.69 34.35 33.79 34.36 31.76 32.44 28.69
47.86 47.73 47.61 47.56 47.42 47.27 46.97 46.58 46.35 48.58 49.63 44.74 39.25 40.36 41.55 38.35 39.12 38.90 38.72 37.37 37.17 37.93 39.45 37.98 37.72 39.26 39.25 35.63 36.38 34.87 36.69 36.40 36.82 39.44 37.72 39.37 32.80 34.48 31.88 35.61 35.43 33.15 36.04 36.03 35.23 34.74 33.06
47.61 47.47 47.31 47.11 47.37 47.09 46.67 46.71 46.03 47.82 48.30 42.86 44.55 45.58 43.52 38.79 38.00 37.73 37.82 38.26 38.46 40.79 40.63 41.52 40.63 39.44 37.83 39.10 41.46 41.67 42.14 41.70 40.94 39.02 38.20 37.14 34.37 32.39 30.46 34.81 35.13 34.15 36.99 37.42 37.52 37.36 35.69
46.94 46.69 47.08 47.13 47.19 46.76 46.74 46.61 45.84 46.95 48.20 45.32 44.69 43.91 40.70 36.02 37.83 37.62 39.06 39.96 39.42 40.37 39.15 41.72 41.95 39.58 42.67 46.13 44.77 44.16 42.25 41.88 42.09 41.49 41.73 37.07 34.84 34.19 31.40 33.39 28.55 39.31 42.75 41.28 38.10 39.06 38.79
47.43 47.30 47.15 46.94 47.04 46.74 46.68 46.41 45.57 46.45 47.90 45.53 45.08 43.24 41.74 36.97 39.31 38.41 39.69 39.82 41.52 41.95 40.45 41.07 43.12 44.39 47.13 43.65 38.41 36.21 35.90 36.15 38.41 40.33 40.51 41.18 36.75 33.33 30.84 30.59 34.80 38.97 40.64 38.04 36.76 37.24 41.05
47.07 47.23 46.99 46.80 46.87 46.32 46.27 46.10 45.24 46.24 47.95 46.57 44.99 47.67 45.06 41.09 38.62 41.83 40.72 41.30 39.39 39.49 39.98 41.72 45.68 47.33 45.73 41.13 37.76 32.13 29.70 33.49 33.95 37.67 40.74 39.24 38.42 34.47 33.41 28.89 28.22 38.51 41.90 42.31 42.28 35.34 40.71
46.02 46.46 46.56 46.66 46.32 45.95 46.09 45.42 44.92 45.69 47.30 46.13 44.33 47.52 43.78 43.08 44.60 43.96 41.09 41.16 43.67 42.30 39.67 40.98 42.26 42.71 44.85 38.48 34.45 34.10 33.17 38.07 33.37 33.20 35.32 35.75 35.25 31.85 32.85 31.18 35.74 42.35 43.71 42.73 34.31 34.51 41.18
45.44 45.53 45.61 45.75 45.83 45.78 45.38 44.83 44.57 45.16 46.70 45.33 43.73 46.89 43.17 43.13 45.50 45.89 46.32 44.06 43.63 43.51 38.52 41.28 39.85 40.44 39.90 36.10 35.73 35.49 35.12 38.12 36.86 38.53 37.72 35.65 34.21 34.45 34.99 32.74 30.50 42.68 45.04 39.27 42.19 43.47 42.58
44.83 44.50 44.40 44.53 44.49 44.42 44.25 44.19 44.27 45.01 45.94 45.94 41.69 45.76 45.90 43.32 46.70 49.21 49.36 49.16 48.02 47.33 44.34 42.63 40.87 40.64 41.01 38.20 38.63 40.03 36.86 39.64 37.82 35.01 39.97 35.87 39.84 38.72 38.30 38.90 43.92 44.35 44.32 44.80 43.01 41.73 41.83

GFSGBSN_sfc_wetblb_039.txt.gz
Wetbulb
53.09 53.38 53.17 53.41 53.35 53.30 53.35 53.41 52.90 52.59 52.43 52.32 53.04 53.84 54.14 54.30 55.64 57.07 59.14 59.86 58.92 58.11 57.32 56.78 57.16 57.43 56.01 50.49 52.14 60.21 58.04 58.98 61.24 61.47 57.69 55.56 52.28 51.74 48.20 49.82 50.20 48.30 49.89 51.15 52.33 52.77 52.58
52.77 53.19 53.25 53.01 53.13 53.06 53.14 52.85 52.42 52.32 52.47 52.22 52.51 53.18 53.76 54.31 54.24 55.49 57.46 59.13 58.97 58.13 57.35 56.59 56.57 57.04 52.57 45.56 55.79 57.86 57.24 57.75 58.96 59.31 57.32 56.11 53.28 53.70 50.84 49.77 48.66 50.56 50.22 50.44 51.39 50.93 51.50
53.07 53.41 53.86 52.92 52.89 52.36 52.64 52.74 52.45 52.19 52.10 52.23 52.31 52.31 52.91 53.59 53.99 54.63 56.06 58.72 59.04 58.01 57.35 56.60 56.83 55.53 50.34 48.05 54.49 56.13 56.29 56.98 59.44 58.35 56.04 56.93 56.30 52.49 51.94 48.36 51.53 49.94 46.22 48.78 49.41 50.05 49.07
53.17 54.56 53.03 52.96 52.76 52.54 52.56 52.09 52.06 52.16 52.01 51.90 51.52 52.00 52.19 52.84 53.47 54.15 55.86 57.47 59.02 58.11 57.20 56.60 56.87 53.33 46.67 53.97 56.25 53.65 55.59 55.96 59.29 59.92 58.25 57.79 56.07 52.57 49.83 50.50 48.48 45.60 46.37 41.86 48.04 48.56 49.26
54.11 52.93 52.66 52.94 52.82 52.56 52.43 52.22 51.68 51.51 51.71 51.60 51.26 51.27 51.85 52.44 52.95 53.46 54.40 55.68 57.80 57.74 57.07 56.60 52.93 50.40 45.53 52.86 49.41 53.12 54.66 53.19 55.60 56.85 57.74 57.85 54.41 49.67 48.83 45.05 43.33 44.77 40.00 42.32 44.72 49.11 47.54
53.19 52.94 53.07 53.05 52.96 52.60 52.40 52.00 51.59 51.42 51.12 50.87 50.80 50.87 51.46 51.60 51.95 52.64 53.39 55.05 56.97 56.63 55.50 54.71 52.57 46.16 48.69 46.32 50.15 51.66 54.19 54.92 52.03 52.11 51.42 51.06 49.35 45.00 45.79 43.88 37.48 40.51 40.83 42.31 41.80 45.86 45.69
52.33 53.01 52.75 52.21 52.64 52.40 52.28 51.76 51.55 51.02 50.92 50.51 50.80 50.54 50.70 51.00 51.84 51.83 52.01 51.29 48.73 47.27 49.67 46.03 45.73 45.39 47.56 50.77 52.60 49.95 52.54 52.25 51.09 48.80 42.63 46.29 41.35 38.64 42.45 44.01 44.23 42.91 40.44 40.16 43.78 46.30 43.86
52.69 52.64 52.96 52.38 52.04 51.95 51.80 51.14 51.05 50.80 50.62 50.55 50.14 50.62 50.76 50.83 51.15 51.33 49.78 45.01 46.16 47.67 41.81 47.96 48.29 48.10 50.21 50.95 45.12 47.85 52.46 46.22 45.60 40.78 43.54 40.68 37.67 43.70 44.87 43.82 42.04 41.08 39.39 39.34 42.67 44.59 42.75
52.54 52.57 51.72 51.85 51.64 51.36 51.03 50.58 50.70 50.40 50.23 50.03 49.77 50.45 50.72 50.53 50.90 49.97 46.83 45.16 51.12 50.84 42.16 44.14 47.43 46.95 47.34 49.37 45.42 45.24 48.86 46.97 43.53 41.30 41.17 39.24 41.08 42.93 42.41 40.52 38.82 39.47 37.94 38.41 38.36 41.73 42.55
51.56 51.09 51.17 51.13 50.72 50.40 50.15 50.11 50.09 50.11 49.78 49.37 49.80 50.67 50.85 50.62 46.87 48.35 45.51 49.32 51.49 49.95 35.76 36.95 41.22 45.21 48.07 48.47 43.41 50.12 50.61 46.98 43.58 40.92 41.90 41.27 44.19 40.08 39.84 38.56 40.01 35.57 41.54 39.77 38.02 36.39 33.09
50.38 50.83 50.85 50.27 50.04 49.90 49.92 49.77 49.78 49.47 49.48 49.30 49.68 50.41 50.47 50.42 46.53 45.22 47.99 51.25 50.88 47.03 27.11 39.34 40.69 50.27 48.44 43.90 45.26 45.23 50.78 46.50 41.05 40.80 41.18 38.50 38.96 39.20 37.35 38.60 41.04 37.25 40.74 38.60 38.14 35.70 34.20
50.17 50.40 50.24 50.10 49.70 49.55 49.41 49.32 49.37 49.23 49.25 49.87 49.71 50.19 50.62 49.33 49.89 49.56 51.06 51.46 47.03 30.72 26.90 34.98 40.53 39.60 39.91 42.62 43.34 44.99 44.96 47.51 46.33 40.76 41.12 41.04 43.69 41.88 41.16 41.74 41.87 41.35 38.30 36.86 36.23 33.65 27.58
49.67 50.50 50.26 49.93 49.54 49.20 49.11 49.12 48.96 49.03 48.97 49.86 49.90 50.52 49.59 50.08 45.40 51.89 50.82 45.44 29.92 27.20 37.80 33.66 35.23 39.10 38.43 37.10 39.22 41.41 39.53 37.89 36.98 32.35 32.85 37.94 38.49 41.46 42.48 38.04 40.54 38.89 34.10 29.75 27.56 26.05 26.39
49.80 50.03 49.77 49.55 49.14 49.09 48.99 48.98 48.93 48.83 48.77 49.93 49.79 50.42 50.72 50.66 51.93 50.79 44.23 36.18 28.10 33.81 34.26 39.06 38.59 38.83 35.03 37.52 38.10 39.26 38.66 35.04 39.55 38.59 35.13 31.35 31.89 38.86 41.20 38.24 36.49 35.70 34.81 29.92 23.94 27.50 31.13
49.59 49.59 49.36 48.93 49.04 48.98 49.01 48.79 48.65 47.98 49.34 50.27 49.79 48.57 49.38 50.27 52.16 47.90 38.61 30.09 33.33 36.08 37.75 36.30 37.27 34.23 34.48 37.11 38.14 37.97 37.13 35.94 38.85 39.80 34.21 32.77 31.67 40.33 41.30 41.94 39.79 35.28 30.99 37.72 30.42 31.90 27.58
49.30 49.31 48.99 48.78 49.00 48.95 48.72 48.66 48.03 48.01 49.61 49.51 45.72 45.24 47.14 51.55 51.63 45.61 36.35 33.22 35.69 40.67 40.27 39.62 32.70 35.24 31.25 34.11 35.05 35.39 35.09 40.12 37.93 42.02 43.13 37.27 31.33 37.83 40.04 41.29 41.21 38.29 40.32 29.69 31.42 22.80 23.65
49.29 49.14 49.01 48.69 48.64 48.56 48.33 48.59 47.62 48.31 49.15 49.57 45.04 39.66 47.82 52.26 50.43 40.03 32.69 35.51 38.10 42.18 42.29 38.89 36.45 34.53 34.81 33.61 35.43 34.24 35.42 39.20 42.13 41.36 41.75 39.17 35.20 33.43 36.98 34.72 34.83 35.04 32.99 34.25 34.88 32.03 26.62
49.04 49.06 48.84 48.59 48.27 48.14 48.09 48.18 47.52 48.30 49.32 48.50 42.94 34.49 47.67 48.36 36.98 35.68 35.14 38.60 41.34 40.25 43.00 41.21 41.59 39.63 37.32 37.36 35.31 36.18 36.57 38.59 43.06 42.27 36.85 39.70 35.53 30.03 33.68 39.70 40.97 39.48 35.24 34.45 28.04 28.59 30.95
48.85 48.98 48.69 48.31 48.10 47.95 47.92 47.89 47.46 48.42 50.02 47.36 37.61 39.16 47.73 47.41 33.81 34.02 37.86 39.22 41.05 39.86 40.70 40.96 39.62 41.18 41.43 38.33 34.42 37.61 38.29 41.85 42.35 41.01 38.79 39.64 33.37 28.35 31.64 35.71 39.28 35.38 36.98 37.28 36.24 34.27 29.59
48.68 48.77 48.35 48.11 47.96 47.76 47.53 47.67 47.18 48.39 50.32 48.95 39.11 34.67 40.69 44.55 43.59 38.99 37.38 37.21 37.44 43.14 42.38 43.22 41.76 42.89 40.55 38.48 40.18 36.42 37.15 40.22 41.94 41.74 42.29 42.54 36.03 32.46 29.98 34.44 37.44 34.11 35.92 37.03 34.00 29.79 30.80
48.22 48.26 48.04 47.78 47.92 47.64 47.32 47.55 46.99 48.77 50.09 48.09 43.75 38.19 40.56 35.55 38.89 40.47 40.94 38.78 37.07 37.36 42.61 43.46 40.41 40.91 39.64 36.29 37.03 36.44 38.84 39.27 41.39 41.97 40.95 39.60 32.67 35.03 35.94 37.12 37.23 36.37 35.62 36.55 33.53 33.84 29.71
47.52 47.45 47.29 47.59 47.96 47.58 47.30 47.30 46.60 48.28 49.65 45.58 39.03 39.94 42.32 39.98 40.94 40.19 39.51 38.37 37.53 39.12 40.61 39.19 39.42 40.58 40.62 37.89 38.45 36.08 38.49 37.63 36.78 39.96 38.41 39.40 32.75 35.42 31.39 36.21 36.87 35.13 37.38 37.69 37.36 36.87 35.55
47.99 47.98 47.84 47.55 47.56 47.52 47.08 47.06 46.25 47.80 48.46 42.72 44.05 45.16 43.42 39.32 39.60 38.03 38.75 40.06 40.00 41.95 42.02 43.14 42.02 40.73 38.67 40.28 42.85 43.13 42.99 42.83 42.02 39.05 37.43 37.26 34.45 31.85 29.75 36.22 35.92 33.76 38.15 38.42 38.44 39.25 38.11
47.76 47.69 47.77 47.47 47.36 47.19 46.76 46.84 45.92 47.04 48.06 45.70 44.35 43.09 40.35 36.47 38.29 38.71 40.00 41.23 40.83 41.67 40.39 42.60 43.29 40.86 43.54 47.63 46.53 45.17 43.06 41.33 41.51 41.49 41.98 36.93 34.70 33.47 31.94 34.14 29.15 39.90 44.19 42.93 38.72 39.87 40.64
47.01 46.84 47.10 47.39 47.10 46.70 46.54 46.48 45.74 46.42 47.96 46.07 45.56 42.70 41.07 38.37 40.15 39.27 39.68 40.80 42.22 43.00 41.87 42.49 43.66 45.91 47.77 44.60 38.88 36.59 36.71 36.77 39.00 40.70 40.79 41.14 36.88 33.67 29.95 30.19 35.61 40.14 41.98 40.14 37.83 37.51 41.36
46.20 46.30 46.23 46.51 46.49 46.35 46.34 45.86 45.43 45.71 47.15 45.76 45.20 46.35 43.99 40.36 39.21 42.52 40.76 41.20 39.10 40.40 41.00 42.78 46.65 48.04 45.78 41.47 37.56 32.85 29.86 34.56 33.71 36.54 41.27 40.80 40.15 35.10 32.90 28.98 27.95 39.94 44.11 44.29 43.43 35.95 42.05
45.81 45.43 45.19 45.60 45.80 45.80 45.48 45.02 44.99 45.37 46.60 44.86 44.82 46.35 42.94 41.20 44.69 44.61 40.62 40.87 44.44 42.74 40.61 42.34 43.05 43.20 44.91 38.20 35.34 34.17 33.70 39.28 34.18 34.76 35.34 34.74 35.15 31.58 31.80 30.45 35.71 43.94 44.88 44.85 35.42 36.66 43.57
45.39 45.03 44.48 44.12 44.05 44.05 44.09 44.14 44.41 45.19 45.58 44.60 43.25 46.68 42.05 39.44 45.52 46.84 47.46 45.21 44.70 44.84 39.52 42.33 40.51 40.59 39.63 36.19 35.49 36.07 35.90 38.57 37.43 39.77 38.30 36.21 34.54 33.42 33.87 32.07 30.58 45.40 45.98 40.46 43.83 45.33 44.74
45.16 44.77 44.29 43.94 43.73 43.64 43.67 43.89 44.82 44.36 44.58 44.92 41.45 44.91 44.99 40.92 46.25 49.54 50.17 49.81 48.87 47.80 45.12 44.19 41.98 41.14 41.88 37.88 37.90 39.52 37.80 39.79 38.96 34.52 42.25 36.54 40.54 38.46 38.95 39.21 47.32 48.56 46.56 47.30 45.11 43.61 43.87

GFSGBSN_sfc_wetblb_042.txt.gz
Wetbulb
53.97 54.04 54.26 54.36 53.85 53.42 53.22 53.46 53.29 53.30 53.35 53.47 53.07 52.70 53.11 53.28 54.43 54.78 55.14 56.52 58.60 59.96 58.66 57.79 57.23 57.83 54.76 50.43 51.19 59.70 61.14 61.01 61.73 60.69 57.25 54.91 50.71 49.43 45.61 47.18 48.61 46.66 48.39 50.66 51.32 51.15 50.55
54.18 53.94 55.38 53.58 53.72 53.77 53.79 53.51 53.31 53.15 53.04 53.07 53.14 52.94 52.11 52.82 53.32 54.10 54.51 55.45 57.08 59.56 58.48 57.63 57.01 57.71 51.60 43.52 56.74 58.62 57.60 57.28 57.63 58.76 57.00 56.21 52.55 52.41 49.42 48.72 46.82 48.99 48.91 48.92 49.69 49.26 49.65
54.55 55.11 53.95 54.01 53.42 53.63 53.67 53.36 53.13 52.90 52.72 52.70 52.74 52.45 52.02 52.03 52.49 53.54 54.33 55.01 56.45 58.73 58.44 57.74 56.75 54.84 49.05 47.03 54.44 56.70 56.60 56.20 58.24 58.02 55.64 57.28 56.15 51.53 51.52 47.39 50.70 49.11 44.31 46.73 47.47 48.17 47.41
54.29 54.51 53.99 53.82 54.18 53.84 53.87 53.13 52.98 52.57 52.45 52.31 52.00 51.81 51.52 51.47 52.26 53.04 53.59 54.39 55.02 57.42 58.10 57.58 56.75 53.06 45.71 54.88 55.55 53.48 55.69 55.34 58.10 59.07 57.94 57.68 56.83 52.90 50.18 50.26 48.09 44.49 44.38 38.89 45.96 47.77 48.27
53.76 53.62 53.46 54.31 53.90 53.18 53.43 52.84 52.74 52.29 52.05 52.05 51.45 51.43 51.48 51.44 51.75 51.94 52.66 53.52 54.21 56.21 58.22 57.04 52.13 49.90 43.85 52.42 49.93 53.11 54.58 53.04 55.52 56.27 57.59 57.65 54.97 49.62 48.46 43.13 41.41 42.64 35.55 38.31 41.85 47.27 46.07
53.05 53.89 52.98 53.65 53.26 53.28 53.07 52.86 52.19 51.75 51.72 51.38 51.13 51.24 51.28 50.86 51.50 51.71 51.98 52.64 53.80 54.80 56.15 54.46 52.44 45.48 47.78 45.82 49.74 51.76 53.77 54.84 52.35 53.06 52.17 51.55 48.92 44.48 44.48 41.28 33.38 36.77 37.09 38.91 39.02 43.52 43.50
53.23 53.95 53.77 52.44 52.22 52.61 52.24 51.76 51.37 51.21 51.18 50.90 50.93 50.58 50.56 51.00 51.32 51.26 50.54 49.01 46.34 44.93 49.51 44.48 44.82 45.42 46.75 50.76 52.07 49.50 52.66 52.22 50.85 49.24 42.10 46.91 41.72 37.97 40.98 43.38 43.11 42.33 38.64 37.11 40.20 44.42 41.03
53.73 52.22 51.74 51.82 51.94 51.55 51.26 51.04 50.90 50.90 50.86 50.55 50.53 50.11 50.41 50.57 51.15 51.06 49.15 42.77 43.73 46.80 42.47 47.98 48.16 48.09 49.62 50.40 44.56 47.74 52.62 46.61 45.05 40.62 43.20 40.36 36.18 41.98 44.10 43.60 41.42 39.57 36.61 36.19 40.19 43.16 40.34
51.62 51.65 51.47 51.68 51.39 51.20 50.98 50.68 50.71 50.59 50.34 50.05 50.04 49.84 50.27 51.19 50.37 48.37 45.26 44.48 50.54 49.84 38.99 43.18 47.06 46.49 46.82 49.05 44.45 44.75 48.90 46.95 43.02 40.38 40.40 37.26 39.82 44.27 42.13 40.36 38.06 37.32 35.25 35.61 35.62 39.34 39.69
52.32 52.02 51.22 51.63 51.34 50.82 50.41 50.09 50.19 50.16 49.62 49.68 49.76 49.92 50.32 50.58 46.97 45.67 43.29 48.69 50.26 49.88 32.31 38.47 41.68 45.33 47.47 48.53 42.84 49.22 50.16 46.67 43.24 39.49 41.25 39.55 43.35 40.52 39.17 38.48 39.05 33.76 40.05 39.07 37.40 33.71 27.77
51.91 50.89 51.32 51.04 50.67 50.38 49.95 49.92 49.92 49.80 49.42 49.36 49.47 49.74 50.17 50.51 45.59 43.00 46.94 50.29 49.93 44.54 22.42 39.09 41.00 50.77 47.99 43.90 44.53 44.20 50.05 46.60 40.44 40.52 41.06 37.18 38.99 38.51 36.91 38.21 40.46 36.13 40.52 37.78 37.01 33.06 30.91
51.55 50.71 50.83 50.55 50.14 49.74 49.71 49.75 49.66 49.36 49.05 49.14 49.39 49.74 50.31 48.12 48.57 47.69 50.81 49.43 45.40 29.30 22.15 35.76 39.95 40.50 40.94 43.38 43.13 44.78 44.99 47.39 46.24 41.42 41.57 40.02 43.55 41.21 40.06 41.72 41.29 41.36 37.48 36.02 34.42 31.28 23.79
50.95 50.60 50.40 50.05 49.68 49.57 49.58 49.53 49.20 49.14 48.68 48.86 49.63 49.95 49.19 49.45 43.81 50.88 49.72 44.19 28.06 23.64 36.40 34.09 35.47 38.78 38.74 38.26 39.64 40.76 39.19 37.84 34.92 31.14 32.34 36.82 37.77 41.00 42.16 37.84 40.47 38.88 34.01 21.79 23.00 23.49 19.98
49.81 50.31 50.09 50.02 49.60 49.54 49.52 49.35 49.43 48.51 48.53 49.59 49.82 50.53 49.89 50.08 51.08 48.71 45.86 36.21 23.46 33.04 34.01 38.72 38.13 37.93 34.97 38.03 38.20 38.62 37.10 34.25 38.38 36.97 33.90 29.54 29.15 37.55 40.46 37.26 35.08 35.12 34.02 22.64 18.87 20.21 23.43
49.37 50.13 49.91 49.72 49.48 49.40 49.33 49.32 49.04 48.14 48.88 49.80 49.76 48.04 48.32 49.97 50.74 46.94 38.36 29.51 30.12 34.47 37.21 36.24 37.27 33.79 33.46 36.78 37.53 37.08 35.96 35.02 37.47 38.86 33.23 31.53 31.69 40.19 40.74 41.17 39.72 33.91 29.30 34.30 28.23 27.03 19.39
49.23 49.91 49.75 49.59 49.41 49.21 49.11 49.16 48.85 48.63 49.44 50.13 45.97 45.04 46.01 50.58 49.80 44.96 35.18 33.21 34.29 40.36 40.29 39.29 32.40 35.54 31.23 33.30 34.64 35.64 35.28 38.75 37.28 40.57 41.12 37.29 29.79 37.28 39.94 41.24 40.23 37.06 38.19 28.73 26.50 12.46 17.15
49.04 49.66 49.75 49.47 49.08 48.80 48.74 48.45 48.66 49.09 50.21 51.42 45.49 37.88 47.11 50.52 48.55 40.66 32.06 32.72 37.42 42.35 42.37 38.74 35.31 34.04 34.84 33.67 35.45 34.03 33.90 39.10 40.63 40.21 41.24 38.84 33.00 32.19 36.42 33.39 32.45 33.51 32.05 33.43 31.83 29.38 19.23
48.67 49.66 49.52 49.08 48.68 48.59 48.37 48.38 48.45 49.20 50.92 48.14 43.68 35.12 47.98 49.68 36.72 36.49 34.04 36.75 41.56 40.73 43.92 41.64 40.83 38.06 35.72 36.12 34.63 34.43 34.62 38.11 42.59 41.57 36.46 39.05 35.35 28.59 30.85 37.95 39.00 37.47 34.05 32.35 25.49 22.77 26.88
48.55 49.12 48.49 48.70 48.35 48.48 47.94 48.48 48.00 49.16 50.45 47.27 38.92 39.11 48.03 46.69 32.37 33.87 35.91 38.74 40.54 40.24 41.21 40.87 39.65 41.08 39.83 36.42 32.90 37.16 37.88 41.25 42.02 39.64 38.09 38.85 32.68 21.74 29.95 32.87 35.90 31.85 34.97 35.76 34.28 32.45 26.80
48.56 48.44 48.24 48.13 48.10 48.28 47.83 48.11 47.44 48.88 50.46 47.47 40.55 34.92 39.93 43.43 42.74 36.15 37.46 37.38 37.69 43.66 42.56 43.12 41.11 41.94 39.15 37.64 39.25 36.15 36.75 39.97 41.15 40.95 43.38 41.58 35.07 29.15 23.82 28.68 33.34 28.10 33.52 35.07 33.56 28.43 28.04
48.28 48.88 48.65 48.45 48.00 48.33 47.67 47.77 47.06 49.59 50.85 48.70 43.43 38.35 40.96 35.63 37.95 38.77 39.85 39.01 36.73 37.50 42.76 43.65 40.70 40.89 39.11 35.24 36.38 35.85 37.99 38.30 40.20 41.90 39.46 37.19 30.41 33.15 33.95 34.84 34.75 33.40 33.69 35.14 32.82 33.84 30.19
48.20 48.56 48.50 48.41 48.00 48.19 47.37 47.42 46.78 49.08 50.22 45.24 39.07 38.94 42.26 39.23 40.46 39.78 39.21 37.95 38.20 39.77 40.76 39.14 39.06 40.28 40.44 37.37 38.02 35.52 38.01 36.86 36.34 38.54 38.08 38.82 30.42 31.05 27.03 33.85 33.71 31.29 35.02 36.19 35.73 36.67 36.68
48.06 47.56 47.63 47.77 48.00 47.66 47.16 47.16 46.43 47.85 48.73 43.06 43.96 44.66 41.19 39.80 39.29 37.88 38.68 39.27 39.47 41.54 41.91 42.91 41.69 39.94 38.85 39.91 42.03 41.55 41.28 41.05 40.85 37.24 36.61 36.44 32.13 31.10 28.33 34.35 33.67 30.08 36.14 37.64 38.39 39.87 38.65
47.56 46.95 47.06 46.93 47.35 47.19 47.12 46.74 46.21 46.69 47.81 45.36 44.32 42.67 39.52 36.23 38.24 38.07 40.30 41.47 40.69 41.81 39.78 42.09 42.89 40.73 42.98 45.72 44.91 43.66 40.85 39.72 40.88 40.42 40.26 34.98 34.51 32.96 29.45 31.27 23.13 37.57 43.05 41.64 39.22 39.97 41.14
47.12 46.58 46.37 46.11 46.62 46.83 46.72 46.26 45.91 46.19 47.42 44.53 45.24 42.48 40.47 37.63 39.84 39.29 39.71 40.45 42.36 42.22 41.58 41.63 43.43 44.91 46.24 43.33 37.72 35.63 35.66 36.05 37.29 38.66 38.52 40.16 35.99 31.94 29.09 26.74 31.62 36.87 39.75 38.29 35.80 36.50 42.34
46.87 46.28 45.92 45.50 45.29 45.42 45.50 45.39 45.33 45.70 46.63 44.23 45.16 45.94 42.77 38.65 38.66 42.18 39.70 40.54 38.15 38.95 39.57 42.49 45.85 47.52 44.65 40.71 37.31 31.60 28.21 32.74 32.91 36.01 39.64 39.60 38.60 34.51 30.63 25.61 24.81 35.44 40.24 42.89 41.73 33.41 40.68
46.54 45.98 45.57 45.11 44.61 44.45 44.25 44.30 44.78 45.72 45.59 43.69 44.49 45.88 41.78 39.34 44.48 43.43 40.37 39.63 43.49 41.33 40.06 42.40 42.87 42.80 44.71 38.48 33.90 32.34 31.43 36.48 32.66 33.65 34.49 34.41 34.94 31.87 31.28 29.68 31.38 39.71 42.58 43.47 31.98 33.18 40.41
46.16 45.82 45.35 44.98 44.65 44.26 44.37 44.18 44.46 45.02 44.80 43.39 42.69 45.53 41.39 38.85 41.32 46.93 46.96 44.63 43.89 43.70 38.81 41.68 40.52 40.67 39.67 35.95 35.02 33.77 31.99 35.34 33.28 38.11 34.81 33.35 32.95 31.91 31.25 29.59 25.90 42.76 43.26 36.88 39.40 40.83 40.95
45.97 45.69 45.35 44.91 44.82 44.57 44.55 44.47 44.35 44.58 44.51 44.66 41.56 45.00 44.75 39.71 42.90 49.50 49.78 49.74 48.37 46.74 44.61 43.24 41.69 40.22 41.59 38.01 37.98 37.30 35.23 35.06 34.77 32.36 38.82 34.20 37.08 35.69 35.32 34.09 42.50 44.89 42.37 42.29 41.40 39.80 39.44

GFSGBSN_sfc_wetblb_045.txt.gz
Wetbulb
54.78 55.10 55.68 55.20 54.42 54.43 54.06 54.37 54.12 53.87 54.18 54.01 53.69 53.45 53.33 53.38 52.97 52.79 53.67 54.68 55.66 56.87 58.18 59.33 58.24 57.65 55.01 48.79 49.53 59.68 64.50 63.29 61.43 60.08 56.69 54.42 50.45 47.68 43.49 44.52 45.71 43.29 45.60 48.67 49.21 48.86 48.44
55.08 55.12 55.06 54.55 54.67 54.83 54.79 54.35 54.48 53.85 53.74 53.42 53.29 53.22 52.65 52.56 52.43 52.27 52.94 53.88 54.97 56.16 57.53 59.18 57.97 57.87 51.15 43.76 55.93 58.83 58.55 58.78 59.23 57.91 56.04 55.68 50.74 49.27 46.27 45.54 43.88 45.91 46.27 46.42 47.94 47.53 47.61
56.45 54.31 54.39 54.60 54.28 54.97 54.67 54.20 53.96 53.70 53.51 53.15 52.74 52.41 52.14 52.08 51.93 52.17 52.82 53.63 54.19 54.86 56.07 59.00 57.98 54.92 48.46 46.45 52.96 56.06 56.41 55.06 56.84 56.88 54.72 56.70 55.61 49.69 48.45 45.22 48.45 47.26 42.39 44.53 45.49 46.34 45.44
54.90 54.46 54.66 54.19 54.37 54.01 53.42 53.54 53.31 53.14 52.55 52.33 52.11 51.95 51.84 51.79 51.79 51.89 52.20 52.60 53.36 54.00 54.97 58.02 57.84 52.29 44.46 54.39 52.85 53.36 54.19 53.95 56.48 58.51 57.49 57.88 56.66 52.33 49.06 47.76 45.85 42.46 41.61 36.68 43.93 46.30 46.97
53.61 54.02 54.62 54.49 53.15 52.39 52.96 52.61 52.35 52.03 51.92 51.81 51.68 51.55 51.53 51.45 51.23 51.38 51.94 52.16 52.71 53.45 54.91 58.15 52.90 49.16 42.51 53.44 50.26 51.93 52.61 52.62 54.86 56.75 56.43 57.53 54.75 49.67 48.66 43.31 39.35 39.51 32.87 35.98 39.90 45.34 45.23
53.75 54.63 52.83 52.38 52.78 52.86 52.61 52.21 51.80 51.64 51.55 51.41 51.21 51.08 51.06 50.98 51.00 51.13 51.68 52.10 52.25 52.34 53.78 54.93 51.46 44.83 47.06 44.35 49.55 51.69 51.63 53.41 52.11 53.38 51.87 51.21 48.90 44.58 43.57 40.37 32.18 34.16 34.35 34.96 36.21 41.83 42.50
53.60 52.64 52.26 52.04 52.58 52.62 52.24 51.88 51.49 51.32 51.10 50.86 50.69 50.47 50.77 50.53 50.65 50.79 48.89 45.45 41.26 42.35 47.56 42.19 43.15 43.68 46.55 49.86 51.59 49.47 51.23 51.26 51.67 49.25 42.04 46.69 39.91 37.23 39.03 40.59 40.24 39.41 37.23 34.05 37.72 42.32 38.35
52.13 53.80 53.16 51.59 52.43 52.02 51.74 51.44 51.13 50.86 50.75 50.46 50.31 50.31 50.52 50.54 50.99 50.66 47.53 40.57 41.33 44.78 36.80 44.83 47.36 47.07 48.95 49.58 43.75 47.28 51.45 46.61 46.04 40.85 42.06 40.64 36.60 41.77 44.07 43.50 41.66 38.66 34.43 33.33 37.73 40.76 37.79
52.34 52.80 51.80 52.02 51.81 51.48 51.13 50.86 50.75 50.64 50.45 50.18 50.01 50.11 50.11 50.52 50.79 48.12 43.79 42.69 48.67 47.97 35.88 42.63 46.66 45.61 45.99 48.70 43.58 43.94 48.59 46.96 43.40 40.96 39.89 35.28 37.92 42.96 40.92 39.18 37.61 34.42 32.03 32.74 33.53 36.80 36.16
51.83 51.98 51.81 51.64 51.19 50.67 50.57 50.45 50.38 50.22 49.86 49.74 49.74 49.86 50.04 50.35 46.94 45.72 42.99 46.35 48.45 47.50 31.19 36.15 41.72 45.09 47.03 48.04 42.05 48.60 49.66 46.31 43.40 39.25 40.60 38.87 41.39 39.99 38.29 37.36 37.42 31.92 37.62 37.01 35.44 31.45 25.30
51.92 50.99 51.37 51.09 50.69 50.36 50.25 50.31 50.14 50.05 49.75 49.07 49.15 49.72 50.14 50.23 44.44 43.33 45.88 48.00 47.81 43.41 19.54 38.18 41.75 50.46 47.40 43.74 43.23 43.70 49.63 46.91 39.90 40.34 40.34 35.30 37.60 37.27 35.44 37.41 39.26 35.15 39.47 36.40 35.07 30.22 27.72
51.24 50.72 51.18 50.90 50.47 50.10 49.97 49.99 49.91 49.97 48.91 48.78 49.03 49.74 50.40 47.42 47.04 46.59 49.40 47.63 44.32 28.36 19.42 35.27 41.18 40.80 40.20 42.54 42.69 43.78 44.65 46.96 45.85 41.14 40.76 37.95 41.38 39.44 37.97 40.23 39.74 40.10 36.39 34.44 32.32 29.01 21.07
50.12 50.32 50.88 50.77 50.27 49.94 49.78 49.76 49.73 49.48 49.21 49.47 49.94 50.56 49.60 49.37 43.41 48.17 48.28 42.74 24.45 20.07 33.49 33.62 36.56 39.46 38.89 38.47 38.69 40.39 39.40 37.22 32.96 29.25 26.60 34.82 36.04 38.94 40.76 36.48 38.25 38.50 30.89 17.66 24.89 23.95 19.02
49.54 49.95 50.68 50.56 50.19 49.79 49.70 49.65 49.28 49.21 49.84 50.33 50.32 51.24 49.15 49.75 50.76 48.08 45.00 33.65 19.67 29.37 30.95 38.94 38.85 38.60 36.04 38.47 38.11 38.80 37.07 32.84 36.83 34.77 28.32 24.38 22.44 35.55 38.56 35.80 33.40 33.28 31.24 20.34 17.84 19.38 21.45
49.28 49.81 50.33 50.26 49.92 49.70 49.61 49.07 48.92 49.55 50.55 51.26 51.41 46.06 47.50 48.65 49.85 45.68 37.79 26.60 27.24 33.77 36.84 36.48 37.02 33.57 33.90 36.94 37.25 36.79 35.66 33.82 35.58 35.89 29.17 27.29 28.44 39.71 39.81 39.71 37.52 32.34 28.75 33.36 27.57 22.87 14.74
49.04 49.77 50.23 49.80 49.48 49.42 49.34 48.63 49.11 49.41 50.98 51.73 44.87 43.41 43.36 48.95 47.66 42.02 35.12 32.29 33.19 38.69 40.03 38.45 32.28 34.98 31.03 34.13 33.60 34.45 33.93 37.09 36.27 38.83 38.54 36.32 29.65 36.52 39.68 41.24 40.45 34.07 35.55 24.62 21.65 9.05 14.73
48.85 49.52 49.03 48.76 49.01 48.99 48.91 48.64 48.90 49.15 50.62 51.29 39.62 38.18 45.94 49.25 45.77 38.47 30.63 32.74 35.90 41.27 41.59 38.30 33.99 33.85 33.24 33.13 34.23 33.96 33.43 37.89 39.14 38.63 40.16 38.46 32.28 32.45 37.68 32.85 31.40 32.97 32.79 32.95 29.67 25.37 17.06
48.74 49.29 49.61 48.71 48.64 48.81 48.64 48.57 48.51 49.22 50.90 48.26 40.20 34.40 46.46 48.00 34.82 35.85 32.70 33.83 41.46 39.89 42.28 41.04 38.34 36.44 33.52 34.65 33.08 34.11 31.75 36.70 41.77 41.26 35.98 38.86 33.83 29.30 29.29 35.88 37.35 35.02 31.68 30.41 19.37 19.67 23.96
48.65 49.36 49.89 49.09 48.93 48.51 48.36 48.31 48.05 49.32 51.07 42.35 38.91 37.88 46.26 45.70 30.84 32.58 35.25 37.42 40.76 40.86 41.54 41.04 38.71 39.14 39.04 35.80 31.56 35.79 36.24 40.58 42.28 40.40 37.31 38.42 32.63 17.65 29.04 30.71 35.83 31.19 33.59 33.71 31.80 30.76 20.18
48.56 49.13 48.58 48.94 48.66 48.49 47.90 48.06 47.58 48.92 50.53 43.35 40.07 32.90 38.34 42.22 40.33 35.73 37.21 37.01 37.85 43.62 41.38 41.36 38.36 39.84 38.25 36.40 37.01 35.21 35.46 38.67 39.95 40.61 44.31 41.47 33.28 25.51 21.75 25.64 31.55 26.75 31.73 32.94 31.43 25.76 26.59
48.39 48.82 47.80 48.05 48.51 48.10 47.75 47.70 47.17 49.09 50.40 47.46 40.29 36.33 38.06 33.75 36.85 38.92 40.00 38.46 37.20 36.87 41.12 41.67 39.15 39.06 38.59 34.91 35.09 35.37 37.32 36.01 38.83 41.67 38.57 36.70 27.29 30.84 32.10 33.41 32.96 31.01 31.41 32.90 30.23 31.55 28.49
48.07 47.90 47.54 47.31 47.82 47.75 47.71 47.24 46.84 48.22 49.57 40.86 39.10 37.71 38.95 35.72 40.28 38.38 39.35 37.87 37.71 38.42 39.09 38.03 37.35 39.52 38.77 36.57 36.57 34.95 37.30 36.02 34.05 35.80 34.61 36.25 25.05 30.42 22.41 31.86 31.93 28.49 33.10 33.65 33.58 33.76 34.37
47.94 47.53 47.05 46.72 47.03 47.43 47.32 46.73 46.43 47.18 47.60 42.28 43.11 43.68 41.16 36.78 35.10 34.38 35.52 37.16 38.38 39.71 40.68 40.92 39.85 38.50 37.73 39.11 39.88 39.15 40.14 38.51 38.00 35.07 35.75 35.97 32.04 21.42 20.83 31.64 31.74 27.81 32.92 33.82 34.99 36.86 36.52
47.52 47.25 46.71 46.15 46.01 46.22 46.41 46.18 45.96 46.38 46.88 43.70 44.07 42.42 38.98 33.23 35.20 36.76 39.58 40.53 39.89 39.81 38.10 40.61 41.67 39.65 41.66 44.08 43.02 41.69 39.95 38.98 39.01 38.56 38.50 34.26 33.29 28.03 22.78 27.25 21.30 34.85 40.32 40.16 37.57 38.89 39.63
47.38 47.26 46.44 45.86 45.28 44.85 44.69 44.95 45.29 46.03 46.53 42.53 44.92 42.41 39.94 36.29 37.04 36.43 38.41 40.49 41.42 40.32 41.29 41.62 42.41 42.86 44.25 41.87 36.89 35.51 35.20 35.50 36.21 37.52 38.33 38.15 33.11 30.54 26.27 24.24 29.99 36.29 37.97 37.29 35.20 34.49 40.73
47.22 47.00 46.14 45.65 45.13 44.65 44.54 44.37 44.71 45.74 45.62 42.51 44.24 45.46 41.97 38.22 35.90 40.75 39.12 39.92 37.78 36.62 37.73 42.33 44.31 46.10 42.99 40.12 36.54 31.51 26.82 30.64 30.03 35.01 37.20 38.67 37.77 33.59 30.87 23.27 23.33 34.52 39.19 41.05 39.86 31.51 39.33
46.56 47.02 45.88 45.54 45.15 44.70 44.38 44.47 44.35 44.93 45.12 42.89 42.74 44.86 41.07 38.62 42.46 43.11 39.39 38.62 42.26 40.60 38.36 41.77 42.38 42.28 44.00 37.42 32.39 31.81 29.43 34.86 30.21 31.47 32.71 33.15 34.81 31.15 30.52 29.28 29.98 36.68 40.10 42.59 30.91 32.29 38.73
46.17 46.89 45.98 45.49 45.06 44.96 44.63 44.67 44.48 44.38 44.71 42.34 41.09 45.27 40.49 38.69 40.56 43.83 46.10 42.22 42.78 42.33 36.42 39.87 40.12 40.44 39.33 35.53 33.51 32.56 30.53 32.97 32.25 36.21 33.87 32.24 31.91 32.33 32.74 28.93 25.30 39.31 40.14 35.87 38.58 39.24 38.87
46.36 46.35 46.07 45.52 45.17 44.60 44.65 44.26 44.53 43.83 44.15 43.39 39.76 44.51 44.75 38.45 40.91 46.51 47.92 49.15 46.84 44.32 43.74 40.49 39.04 38.90 41.26 37.90 36.98 34.64 32.80 33.32 32.66 31.83 37.27 33.08 34.99 33.42 32.57 31.88 38.69 40.57 40.57 39.51 39.55 38.84 37.89

GFSGBSN_sfc_wetblb_048.txt.gz
Wetbulb
56.08 56.85 54.79 54.62 55.14 54.56 55.45 55.01 54.81 54.56 54.84 54.65 54.18 53.78 53.29 53.39 53.04 52.98 52.65 52.56 53.41 54.63 55.55 56.75 58.25 58.52 55.06 47.03 47.61 57.24 62.86 62.95 61.09 59.63 55.66 52.97 50.18 47.76 43.36 44.31 45.31 41.93 44.01 47.05 48.35 48.24 46.76
56.02 55.32 54.57 55.04 55.10 55.11 54.89 53.58 53.87 53.74 53.83 53.29 52.92 52.83 52.63 52.80 52.57 52.34 52.40 52.54 53.10 53.98 54.77 56.31 57.06 58.44 50.55 41.33 54.29 57.78 59.63 59.53 59.19 57.83 55.69 54.76 51.49 50.08 45.21 44.31 43.47 44.89 45.72 45.65 46.62 46.43 46.35
54.49 54.31 54.19 55.52 54.07 53.37 53.35 53.42 53.13 52.99 52.76 52.95 52.69 52.25 52.08 52.01 52.06 52.14 52.06 52.25 52.75 53.13 53.98 55.27 55.89 54.99 48.43 44.68 52.97 57.08 58.34 57.80 58.69 57.58 54.14 55.90 55.15 48.74 47.64 44.59 47.91 45.82 42.20 43.27 44.42 44.90 44.61
53.75 54.71 55.55 53.73 52.73 53.25 53.49 53.03 52.66 52.53 52.54 52.27 52.05 51.74 51.67 51.50 51.60 51.52 51.52 52.19 52.27 52.66 53.39 54.39 55.27 53.34 44.00 53.60 53.36 52.90 53.60 53.26 56.38 57.00 57.27 57.72 56.76 51.31 47.66 46.79 44.84 42.09 40.78 36.09 42.55 44.59 45.45
53.94 54.18 53.33 53.02 52.93 53.24 53.33 52.80 52.36 52.23 51.92 51.78 51.52 51.32 51.16 51.11 51.11 50.93 51.35 51.66 52.36 52.77 53.24 53.80 51.85 49.17 41.79 55.15 49.67 51.81 52.60 51.61 55.06 55.95 56.67 58.01 55.10 49.70 46.96 41.13 37.50 38.06 32.38 35.42 38.84 44.73 43.96
54.31 53.01 53.83 53.48 52.99 53.14 52.70 52.26 51.94 51.71 51.48 51.20 50.99 50.69 50.72 50.91 50.50 50.72 51.10 51.14 51.53 51.36 51.13 52.14 52.39 43.66 45.54 43.85 49.68 51.01 51.01 53.05 52.50 53.18 51.88 51.39 49.69 45.24 44.16 39.78 32.30 34.10 33.51 33.60 35.38 40.05 40.95
52.66 53.01 53.83 52.41 52.69 52.42 51.93 51.75 51.37 51.41 51.20 50.87 50.64 50.43 50.40 50.71 50.84 50.87 48.58 43.95 38.74 39.83 45.78 40.66 41.79 43.31 45.48 49.22 51.39 49.38 50.45 50.37 51.92 48.84 43.89 47.74 42.37 39.15 41.80 42.92 40.34 39.60 36.29 33.60 36.64 40.87 37.04
52.85 52.91 52.86 52.61 52.22 51.88 51.37 51.33 51.21 51.02 50.72 50.51 50.32 50.09 50.34 50.43 50.71 50.82 46.48 40.34 39.57 43.09 36.37 44.46 45.15 45.20 48.37 48.99 43.93 47.16 51.00 46.41 46.39 40.78 42.92 42.28 36.78 41.90 44.05 43.15 40.86 38.31 36.72 33.29 36.66 39.42 36.59
52.41 52.58 51.80 52.23 51.90 51.46 51.23 51.09 50.93 50.79 50.62 50.38 49.67 49.62 50.00 50.23 50.50 47.38 43.06 42.61 46.88 45.98 36.82 39.58 43.59 44.52 46.00 47.95 42.74 43.48 48.32 46.67 43.69 40.22 38.83 36.48 38.15 42.92 40.93 39.78 38.45 34.69 31.59 32.10 33.12 35.93 34.68
52.10 51.05 51.61 51.99 51.67 51.06 50.81 50.55 50.58 50.54 50.35 49.40 49.27 49.47 49.61 50.21 44.96 44.67 42.64 46.84 46.90 47.30 30.77 35.69 40.07 44.96 46.59 47.51 41.35 48.43 50.44 46.45 43.28 39.63 40.06 37.63 40.75 40.12 38.59 36.98 36.76 31.16 36.45 36.53 34.59 31.28 25.39
51.92 50.97 51.35 51.67 51.37 51.02 50.55 50.30 50.44 50.45 49.82 49.95 50.35 50.39 50.44 50.32 43.54 41.41 45.78 47.26 46.98 43.46 19.36 37.52 41.17 50.17 47.63 42.85 42.67 44.09 49.78 46.61 39.48 39.92 39.59 35.02 37.26 36.36 35.04 36.71 38.42 34.48 38.46 35.62 33.81 28.97 26.19
51.00 50.40 50.77 51.32 51.09 50.60 50.14 50.15 50.06 49.39 49.62 50.60 50.76 51.01 51.27 48.65 47.37 45.80 48.93 47.67 43.88 25.05 18.67 34.21 41.56 40.61 40.38 41.05 41.92 44.52 44.91 46.38 45.90 41.52 40.47 36.76 40.88 38.93 37.46 39.17 38.95 39.48 34.78 32.82 30.94 26.83 17.18
50.28 50.33 50.30 51.17 50.64 50.24 50.13 49.96 49.28 49.63 50.27 50.51 51.40 51.84 50.40 49.72 43.01 46.95 48.20 41.73 24.00 19.72 32.48 32.52 36.85 39.58 38.25 37.66 38.55 40.86 39.56 37.00 33.79 31.07 31.13 35.90 35.86 38.31 40.24 35.36 37.40 35.51 27.48 16.05 16.21 15.04 18.03
49.81 49.85 50.68 49.94 49.96 49.86 50.04 49.49 49.54 49.87 50.28 51.62 52.16 50.58 48.99 49.64 49.81 47.52 43.91 32.79 19.65 28.10 28.98 38.28 38.10 38.71 36.20 36.90 38.33 38.95 37.01 33.42 36.75 34.02 28.56 27.03 23.55 35.00 37.90 35.24 32.55 31.52 28.43 18.41 15.11 18.91 20.13
49.15 49.79 49.58 49.77 49.29 49.70 50.10 49.23 49.46 49.33 50.58 51.83 50.30 44.39 45.54 48.42 48.36 46.04 37.48 25.77 27.25 30.14 35.35 37.05 37.41 34.05 34.86 36.59 37.67 36.97 35.83 34.19 35.29 35.13 28.00 24.69 27.53 38.70 37.97 38.69 36.63 31.01 22.98 31.13 22.48 20.80 14.88
49.28 49.69 50.11 49.43 49.53 49.19 49.88 49.08 49.07 49.58 51.46 51.46 41.79 41.00 44.68 49.62 47.93 43.76 34.11 31.65 33.47 36.75 39.74 38.29 31.33 34.11 31.39 33.55 34.33 34.63 34.20 36.02 35.43 37.63 36.99 33.38 25.35 37.12 38.77 40.56 39.33 33.35 35.03 22.97 17.69 7.65 14.23
48.88 49.71 50.12 50.31 49.70 48.82 49.18 48.88 48.76 50.49 52.18 50.34 41.52 36.81 45.56 48.64 46.16 38.21 28.87 32.37 34.71 41.46 41.59 37.29 33.65 32.61 33.27 32.47 33.74 32.45 32.49 36.68 38.02 37.21 37.84 35.90 29.04 32.83 37.30 31.84 30.42 32.13 29.81 29.08 26.49 22.89 15.54
49.25 49.57 49.29 49.10 49.15 48.95 48.63 48.74 48.45 50.24 51.52 45.27 37.51 34.06 45.85 48.32 34.34 35.89 32.31 33.65 40.13 39.90 42.22 40.00 37.21 36.28 33.97 34.22 33.32 32.65 31.95 36.15 39.97 39.07 34.40 37.58 31.83 25.79 30.10 34.92 36.14 34.32 31.49 29.81 19.26 18.27 20.99
48.87 49.55 48.34 48.42 48.59 48.48 48.37 48.43 48.08 49.55 50.79 41.24 35.45 36.23 46.59 45.31 30.44 32.91 34.67 36.51 40.19 39.94 39.24 39.59 36.69 38.05 37.64 33.94 31.09 34.01 35.09 40.55 41.56 39.38 36.18 36.76 30.17 20.04 26.96 29.94 33.80 29.27 32.38 32.28 29.31 28.43 16.58
48.51 48.95 47.87 47.71 47.97 48.12 48.20 47.86 47.61 48.74 50.32 42.07 37.99 27.82 35.04 40.86 39.13 36.09 35.88 36.06 37.83 42.82 40.11 39.51 37.67 39.05 36.78 35.30 35.63 33.41 33.89 39.19 41.29 41.39 44.35 40.53 30.27 24.98 21.23 23.94 28.63 23.59 30.61 32.07 28.34 21.89 22.06
48.23 48.51 47.64 47.23 47.39 47.73 47.77 47.35 47.19 48.09 49.49 45.26 36.81 32.94 36.45 34.36 38.25 38.76 38.57 37.78 36.98 36.82 40.24 40.49 38.43 38.29 37.30 33.82 33.42 33.53 35.03 35.41 39.50 41.55 39.39 36.14 27.40 29.43 30.63 31.99 32.04 30.14 29.97 30.67 25.42 30.35 25.54
47.86 48.08 47.19 46.83 46.61 46.79 46.95 46.72 46.65 47.99 48.47 41.39 37.80 36.82 39.85 38.20 40.33 36.45 37.36 36.88 36.07 37.23 38.09 36.93 36.41 38.84 37.96 34.86 35.11 33.65 35.26 33.59 33.33 35.86 33.94 34.75 23.52 30.59 22.06 30.38 30.87 27.19 31.21 31.68 32.00 32.60 33.11
47.28 48.14 46.91 46.63 46.12 45.69 45.30 45.58 46.08 47.14 45.91 41.67 43.03 42.94 40.82 36.06 34.02 32.69 34.41 36.65 37.46 39.24 41.12 40.47 39.28 38.08 37.31 38.59 39.04 38.13 38.94 38.31 37.12 34.59 33.67 35.17 31.45 23.59 20.39 29.86 29.82 25.16 30.99 32.73 32.89 33.72 35.16
46.70 47.99 46.61 46.36 45.74 45.28 44.92 44.88 45.41 46.50 45.74 42.89 43.73 42.30 38.48 31.94 33.54 34.59 37.37 39.04 38.37 38.80 37.30 40.45 41.28 38.70 41.07 43.15 41.93 40.79 38.85 38.17 37.55 38.43 38.04 34.61 31.90 24.40 20.31 25.91 19.34 33.13 39.04 38.32 35.23 36.21 37.52
46.28 47.68 46.66 46.05 45.50 45.15 44.73 44.78 44.79 45.61 46.01 42.19 44.09 41.95 39.50 34.68 35.24 35.40 37.15 38.55 38.89 39.70 40.36 40.77 41.53 41.94 43.36 40.64 35.94 34.60 34.79 34.90 35.18 37.66 37.23 36.72 32.91 24.28 25.33 23.77 28.88 35.91 38.10 36.42 34.82 34.38 38.64
46.10 46.96 46.89 45.81 45.49 45.09 44.77 44.72 44.74 44.73 45.44 42.22 43.71 44.86 41.19 37.05 33.49 39.51 38.01 37.47 34.89 33.63 37.36 42.11 43.05 44.54 42.04 38.80 35.45 30.25 27.43 29.74 30.06 34.29 38.49 38.05 36.80 30.79 30.00 22.69 23.66 33.50 37.22 40.01 38.17 30.34 39.28
45.92 46.50 47.16 45.83 45.51 45.02 44.78 44.55 44.78 44.61 44.65 42.14 41.70 44.38 40.48 37.62 39.20 39.85 38.62 37.81 40.92 37.70 37.84 40.92 41.83 41.27 43.07 35.38 33.24 31.12 29.17 34.34 29.81 31.12 32.13 33.54 34.15 30.37 29.27 27.92 30.41 35.82 37.69 41.32 29.43 32.02 38.25
45.54 46.47 46.86 45.76 45.73 45.24 44.54 44.55 44.55 44.48 44.11 40.21 40.20 44.59 40.21 37.22 38.98 42.97 45.28 39.57 42.33 41.72 37.45 40.73 39.39 40.11 38.79 34.83 33.71 31.69 30.35 32.18 32.17 34.34 33.07 31.10 29.68 30.74 31.31 29.03 23.98 37.44 38.88 35.29 38.47 38.04 38.52
45.30 45.96 46.53 45.44 45.93 45.29 44.78 44.89 44.79 44.44 43.76 42.36 38.49 43.60 44.66 37.81 38.86 43.13 44.97 46.61 45.35 45.60 43.11 41.42 39.52 38.85 40.77 37.43 36.00 33.25 30.99 32.21 31.27 32.17 35.76 30.54 33.14 32.19 33.36 31.69 37.33 38.66 39.74 39.23 38.91 37.85 37.69

GFSGBSN_sfc_wetblb_051.txt.gz
Wetbulb
55.53 55.57 54.66 54.68 56.13 54.76 54.03 53.99 54.02 53.67 53.85 53.65 53.58 53.43 53.25 53.30 53.25 53.28 52.92 52.84 53.15 53.21 53.13 54.52 55.69 57.18 55.15 47.06 45.49 55.11 60.84 63.29 58.40 58.04 55.01 53.42 49.23 47.03 43.39 44.09 44.18 41.79 43.44 46.39 47.77 47.70 45.97
55.38 54.57 55.59 55.88 54.12 53.41 53.91 54.39 54.12 53.51 53.34 53.22 52.99 52.55 52.53 52.28 52.10 52.27 52.13 52.34 52.60 52.69 53.15 53.97 54.89 55.78 50.90 39.74 52.09 54.70 56.09 58.89 57.07 57.47 55.08 53.48 50.31 49.45 45.14 43.52 43.78 44.50 45.30 45.52 46.08 45.65 45.47
54.02 54.37 54.70 53.76 54.26 53.86 53.85 53.91 53.47 53.01 52.98 52.71 52.42 51.93 51.90 51.86 51.73 51.84 51.87 51.83 52.15 52.44 53.03 53.46 54.32 52.09 48.21 44.14 51.67 54.49 59.03 57.64 58.91 57.37 54.13 54.97 53.28 49.87 46.55 42.96 46.50 44.87 40.84 42.10 43.81 44.47 44.13
54.18 54.74 53.59 54.66 54.00 53.53 53.46 53.01 52.40 52.32 52.21 52.08 51.88 51.51 51.37 51.33 51.08 51.50 51.50 51.56 51.91 52.21 52.67 52.99 53.65 50.55 44.84 53.32 52.61 51.45 54.39 55.97 57.64 57.59 56.03 56.44 56.27 50.31 46.90 46.01 44.13 41.46 39.97 35.68 41.98 44.41 44.86
54.80 53.82 53.93 54.44 53.38 53.52 53.12 52.22 51.86 51.63 51.81 51.81 51.51 51.13 51.12 51.04 51.11 51.21 51.21 51.66 51.87 51.97 52.65 52.66 49.19 46.77 41.84 54.70 49.27 50.77 51.67 51.27 53.49 55.33 56.11 57.28 54.67 48.77 45.75 41.23 37.31 36.94 32.05 34.91 38.85 44.11 42.99
53.61 53.69 53.41 53.09 53.31 53.15 52.56 52.10 51.63 51.88 51.72 51.38 50.89 50.72 50.64 50.78 50.96 50.96 51.21 51.40 50.69 50.28 49.60 50.28 50.17 43.71 45.68 44.08 49.66 50.27 50.73 54.35 52.88 53.09 52.01 51.92 50.05 45.00 42.10 38.62 31.73 33.42 32.98 32.74 34.87 38.97 40.11
53.40 53.18 53.26 52.50 52.85 52.65 52.16 51.84 51.63 51.52 51.26 51.29 50.97 50.56 50.25 50.60 50.74 50.83 47.90 42.67 37.55 37.87 42.86 40.23 43.02 42.67 44.95 48.86 51.49 48.48 49.79 51.50 52.21 48.93 44.59 47.15 42.53 39.46 41.46 40.75 38.63 37.72 35.31 33.83 36.26 39.65 36.43
52.99 53.04 52.25 51.94 52.67 52.42 51.91 51.61 51.37 51.11 50.95 50.87 50.17 49.55 49.78 49.98 50.56 50.77 45.47 40.28 39.95 41.87 34.56 43.81 43.44 44.44 47.11 48.19 44.17 46.45 51.10 47.01 46.99 41.81 44.57 42.97 38.92 42.87 45.35 44.40 42.20 39.92 36.85 35.59 36.31 38.20 35.55
52.77 52.55 51.62 52.01 52.35 52.23 51.67 51.19 50.96 50.86 50.82 49.96 49.87 50.38 49.87 49.86 50.36 45.83 41.81 42.35 46.00 45.05 35.31 38.14 41.77 42.36 44.84 47.66 43.19 43.43 48.38 47.44 43.87 40.48 40.20 38.62 39.40 45.03 43.29 41.05 39.66 36.98 32.45 31.95 32.50 35.19 33.71
52.09 51.31 51.10 51.77 52.35 51.70 51.20 50.81 50.75 50.36 49.40 49.70 50.62 51.03 50.93 50.85 45.18 44.05 40.61 47.31 45.60 45.56 23.73 32.56 37.70 42.58 46.32 46.55 40.84 47.60 49.76 46.83 43.86 37.55 39.35 37.49 40.66 40.92 38.25 37.90 36.96 30.94 36.02 35.94 33.64 30.91 25.81
51.59 51.20 50.90 51.57 51.67 50.98 50.59 50.88 50.30 49.38 50.33 50.55 50.95 51.58 51.94 50.94 45.24 41.81 44.56 45.68 45.61 43.07 16.56 35.78 38.77 49.70 47.11 41.94 42.33 43.34 49.77 46.81 39.83 40.25 38.94 34.74 37.06 36.47 35.51 36.43 37.34 34.08 37.68 34.42 32.95 28.37 25.01
51.44 50.63 50.75 50.67 49.83 50.12 50.30 50.60 49.66 50.26 50.47 51.05 51.64 51.73 50.68 48.67 47.67 46.47 48.25 47.00 43.49 25.63 20.25 33.65 40.65 40.32 39.92 41.34 42.06 44.56 44.83 46.48 45.77 40.37 39.30 36.33 40.93 38.74 36.81 37.89 38.20 38.18 34.03 31.93 29.95 26.45 17.37
50.34 50.12 50.70 50.39 50.32 49.95 49.85 50.45 49.63 49.97 50.63 51.49 52.06 51.18 49.31 49.75 43.31 47.64 48.01 42.21 19.89 19.73 32.46 31.95 36.39 39.17 38.34 38.37 39.93 41.12 39.51 37.29 35.56 32.57 30.83 35.10 35.20 37.66 39.45 34.73 36.97 34.23 27.86 16.51 16.27 15.83 18.43
50.15 50.07 50.53 51.32 50.06 50.09 49.72 49.71 49.69 50.18 51.32 52.15 51.31 49.44 49.36 48.27 47.62 46.92 41.42 29.52 18.70 27.68 28.52 36.97 38.36 38.19 35.59 38.61 38.75 39.29 36.94 34.20 36.58 34.52 30.09 28.52 26.96 34.75 37.39 34.83 32.31 30.15 28.48 18.58 15.33 17.82 19.96
49.69 49.84 50.46 50.23 50.61 49.64 49.87 49.41 49.45 50.48 52.22 51.93 48.68 43.07 44.47 48.35 48.55 45.37 37.96 26.59 26.65 30.16 34.04 37.14 37.11 33.54 35.04 36.87 37.92 37.52 35.73 33.73 35.23 34.28 28.27 24.36 26.96 37.19 37.52 38.06 36.01 30.46 23.63 30.16 21.62 19.71 16.41
49.42 49.94 50.47 49.40 49.63 49.78 49.38 49.37 49.06 50.50 51.96 50.52 39.94 41.68 43.07 49.37 48.08 42.37 33.93 30.20 32.62 36.27 39.66 36.42 30.58 34.90 30.77 33.80 34.66 34.66 34.39 37.00 35.13 36.59 35.99 31.59 26.18 36.60 37.68 39.80 38.27 32.71 34.30 23.84 18.57 8.55 13.57
49.45 49.65 49.63 49.20 48.99 49.02 49.02 49.08 48.74 49.85 51.18 49.34 38.92 36.86 43.53 48.01 44.13 34.29 26.34 31.86 35.79 41.79 41.44 36.50 32.84 32.90 32.50 31.88 34.08 32.97 33.68 36.09 36.95 36.29 36.61 34.79 29.17 32.16 37.00 32.71 30.77 31.36 27.50 27.87 25.46 22.01 14.11
49.28 49.68 48.81 48.61 48.29 48.49 48.75 48.59 48.51 49.58 50.82 44.29 36.32 31.86 46.00 47.67 30.90 34.98 32.33 33.94 39.13 39.85 41.00 38.89 36.40 35.59 33.05 33.75 32.99 32.75 31.28 34.73 38.95 38.17 33.43 35.40 30.06 28.59 31.06 33.98 35.23 33.68 30.47 28.32 19.81 18.01 19.16
48.84 49.29 48.33 48.08 47.63 47.98 48.23 48.03 48.03 49.19 50.11 40.57 34.97 37.65 46.44 42.45 28.29 32.88 36.71 37.51 39.68 39.22 38.72 38.34 35.62 36.83 35.97 33.32 30.64 32.91 33.87 39.46 39.54 37.73 35.06 35.73 27.21 18.87 24.34 29.25 32.07 28.75 31.26 30.50 27.68 23.51 17.78
48.37 49.00 48.08 47.66 47.21 47.04 47.17 47.20 47.41 48.55 49.66 41.30 35.34 28.24 35.19 41.93 39.86 36.50 36.67 36.43 37.08 41.92 39.18 38.54 36.71 38.26 35.92 34.01 35.64 32.67 33.29 38.81 40.28 39.32 43.50 39.41 29.11 25.20 20.89 23.43 27.05 23.69 29.84 31.04 26.15 19.05 21.48
47.94 48.62 47.82 47.44 46.92 46.48 46.01 46.21 46.94 47.99 48.69 42.69 35.89 35.42 38.12 34.31 36.99 39.06 38.75 37.99 35.07 35.21 39.15 39.11 36.50 36.92 36.20 32.91 33.40 32.80 34.47 35.98 39.45 41.71 38.15 35.87 27.49 28.67 29.72 30.87 31.12 29.94 29.45 29.92 23.50 28.47 20.59
47.43 48.34 47.64 47.20 46.66 46.12 45.62 45.65 46.43 47.33 47.60 41.31 37.41 35.42 38.00 37.85 39.47 34.94 35.86 35.10 35.00 36.25 36.90 36.00 35.97 37.89 37.03 33.73 34.01 32.98 34.55 33.15 33.95 36.98 35.75 34.50 27.37 30.16 22.86 29.54 30.02 27.13 30.70 30.90 30.46 30.95 30.65
47.07 47.53 47.78 46.83 46.50 45.97 45.39 45.31 45.65 46.81 45.23 41.47 42.98 42.74 40.16 35.84 33.52 31.40 34.09 36.87 36.71 38.35 39.74 40.07 39.16 37.94 36.68 37.93 38.07 37.37 37.90 37.61 36.60 34.31 33.16 34.07 31.64 24.78 20.43 27.80 28.88 23.74 29.53 30.39 30.76 32.01 33.91
46.75 47.18 47.85 46.53 46.20 45.75 45.22 45.11 45.20 45.76 45.57 42.71 43.10 42.02 37.28 31.13 32.48 33.18 36.27 38.28 37.48 37.74 37.00 39.94 40.91 38.52 40.47 42.02 40.83 40.39 38.54 36.99 37.00 35.86 36.85 32.51 31.69 25.82 20.84 25.09 17.98 30.53 36.94 35.57 33.74 35.63 36.10
46.40 46.56 47.86 46.49 45.95 45.74 45.23 45.00 45.17 45.10 45.61 41.55 43.11 41.60 38.76 34.27 33.90 34.39 36.27 37.20 37.82 38.91 39.18 39.54 40.63 40.80 41.59 39.45 35.08 33.66 34.28 34.91 36.03 37.68 36.96 36.92 33.31 26.89 23.97 24.61 26.54 32.49 37.34 35.78 34.01 34.29 37.46
46.28 46.34 46.97 47.25 45.49 45.54 45.15 44.83 44.60 44.91 44.81 40.61 42.84 44.46 40.83 37.06 32.43 37.89 36.64 36.72 33.79 32.52 34.95 39.91 41.47 43.11 40.80 37.20 33.81 29.53 26.63 28.46 29.58 33.73 37.97 36.74 35.47 30.44 29.91 24.43 21.53 31.83 36.29 39.26 37.88 30.48 38.39
46.01 46.01 46.67 47.49 45.64 45.48 45.17 44.74 44.50 44.52 44.30 39.57 40.97 44.16 40.17 37.18 37.93 37.68 36.15 35.37 37.88 35.73 33.78 37.42 41.35 40.03 40.72 33.94 32.58 29.66 30.06 33.44 28.79 30.32 32.45 33.53 33.71 29.54 29.50 25.92 28.43 35.79 36.91 40.44 29.51 31.85 37.92
45.52 45.83 46.38 46.97 45.67 46.05 45.62 44.61 44.42 44.45 44.20 39.00 36.72 44.25 40.16 37.21 38.02 40.33 43.13 39.08 39.09 39.97 34.56 38.95 37.90 39.82 38.55 34.91 33.29 31.08 29.45 33.51 31.94 33.32 31.98 31.10 29.77 29.96 30.40 28.57 24.27 36.85 38.54 34.79 38.42 38.17 38.89
45.24 45.74 45.75 46.65 45.18 45.50 45.52 45.46 44.72 45.15 43.70 42.18 33.63 43.18 43.74 37.93 38.06 41.93 42.72 44.14 43.42 43.88 42.59 41.37 39.34 39.56 40.70 37.07 35.86 34.75 30.96 31.33 30.56 30.80 34.30 29.98 31.16 29.81 31.17 30.67 37.12 37.32 39.89 40.97 39.49 38.10 37.47

GFSGBSN_sfc_wetblb_054.txt.gz
Wetbulb
56.19 54.53 54.91 55.29 54.45 55.61 54.39 54.56 54.30 54.21 54.11 53.85 53.54 53.16 52.78 52.77 52.66 52.69 52.59 52.43 52.73 52.99 53.05 52.94 53.63 54.43 53.46 47.80 44.80 54.01 59.03 57.23 58.14 56.96 54.52 53.66 49.20 47.03 44.10 43.86 43.93 41.72 43.03 45.92 47.51 47.19 45.44
55.52 54.97 55.41 54.21 55.53 54.74 54.48 54.32 53.67 53.15 52.99 53.01 52.84 52.31 52.07 52.13 51.98 51.96 51.89 52.07 52.37 52.46 52.46 53.00 53.30 53.85 49.68 41.93 52.68 53.41 53.25 57.70 55.76 55.57 53.98 54.47 50.28 49.20 45.40 44.04 43.16 44.51 44.99 45.16 45.84 45.46 44.95
54.49 55.18 54.51 54.40 54.45 54.03 54.16 53.81 52.95 52.30 52.42 52.44 52.49 52.01 51.66 51.59 51.69 51.74 51.70 52.11 52.05 52.09 52.31 52.91 52.90 50.74 47.32 45.54 52.48 52.38 55.01 56.91 56.02 56.16 52.92 55.08 52.90 49.42 46.04 42.77 45.98 44.08 40.74 41.67 43.24 44.11 43.51
54.55 54.06 54.24 54.22 53.83 53.83 53.75 53.10 52.64 52.50 52.32 52.30 52.06 51.47 51.20 51.21 51.34 51.37 51.62 52.04 51.88 52.06 52.19 52.40 52.44 49.36 42.89 53.39 53.94 51.78 53.03 55.63 57.64 57.78 56.55 56.11 54.48 50.21 46.01 45.57 43.43 40.65 39.49 35.33 41.29 43.72 44.26
54.15 53.85 53.90 53.90 53.14 53.73 53.42 52.99 52.19 52.03 52.06 52.06 51.79 51.74 51.34 51.20 51.10 51.10 51.47 51.59 52.12 52.32 52.32 52.19 47.05 45.62 41.92 53.87 49.40 50.89 50.40 53.75 55.41 55.78 55.79 56.65 53.48 47.73 45.12 40.10 36.73 36.68 31.07 34.08 38.53 43.30 42.50
53.55 53.43 53.56 53.11 52.61 53.66 53.35 52.82 52.13 51.88 51.80 51.69 51.40 51.20 50.54 50.21 50.44 50.96 51.20 51.41 51.16 49.81 48.76 49.37 47.69 41.65 45.33 43.49 49.64 50.02 50.42 54.44 52.56 52.58 51.39 50.86 48.27 44.24 40.31 39.34 30.39 34.00 32.49 32.28 35.05 38.09 39.20
53.22 53.52 53.16 51.98 52.30 53.14 52.98 52.42 51.63 51.55 51.56 51.28 50.80 50.32 50.24 49.86 50.08 50.73 47.36 41.92 36.96 37.52 41.25 37.99 39.55 42.28 44.46 48.88 51.46 48.11 49.41 52.48 51.99 49.68 44.94 47.40 41.41 39.23 40.62 40.27 38.06 37.21 34.47 33.05 35.69 38.66 35.54
52.68 52.78 52.23 52.15 51.90 52.93 52.26 51.90 51.53 51.44 51.11 50.06 49.78 49.85 50.76 50.97 50.19 50.53 44.72 37.82 39.22 41.45 33.76 42.40 42.76 44.08 47.36 48.62 43.23 45.96 50.86 46.75 46.32 42.70 45.54 43.27 37.19 43.54 45.10 42.83 41.40 38.38 34.88 33.00 36.05 37.55 34.74
52.49 52.39 51.78 51.90 52.04 51.18 51.51 51.32 51.48 50.96 50.10 50.61 50.98 51.15 51.37 51.14 51.17 45.07 41.17 40.73 45.10 44.26 33.93 37.64 40.97 41.52 44.93 47.11 42.91 43.31 48.00 46.88 43.53 41.90 41.80 38.58 40.90 45.88 44.08 41.62 40.13 38.20 35.14 32.50 32.43 34.42 32.92
52.20 52.20 51.15 51.73 51.18 51.31 50.66 51.11 51.17 50.17 50.91 50.92 51.39 52.10 52.17 51.88 45.18 43.78 39.89 45.39 44.76 44.92 19.51 32.38 37.45 42.40 45.72 46.98 40.95 47.47 49.81 46.85 43.99 39.50 40.23 37.97 42.71 43.24 41.10 39.06 40.23 34.42 37.97 35.85 33.39 30.64 26.53
51.71 51.32 51.05 51.16 51.76 50.60 50.25 50.51 50.36 50.65 51.16 51.49 52.08 52.25 51.31 50.22 44.28 41.74 43.62 44.96 44.47 42.06 11.43 34.26 38.79 48.52 46.25 42.24 42.01 43.79 49.65 46.66 40.37 40.14 39.42 35.67 39.27 38.16 38.39 38.55 40.61 34.68 37.44 34.26 32.54 28.22 24.92
51.43 51.03 50.73 51.43 51.75 51.33 50.16 50.39 50.15 51.07 51.91 52.29 51.68 51.41 50.97 46.39 46.99 46.26 46.35 45.17 40.92 25.35 18.97 33.11 40.10 39.87 39.79 41.50 41.58 44.70 44.73 46.78 46.21 39.91 38.93 36.28 40.85 39.15 36.04 38.07 39.22 37.34 33.32 30.99 28.82 26.63 18.11
50.67 50.58 50.79 51.37 50.37 50.46 50.24 49.99 50.25 50.82 52.31 51.97 51.00 50.57 48.47 48.54 41.05 46.19 45.04 38.48 22.45 19.73 31.88 31.95 34.90 38.96 38.53 38.42 39.39 40.90 39.53 37.15 36.57 32.09 31.31 34.71 35.77 38.37 39.04 34.37 37.08 35.24 30.93 18.82 15.52 15.36 17.32
50.31 50.33 50.71 50.06 50.04 50.05 49.78 49.94 50.00 50.81 51.40 52.15 50.42 49.45 49.14 47.58 46.51 45.01 41.63 31.98 22.07 28.33 29.15 36.81 38.35 38.11 36.30 38.29 38.78 38.80 37.03 33.13 35.57 34.84 29.62 26.49 26.18 35.34 36.93 34.67 32.32 29.68 28.36 19.41 14.72 17.12 19.18
49.93 50.35 50.77 49.75 49.43 49.62 49.53 49.59 49.49 50.41 51.85 52.11 48.17 42.60 46.48 48.15 48.05 44.23 37.30 23.13 27.57 30.71 33.02 36.58 36.87 34.09 34.54 37.46 37.95 37.56 35.42 32.49 34.44 34.70 29.75 25.23 27.20 36.31 37.35 37.37 34.71 29.54 22.31 28.80 19.78 17.01 15.34
49.48 50.09 50.23 49.55 49.07 49.31 49.40 49.28 49.07 49.94 51.31 51.06 38.95 39.43 40.33 47.25 46.18 39.86 31.35 31.17 32.91 36.60 38.55 36.02 31.55 33.51 30.50 34.93 34.78 34.35 33.84 35.39 34.60 36.01 34.96 30.40 25.93 35.30 36.70 38.36 36.89 32.73 33.24 23.86 16.75 8.85 13.85
49.19 49.86 49.63 49.26 48.42 48.47 48.77 48.71 48.69 49.84 50.60 48.89 38.42 34.04 41.44 48.62 42.06 33.41 28.49 31.70 36.50 41.51 40.43 35.22 32.29 31.69 32.56 31.93 33.23 31.94 31.97 35.31 36.58 35.64 36.78 33.21 30.05 32.19 35.46 31.05 29.97 30.57 26.43 27.07 25.28 21.93 15.53
49.06 49.55 49.63 48.75 47.92 47.71 47.63 47.85 48.34 49.51 50.32 43.84 35.61 28.94 45.60 45.18 32.01 36.25 33.09 35.34 39.64 39.54 40.03 36.79 35.99 34.71 32.03 32.66 31.20 30.99 31.27 33.91 38.35 38.09 33.59 34.93 31.09 29.03 29.92 33.60 34.44 32.76 29.87 27.45 18.69 17.24 18.73
48.89 49.11 49.10 48.34 47.59 47.24 46.82 47.06 47.87 49.12 49.48 42.33 33.42 34.04 43.01 40.85 32.40 33.76 37.47 38.25 38.92 38.55 38.34 36.48 34.57 35.99 35.14 32.58 29.27 31.80 32.80 38.66 39.11 37.55 34.99 35.43 26.67 18.11 25.29 29.50 31.94 29.00 30.87 29.65 26.88 23.42 17.19
48.39 48.69 49.27 48.16 47.39 46.88 46.47 46.54 47.31 48.36 49.14 40.48 34.21 30.57 35.86 41.87 39.82 36.87 36.74 36.19 35.62 40.11 38.40 37.55 36.13 37.31 34.87 33.45 34.40 31.72 32.80 38.38 38.93 38.50 42.91 38.14 28.51 25.18 20.62 23.69 27.35 24.65 29.87 29.48 25.98 21.44 21.24
47.92 48.25 49.13 48.12 47.36 46.76 46.32 46.19 46.75 47.87 48.49 40.85 34.96 35.54 38.07 31.39 36.33 37.87 37.10 36.43 33.86 34.21 37.90 37.98 35.42 35.86 34.68 31.58 32.75 31.90 33.61 34.87 37.92 41.72 36.88 34.66 27.04 28.59 29.07 29.80 30.30 29.48 29.21 29.04 22.04 25.72 19.86
47.49 47.63 48.39 48.12 47.25 46.51 46.05 45.92 46.12 47.22 47.60 40.51 36.86 37.05 38.54 37.51 37.78 34.02 34.28 34.13 34.10 35.21 36.05 35.12 35.04 36.73 36.20 33.02 32.92 31.99 33.65 32.52 32.56 34.82 33.45 33.28 26.02 28.55 21.93 29.36 29.39 27.17 30.17 29.89 29.54 29.67 29.12
47.30 47.42 47.78 48.11 46.99 46.45 45.87 45.66 45.79 46.35 45.27 41.03 42.59 42.67 39.89 34.05 31.48 30.02 32.26 34.84 35.78 37.17 39.09 40.20 39.47 36.79 35.72 36.87 37.13 36.32 36.58 36.75 35.90 33.79 32.69 34.62 31.03 23.28 20.92 27.55 28.36 23.77 29.14 30.10 29.94 31.14 33.08
47.11 47.10 47.35 48.32 46.81 46.36 45.74 45.48 45.51 45.50 44.75 42.05 42.22 41.80 36.75 30.70 31.37 32.16 34.89 38.20 37.17 37.05 36.33 38.76 40.01 36.84 40.14 41.43 39.58 39.28 37.47 36.35 36.17 35.34 36.39 32.31 31.31 29.35 24.51 24.66 17.42 29.35 35.33 34.18 32.24 33.52 34.39
46.84 46.92 47.00 47.55 47.08 46.08 45.71 45.25 44.96 45.29 45.11 39.48 42.58 41.09 38.49 33.89 33.09 33.28 35.83 35.75 36.53 37.75 37.80 38.13 39.20 40.58 40.80 38.04 33.69 32.96 33.93 33.97 35.52 37.21 35.53 36.99 33.21 28.95 24.47 24.50 25.75 31.60 34.98 33.74 32.63 33.82 35.66
46.66 46.77 46.67 47.06 48.05 45.79 45.68 45.20 44.83 44.85 44.68 37.64 42.46 43.96 40.22 35.92 31.25 35.72 35.57 35.35 32.92 31.64 33.73 38.00 40.25 41.78 39.17 36.06 32.91 27.10 25.60 27.02 29.20 33.74 37.41 36.08 34.68 30.27 28.93 24.01 20.37 29.21 34.98 39.33 37.59 30.12 37.15
46.62 46.28 46.30 46.66 47.66 46.21 46.03 45.16 44.69 44.61 44.43 38.40 36.95 43.53 39.67 36.64 36.45 37.85 36.04 37.42 36.64 33.98 32.57 35.52 37.86 37.99 38.84 33.00 31.38 29.45 29.90 31.79 28.03 27.76 32.18 32.23 33.04 28.21 28.36 26.89 26.26 33.36 37.23 39.04 31.18 30.47 36.97
46.05 45.83 46.02 46.27 46.95 46.08 46.10 45.63 44.70 44.30 44.58 38.84 35.67 43.31 39.83 36.60 37.56 40.43 41.27 40.78 37.89 37.23 33.91 36.55 35.23 37.49 37.81 34.40 33.07 31.92 30.37 33.59 31.31 33.08 32.71 30.31 27.86 29.55 28.96 27.56 23.30 36.35 38.97 36.49 38.83 38.68 37.41
46.09 45.78 45.79 45.85 46.08 46.66 45.32 45.28 45.82 44.50 44.83 41.93 33.06 41.06 42.58 36.47 37.64 41.36 41.18 42.16 43.26 41.80 40.11 40.54 36.36 38.46 38.97 35.34 34.36 35.32 31.81 32.68 29.75 31.35 35.43 29.72 30.44 28.23 29.67 28.47 36.48 38.71 38.59 41.49 39.93 38.69 36.43

GFSGBSN_sfc_wetblb_057.txt.gz
Wetbulb
55.34 55.01 56.05 55.56 54.69 55.24 54.65 54.87 54.27 53.86 53.59 53.29 53.12 53.12 52.85 52.47 52.57 52.29 52.23 52.30 52.44 52.67 52.64 52.78 53.03 53.13 50.70 45.10 46.44 54.24 57.36 56.82 58.72 56.47 53.45 53.03 50.32 49.43 45.42 45.74 44.87 43.49 44.86 46.88 48.67 48.02 48.00
55.55 55.34 54.61 55.05 54.61 54.62 54.54 54.63 54.14 53.40 53.20 53.08 52.89 52.72 52.40 52.06 52.01 52.03 52.05 51.92 52.24 52.35 52.21 52.52 52.59 52.65 46.53 41.13 53.23 53.96 53.10 53.59 56.24 54.84 53.11 54.28 50.89 50.14 47.34 45.89 44.43 45.72 46.12 46.16 47.15 46.99 47.28
55.24 54.91 54.68 54.13 54.80 53.44 54.46 54.31 53.82 53.12 52.75 52.86 52.81 52.34 52.04 51.82 51.65 51.55 51.84 52.07 52.41 52.30 52.19 52.58 52.34 49.59 44.32 43.41 52.40 53.28 52.81 54.08 56.47 55.13 52.36 55.42 53.52 49.94 47.00 43.81 47.39 45.36 42.48 44.08 45.10 45.50 45.49
54.47 54.50 54.32 54.89 53.85 53.24 53.82 53.82 53.34 52.91 52.60 52.39 52.36 52.06 52.11 51.72 51.60 51.48 51.56 51.80 52.12 52.20 52.38 52.02 51.96 47.60 39.50 52.78 54.17 52.47 52.24 54.84 56.39 56.79 55.86 56.78 54.92 49.81 47.13 47.04 44.65 42.46 42.46 37.36 43.24 44.55 45.33
54.17 54.00 54.58 53.81 52.93 53.25 53.77 53.40 52.82 52.48 52.22 52.12 52.21 51.59 51.56 51.14 50.57 50.63 51.18 51.78 52.01 52.28 52.56 51.88 46.97 44.20 39.11 53.71 49.33 52.26 52.00 51.88 54.24 55.67 56.29 56.45 53.33 48.65 46.47 40.92 38.54 39.50 34.09 36.05 39.35 44.39 43.63
53.46 53.66 53.47 52.97 52.64 53.02 52.89 52.45 52.29 52.15 52.19 51.92 51.22 50.66 50.45 50.31 50.79 50.36 51.09 51.30 50.90 49.60 48.93 49.22 46.57 39.02 42.89 43.53 50.04 50.90 51.51 52.69 52.25 52.54 50.56 49.78 48.27 43.88 42.63 39.82 31.55 34.67 34.27 36.05 36.54 40.30 41.44
53.27 53.68 53.11 52.28 52.82 52.17 52.44 51.74 51.94 52.57 51.62 51.05 51.10 51.15 51.14 51.22 51.14 50.58 47.44 41.71 36.54 36.37 40.97 36.97 37.96 39.64 44.32 49.02 51.76 48.68 50.63 52.47 51.90 48.76 42.24 46.50 41.62 37.74 40.92 41.27 39.10 38.00 36.14 35.50 38.01 39.96 38.81
52.86 53.02 52.61 52.10 52.21 52.47 51.94 51.00 51.65 51.69 51.47 52.00 51.95 51.67 51.88 51.88 51.46 50.42 44.35 37.48 40.03 40.30 33.15 41.45 42.57 42.31 46.83 48.77 44.34 46.68 51.63 47.12 46.23 41.60 45.14 42.20 38.59 43.43 44.00 42.25 39.89 38.10 35.81 35.28 37.99 38.82 37.97
52.73 52.17 52.08 52.07 52.51 52.99 52.32 50.96 51.60 51.63 52.21 52.44 52.53 52.27 52.31 52.02 50.71 47.14 41.07 40.19 44.79 44.12 34.42 38.27 41.21 40.66 44.75 47.21 42.70 43.66 48.41 47.76 44.52 42.16 39.39 36.50 40.48 45.91 43.06 41.68 39.71 38.11 35.68 34.35 35.22 36.42 35.70
52.48 52.02 51.82 51.95 52.37 51.55 51.05 51.11 51.30 51.68 52.39 52.47 52.45 52.24 51.48 49.70 45.29 44.30 39.35 44.69 44.39 43.47 24.34 32.21 38.29 41.99 45.93 46.60 41.33 47.82 50.45 47.48 43.80 39.46 38.68 38.08 43.64 43.52 42.11 40.29 41.29 36.37 39.50 36.70 34.84 33.62 30.07
51.66 51.59 51.53 51.97 51.03 50.66 51.37 50.76 51.30 51.66 52.43 52.23 51.77 51.98 51.03 49.31 44.39 41.92 43.26 44.61 43.89 39.80 14.69 34.57 38.82 48.62 45.95 41.55 42.51 44.08 50.14 46.74 40.09 39.74 40.09 34.63 40.76 39.06 38.15 38.99 41.00 36.83 38.33 35.21 33.48 30.21 29.64
51.34 51.05 51.36 51.67 50.76 50.36 50.46 50.60 50.83 51.54 52.04 52.23 51.36 51.22 50.65 46.11 45.52 44.74 45.33 44.22 39.71 20.20 16.83 33.11 39.27 38.54 38.63 41.84 42.15 45.25 45.25 47.20 44.53 39.89 39.04 36.82 41.77 40.78 38.15 42.35 41.03 38.23 34.01 32.14 30.04 28.68 24.08
50.79 50.84 51.04 50.80 50.22 49.99 50.00 50.20 50.26 51.10 51.66 52.28 51.05 50.73 47.81 47.55 40.79 45.42 45.16 37.99 20.15 16.21 31.32 31.53 34.80 38.13 38.66 37.97 39.64 41.27 39.57 37.90 36.54 31.88 31.31 35.77 35.91 38.46 39.81 35.50 38.04 36.58 33.78 23.88 21.39 21.52 22.47
50.44 50.54 51.07 50.13 49.78 49.60 49.63 49.81 50.00 50.53 51.14 52.14 50.45 48.97 48.99 47.20 46.14 45.06 42.26 28.09 18.03 28.28 28.13 36.50 38.91 38.89 36.44 37.35 38.19 38.68 37.50 32.94 36.08 35.14 29.91 27.50 28.94 35.95 38.05 35.88 33.98 31.84 33.68 23.99 18.52 19.90 22.19
50.02 50.21 50.57 49.90 49.45 49.26 49.09 49.40 49.57 50.08 50.45 51.92 47.55 41.69 43.99 46.14 47.03 42.65 33.49 25.68 28.50 30.12 33.69 36.90 37.14 34.12 34.81 37.29 37.58 37.17 34.88 32.60 34.34 34.73 30.94 26.62 28.68 37.72 37.60 37.71 36.59 31.84 27.24 30.17 21.71 20.74 20.22
49.73 49.71 50.36 49.73 49.17 48.80 48.47 48.40 49.04 49.74 50.20 50.84 38.75 38.07 39.37 45.62 44.69 41.46 33.78 32.49 34.56 37.19 37.97 35.52 30.79 33.21 31.46 34.77 35.40 33.73 32.92 34.90 34.44 36.44 36.19 31.39 27.36 35.90 36.46 38.78 36.90 34.04 33.46 25.85 21.87 15.02 17.30
49.39 49.44 49.95 49.45 48.79 48.26 47.84 47.86 48.62 49.58 50.21 48.39 37.56 33.93 41.10 46.69 41.39 37.06 30.33 33.00 37.06 40.80 39.26 34.86 32.04 31.60 32.52 32.91 34.36 31.86 31.79 35.68 36.81 36.09 36.31 34.20 31.20 32.41 36.13 32.30 30.59 31.59 28.82 27.79 26.56 23.62 19.39
48.95 49.22 49.74 48.85 48.42 47.83 47.56 47.58 48.21 49.26 50.07 43.96 35.21 29.88 42.51 43.42 33.36 36.30 32.63 34.74 39.37 38.55 39.44 36.34 35.54 34.03 32.25 32.15 30.69 30.84 31.08 34.50 38.73 38.33 33.96 35.43 32.30 28.61 30.30 34.14 35.32 33.80 30.86 28.38 23.23 21.16 20.73
48.84 48.87 49.22 48.88 48.12 47.59 47.29 47.21 47.54 48.93 49.84 42.65 33.13 33.20 41.44 40.98 31.91 32.09 35.55 37.39 38.37 38.08 37.52 35.66 34.03 35.90 35.09 32.36 29.48 31.48 32.91 38.65 39.16 37.73 34.75 35.20 28.15 24.38 27.43 31.45 33.11 31.00 31.45 29.92 27.47 25.45 21.40
48.59 48.35 48.58 48.95 47.96 47.39 46.96 46.83 47.04 48.22 49.46 41.48 33.60 30.82 35.22 40.01 39.55 36.06 35.10 34.09 34.77 39.27 37.34 36.67 35.39 36.21 33.93 32.78 33.83 31.56 33.10 37.74 38.71 38.14 42.19 37.97 29.50 26.83 23.97 26.30 29.05 26.07 30.18 29.86 27.20 22.30 22.21
48.31 48.01 48.27 49.19 47.90 47.37 46.75 46.56 46.75 47.44 48.35 39.99 34.55 34.27 37.49 30.25 33.61 37.50 37.72 36.33 33.17 33.55 37.12 37.35 35.11 34.90 33.75 30.63 31.32 31.20 33.72 34.42 37.72 41.33 36.83 35.22 28.45 29.63 30.02 30.46 30.69 30.20 30.13 29.50 24.96 26.78 23.24
48.09 47.81 47.91 48.72 47.60 47.28 46.68 46.26 46.44 46.62 47.24 39.35 34.48 36.80 38.93 34.94 35.89 33.28 34.06 35.20 33.63 34.99 35.38 34.46 34.21 35.80 34.58 32.22 31.85 31.15 33.18 32.25 32.48 34.80 33.80 33.78 28.84 26.30 23.33 29.94 29.89 27.95 30.85 30.56 30.14 30.15 29.22
47.78 47.55 47.63 47.94 48.15 46.99 46.52 46.05 45.97 46.09 44.19 40.70 42.25 42.71 39.31 33.64 30.33 28.97 31.06 33.59 34.53 36.45 38.31 39.12 37.17 35.41 33.89 35.21 36.77 36.10 36.04 36.36 36.13 34.23 32.65 34.12 28.00 24.08 22.59 28.15 28.51 24.69 29.50 30.66 30.39 31.23 32.42
47.43 47.40 47.43 47.47 48.28 46.70 46.39 45.86 45.57 45.70 43.67 38.97 41.40 41.48 37.03 30.46 30.45 32.13 33.85 35.04 36.09 35.90 36.15 38.60 38.52 35.76 38.96 39.87 38.38 38.35 36.69 35.50 35.66 35.27 36.22 32.16 31.70 28.11 25.44 24.94 17.24 29.24 34.89 33.89 32.51 33.47 34.07
47.02 46.92 47.07 47.08 47.24 47.58 46.14 45.74 45.41 45.24 45.09 37.31 42.38 40.59 38.24 32.93 32.00 32.56 34.22 34.59 35.10 36.35 36.56 37.12 38.57 40.79 40.26 37.31 35.04 33.71 33.70 34.42 35.61 37.08 35.23 36.82 33.29 27.01 23.05 24.33 25.53 31.24 33.44 32.69 32.08 34.12 35.17
46.96 46.95 46.90 46.64 46.81 48.05 45.97 45.80 45.01 44.83 44.73 37.31 40.95 43.41 39.68 35.98 30.31 34.69 34.98 34.40 32.61 30.61 32.83 36.70 39.37 40.87 38.16 34.71 32.34 27.43 25.87 27.90 29.17 33.62 36.90 35.98 34.92 27.45 25.99 23.20 20.46 29.33 35.20 39.08 37.99 32.08 37.70
47.01 46.68 46.36 46.31 46.48 47.41 46.50 46.28 45.14 44.56 44.16 38.12 36.62 40.18 39.21 35.79 36.14 38.00 35.94 35.02 35.66 32.82 32.08 34.13 36.73 36.47 37.42 31.80 30.94 29.19 29.15 31.49 27.51 27.32 29.97 31.65 31.98 27.17 24.98 23.79 26.37 32.62 36.86 39.37 32.56 33.02 38.37
46.80 46.51 46.39 46.14 46.34 46.53 46.92 45.90 45.92 45.14 44.36 39.53 36.83 41.06 38.19 35.78 36.13 39.44 40.75 40.34 39.37 35.55 32.73 35.43 34.69 35.55 35.50 33.97 32.96 32.26 30.31 32.74 31.29 32.43 30.74 28.94 27.53 27.42 27.17 25.86 20.31 35.74 38.06 37.07 39.94 40.01 39.25
47.15 46.87 46.47 45.93 46.26 46.11 46.49 46.56 45.51 45.64 44.97 41.83 35.25 40.75 41.96 34.51 36.26 40.61 40.16 41.80 42.59 44.46 38.69 36.93 34.27 35.44 36.34 34.22 34.58 35.06 30.90 34.43 29.91 30.89 35.34 29.63 30.30 27.82 28.60 27.79 35.60 38.21 39.76 42.05 41.74 40.11 39.06

GFSGBSN_sfc_wetblb_060.txt.gz
Wetbulb
55.38 55.90 55.55 55.53 55.39 55.47 54.36 54.78 54.99 54.71 54.48 54.05 53.70 53.71 53.19 52.88 52.63 52.51 52.41 52.53 52.55 52.49 52.54 52.61 52.85 52.79 50.56 44.08 43.43 56.62 57.36 59.08 59.78 57.97 54.22 53.12 51.68 50.58 46.44 48.36 48.86 46.53 47.83 49.48 50.67 50.86 50.66
55.94 54.92 54.96 55.23 55.40 54.35 54.11 54.67 54.72 54.23 53.93 53.61 53.23 53.00 52.76 52.81 52.63 52.30 52.07 52.08 52.27 52.44 52.64 52.41 52.50 51.82 46.57 37.76 51.91 54.41 54.66 54.62 56.35 56.03 53.70 53.97 52.52 53.47 48.97 48.24 47.34 49.01 48.31 48.71 50.05 49.98 49.67
55.71 55.27 55.07 54.40 54.25 53.99 54.08 54.20 53.50 53.43 53.38 53.39 53.11 52.61 52.61 52.56 52.03 52.05 52.06 52.32 52.05 52.30 52.32 52.53 52.51 49.98 44.17 42.48 53.79 55.47 54.65 54.36 57.16 56.48 51.91 55.10 55.70 52.39 51.68 46.78 50.55 48.50 45.08 47.27 47.96 48.80 47.99
54.24 54.13 54.79 54.30 53.22 53.70 53.29 53.10 52.71 53.03 53.21 53.12 52.77 52.37 51.68 51.64 51.64 51.32 51.17 51.44 52.00 52.20 52.48 52.53 52.19 48.22 39.33 50.32 52.31 51.39 53.63 52.92 56.74 57.86 55.30 56.67 56.58 53.30 50.19 50.86 48.30 44.95 45.03 40.37 45.98 47.77 48.46
54.24 54.47 54.32 53.41 53.21 53.46 53.02 52.89 51.94 52.76 53.23 52.67 52.41 52.06 51.52 51.15 50.88 51.02 50.95 51.47 52.07 52.06 52.33 52.21 47.41 44.48 38.77 51.90 48.62 51.70 54.13 51.37 53.98 55.84 55.86 56.75 53.73 50.27 49.42 44.90 41.90 43.40 37.75 39.35 41.72 47.74 46.66
53.76 53.91 53.49 52.98 52.97 53.31 54.03 52.98 51.83 52.67 52.72 53.00 52.96 52.61 52.21 51.97 51.62 51.14 51.07 51.27 50.97 50.29 50.06 49.84 47.02 39.80 43.45 43.17 50.22 51.59 53.64 54.03 51.95 52.42 50.64 50.34 48.76 44.74 45.65 42.91 34.18 37.40 37.89 40.10 39.42 44.15 45.59
53.68 53.64 53.04 52.80 52.91 52.66 52.97 52.33 52.46 52.57 53.00 53.09 52.90 52.67 52.66 52.47 52.16 51.44 49.40 47.01 42.76 42.03 44.12 39.02 39.38 39.25 43.13 49.74 53.25 49.69 51.13 50.27 52.26 49.18 42.82 46.86 41.28 39.60 43.22 44.27 42.39 42.03 39.99 38.15 41.39 42.84 42.72
53.46 53.30 52.75 52.62 52.65 52.12 52.35 52.49 52.39 52.64 53.20 53.11 52.56 52.52 52.43 52.26 51.63 50.38 48.01 41.90 41.38 43.28 35.61 42.29 42.85 42.20 44.38 49.35 44.68 47.28 50.86 47.53 47.02 42.00 44.39 42.38 38.38 44.13 46.03 45.26 42.46 41.63 39.02 38.73 40.53 42.28 42.74
52.88 52.63 52.51 52.54 51.96 51.59 52.03 52.02 52.55 52.58 53.01 52.81 52.03 52.18 51.58 50.85 49.62 47.92 45.52 42.82 47.77 46.46 37.22 39.15 42.18 40.46 43.09 47.62 43.26 42.97 48.69 47.85 43.97 41.11 42.23 39.50 40.70 45.68 44.25 43.09 40.91 40.85 38.92 38.83 38.53 39.92 40.42
52.28 52.18 52.23 52.58 51.63 51.06 51.19 51.59 51.77 52.36 52.57 52.55 51.88 52.07 51.05 49.05 46.50 46.45 42.99 47.77 48.46 47.38 31.90 32.04 37.79 40.62 45.25 46.43 41.21 48.46 50.04 47.84 42.89 39.87 40.04 39.02 42.38 43.82 42.78 41.43 42.53 37.40 42.10 41.16 38.93 38.52 35.55
51.87 51.71 51.91 51.85 51.23 50.65 50.86 51.26 51.30 51.59 52.35 52.60 51.64 51.60 50.82 49.98 45.59 42.85 45.87 48.39 48.25 44.11 22.04 35.88 38.70 47.44 46.49 42.36 42.72 44.41 50.64 46.50 40.55 38.73 39.85 35.22 38.59 41.53 40.46 41.46 44.33 38.83 42.78 40.05 38.18 37.49 36.00
51.43 51.41 51.65 51.40 50.90 50.27 50.08 50.32 50.58 50.70 51.84 51.85 51.50 51.08 49.74 49.14 48.22 47.14 48.88 48.06 45.40 31.31 22.89 33.68 39.58 38.52 39.81 41.70 43.00 45.79 44.83 46.68 45.57 40.37 38.69 36.51 42.42 40.64 40.26 42.87 41.01 40.34 38.92 37.84 37.48 35.81 31.21
50.96 50.98 51.30 51.02 50.72 50.04 49.63 49.60 50.10 50.42 51.21 51.26 52.05 50.55 49.07 49.10 44.12 49.50 48.84 44.17 32.04 26.79 34.11 32.99 35.69 38.78 39.54 38.79 40.78 40.79 40.68 39.78 37.63 34.04 33.40 33.29 36.07 39.03 42.92 36.34 39.77 37.96 37.25 31.19 29.81 30.00 30.00
50.45 50.53 51.01 50.87 50.40 49.84 49.39 49.15 49.68 50.20 50.91 50.71 51.46 49.84 49.52 49.49 50.79 49.59 46.19 37.34 28.01 30.73 32.40 37.53 38.77 39.23 36.70 38.58 38.61 39.16 38.52 37.00 39.24 39.38 34.93 33.46 30.47 36.39 40.01 38.17 36.50 36.48 37.94 33.31 24.64 26.67 29.46
50.17 50.19 50.65 50.43 50.10 49.55 49.17 49.00 49.18 49.61 51.03 50.70 48.45 48.60 48.65 49.31 50.33 48.54 41.53 30.95 30.24 32.41 34.82 37.11 37.83 35.20 35.50 38.65 38.62 37.61 37.03 35.97 37.18 39.14 34.76 33.12 31.52 39.06 39.28 39.49 39.98 35.39 34.42 35.43 30.12 28.23 29.27
49.86 49.90 50.17 50.18 49.78 49.26 48.96 48.69 48.84 49.36 50.78 50.58 46.51 45.71 45.85 49.84 49.35 45.97 40.00 33.24 36.01 38.39 39.73 38.76 32.69 36.00 32.63 35.36 35.93 36.84 36.21 38.17 37.46 39.74 40.80 36.47 31.13 37.08 37.83 40.74 39.40 38.18 38.40 31.46 32.71 25.37 25.11
49.43 49.65 49.83 50.36 49.27 48.86 48.47 48.32 48.56 49.27 50.41 48.60 45.50 43.88 47.26 49.79 47.82 44.32 32.11 34.74 38.40 42.34 41.48 38.03 35.59 35.00 35.49 34.98 36.73 35.42 35.12 38.28 39.97 38.95 41.08 39.63 36.56 33.70 38.08 35.91 35.13 34.77 34.51 32.72 33.35 30.59 27.87
49.18 49.27 49.47 50.23 49.00 48.63 48.22 48.03 48.28 48.94 50.27 47.82 43.50 41.59 48.17 49.05 40.80 38.77 35.78 37.12 40.50 41.66 42.97 40.12 39.99 38.60 36.18 36.85 35.51 35.69 35.23 38.25 41.76 41.58 37.10 38.58 37.20 31.45 33.05 37.42 38.98 37.58 35.46 34.45 31.23 26.95 28.72
48.99 48.86 48.93 49.82 48.86 48.36 48.08 47.76 47.95 48.38 49.39 46.13 41.69 41.96 48.62 48.15 37.93 38.30 39.94 39.67 40.85 40.39 39.66 38.93 37.72 39.54 39.35 36.86 34.22 36.14 36.82 41.12 41.77 40.92 38.81 39.41 34.12 28.58 29.32 34.07 36.86 34.69 35.33 34.32 32.93 32.74 28.52
48.56 48.54 48.50 49.00 49.16 48.18 47.93 47.40 47.42 47.76 48.73 46.83 42.06 39.34 44.03 46.03 43.74 40.26 38.36 38.12 37.71 42.02 40.02 39.93 38.90 40.13 38.42 36.41 38.12 35.27 36.46 39.83 41.24 41.68 41.71 41.58 34.42 31.49 29.43 31.08 34.73 32.00 33.57 34.13 34.15 30.80 30.48
48.49 48.26 48.37 48.49 48.91 47.97 47.71 47.13 47.03 47.18 47.79 46.00 42.13 38.28 39.45 39.05 40.29 39.95 40.06 39.05 36.74 36.69 41.19 41.44 38.86 38.50 37.68 34.64 35.48 34.99 37.44 38.61 40.66 41.48 40.04 39.70 32.67 33.25 32.99 33.31 33.63 33.36 33.27 32.71 30.41 33.69 32.17
48.00 47.93 48.09 48.04 49.03 47.80 47.47 46.80 46.62 46.67 46.70 44.73 38.99 38.06 40.75 39.31 38.53 38.19 38.20 38.22 37.16 38.12 38.81 37.74 37.57 38.71 39.18 36.56 36.84 34.98 37.32 37.75 37.24 39.09 38.52 37.86 32.37 31.49 29.95 32.52 32.81 31.25 33.99 34.37 33.51 34.16 33.49
47.67 47.81 47.80 47.80 47.89 47.84 47.01 46.49 46.31 46.38 44.91 43.27 42.93 43.57 39.59 38.37 37.42 37.91 38.86 38.40 38.40 40.10 41.09 41.59 40.62 39.39 38.11 38.40 40.90 41.05 41.88 41.54 41.08 38.63 36.79 36.82 33.31 31.89 28.69 31.23 31.31 29.17 32.68 33.86 34.65 35.93 36.26
47.44 47.61 47.23 47.37 47.49 48.28 46.74 46.38 46.10 45.95 44.00 43.01 42.87 42.07 37.27 34.56 36.33 37.28 37.52 38.57 39.41 40.22 39.37 41.59 42.18 40.47 41.58 44.31 43.18 43.43 42.51 40.79 40.96 39.31 40.49 36.12 34.58 33.52 29.98 30.25 24.69 33.73 38.11 38.01 36.10 37.42 38.46
47.62 47.47 47.00 47.17 46.90 47.33 46.84 46.18 45.77 45.48 45.00 41.31 44.17 41.22 38.68 33.04 36.00 37.11 37.42 38.58 40.37 41.23 40.78 40.93 42.42 44.05 46.28 42.65 38.76 35.33 35.30 35.71 36.82 38.89 38.48 39.27 36.01 31.33 28.31 27.91 32.18 35.19 35.73 35.64 35.37 37.84 40.40
47.84 47.28 47.09 46.82 46.65 46.83 47.50 46.30 45.86 45.27 44.45 42.40 42.95 43.55 40.33 35.82 35.31 37.24 36.86 38.99 38.80 39.45 39.95 41.02 44.54 45.72 43.68 41.19 37.75 30.21 29.05 30.99 31.17 33.93 38.32 37.61 37.58 33.88 29.95 25.22 24.90 35.64 39.98 42.87 41.25 36.53 42.85
48.12 47.55 47.19 46.64 46.51 46.49 47.06 46.53 46.22 45.46 44.23 42.65 41.44 43.06 40.35 35.71 38.67 39.09 36.56 38.21 40.31 39.05 39.35 41.09 42.10 42.16 42.87 39.16 34.60 31.50 30.66 34.79 29.54 29.84 31.30 33.02 33.46 30.88 30.48 28.91 32.39 38.37 40.08 41.58 34.36 37.06 43.23
48.06 47.82 47.15 46.88 46.52 46.54 46.42 46.82 45.96 45.70 45.29 43.00 41.13 43.60 39.97 35.62 36.65 39.49 41.04 39.84 41.18 40.24 38.52 40.93 40.76 40.91 40.59 36.78 35.55 34.01 32.85 34.16 33.63 35.11 33.17 31.87 30.39 29.00 29.67 27.80 25.22 39.86 41.53 38.46 42.15 43.99 43.96
48.27 47.69 47.59 47.07 46.42 46.33 46.34 46.37 46.75 45.79 45.63 44.20 39.46 42.52 43.47 35.97 34.13 40.29 40.86 42.32 42.42 41.96 40.46 42.12 39.74 40.05 42.70 39.55 39.36 38.57 35.10 36.08 35.08 30.96 38.06 31.98 35.92 33.95 33.95 33.95 39.88 42.11 41.82 44.27 43.79 43.80 44.23

GFSGBSN_sfc_wetblb_063.txt.gz
Wetbulb
56.44 55.96 55.88 56.00 55.04 54.59 54.64 54.46 54.49 53.87 54.34 54.31 53.98 53.97 53.49 53.28 53.01 52.71 52.74 52.57 52.41 52.62 52.53 52.77 52.75 52.58 50.54 43.99 43.90 54.54 57.64 60.24 60.31 58.78 54.15 51.60 49.94 50.51 47.15 49.53 49.26 46.98 49.08 50.17 51.52 51.41 51.08
55.30 55.22 55.25 55.27 54.38 54.08 54.32 53.47 53.64 53.52 53.83 54.21 54.03 53.48 53.09 52.97 52.82 52.69 52.40 52.35 52.52 52.38 52.33 52.71 52.44 51.71 46.84 38.46 51.56 53.17 53.77 55.42 57.88 56.87 53.88 52.91 51.75 53.21 49.61 48.95 47.87 49.36 49.74 49.54 50.64 50.85 50.85
55.11 55.23 55.38 55.02 54.04 53.80 54.34 54.65 53.37 52.75 53.55 53.96 53.91 53.24 52.75 52.22 51.56 51.73 51.77 51.81 52.11 52.22 52.32 52.44 52.28 50.67 44.78 42.62 51.57 56.06 54.61 53.53 55.84 56.19 52.85 54.82 54.92 51.25 51.60 47.78 51.52 49.12 45.97 47.72 48.74 49.53 48.86
54.86 54.85 54.48 54.29 53.69 54.17 53.80 54.38 52.99 53.24 53.66 53.82 54.10 53.62 53.21 52.69 51.39 51.25 51.08 51.29 51.19 52.01 52.42 52.48 52.10 48.82 40.78 50.27 52.32 50.00 52.23 52.59 55.50 56.85 55.68 56.22 56.37 52.67 50.54 51.53 48.76 45.49 45.91 40.56 46.74 48.17 49.14
54.39 54.69 53.99 53.88 53.74 54.03 53.02 53.45 53.34 53.45 53.84 54.16 53.68 53.52 53.18 52.91 52.47 51.72 50.72 51.35 51.47 51.88 51.99 52.37 48.86 45.77 39.18 51.85 46.62 50.45 52.44 49.88 53.16 55.48 56.21 56.05 54.88 50.46 49.76 44.32 41.55 43.55 37.77 39.96 42.53 47.84 47.58
54.18 54.27 53.83 53.47 53.73 52.94 53.05 53.49 53.20 53.70 53.98 53.90 53.14 53.27 52.81 52.73 52.71 51.61 51.30 51.31 50.61 50.56 51.00 50.35 48.58 41.53 43.47 42.43 47.62 50.81 53.92 52.76 50.44 52.11 50.81 50.21 49.05 45.01 45.06 42.44 34.98 37.88 38.16 40.68 40.41 45.10 45.82
53.85 53.68 53.62 53.36 53.39 52.73 52.83 52.95 53.38 53.46 53.79 53.67 52.88 52.77 52.03 51.98 52.17 50.94 50.13 48.27 43.83 42.53 45.00 40.01 40.18 40.18 43.06 48.14 51.55 50.16 51.76 49.79 50.84 48.89 42.64 46.97 41.60 38.20 41.97 44.48 43.92 42.74 40.52 39.77 42.60 46.00 44.24
53.46 53.37 53.26 53.16 52.63 52.17 52.13 52.54 52.82 52.99 53.54 53.49 52.89 52.49 51.30 51.70 51.60 50.56 49.12 43.49 42.79 44.38 36.81 42.71 43.32 43.35 45.31 46.14 42.00 47.52 51.48 46.80 46.44 41.13 44.15 42.35 38.16 42.66 45.92 44.90 43.51 42.29 40.56 39.37 42.40 44.45 43.48
53.02 53.04 53.05 52.88 52.30 51.81 51.62 51.75 52.33 52.47 52.97 53.05 52.92 52.25 51.01 49.84 49.58 49.53 46.60 44.43 49.14 47.96 37.40 39.34 42.81 42.14 42.72 46.15 43.43 43.23 48.65 47.03 43.98 41.51 41.61 39.15 41.00 43.98 44.20 42.79 40.76 41.24 39.91 39.72 38.92 41.83 43.63
52.43 52.52 52.69 52.64 52.06 51.37 50.93 51.04 51.54 51.61 51.96 52.46 52.92 51.96 51.26 50.18 47.88 47.97 44.56 49.05 49.87 48.43 33.93 34.39 38.46 42.49 45.81 46.83 40.81 48.04 48.72 44.89 44.12 40.95 42.72 40.80 44.28 41.79 42.01 41.15 41.99 37.80 43.51 42.05 40.04 37.92 33.91
52.05 52.08 52.30 52.20 51.79 51.07 50.65 50.43 50.76 51.19 51.33 52.07 52.12 52.10 51.07 51.31 48.20 44.99 46.42 49.68 48.71 45.97 24.24 36.54 39.65 47.81 47.07 42.11 42.51 43.07 50.04 47.64 41.22 39.48 41.81 36.33 40.88 40.53 40.44 42.13 44.18 39.77 44.77 42.59 41.40 39.20 37.82
51.56 51.69 51.97 51.86 51.41 50.78 50.38 50.12 50.19 50.72 50.95 51.76 51.62 52.15 51.24 50.37 50.13 48.36 50.64 49.87 46.33 32.05 24.57 34.28 40.07 39.83 39.43 41.90 42.45 44.51 44.40 47.27 45.81 39.86 38.40 36.12 41.71 41.07 41.87 41.55 44.09 44.76 42.17 41.18 40.60 38.22 32.16
51.00 51.19 51.51 51.57 51.18 50.61 50.14 49.92 49.91 50.17 50.62 51.24 51.31 51.91 50.88 50.67 45.66 51.00 50.36 43.90 32.99 28.71 35.27 34.16 36.45 39.56 40.12 39.49 40.03 41.49 40.30 39.73 37.23 32.80 32.98 33.87 34.39 38.68 41.18 37.70 40.21 40.74 39.10 31.86 30.18 30.21 30.90
50.81 50.84 51.06 51.35 50.93 50.49 50.05 49.74 49.80 50.02 50.55 51.11 51.27 50.20 50.98 50.62 52.43 51.36 47.41 40.02 29.81 32.90 33.59 38.13 39.26 40.22 36.90 40.09 39.32 40.55 39.41 36.72 41.33 39.12 35.55 33.14 30.18 33.85 39.13 37.97 36.23 38.69 38.65 34.30 27.13 29.12 31.82
50.29 50.46 50.74 51.24 50.71 50.29 49.96 49.62 49.61 49.58 50.69 51.79 50.81 51.15 49.95 51.58 52.36 50.48 44.52 32.07 31.30 33.32 36.50 37.51 39.38 36.05 36.29 39.91 39.14 40.00 39.22 37.85 39.46 39.77 34.65 34.28 32.44 38.22 40.08 40.54 40.38 35.60 34.36 38.54 32.44 32.60 32.10
49.83 50.18 50.24 51.04 50.66 50.07 49.73 49.44 49.35 49.45 50.54 51.19 48.64 48.58 49.33 51.77 52.05 48.78 41.50 33.75 37.07 40.45 41.61 40.70 34.69 37.35 33.80 36.97 37.39 38.59 38.24 39.74 39.05 41.24 42.93 38.79 31.79 37.65 38.91 41.37 41.40 39.87 41.25 33.38 34.72 26.55 26.39
49.38 49.99 49.86 50.44 50.47 49.49 49.37 49.09 49.05 49.29 50.83 50.92 48.60 47.02 50.05 52.28 50.66 46.09 33.94 37.30 39.62 43.57 42.92 39.48 37.41 36.76 37.07 36.31 38.18 37.18 37.19 39.64 41.99 40.74 43.61 41.83 37.81 34.95 38.75 36.99 36.68 36.62 35.90 35.59 35.12 32.94 29.55
48.91 49.41 49.46 49.84 50.42 49.31 49.15 48.74 48.77 49.00 50.20 49.95 47.36 44.12 51.29 52.95 43.83 43.55 38.42 39.00 41.95 42.42 43.98 41.59 41.73 39.70 38.33 38.52 37.50 37.37 36.97 40.04 43.44 43.00 39.13 41.42 38.09 32.61 34.49 38.89 40.51 40.20 38.23 38.00 32.20 30.62 32.05
48.62 48.96 49.01 49.41 50.08 49.01 48.84 48.46 48.33 48.54 48.94 46.37 44.73 45.72 52.76 51.74 39.77 41.18 42.17 41.50 42.38 41.32 40.86 40.46 39.29 41.22 41.45 38.70 35.24 38.22 38.68 42.46 43.25 42.31 40.09 41.22 36.35 29.44 30.48 35.42 38.53 35.56 37.83 38.10 35.88 35.12 31.47
48.85 48.44 48.74 48.96 49.68 48.84 48.47 48.05 47.79 47.94 48.48 47.91 44.87 41.70 47.37 49.11 46.94 42.50 40.19 39.51 39.14 43.39 41.43 41.76 40.64 41.89 40.25 38.29 40.17 37.41 38.21 41.20 42.72 42.92 42.25 43.17 37.12 34.30 30.99 33.26 37.21 33.45 35.99 36.96 34.26 31.42 32.45
48.75 48.14 48.45 48.57 48.93 49.33 48.20 47.74 47.50 47.48 47.85 47.82 44.97 41.41 40.72 41.63 42.61 42.48 42.23 40.69 38.68 38.29 42.42 42.76 40.11 40.22 39.39 36.27 37.12 36.79 39.43 40.23 42.05 41.51 42.15 41.58 34.41 35.21 35.06 35.59 35.82 35.16 34.99 35.35 32.01 34.69 33.13
48.73 47.84 48.09 48.18 48.40 48.96 48.00 47.51 47.20 46.98 47.11 46.99 39.63 38.11 41.24 40.80 42.10 41.27 39.97 40.12 38.85 39.68 40.34 39.19 38.96 40.51 40.77 37.74 38.48 36.56 39.03 39.51 38.84 41.33 40.46 40.94 33.28 34.03 32.00 34.49 34.69 32.74 35.57 35.99 35.14 34.84 35.34
48.85 47.41 47.70 47.73 47.97 48.14 47.85 47.31 46.87 46.67 46.96 44.37 44.44 44.82 40.79 40.83 40.96 39.95 41.47 40.68 39.89 41.51 42.47 43.20 41.93 40.93 39.56 40.76 43.21 43.42 44.09 43.22 42.57 39.81 38.69 38.52 35.43 33.37 30.05 32.83 32.87 29.96 34.05 35.14 35.84 37.22 36.75
48.75 47.51 47.74 47.27 47.44 47.52 48.20 46.91 46.73 46.39 45.24 44.43 42.27 42.15 37.61 36.62 38.82 40.11 39.83 40.80 41.16 42.09 40.37 43.06 43.91 41.88 42.82 45.95 45.69 45.27 44.17 43.00 42.65 41.35 42.44 37.70 35.94 34.97 31.01 31.89 25.25 35.32 39.82 39.44 37.31 38.46 39.70
48.67 48.28 47.65 47.28 47.12 47.02 47.69 46.86 46.71 46.02 45.34 43.37 44.17 40.26 38.95 33.58 37.85 37.87 39.65 40.39 42.61 43.45 42.30 42.81 44.11 45.89 47.31 44.52 39.43 35.90 35.76 36.93 38.17 40.35 40.23 40.99 37.34 32.22 29.53 29.91 34.16 36.23 37.02 36.47 36.42 37.91 41.05
48.94 48.39 47.96 47.56 47.00 46.67 46.91 47.35 46.55 45.71 44.84 44.21 43.92 44.34 39.70 35.77 35.97 38.85 37.87 40.65 39.18 40.37 41.74 42.83 46.04 47.84 45.85 42.86 38.29 30.94 29.05 32.42 31.65 34.73 39.46 38.74 39.15 34.52 30.90 26.29 25.69 36.88 40.79 43.32 42.38 36.03 44.03
49.45 48.82 48.22 47.75 47.09 46.69 46.76 46.90 46.79 46.46 45.37 43.96 43.32 43.98 40.04 35.63 38.42 38.78 36.89 37.90 42.11 41.20 39.67 43.02 43.44 43.21 45.21 39.86 34.96 32.38 31.65 36.81 30.77 30.71 32.35 33.78 34.43 31.47 30.80 28.33 33.30 40.32 42.61 42.51 34.36 36.53 44.69
49.66 48.93 48.49 47.83 47.44 46.80 46.82 46.74 46.72 46.57 45.72 44.35 42.90 44.76 40.17 35.55 36.62 38.51 39.89 38.21 39.72 41.27 38.51 42.53 41.47 42.20 41.54 36.72 35.13 33.85 33.98 36.07 34.95 36.77 34.73 33.06 31.59 30.33 31.52 27.69 26.08 41.57 41.12 37.04 42.61 45.92 45.23
49.99 49.12 48.54 47.93 47.57 47.05 46.61 46.79 46.69 46.75 46.96 45.80 40.01 44.70 44.41 37.21 36.19 40.35 39.70 40.34 39.53 39.35 38.10 43.05 41.98 42.11 43.32 39.74 39.98 39.23 35.91 37.59 35.97 30.81 39.79 32.59 37.06 34.65 34.64 34.67 41.75 43.71 43.92 45.41 45.67 44.99 45.84

GFSGBSN_sfc_wetblb_066.txt.gz
Wetbulb
55.82 56.00 55.70 55.79 55.40 54.81 54.95 55.61 55.21 54.08 53.90 54.71 54.87 54.79 54.44 53.73 53.35 53.17 53.10 52.72 52.94 52.55 52.38 51.94 52.11 52.14 49.75 42.51 42.18 51.63 57.23 58.47 58.51 58.61 54.08 51.84 48.17 48.80 45.93 48.28 48.57 46.38 47.38 48.84 50.35 50.18 49.46
55.88 55.92 55.57 55.22 54.74 54.64 55.02 54.48 54.39 54.15 54.57 54.83 54.81 54.51 54.14 53.84 53.30 52.06 52.16 51.84 52.24 52.53 52.46 51.62 52.41 51.47 45.93 36.77 50.09 51.64 52.49 52.93 55.58 56.01 54.08 52.29 49.99 50.49 47.57 48.29 47.27 48.34 48.53 48.53 49.35 49.65 49.22
55.27 55.55 55.22 55.03 54.47 54.26 54.26 54.33 54.35 54.35 54.75 54.90 54.61 53.98 53.83 53.83 53.17 52.01 51.57 51.48 51.47 51.59 51.96 51.86 52.14 50.08 44.02 41.36 50.69 54.98 54.26 52.14 53.78 55.21 52.87 53.67 52.58 49.16 49.56 46.95 50.51 49.22 44.37 46.78 47.27 48.64 47.76
55.00 55.20 55.23 54.65 54.56 53.65 53.81 53.75 53.87 54.49 54.66 54.73 54.18 53.94 53.54 53.36 53.11 52.51 51.31 51.05 51.37 51.44 52.27 52.35 51.70 48.39 39.98 50.15 51.28 49.33 52.03 50.02 52.13 54.58 55.69 55.33 53.47 52.20 49.97 50.12 48.01 44.57 44.19 39.49 45.57 47.58 48.32
54.62 54.99 54.71 54.34 54.20 53.48 53.52 53.44 53.80 54.04 54.38 54.59 54.07 53.28 52.92 52.97 52.87 52.41 51.31 50.94 51.66 51.83 51.92 51.94 48.28 45.26 38.04 52.07 46.05 48.35 49.79 47.07 49.72 53.17 55.32 56.29 53.31 49.61 48.98 43.82 40.73 42.35 35.73 38.22 41.58 46.97 46.40
54.24 54.55 54.21 54.13 53.78 53.25 53.02 53.47 53.49 53.58 53.69 54.08 54.03 53.25 52.28 53.02 52.38 52.06 50.98 51.48 50.94 49.93 50.73 50.21 48.19 40.34 43.41 41.13 47.04 47.50 52.66 51.25 48.25 50.80 50.64 49.83 47.61 43.80 43.96 41.42 32.87 36.02 35.90 37.86 38.64 44.05 45.04
53.79 54.23 53.83 53.75 53.16 52.83 52.45 52.73 52.75 53.11 53.22 53.49 53.60 52.86 51.67 52.07 52.11 51.00 50.15 48.69 43.56 42.20 44.52 39.45 39.82 40.07 42.30 46.67 50.34 47.61 51.10 48.24 49.11 48.83 43.57 45.99 40.40 37.06 40.34 42.46 42.23 41.35 38.52 36.96 40.80 45.05 42.92
53.41 53.81 53.76 53.42 52.91 52.50 52.05 51.91 51.87 52.36 52.80 52.91 52.89 52.96 52.17 51.35 51.33 50.82 49.97 42.89 42.31 43.96 36.71 43.14 43.08 42.95 45.75 46.66 41.72 46.22 51.09 43.67 44.57 37.84 43.25 41.54 37.42 42.19 44.67 43.97 42.99 41.23 38.26 37.08 41.15 44.59 42.59
53.35 53.35 53.30 53.20 52.70 52.30 51.88 51.41 51.48 51.80 52.09 52.63 52.58 52.89 52.09 51.74 51.47 50.78 45.83 44.61 49.24 48.11 37.09 39.58 42.96 42.51 43.79 42.65 41.20 43.60 47.44 45.00 40.92 38.39 40.25 37.02 39.95 44.45 42.72 41.06 40.04 39.62 37.19 37.16 36.95 40.52 41.33
52.72 52.94 53.04 52.89 52.51 52.05 51.48 51.10 50.99 51.38 51.29 51.98 51.97 52.31 52.61 51.87 47.67 48.24 44.11 48.68 49.91 48.71 32.74 35.27 39.26 42.45 45.37 42.43 40.43 47.91 48.92 46.00 43.91 39.36 40.95 40.01 44.21 41.80 41.38 39.90 41.67 36.55 41.74 41.63 39.27 36.02 30.34
52.30 52.59 52.62 52.65 52.33 51.80 51.21 51.00 50.87 50.91 50.87 51.34 51.58 52.04 52.44 51.89 48.13 44.46 46.15 50.08 49.54 45.44 20.46 37.07 39.72 48.53 46.78 42.04 42.31 42.25 50.09 45.28 40.25 40.56 41.58 35.74 39.96 39.81 37.11 38.19 43.05 38.41 43.36 40.68 39.14 35.77 33.98
51.89 51.99 52.12 52.34 52.08 51.62 51.08 50.81 50.64 50.68 50.79 51.36 51.28 51.67 52.22 50.79 50.04 48.53 50.70 49.37 46.23 30.60 21.96 33.97 40.47 40.01 40.08 41.84 41.73 44.76 44.81 47.14 46.10 40.69 38.38 37.02 41.81 41.58 40.38 42.24 44.12 44.87 40.76 39.46 36.97 35.58 27.36
51.47 51.60 51.78 51.85 51.89 51.44 50.97 50.69 50.46 50.48 50.73 51.32 51.77 51.78 50.16 50.14 45.69 51.33 50.06 44.57 32.74 26.11 36.18 33.65 36.75 40.33 38.35 38.36 39.11 41.58 39.86 39.66 36.94 32.21 31.87 35.36 34.85 38.28 41.85 36.94 41.04 42.19 35.54 28.52 25.95 26.96 24.85
51.16 51.23 51.41 51.51 51.77 51.27 50.80 50.64 50.32 50.22 50.46 51.18 51.65 51.20 51.54 50.78 52.21 50.52 47.21 38.61 26.72 33.09 33.02 39.94 39.24 40.50 37.06 39.79 39.51 39.83 38.95 37.07 40.87 38.40 34.97 31.93 28.50 35.62 38.91 38.87 36.69 36.61 35.66 27.49 21.29 23.15 24.71
50.55 50.73 51.07 51.10 51.61 51.08 50.70 50.50 50.11 49.80 51.03 51.42 51.64 51.45 50.13 52.06 52.78 50.27 42.77 31.40 31.32 32.84 37.00 37.76 39.39 36.19 36.46 39.44 39.56 39.63 38.28 37.28 39.10 40.29 34.73 33.16 31.76 37.58 39.37 40.31 41.08 36.02 33.53 35.75 28.30 27.73 24.00
50.35 50.47 50.80 50.75 51.51 50.99 50.41 50.18 49.93 49.87 50.91 51.65 47.76 48.30 49.25 52.61 52.50 47.72 39.09 33.81 36.88 40.63 41.60 40.74 34.43 37.45 34.21 36.92 37.39 38.10 37.45 39.76 38.34 41.25 41.81 37.40 31.09 36.83 38.36 41.20 40.10 39.02 40.44 30.50 28.57 19.02 21.01
49.76 49.99 50.45 50.46 50.60 50.52 49.93 49.83 49.55 49.44 50.76 51.96 48.38 45.76 49.60 53.19 50.74 44.25 32.90 36.72 40.24 43.95 43.01 38.98 37.42 36.89 36.48 35.95 38.31 36.19 36.71 39.60 41.74 40.55 41.45 40.06 35.94 34.26 37.68 35.72 34.37 34.91 34.01 35.01 31.75 28.32 21.50
49.42 49.64 50.07 50.05 50.06 50.34 49.61 49.46 49.30 49.11 50.33 49.49 47.78 42.91 51.18 52.61 42.21 43.01 37.59 39.20 42.00 42.28 44.42 41.85 41.58 39.56 37.86 37.94 37.20 36.42 36.13 38.62 42.69 42.34 37.59 39.99 35.51 30.84 33.56 38.24 39.13 37.83 36.35 35.74 26.31 26.98 25.11
49.33 49.20 49.57 49.71 49.69 50.25 49.49 49.11 48.93 48.84 49.14 45.86 42.99 44.23 52.52 51.37 39.24 40.08 42.04 41.56 42.63 41.29 41.08 40.70 39.53 41.34 40.99 37.98 34.28 37.34 38.09 42.77 42.74 41.34 37.97 39.05 32.66 24.69 27.04 32.28 36.25 33.11 36.24 36.95 33.55 31.99 27.82
48.96 48.94 48.99 49.34 49.31 49.68 49.41 48.83 48.44 48.49 48.66 46.96 43.46 39.50 45.14 47.69 45.47 41.73 40.11 39.78 39.48 43.61 42.15 42.06 40.84 41.67 39.54 37.59 38.98 36.56 37.51 41.37 42.22 41.44 43.14 41.53 34.71 30.56 25.07 29.92 33.64 29.22 33.94 35.16 30.57 23.81 27.66
48.90 48.85 48.56 48.91 49.21 49.15 49.41 48.56 48.13 48.88 49.08 46.70 43.73 40.33 40.56 37.65 41.23 40.86 41.76 41.07 38.65 38.34 42.24 42.62 39.95 39.87 38.72 35.13 36.04 35.93 38.71 38.99 41.29 41.72 40.15 38.70 30.71 31.65 32.79 35.00 35.46 33.95 33.46 34.14 28.11 30.95 23.71
49.06 48.73 48.18 48.24 48.43 48.73 48.94 48.22 47.76 47.80 48.53 45.05 38.16 36.97 39.03 38.19 41.43 40.12 40.20 40.19 38.96 40.23 39.89 39.17 37.96 40.52 39.43 36.54 37.32 35.65 37.90 37.34 36.69 38.90 36.84 38.64 30.12 29.54 25.40 33.26 32.79 29.75 34.07 34.39 33.67 33.29 32.28
49.20 49.04 47.78 48.15 47.79 48.04 48.29 48.15 47.57 47.01 47.16 42.00 41.88 43.39 39.55 37.55 39.11 37.92 39.24 40.37 40.22 41.48 42.49 42.60 41.59 39.63 38.48 40.20 41.82 41.22 41.16 40.77 39.29 37.16 35.85 35.79 31.35 26.62 23.83 30.83 30.22 24.68 31.11 33.06 34.00 34.94 34.07
49.64 48.98 47.89 47.92 47.51 47.56 47.81 48.48 47.40 46.73 45.57 43.16 41.56 41.03 36.49 32.37 35.58 37.39 38.84 39.67 39.14 41.53 40.21 42.70 43.03 40.22 41.32 43.65 42.58 41.70 39.49 39.74 39.54 37.92 39.61 34.75 33.88 30.07 24.02 26.37 16.37 32.90 38.15 37.82 35.59 36.89 37.35
50.36 49.34 48.69 47.94 47.62 47.23 47.46 48.11 47.19 46.68 45.91 42.51 42.94 39.54 36.99 30.76 33.71 33.68 36.87 38.41 40.77 42.01 41.20 41.94 43.57 43.88 44.26 41.54 37.45 35.25 34.93 35.75 36.64 37.79 37.51 37.66 35.46 28.73 23.90 24.94 30.58 32.86 35.17 34.90 34.17 34.93 39.18
50.89 49.86 49.06 48.25 48.01 47.21 47.20 47.38 47.76 46.77 45.79 43.37 42.38 42.51 39.58 32.31 33.23 36.28 33.97 36.87 36.15 38.12 40.01 42.09 44.88 45.54 43.14 39.99 37.01 29.86 27.70 31.28 31.43 32.88 36.84 37.04 35.86 30.64 29.25 23.69 22.40 34.59 38.25 41.12 39.36 34.14 40.96
51.37 50.44 49.42 48.90 48.41 47.74 47.16 47.23 47.25 47.11 46.44 43.34 42.18 43.11 38.17 31.81 35.23 37.02 33.66 35.15 40.25 39.93 38.27 41.44 41.73 40.89 42.92 36.77 33.86 31.80 30.53 34.37 29.09 29.48 30.15 31.97 31.95 27.29 27.89 27.79 29.46 38.68 40.53 40.04 32.47 34.87 41.93
52.09 50.85 50.05 49.38 48.63 48.10 47.44 47.22 47.12 46.99 46.93 44.10 41.93 44.08 38.25 33.37 34.27 36.64 36.95 33.87 34.99 37.83 36.92 40.38 40.63 40.14 38.75 35.75 34.97 32.85 31.76 34.16 31.13 32.86 32.34 30.52 28.27 27.93 29.71 27.07 21.78 39.75 38.15 34.38 40.04 42.39 42.60
52.29 51.21 50.84 50.07 49.58 48.35 47.74 47.07 47.04 47.07 47.12 46.76 40.45 44.14 43.55 37.35 34.35 39.08 38.64 38.88 38.28 37.73 35.71 38.10 39.03 40.32 40.99 36.32 35.85 35.00 31.98 32.87 31.80 29.53 35.23 29.97 32.85 29.83 30.73 30.14 38.77 40.18 40.14 42.45 42.76 43.37 42.01

GFSGBSN_sfc_wetblb_069.txt.gz
Wetbulb
56.32 56.28 56.07 55.78 55.22 55.13 54.73 55.03 55.05 55.01 55.72 55.65 55.46 54.95 54.62 54.37 53.98 53.51 52.53 52.66 52.40 52.28 52.12 51.86 51.74 52.02 49.70 42.53 42.35 50.97 56.03 57.64 55.66 57.69 53.38 51.47 45.94 45.71 44.45 46.61 47.62 45.19 46.66 48.55 49.55 49.28 48.57
56.01 55.89 55.77 55.34 55.15 54.43 54.66 54.70 54.71 55.01 55.34 55.29 55.32 54.51 54.28 53.90 53.84 53.27 51.78 51.69 51.72 51.43 51.99 51.75 51.89 51.82 45.62 36.35 48.73 50.95 52.05 51.75 54.03 55.37 52.65 51.85 48.11 48.74 46.32 46.18 45.85 47.59 47.88 48.16 48.90 48.43 47.91
55.64 55.88 55.32 55.05 54.59 54.27 53.89 54.20 54.52 54.27 54.79 54.98 55.12 54.00 53.42 53.78 53.48 52.92 51.49 50.91 51.55 51.06 51.31 51.77 52.03 49.82 43.81 40.24 48.51 52.41 53.68 52.02 53.73 53.80 51.64 52.59 51.71 47.31 47.09 44.08 48.66 48.00 44.19 45.77 45.20 46.91 46.24
55.20 55.51 54.88 54.89 54.71 53.87 53.32 53.58 54.08 54.08 54.34 54.51 54.61 53.80 52.67 53.70 52.99 52.53 51.80 50.46 51.19 50.92 51.73 52.07 51.93 47.79 39.02 49.55 48.11 47.96 50.14 50.03 51.74 52.82 53.77 54.74 52.95 49.48 48.24 47.43 46.19 44.64 42.32 37.65 43.56 46.32 47.18
54.75 55.20 54.76 54.72 54.22 53.79 53.19 53.00 53.34 53.72 53.83 54.13 54.13 53.51 52.53 53.40 53.31 52.44 51.52 50.81 51.60 51.62 51.44 51.34 47.63 44.88 37.59 51.35 45.89 47.04 46.33 45.79 49.53 51.36 53.91 55.63 52.18 46.02 47.69 41.28 38.17 40.56 36.05 36.20 40.37 46.02 45.86
54.38 54.83 54.48 54.24 53.88 53.60 53.02 52.71 52.54 52.96 53.55 53.31 53.51 53.58 52.73 52.56 52.45 52.10 51.34 51.50 51.43 49.76 50.22 50.50 47.92 39.28 42.93 40.88 46.65 46.89 50.96 50.05 47.45 49.54 49.61 49.84 47.36 41.44 42.07 39.35 31.61 36.20 34.16 35.47 36.82 42.21 43.71
54.08 54.31 54.13 54.12 53.72 53.36 52.83 52.36 52.25 52.34 52.73 52.75 53.03 53.21 52.67 52.63 52.50 52.40 49.78 45.77 39.89 38.98 42.76 39.03 39.70 39.64 41.81 46.47 49.59 46.52 50.63 47.69 47.39 46.57 42.51 45.78 40.65 36.44 38.93 40.73 40.30 38.83 37.25 35.22 39.32 43.44 41.85
53.86 53.99 53.96 53.82 53.61 53.25 52.52 52.10 51.98 52.02 51.93 52.50 52.28 52.44 53.00 52.51 52.56 52.88 46.77 40.25 41.38 42.29 36.08 43.79 43.58 43.49 45.57 45.59 41.19 45.39 49.26 42.18 43.12 38.45 42.99 41.47 36.44 40.09 42.94 42.75 41.46 38.88 35.14 34.91 37.96 42.17 41.95
53.18 53.63 53.62 53.59 53.44 53.23 52.51 52.05 51.75 51.78 51.66 51.77 52.26 52.11 52.73 52.64 52.52 47.25 44.04 43.98 47.64 46.69 36.93 39.71 43.37 42.55 43.26 44.37 40.82 40.63 46.14 44.16 41.40 40.27 39.23 37.57 39.12 43.32 42.55 41.04 39.43 38.86 34.73 34.10 34.87 38.13 39.27
52.87 53.18 53.19 53.24 53.23 52.91 52.31 51.75 51.45 51.42 51.40 51.36 52.17 51.94 52.58 52.77 46.32 44.56 42.26 47.78 48.43 46.56 31.51 35.74 39.37 42.35 44.64 43.29 39.37 47.73 48.67 45.15 41.10 38.44 40.02 39.70 43.04 41.45 40.16 38.89 39.15 34.26 40.40 39.81 37.53 34.47 29.33
52.46 52.63 52.77 52.76 52.90 52.65 52.16 51.70 51.41 51.24 51.01 51.06 51.73 51.99 52.35 52.30 45.01 41.70 45.10 47.84 46.56 43.92 21.07 36.42 39.35 47.72 46.94 41.86 41.78 43.24 50.12 45.97 39.51 40.09 40.45 35.97 40.12 39.03 37.48 38.79 41.46 37.49 43.30 40.59 36.86 33.26 31.34
52.05 52.19 52.38 52.38 52.49 52.39 51.93 51.59 51.24 51.05 50.77 50.95 51.31 51.87 52.04 48.58 48.31 48.05 49.35 49.40 43.66 23.24 20.25 33.78 40.53 40.46 40.12 41.92 41.99 45.07 44.47 47.50 45.97 39.21 38.84 37.69 42.05 40.98 39.16 41.32 42.27 43.94 40.66 38.85 35.98 34.01 24.48
51.67 51.70 52.10 51.98 52.46 52.19 51.77 51.41 51.12 50.92 50.72 51.24 51.68 52.18 49.80 49.36 43.60 49.29 49.55 41.95 26.52 20.66 34.71 31.73 36.80 40.19 39.42 38.41 40.44 41.41 40.65 39.51 35.98 30.51 31.37 34.67 35.93 39.55 41.59 36.51 40.50 40.59 36.20 27.73 26.08 22.42 21.81
51.26 51.17 51.74 51.58 51.99 52.10 51.54 51.27 51.00 50.73 50.80 51.57 52.31 52.62 50.16 49.39 48.62 48.62 46.20 34.40 21.88 32.42 32.20 38.11 38.44 40.19 36.89 40.16 38.95 39.20 39.16 36.81 39.03 35.14 32.37 26.10 24.36 37.16 39.33 38.23 35.38 35.12 34.22 24.31 19.49 20.63 23.25
50.84 50.78 51.36 51.27 51.56 51.64 51.28 51.06 50.88 50.58 50.95 51.21 51.98 46.97 45.47 48.40 49.70 46.85 40.51 26.40 27.87 30.82 35.65 37.34 37.99 35.16 34.96 38.86 38.90 38.36 37.95 37.35 38.94 37.21 31.31 29.29 29.13 37.98 39.32 41.07 39.35 36.53 32.83 36.00 27.46 26.01 21.37
50.33 50.42 50.98 50.97 51.07 51.43 51.00 50.71 50.55 50.97 50.75 51.47 43.59 43.16 44.41 49.70 49.02 43.66 32.92 29.19 31.84 39.43 40.69 39.84 33.43 35.68 32.82 34.40 35.37 35.35 34.67 38.19 38.40 40.35 40.65 36.94 28.74 36.79 38.86 41.36 40.61 39.00 40.43 30.93 27.57 20.18 20.65
49.87 50.18 50.50 50.71 50.55 50.87 50.76 50.31 50.21 50.16 50.85 51.59 43.17 41.25 46.67 49.90 46.56 37.05 30.64 29.11 39.01 43.93 42.01 37.94 35.06 36.39 34.35 33.35 34.97 34.05 34.74 37.55 40.21 39.55 40.28 39.08 34.62 34.15 37.30 35.75 35.32 36.21 34.85 33.92 32.73 27.35 20.14
49.48 49.64 49.92 50.17 50.09 50.19 50.49 50.00 49.92 49.64 50.48 45.86 41.36 35.90 47.55 48.33 37.19 34.23 28.02 36.24 41.98 41.28 42.20 40.25 38.81 37.20 35.51 35.21 34.21 33.83 34.44 36.77 41.30 40.18 36.62 38.59 32.92 29.36 32.68 39.20 40.58 38.71 36.09 35.81 25.81 25.87 24.15
49.11 49.51 49.26 49.64 49.79 49.79 50.24 49.71 49.53 49.33 49.25 44.06 37.48 38.29 47.31 46.85 31.76 30.52 38.35 40.74 41.57 39.74 39.04 38.91 37.86 39.29 38.25 34.98 31.10 34.61 36.53 41.38 41.62 39.75 36.13 37.70 30.80 22.68 25.81 30.92 34.93 32.32 35.27 37.40 33.67 30.07 24.71
48.89 49.01 48.67 49.13 49.33 49.52 49.63 49.29 48.97 48.93 49.19 42.51 38.22 33.21 37.19 41.31 40.06 35.81 36.24 37.40 37.39 41.48 40.57 40.29 38.67 39.13 36.99 34.89 36.20 33.89 35.14 39.75 40.78 39.76 43.47 40.70 32.99 28.35 22.41 27.25 31.06 28.06 32.52 34.24 31.07 25.06 27.22
49.12 48.78 48.18 48.66 48.70 49.10 49.05 49.13 48.62 48.87 49.59 42.62 37.19 34.08 35.64 30.37 35.57 36.44 37.04 37.82 36.95 36.47 39.91 40.31 37.61 37.89 36.20 32.65 33.42 33.99 36.17 36.91 39.45 41.75 38.24 36.96 28.59 30.20 32.20 34.21 33.96 31.84 31.84 32.05 26.41 30.29 23.58
49.74 49.05 47.91 48.04 48.03 48.35 48.58 48.93 48.31 48.50 48.74 39.03 33.01 31.99 34.61 33.26 36.23 36.19 36.78 36.21 38.58 38.28 37.81 37.00 35.71 38.27 37.28 33.68 34.81 33.50 36.06 35.18 34.82 36.91 35.34 36.20 25.49 25.79 22.14 32.42 31.95 29.68 32.88 33.03 32.37 31.96 31.80
50.25 49.40 48.35 47.71 47.53 47.84 48.07 48.73 48.05 47.63 45.10 35.97 36.49 37.34 34.80 32.39 32.44 32.26 35.17 35.83 38.18 39.24 40.66 41.01 39.30 37.63 36.28 38.07 38.77 37.82 37.61 37.79 37.51 35.73 34.02 34.48 28.56 23.73 21.48 29.80 28.37 22.81 30.28 32.09 32.48 33.75 34.07
51.03 49.89 49.15 47.72 47.23 47.13 47.43 48.09 47.86 47.36 45.01 37.87 37.16 36.43 31.16 27.71 29.73 31.27 32.26 35.02 36.55 38.52 38.77 41.62 41.41 37.63 39.72 42.19 41.13 39.17 37.43 37.48 37.47 36.19 37.22 32.87 30.71 25.98 21.31 24.53 15.01 28.33 36.34 35.76 34.40 35.61 35.63
51.71 50.53 49.64 48.51 47.65 46.93 46.92 47.39 47.90 47.35 46.78 38.24 38.33 34.77 31.43 26.31 29.64 30.32 32.10 33.94 35.50 38.85 38.53 40.23 41.65 42.14 41.49 39.72 34.22 34.58 34.36 35.15 35.79 35.69 35.18 35.72 35.05 24.93 22.67 22.00 25.98 30.81 33.75 33.47 32.15 32.36 37.10
52.32 51.33 50.27 49.29 48.30 47.56 46.70 46.73 47.16 47.34 46.66 38.88 37.74 38.22 33.98 30.15 25.99 31.79 30.22 31.45 29.16 32.53 36.94 41.18 44.04 43.78 41.53 38.71 36.34 29.29 27.42 30.04 30.99 33.45 35.40 35.81 36.36 27.91 28.13 20.53 21.39 32.85 35.72 39.04 37.91 31.38 39.34
53.27 52.15 50.90 49.95 48.95 48.29 47.42 46.75 46.73 46.92 46.52 40.47 38.20 39.41 34.29 28.52 30.99 30.95 29.70 30.61 35.48 35.12 33.48 39.32 41.73 39.82 41.48 35.75 34.90 28.09 28.55 32.67 27.13 29.29 30.42 30.57 31.80 28.50 25.62 24.82 28.01 36.32 38.85 39.79 31.45 32.00 40.37
53.59 52.88 51.76 50.85 49.64 48.77 48.29 47.51 46.98 46.99 46.67 41.35 38.35 41.40 35.71 29.89 31.23 34.28 34.24 30.44 30.37 31.05 30.60 36.85 37.52 40.27 38.04 34.24 32.95 32.73 29.95 33.27 29.28 30.52 29.79 28.92 29.43 27.36 27.13 26.98 21.66 38.25 36.99 34.52 38.84 40.62 41.27
53.78 53.23 52.06 51.37 50.64 49.82 49.00 48.09 47.26 47.09 47.19 46.10 40.19 43.66 42.87 36.53 32.70 37.19 37.56 37.70 36.01 34.93 32.78 34.75 36.62 35.79 41.11 35.68 34.24 33.30 30.30 29.80 28.82 26.22 31.92 27.50 31.42 28.88 29.19 28.93 36.18 38.48 38.22 40.93 42.03 43.10 42.20

GFSGBSN_sfc_wetblb_072.txt.gz
Wetbulb
56.28 56.12 55.80 55.62 55.17 54.99 54.36 54.85 55.29 55.34 55.53 56.10 55.58 54.93 54.10 54.25 54.03 53.69 52.13 51.92 52.12 52.33 52.12 52.04 51.90 52.20 49.65 41.76 41.86 50.71 56.16 55.10 56.77 54.64 53.25 50.34 45.55 48.48 43.73 45.76 47.40 44.51 46.79 48.65 49.35 50.05 50.22
56.02 55.74 55.79 55.47 55.18 54.62 54.11 54.52 54.63 55.01 54.95 55.32 54.83 54.34 53.43 54.33 53.66 52.89 51.34 50.97 51.72 51.71 52.00 52.17 52.30 51.80 44.96 35.91 48.60 52.01 52.42 52.40 53.19 53.39 52.49 51.42 45.84 47.69 45.34 46.64 45.73 47.68 47.85 47.63 47.88 47.43 48.76
55.55 55.62 55.20 55.38 54.79 54.35 53.83 53.64 53.82 54.40 54.74 54.88 54.92 54.00 53.39 54.13 53.29 52.51 51.70 51.02 51.73 51.00 51.63 51.97 52.21 49.64 43.59 39.66 48.55 49.76 49.99 51.49 53.65 53.77 51.09 52.61 49.97 47.78 46.33 42.50 48.02 47.35 44.26 45.96 46.36 46.67 46.48
55.14 55.27 55.23 54.98 54.59 54.10 53.48 53.11 52.84 53.58 54.35 54.34 54.37 54.01 52.89 53.76 53.69 52.63 51.70 51.13 51.44 51.15 51.63 51.95 51.80 47.08 37.57 48.67 47.15 48.14 50.12 49.87 52.00 54.06 53.85 54.62 52.60 47.22 44.72 46.06 44.64 43.21 42.27 38.29 44.05 45.95 47.23
54.73 54.92 54.85 54.89 54.58 54.15 53.37 52.92 52.75 52.82 53.45 54.07 53.87 53.90 53.40 53.15 52.91 52.66 52.03 51.47 51.45 51.25 51.30 51.47 46.97 42.59 36.53 50.25 45.26 46.53 47.04 45.70 49.55 51.93 53.70 54.75 51.25 44.61 45.18 40.68 37.55 40.36 34.50 36.23 39.94 46.04 45.45
54.29 54.61 54.54 54.47 54.44 54.03 53.37 52.83 52.55 52.67 52.74 53.15 53.54 53.04 53.57 53.32 53.10 53.16 52.35 51.73 51.66 49.81 49.61 49.94 47.80 36.91 41.65 40.22 45.94 48.00 51.31 50.22 48.06 50.04 49.38 48.92 47.05 39.32 39.33 36.85 31.35 34.28 33.68 34.89 35.86 42.42 44.00
54.00 54.27 54.22 54.24 54.12 53.87 53.39 52.73 52.43 52.43 52.18 52.47 52.93 52.39 53.09 53.42 53.23 53.13 48.90 43.51 38.87 37.32 41.89 38.00 38.85 38.68 41.44 46.13 49.09 47.40 50.27 47.64 47.65 46.56 41.61 45.83 40.34 35.39 36.87 39.11 38.43 38.62 36.16 35.60 38.96 42.70 41.46
53.49 53.89 53.87 53.85 53.80 53.62 53.25 52.67 52.21 52.11 52.12 52.08 52.58 52.67 52.50 53.24 53.41 52.60 45.27 39.71 40.78 41.34 35.46 43.25 43.72 43.53 45.20 45.34 41.17 44.56 48.75 42.08 42.61 38.29 43.35 41.65 36.98 39.83 42.33 42.27 40.41 38.68 35.62 34.52 37.10 41.20 39.97
53.12 53.38 53.49 53.45 53.55 53.46 52.98 52.46 52.17 52.05 51.87 51.61 52.24 52.61 52.26 53.01 53.13 46.29 42.96 43.17 47.51 45.52 36.70 39.86 43.01 41.97 42.81 44.55 40.17 40.80 45.73 43.96 40.64 37.07 39.90 38.15 39.60 43.07 41.71 40.18 38.60 36.99 33.64 33.49 34.22 36.98 38.23
52.72 52.92 53.08 53.09 53.10 53.16 52.73 52.23 52.01 51.88 51.57 51.38 51.44 52.34 52.12 52.84 45.66 43.84 41.49 46.77 46.84 45.01 28.64 35.51 38.68 41.68 44.96 42.66 39.96 46.85 48.45 44.61 40.98 35.69 39.00 39.78 42.31 40.81 39.78 38.72 39.13 35.97 39.00 39.12 35.91 33.62 29.27
52.24 52.47 52.64 52.61 52.93 52.89 52.52 52.18 51.97 51.71 51.29 50.99 51.45 51.87 52.11 52.26 43.76 41.02 44.22 47.02 45.63 41.57 19.85 36.69 39.55 47.88 46.50 41.15 41.91 42.75 49.34 45.57 38.78 38.14 40.27 36.19 39.70 38.43 38.12 38.74 40.35 37.58 42.08 38.20 35.74 32.95 30.63
51.76 51.88 52.26 52.26 52.46 52.58 52.25 52.09 51.95 51.49 50.98 50.85 51.63 52.20 51.87 47.65 46.27 47.69 49.89 46.84 42.40 23.08 19.86 33.62 40.45 40.55 40.68 41.92 42.49 44.08 43.74 46.41 45.47 40.19 39.66 38.45 41.74 40.00 38.86 40.72 41.66 42.40 37.60 36.77 35.21 33.79 25.27
51.19 51.37 51.89 51.82 52.10 52.12 52.10 51.93 51.76 51.43 50.69 50.82 51.69 52.25 49.91 48.88 42.77 48.28 48.60 40.40 22.93 20.51 32.48 34.09 36.83 40.34 38.89 38.92 40.36 39.65 38.14 39.71 36.60 31.00 32.30 35.81 36.53 39.34 40.14 35.85 39.37 39.54 32.36 27.35 27.40 27.38 23.79
50.60 50.86 51.50 51.55 51.84 52.01 52.03 51.78 51.65 51.19 50.64 51.51 52.09 52.42 49.72 48.55 47.67 47.96 44.58 29.39 20.23 29.88 30.60 36.07 37.99 39.72 37.07 39.55 38.72 39.69 37.93 34.20 38.12 35.07 31.98 29.00 29.55 37.30 39.60 35.96 33.58 34.78 35.10 24.28 20.95 21.41 22.30
50.07 50.38 51.03 51.23 51.48 51.65 51.91 51.55 51.30 50.82 51.18 51.68 50.57 45.87 44.55 47.32 48.50 46.11 35.84 22.73 23.24 25.62 33.05 35.80 36.81 33.54 35.64 39.07 38.56 37.87 37.31 35.17 36.76 36.32 30.15 29.75 29.85 38.23 39.20 40.68 39.02 35.51 33.03 35.99 23.94 22.72 18.77
49.75 49.94 50.51 50.91 51.16 51.16 51.51 51.27 50.95 50.76 51.00 51.08 42.67 42.19 43.30 48.73 47.83 42.33 31.61 27.17 31.52 37.80 38.81 38.63 31.30 33.78 30.22 34.76 35.82 34.66 35.15 39.10 37.67 39.36 38.27 33.76 29.54 36.51 38.96 41.21 40.78 38.08 40.23 29.93 23.31 16.07 18.15
49.50 49.55 50.01 50.55 50.65 50.60 50.99 50.85 50.63 50.24 51.29 49.77 42.34 40.56 45.66 48.79 45.80 36.03 26.03 25.56 37.15 42.24 41.10 37.06 33.56 33.92 32.36 31.91 33.64 32.26 33.26 36.89 39.72 39.77 39.25 37.48 31.36 33.00 37.81 35.53 34.76 35.95 34.40 33.56 30.86 25.73 19.32
49.53 49.22 49.28 50.00 50.16 50.28 50.52 50.39 50.32 49.87 50.17 45.02 38.61 33.82 46.06 47.07 36.11 32.01 27.47 34.96 41.81 40.33 41.15 39.23 37.47 35.97 33.38 33.53 32.00 32.35 33.12 35.31 39.55 39.19 35.26 38.38 31.87 29.42 32.79 39.59 40.66 39.13 36.33 33.36 25.52 25.19 22.07
49.69 49.20 48.72 49.47 49.59 49.83 49.86 50.09 49.88 49.40 49.92 40.74 36.81 36.73 45.43 44.31 29.73 28.88 36.40 39.62 40.48 38.63 38.12 37.70 36.53 37.95 36.98 33.83 29.90 33.09 35.07 39.98 40.20 38.49 35.66 37.09 27.74 26.86 28.69 32.05 37.48 35.06 36.75 38.03 32.79 26.93 18.06
49.85 49.03 48.29 48.75 48.92 49.27 49.40 49.62 49.26 48.97 50.00 42.17 36.29 30.36 35.27 38.32 38.17 33.52 34.30 35.74 38.04 40.95 39.11 39.46 37.44 37.79 35.38 33.53 34.89 32.65 33.95 38.62 39.90 38.88 43.68 40.36 31.82 26.22 23.60 25.64 30.11 27.18 31.77 35.87 34.91 27.21 24.89
50.02 49.18 48.47 48.06 48.29 48.68 48.98 49.21 48.80 49.01 49.19 40.36 34.66 32.27 33.79 26.21 30.82 33.90 35.36 36.36 35.80 35.63 39.61 39.03 36.38 36.33 34.71 31.45 31.97 32.33 35.02 35.79 38.25 41.64 37.12 35.44 28.06 29.90 30.55 32.91 32.28 30.76 31.10 31.49 28.18 32.15 27.93
50.55 49.74 48.99 47.66 47.83 48.21 48.62 48.77 48.38 48.29 47.17 36.46 31.25 29.92 32.89 30.29 33.51 32.78 34.96 34.74 36.73 38.25 38.22 35.82 34.85 37.58 36.38 32.78 36.14 31.64 35.03 33.92 33.66 35.32 34.09 34.62 24.28 25.22 21.63 30.98 30.76 28.31 31.80 32.08 31.53 30.82 31.27
51.04 50.05 49.57 47.74 47.52 47.67 48.04 48.52 48.10 47.55 43.78 33.59 34.20 35.14 33.54 29.94 29.62 29.35 30.98 30.74 34.14 37.14 39.41 41.50 39.02 36.81 35.79 37.11 39.05 39.86 38.41 37.01 35.92 35.01 33.12 33.05 27.25 22.45 20.47 28.71 27.65 24.07 29.60 31.43 31.66 32.70 33.55
51.59 50.47 49.91 48.21 47.39 46.89 47.38 47.96 47.94 47.38 43.16 36.75 35.50 34.49 28.92 25.09 27.84 28.97 30.25 31.65 33.96 34.06 34.87 40.20 41.33 37.72 39.57 40.56 39.40 38.28 37.03 36.49 36.10 35.03 35.93 31.65 28.30 24.78 20.35 24.10 13.31 28.66 34.79 34.23 33.40 34.31 34.68
52.25 51.39 50.19 49.15 47.92 47.01 46.56 47.17 47.71 47.30 46.45 37.48 36.96 33.33 29.98 23.22 27.43 27.00 29.42 30.16 31.63 32.04 33.61 37.03 40.53 42.24 41.11 39.57 33.95 32.31 33.53 33.61 34.11 35.58 34.33 34.64 31.64 24.28 21.82 21.18 25.24 28.92 32.91 32.33 30.72 31.36 36.04
53.01 52.04 51.02 50.09 48.96 47.95 46.93 46.61 46.80 47.15 46.52 38.19 36.52 37.03 32.56 26.98 24.94 30.29 27.93 29.78 27.41 30.22 34.61 37.61 42.75 44.31 41.29 37.27 34.47 28.80 27.43 28.13 29.89 33.40 34.87 34.81 36.47 28.43 26.95 20.03 20.13 28.90 34.13 36.64 36.16 29.02 36.93
53.45 53.03 51.94 50.77 49.63 48.73 48.02 47.21 46.68 46.56 46.39 39.58 37.24 37.75 33.04 27.13 29.64 30.06 27.48 26.84 31.25 29.39 28.73 33.05 37.45 39.91 42.22 35.23 33.14 28.31 26.41 31.65 27.33 29.19 30.58 31.59 32.01 28.75 26.84 26.55 26.19 33.34 36.93 38.78 28.11 30.46 39.14
54.13 53.53 52.69 51.47 50.79 49.77 48.89 48.25 47.47 46.90 46.39 40.79 37.17 39.18 34.95 29.54 30.38 33.29 33.41 29.13 28.59 28.47 26.05 30.08 30.89 39.26 38.94 34.65 33.43 32.94 29.01 30.25 27.81 29.45 28.92 29.05 29.58 28.89 29.29 26.86 22.25 36.91 36.00 33.29 37.11 39.06 39.62
53.99 53.53 52.90 51.94 51.47 50.96 50.13 48.97 48.32 47.47 47.13 46.28 39.14 42.17 42.06 36.54 34.69 35.99 36.77 37.52 35.48 34.99 30.93 31.28 30.92 32.45 35.71 35.51 35.23 33.16 29.26 28.96 27.88 25.03 30.14 28.00 30.17 28.85 29.56 29.01 35.31 37.33 36.77 39.25 41.20 41.32 41.96

GFSGBSN_sfc_wetblb_075.txt.gz
Wetbulb
55.69 55.94 55.39 55.52 55.05 54.52 54.07 53.79 54.35 54.64 55.31 55.20 55.26 54.59 54.42 54.79 54.31 53.50 51.86 51.99 52.04 52.11 51.96 51.95 51.57 52.10 49.02 41.12 40.45 50.66 55.41 54.44 54.97 54.89 50.71 48.84 46.00 45.72 42.76 46.66 47.72 41.90 45.67 48.70 50.50 49.81 48.95
55.59 55.55 55.27 55.22 54.60 54.32 53.92 53.64 53.65 53.85 54.66 54.63 55.03 54.09 53.78 54.50 54.16 53.04 51.79 51.70 52.19 51.81 51.99 52.20 52.13 51.27 43.96 33.53 48.24 50.56 49.51 52.47 54.13 52.98 50.73 50.04 46.42 47.97 45.27 44.95 45.90 46.53 46.74 48.08 48.83 49.14 49.11
55.28 55.13 55.26 55.20 54.72 54.23 53.64 53.29 53.12 52.97 54.10 54.24 54.61 53.86 53.50 54.02 53.88 52.96 51.90 51.83 51.97 51.48 51.89 52.16 52.24 49.53 42.47 37.69 48.53 49.92 49.69 50.03 52.64 52.97 50.06 52.88 49.61 47.69 45.81 44.13 47.39 46.38 44.18 44.99 46.35 46.78 46.57
54.79 54.83 54.91 54.96 54.39 54.10 53.53 52.92 52.83 53.04 53.13 53.63 54.20 53.48 53.77 53.45 53.23 52.92 52.02 51.55 51.87 51.57 51.68 51.95 51.72 45.83 35.58 47.71 46.87 48.14 49.05 49.28 51.65 54.42 53.57 54.36 52.85 47.21 44.34 45.04 44.62 41.86 41.56 37.47 44.15 46.13 46.96
54.33 54.74 54.61 54.70 54.49 53.90 53.58 52.85 52.66 52.70 52.82 52.86 53.21 52.98 53.39 53.61 53.50 53.37 52.29 52.04 51.89 51.86 51.78 51.49 45.87 41.24 35.17 49.63 44.86 46.49 47.69 46.46 48.98 52.69 53.84 54.42 51.13 44.07 43.88 39.17 36.60 38.53 32.14 36.15 39.81 45.87 45.27
53.95 54.39 54.26 54.29 54.20 54.08 53.52 53.16 52.53 52.62 52.65 52.51 52.57 52.44 52.75 53.45 53.53 53.42 52.88 52.04 51.85 49.91 49.31 49.55 47.51 35.62 40.26 39.70 45.19 48.69 50.40 50.23 48.12 49.55 48.73 49.10 46.59 39.22 38.12 36.67 31.17 32.57 30.42 35.39 37.02 42.29 43.90
53.48 54.02 53.93 53.95 53.98 53.89 53.40 53.14 52.64 52.50 52.35 51.93 52.47 52.43 52.07 52.96 53.54 53.42 47.58 42.46 38.55 36.55 41.03 38.68 39.69 37.90 41.20 45.25 48.49 47.20 49.50 47.49 47.64 46.25 39.86 45.70 39.52 34.98 35.55 38.22 37.40 37.07 33.32 34.89 38.43 42.70 41.90
52.97 53.40 53.63 53.57 53.62 53.69 53.46 52.99 52.57 52.41 52.15 51.72 51.68 52.45 51.93 52.57 53.39 52.33 44.27 39.42 41.36 41.48 35.50 43.40 43.07 42.96 44.75 44.60 40.33 44.17 48.08 42.56 42.51 38.94 41.65 40.59 36.24 39.32 41.70 40.98 39.10 37.58 34.71 32.33 37.65 40.94 40.61
52.50 52.80 53.25 53.26 53.25 53.46 53.29 52.97 52.60 52.31 52.10 51.73 51.43 51.69 51.75 52.29 52.74 45.71 42.21 42.13 46.42 45.10 36.63 40.45 43.37 42.34 42.77 44.16 40.08 40.40 45.28 44.05 39.88 38.16 38.16 36.55 39.36 42.49 41.37 39.52 37.49 35.05 32.19 32.40 34.10 37.18 37.87
52.01 52.38 52.76 52.90 52.89 53.27 53.05 52.82 52.64 52.41 51.84 51.30 51.44 51.50 51.94 52.37 45.16 43.10 40.55 45.84 45.90 44.20 30.66 35.42 39.62 41.89 44.68 42.69 38.98 45.99 47.77 44.62 40.45 36.49 38.01 39.72 42.43 40.52 39.11 37.91 38.14 33.07 38.05 37.40 35.18 33.55 29.03
51.70 51.81 52.31 52.53 52.57 52.87 52.78 52.75 52.68 52.54 51.72 51.09 51.56 52.07 51.87 51.54 42.48 40.12 43.49 46.29 45.03 40.82 16.06 37.18 39.87 47.95 45.71 40.75 40.44 41.74 48.65 45.42 38.06 38.03 37.86 35.53 38.94 38.30 37.48 38.34 40.01 35.74 40.95 37.34 36.19 32.21 30.34
51.27 51.47 51.81 52.23 52.21 52.45 52.64 52.63 52.44 52.22 51.52 51.11 51.70 52.28 51.41 47.48 45.67 46.40 49.51 45.80 41.02 22.77 15.72 33.94 40.79 40.28 40.54 41.86 41.70 43.23 43.14 46.41 45.49 38.92 40.11 38.71 41.16 39.59 38.44 40.55 41.07 42.06 37.19 36.39 35.22 31.85 22.87
51.07 50.92 51.33 51.91 51.99 52.16 52.40 52.47 52.18 51.91 51.22 51.10 51.81 52.16 49.76 47.65 42.22 48.04 48.25 39.41 22.84 19.76 31.27 30.48 36.94 39.55 39.14 38.57 39.37 38.91 37.85 38.29 35.63 31.64 32.18 36.53 37.18 40.42 40.39 35.72 39.63 38.47 33.90 28.91 25.58 26.02 22.76
50.87 50.65 50.87 51.61 51.81 51.88 52.09 52.17 51.97 51.62 50.93 51.79 51.85 51.90 50.46 47.72 46.82 48.32 44.81 28.30 19.54 27.83 28.06 35.35 37.59 39.32 36.64 39.28 38.73 39.13 38.32 35.82 38.47 35.08 33.38 29.35 30.18 36.83 39.00 35.05 34.27 34.32 32.14 25.27 20.02 21.52 22.32
50.58 50.23 50.38 51.19 51.55 51.63 51.76 51.92 51.60 51.14 51.43 51.51 49.78 44.54 43.86 46.26 47.58 45.31 35.39 22.70 21.42 23.60 30.80 34.75 35.52 32.90 35.95 38.73 38.03 38.16 37.22 35.44 37.12 36.15 29.10 26.97 28.30 38.57 40.02 40.06 37.55 34.38 33.32 32.57 23.84 21.04 17.87
50.52 49.95 50.06 50.84 51.14 51.22 51.39 51.57 51.24 50.91 51.27 50.57 42.05 41.72 43.09 47.81 46.93 40.78 30.75 27.87 31.44 36.24 37.47 37.50 30.01 32.51 28.51 34.68 36.16 36.04 34.19 37.26 36.68 39.16 37.32 32.11 26.96 36.29 38.79 41.44 40.36 37.70 38.10 30.44 24.79 19.18 16.96
50.55 49.80 49.60 50.25 50.41 50.66 50.78 51.06 50.89 50.59 50.95 49.40 41.83 39.82 45.05 47.85 44.18 35.25 26.90 25.79 36.03 40.92 40.27 36.01 32.50 32.40 31.15 31.91 35.60 32.50 33.72 36.15 38.89 38.32 38.44 35.05 30.71 32.68 37.01 35.96 34.89 36.05 35.24 35.23 32.89 24.85 19.68
50.54 49.86 48.98 49.46 49.74 50.07 50.32 50.59 50.55 50.31 51.21 44.28 37.80 33.12 44.83 46.02 34.73 30.80 27.00 34.01 41.06 39.25 40.23 38.52 36.66 34.93 32.57 32.24 31.09 31.50 31.96 35.21 39.94 39.65 35.06 36.79 31.38 28.74 32.17 38.30 39.29 37.88 35.88 35.62 24.14 23.46 20.42
50.64 50.03 48.77 48.76 49.08 49.41 49.82 50.19 50.07 49.90 50.49 39.93 35.68 36.35 43.94 43.11 27.58 28.26 34.74 38.23 39.24 37.97 37.21 36.34 35.37 36.94 35.76 32.98 29.72 32.63 34.26 39.19 39.86 38.28 36.18 37.76 31.57 27.38 28.99 32.94 38.24 35.48 36.99 37.95 33.62 26.23 17.20
50.81 49.97 48.73 48.19 48.57 48.92 49.29 49.66 49.53 49.39 49.96 40.73 35.21 27.83 33.18 36.17 35.76 31.54 33.27 34.16 35.72 39.85 38.44 38.61 36.41 36.36 34.14 32.44 34.12 31.64 33.26 37.61 39.24 39.02 42.85 40.83 31.16 28.36 24.92 27.08 31.25 32.11 33.88 36.33 34.84 23.83 23.32
50.98 50.00 48.98 47.91 48.21 48.56 48.97 49.14 48.94 48.79 47.98 37.63 32.46 30.27 30.82 23.79 27.65 32.17 33.17 34.62 34.45 34.54 38.73 38.04 35.25 35.25 33.93 30.17 30.93 31.07 33.75 34.96 37.58 40.93 37.55 35.96 28.53 29.36 29.26 30.21 31.13 30.08 30.31 32.94 32.53 33.65 27.72
51.16 50.31 49.35 47.87 47.82 48.13 48.52 48.77 48.51 48.20 45.18 35.20 29.01 28.30 30.90 27.99 31.04 29.76 31.87 31.60 34.45 34.60 36.55 35.05 34.15 36.02 35.43 31.90 33.53 31.01 34.14 33.13 32.95 34.06 33.82 33.76 24.62 25.31 22.47 30.35 30.56 28.30 31.15 31.55 33.40 33.89 33.96
51.45 50.66 49.84 48.34 47.68 47.41 47.91 48.53 48.25 47.64 41.84 31.70 32.64 34.20 31.38 28.93 27.66 25.95 29.06 28.61 30.97 34.16 37.15 39.70 39.18 37.58 34.96 36.58 37.79 39.86 37.89 36.99 34.90 34.19 32.23 31.67 26.92 22.15 20.40 28.00 27.21 22.94 29.49 30.57 31.38 32.93 33.17
51.62 50.82 50.25 48.81 47.93 47.09 47.41 48.08 48.07 47.47 42.46 35.44 34.11 33.29 26.83 25.28 26.83 26.92 29.51 29.34 30.18 33.04 30.92 33.38 34.30 35.48 39.43 40.55 39.20 39.26 36.66 35.59 34.83 34.86 35.06 29.95 27.34 24.40 19.76 23.65 14.94 28.23 32.67 33.34 32.61 34.51 34.78
52.02 51.22 50.55 49.42 48.32 47.51 46.79 47.30 47.69 47.37 45.30 37.20 35.63 32.11 28.25 23.64 25.88 26.42 27.96 27.76 29.15 30.43 29.70 31.75 34.56 38.36 42.16 40.09 34.78 32.51 31.88 32.43 33.14 34.06 32.85 33.33 30.25 25.64 22.03 21.46 24.63 29.07 30.60 31.23 30.13 30.79 35.27
52.72 51.99 51.07 50.27 48.98 48.15 47.25 46.99 46.91 47.00 45.80 37.57 35.54 35.91 31.45 25.46 25.23 28.17 26.37 27.31 26.61 27.11 30.33 34.90 37.90 38.84 40.46 38.83 35.00 28.07 25.02 27.00 27.00 30.08 32.78 33.02 33.38 29.10 22.12 20.30 19.03 26.72 33.97 35.24 34.95 26.97 36.50
53.54 52.67 52.01 50.92 49.93 48.84 48.20 47.40 46.95 46.61 46.41 38.76 36.25 36.32 32.06 26.68 28.40 28.30 25.71 25.85 28.86 27.07 25.07 28.37 32.58 30.66 41.69 36.85 32.56 29.06 26.74 30.45 25.74 26.43 27.59 31.14 31.55 27.81 25.96 25.82 26.15 31.93 33.91 36.63 25.78 28.07 38.41
53.79 53.31 52.79 52.03 50.94 49.71 49.03 48.36 47.67 47.10 46.85 40.71 36.80 38.09 34.80 32.72 32.74 33.20 32.66 29.56 28.13 27.35 24.38 27.67 27.50 32.97 35.47 33.81 32.85 33.42 29.29 29.20 26.93 28.62 28.54 28.12 29.44 28.47 28.10 26.38 22.24 34.78 35.56 31.65 35.12 37.68 38.70
53.79 53.50 53.08 52.14 51.46 51.07 50.45 49.38 48.70 47.89 47.30 45.65 36.18 40.02 41.70 36.48 34.35 36.52 37.69 38.47 35.77 33.73 32.42 32.16 27.91 29.69 32.85 29.68 29.14 29.20 31.76 28.66 26.82 23.67 28.54 26.86 30.27 28.08 28.96 28.37 34.61 35.38 37.17 38.14 39.91 39.88 40.05

GFSGBSN_sfc_wetblb_078.txt.gz
Wetbulb
55.77 55.45 55.51 55.21 55.09 54.73 54.23 53.99 53.43 53.91 54.86 54.99 54.93 54.27 54.02 54.85 53.94 53.04 52.16 52.65 52.91 52.72 52.92 53.06 52.58 52.73 47.70 39.12 39.61 50.45 54.68 53.13 53.55 54.20 50.34 47.93 45.77 43.72 43.77 46.85 46.05 44.01 47.06 49.43 50.33 49.26 48.25
55.40 55.40 55.37 54.99 55.00 54.60 54.16 53.68 53.42 53.29 53.98 54.38 54.56 53.67 53.68 54.11 53.62 52.67 51.97 52.10 52.39 52.48 52.93 53.20 52.92 51.82 42.86 32.24 47.32 49.88 50.32 50.27 52.07 52.57 50.16 50.49 46.28 46.90 44.85 46.69 45.32 45.54 46.96 48.23 48.84 48.31 48.48
54.92 55.35 55.12 54.93 54.62 54.47 53.91 53.35 53.10 52.93 53.77 53.74 53.80 53.22 53.95 53.21 53.31 52.98 52.15 52.10 51.78 51.90 52.32 52.98 52.74 49.19 41.04 36.46 47.73 49.98 48.99 49.96 51.93 52.47 49.53 52.17 49.46 46.53 45.75 43.87 48.76 47.55 44.23 44.11 45.64 47.25 46.70
54.49 54.98 54.91 54.77 54.34 54.04 53.90 53.28 52.90 52.76 53.02 53.28 53.21 52.91 53.38 53.69 53.53 53.33 52.52 52.09 51.73 51.63 51.93 52.50 52.14 44.56 34.34 46.25 46.11 47.19 48.32 48.55 51.72 53.93 53.40 53.91 52.15 46.79 44.61 44.79 44.52 42.92 43.55 38.65 42.87 46.68 47.43
54.10 54.60 54.58 54.49 54.31 54.02 53.60 53.38 52.87 52.83 52.71 53.00 52.97 52.52 52.87 53.29 53.62 53.49 53.44 52.27 51.74 51.35 51.17 51.37 44.64 40.48 34.03 48.98 44.40 46.54 48.74 46.24 49.82 52.29 53.34 54.36 50.55 43.58 44.68 39.48 37.02 39.77 35.62 35.99 38.68 46.26 46.29
53.87 54.09 54.20 54.12 54.11 54.24 53.91 53.41 52.84 52.86 52.86 52.31 52.61 52.23 52.32 52.75 53.40 53.71 52.42 52.05 51.57 49.57 48.81 48.86 46.84 34.76 39.23 39.12 45.26 46.91 49.84 49.92 47.41 48.88 47.77 47.81 44.86 38.36 40.02 36.44 31.25 35.04 34.54 36.25 34.57 41.30 44.03
53.45 53.67 53.88 53.83 53.79 53.89 53.84 53.47 52.85 52.70 52.64 52.17 52.02 52.04 52.02 52.42 53.23 53.29 46.24 41.43 37.89 35.77 41.16 37.98 38.92 37.30 40.66 44.57 47.85 45.58 48.95 46.93 46.89 45.19 39.63 42.82 38.72 34.06 34.84 37.21 36.47 36.34 34.05 33.77 36.77 41.92 40.96
53.06 53.38 53.46 53.65 53.50 53.82 53.70 53.46 53.18 52.78 52.47 52.21 51.60 51.81 52.05 52.19 53.09 51.06 43.60 38.49 39.08 40.10 34.37 43.27 42.82 42.09 44.15 44.21 39.24 42.94 48.37 42.53 41.07 38.03 40.51 39.05 35.49 37.38 41.14 39.68 38.38 37.07 33.63 30.95 35.90 40.52 40.01
52.81 53.13 53.09 53.35 53.25 53.56 53.49 53.24 53.00 52.95 52.59 51.98 51.37 51.63 51.85 52.13 52.55 45.19 41.39 41.36 45.52 43.51 35.13 41.02 43.56 42.51 42.49 43.58 39.83 39.64 45.80 43.66 39.82 37.48 37.39 35.45 38.56 41.61 40.84 38.60 36.78 33.87 32.18 31.24 32.67 36.53 37.78
52.70 52.81 52.78 53.10 52.98 53.12 53.13 53.03 53.02 52.90 52.43 51.76 51.42 51.59 51.73 52.18 44.23 42.32 39.85 45.11 44.97 43.11 24.64 35.60 39.35 41.20 44.10 42.09 37.62 45.85 47.80 43.32 39.70 36.94 37.05 38.22 42.15 40.05 38.87 37.70 37.24 31.51 37.26 36.79 35.53 33.59 30.21
52.56 52.54 52.38 52.66 52.69 52.79 52.83 53.03 52.99 52.75 52.09 51.59 51.60 51.65 51.47 51.54 41.55 39.47 42.87 46.38 44.05 39.36 14.42 36.97 40.31 47.97 45.39 39.23 38.46 41.36 48.13 45.04 37.89 37.44 37.88 35.61 39.19 37.28 36.27 38.19 39.20 34.91 39.45 36.48 34.53 31.14 29.92
52.30 52.26 51.89 52.21 52.33 52.48 52.49 52.73 52.71 52.45 51.81 51.43 51.66 51.65 51.60 47.83 44.86 45.47 48.72 44.80 40.09 22.85 15.34 34.51 40.50 40.36 39.80 40.44 40.46 42.91 42.76 45.97 44.25 39.82 40.36 38.75 41.51 39.29 37.41 40.01 40.32 41.55 36.78 35.32 33.00 29.90 26.85
52.06 51.88 51.35 51.73 51.93 52.19 52.23 52.46 52.45 52.15 51.56 51.21 51.85 52.06 49.71 46.78 41.59 48.69 47.51 37.98 22.60 18.25 30.25 31.43 36.69 38.81 38.41 36.87 37.74 38.77 38.52 37.10 33.39 27.99 32.59 36.92 37.52 39.90 40.05 35.79 39.21 37.93 34.29 23.71 21.10 26.17 23.92
52.04 51.63 50.96 51.16 51.68 51.95 52.00 52.19 52.14 51.92 51.22 51.48 51.54 51.96 49.82 47.11 46.20 48.85 44.13 28.14 19.14 27.75 28.19 35.71 37.54 39.18 36.25 38.28 37.66 37.80 37.44 34.27 38.28 35.98 34.21 31.43 29.77 37.31 39.67 34.96 34.78 34.13 33.16 24.06 18.63 20.28 21.32
52.00 51.25 50.52 50.66 51.43 51.61 51.70 51.89 51.80 51.48 51.22 51.33 49.93 43.72 43.42 45.57 46.83 46.44 35.40 20.97 22.64 23.82 29.85 33.67 34.70 35.10 34.47 38.51 37.80 37.57 36.47 34.62 35.80 35.74 29.45 27.59 29.78 38.62 40.31 39.48 37.47 34.04 30.44 31.71 26.67 20.18 17.17
51.94 51.03 50.22 50.30 50.92 51.15 51.31 51.50 51.44 51.11 51.65 50.02 41.56 41.23 42.49 46.95 46.01 40.46 29.34 28.21 28.49 34.54 36.08 36.55 29.74 31.55 29.26 33.63 33.60 35.19 35.37 37.08 36.32 37.33 36.07 32.14 26.27 36.82 38.19 41.43 39.64 37.11 36.59 29.24 28.43 19.82 17.80
51.97 50.84 50.03 49.63 50.11 50.34 50.69 50.98 50.96 50.81 51.30 49.11 41.60 38.46 44.05 46.86 43.31 33.97 24.61 23.83 34.48 39.50 39.28 35.09 31.50 30.94 29.70 32.13 34.04 32.29 32.81 35.45 38.12 37.90 37.79 33.76 29.55 32.56 37.57 35.09 34.95 36.27 34.45 32.81 30.11 25.19 18.37
52.04 50.84 49.92 49.03 49.36 49.65 50.14 50.43 50.50 50.41 50.49 43.90 37.14 32.22 43.40 44.89 32.78 29.57 26.09 32.40 40.15 38.22 39.28 37.86 35.82 33.95 31.57 33.14 33.23 31.16 31.48 35.36 39.55 39.66 35.15 36.29 30.11 25.40 31.00 37.20 39.45 38.50 35.72 35.26 28.94 24.08 21.39
52.04 50.90 49.99 48.59 48.71 49.07 49.52 49.90 49.86 49.83 49.00 39.47 35.49 35.65 41.91 41.24 26.36 25.82 33.23 36.36 38.28 37.25 36.43 35.52 34.69 36.24 35.39 32.77 31.21 31.88 33.39 38.35 39.64 39.10 35.85 36.06 28.82 24.70 29.67 33.51 37.67 35.10 36.45 36.54 34.26 29.08 18.11
51.99 50.88 49.91 48.45 48.04 48.74 49.11 49.40 49.35 49.26 48.85 39.51 33.34 28.05 31.95 35.21 33.35 30.14 30.90 32.49 34.66 38.80 38.25 37.94 35.59 35.29 33.42 32.04 33.54 30.98 32.69 36.93 38.44 38.46 43.53 41.85 31.96 27.01 22.66 25.97 30.60 32.56 32.84 35.67 34.70 29.68 28.98
51.91 50.86 49.83 48.51 47.70 48.04 48.79 48.99 48.92 48.66 46.72 36.78 30.90 29.32 29.78 23.85 26.89 28.72 30.31 32.70 33.06 33.87 37.53 37.17 34.56 34.47 32.96 29.09 30.67 30.34 32.89 33.72 36.58 40.21 38.60 37.73 28.98 30.41 31.07 30.72 31.67 31.03 32.32 33.83 32.88 33.91 29.65
51.94 50.92 49.82 48.63 47.68 47.42 48.43 48.61 48.42 47.93 44.27 34.17 29.09 27.95 28.20 26.59 28.85 27.02 30.62 30.47 30.79 32.58 33.92 34.29 33.02 35.22 34.62 31.80 32.22 30.03 32.91 32.42 32.51 33.25 33.89 35.14 29.42 27.07 23.35 29.65 30.11 28.76 30.49 31.40 33.35 33.86 34.39
51.96 51.03 50.16 48.92 47.97 47.11 47.75 48.22 48.03 47.23 40.40 30.80 31.12 33.56 30.49 28.02 26.20 24.33 27.10 28.25 29.18 31.18 32.75 36.45 32.76 31.04 32.47 37.16 38.59 39.21 38.56 36.67 34.71 33.47 31.30 30.77 28.47 24.33 21.54 27.21 26.67 22.26 28.86 30.19 30.49 33.21 34.27
52.14 51.26 50.44 49.27 48.21 47.32 47.16 47.92 47.74 46.76 41.37 34.34 32.91 31.61 26.50 25.39 26.36 26.27 28.08 27.73 27.68 29.41 30.70 32.64 33.00 31.20 35.15 42.47 41.12 39.43 38.03 35.75 33.93 34.62 34.82 29.57 27.31 25.88 21.06 23.19 15.82 27.39 31.71 32.56 31.64 33.58 34.79
52.06 51.26 50.71 49.60 48.59 47.60 47.24 47.59 47.63 46.53 44.85 35.93 34.24 30.96 27.33 24.47 25.74 26.25 26.35 26.53 27.62 29.42 28.99 30.43 33.31 34.32 37.44 38.85 32.74 33.48 32.54 32.75 32.52 33.03 32.48 33.30 29.82 28.30 25.41 21.94 23.96 29.03 28.76 29.94 29.33 29.85 33.69
52.59 51.44 50.96 49.93 49.07 48.11 47.48 47.29 47.46 47.05 44.86 36.46 34.70 34.44 30.06 26.06 24.92 27.50 25.53 25.67 25.41 23.79 27.06 30.71 34.07 37.23 35.03 35.80 33.97 29.22 26.54 28.19 27.36 28.64 30.68 32.68 33.70 31.54 24.82 22.18 18.36 25.70 32.68 34.37 33.33 26.30 34.50
52.98 52.23 51.45 50.53 49.51 48.77 47.89 47.37 47.20 47.22 45.52 37.75 35.40 35.12 31.49 27.03 28.29 27.36 24.98 25.37 27.49 26.20 24.59 26.15 29.28 28.99 33.45 32.93 30.08 28.82 28.04 30.98 26.22 26.03 27.11 29.81 31.58 28.40 27.20 25.68 25.28 31.38 33.26 35.03 24.06 27.14 36.25
53.13 52.70 52.08 51.49 50.50 49.40 48.79 48.02 47.46 47.28 46.38 39.22 35.89 36.99 33.93 28.74 30.13 32.41 31.64 28.18 28.14 26.96 26.28 28.37 26.88 31.25 31.40 30.22 31.89 31.15 29.75 30.64 27.70 28.65 27.87 28.64 26.83 27.97 28.44 26.75 22.31 33.87 34.43 30.51 33.74 36.35 37.21
53.19 52.87 52.40 51.69 51.14 50.34 49.64 48.92 48.24 47.59 47.24 42.86 35.00 38.98 39.73 36.15 33.16 35.48 35.62 36.28 34.79 33.70 31.91 32.39 26.80 27.24 29.58 27.52 27.87 28.15 29.71 30.93 28.65 24.53 28.21 26.84 29.87 27.92 28.46 28.18 33.98 34.55 36.34 37.59 37.86 38.29 38.66

GFSGBSN_sfc_wetblb_081.txt.gz
Wetbulb
55.49 55.61 55.44 55.22 54.97 54.97 54.86 53.91 53.62 53.46 54.05 54.70 55.08 53.79 54.02 53.86 53.52 52.89 52.47 52.86 53.11 53.00 53.43 53.50 52.94 52.49 47.85 39.81 40.03 50.33 53.91 53.20 52.97 54.12 51.05 49.15 46.30 45.85 43.89 46.40 46.59 45.12 47.54 49.80 50.28 48.35 48.04
55.51 55.58 55.33 55.16 54.92 54.63 54.40 54.03 53.52 53.40 53.65 54.24 54.41 53.76 54.26 53.31 53.26 53.08 52.50 52.62 52.45 52.88 53.10 53.32 53.10 51.67 43.13 33.59 46.52 50.50 49.88 50.43 51.25 52.40 50.77 50.61 47.69 47.94 46.26 46.45 45.61 47.56 48.32 48.56 48.62 47.99 48.51
55.47 55.34 55.14 55.12 54.84 54.72 54.29 53.91 53.39 53.18 53.15 53.58 54.02 53.62 53.22 54.07 53.76 53.48 52.97 52.57 52.38 52.35 52.46 53.25 52.99 47.86 40.48 37.77 47.35 48.25 48.30 48.22 51.28 52.72 49.06 52.15 50.59 48.37 47.90 45.40 49.04 47.76 44.16 45.60 47.08 47.39 46.94
55.29 55.22 55.10 55.01 54.71 54.45 54.35 53.79 53.43 53.28 53.24 53.31 53.31 53.41 52.35 53.06 53.77 53.70 53.70 52.50 52.10 52.26 52.27 52.85 51.93 44.22 35.61 46.21 47.39 47.51 47.69 48.50 51.55 54.32 52.76 54.04 51.83 47.92 46.36 47.26 46.18 44.62 43.69 39.31 44.39 46.21 47.45
55.08 54.91 54.93 54.78 54.55 54.60 54.12 53.91 53.44 53.16 53.21 52.61 53.00 53.06 52.56 52.69 53.36 53.72 53.35 52.57 52.00 52.16 51.97 51.69 44.87 40.97 35.26 48.73 44.59 47.38 49.88 46.34 49.73 52.48 53.27 54.00 51.35 45.58 45.60 41.38 40.16 41.17 36.17 37.38 40.66 46.13 45.99
54.79 54.57 54.65 54.48 54.23 54.38 54.37 54.07 53.59 53.16 53.02 52.70 52.18 52.61 52.55 52.29 52.96 53.71 51.96 51.62 51.35 48.98 47.83 47.92 46.53 35.42 39.69 39.72 45.35 47.35 49.80 49.60 46.89 48.72 47.66 47.88 45.12 41.19 41.19 38.33 32.30 35.17 36.12 37.74 37.47 43.39 44.71
54.74 54.29 54.22 54.14 54.08 53.97 54.03 53.76 53.41 53.58 53.12 52.56 51.85 51.92 52.34 51.81 52.70 53.37 45.64 41.35 37.32 36.45 41.56 38.20 38.66 37.71 40.50 44.69 47.82 45.68 48.33 46.46 46.70 45.38 37.54 43.75 38.62 36.05 37.00 39.44 38.21 38.01 37.77 36.67 38.95 43.06 42.92
54.68 54.01 53.99 53.86 53.90 53.65 53.95 53.64 53.50 53.22 52.92 52.60 51.83 51.58 52.29 51.55 52.52 51.00 43.18 38.01 38.75 40.63 35.40 42.99 42.79 42.02 44.16 44.67 39.17 42.71 48.80 41.44 41.35 37.30 40.15 38.06 36.00 38.20 40.70 41.19 39.19 37.79 35.56 35.66 38.94 41.70 42.56
54.74 53.77 53.73 53.57 53.66 53.47 53.50 53.46 53.04 53.03 52.82 52.42 51.81 51.41 52.28 51.35 52.38 44.76 40.94 41.11 45.12 43.72 35.73 40.96 43.36 42.28 42.72 43.53 39.85 40.16 46.12 43.75 39.52 36.89 37.41 34.54 38.15 41.12 40.64 39.23 37.24 36.02 34.77 34.65 35.46 39.14 40.73
54.78 53.60 53.50 53.34 53.36 53.05 53.14 53.17 52.99 53.16 52.77 52.12 51.77 51.57 51.57 51.76 44.14 41.82 39.52 44.79 44.69 42.75 29.18 36.13 39.57 41.36 43.84 42.32 37.57 46.46 47.34 43.21 40.02 36.47 37.71 38.31 42.01 39.95 38.67 37.04 37.78 34.07 38.55 37.60 36.47 35.45 32.75
54.72 53.41 53.14 52.81 52.94 52.72 52.82 52.92 53.16 53.02 52.48 51.95 51.48 51.35 50.97 51.35 41.20 39.14 42.62 46.78 43.63 38.62 18.30 36.99 40.37 48.37 44.69 37.69 38.64 40.87 47.93 44.30 37.21 36.82 37.85 35.96 38.98 38.03 36.97 38.08 39.33 35.93 40.05 37.24 35.84 33.43 33.34
54.63 53.14 52.83 52.07 52.51 52.48 52.57 52.64 52.91 52.78 52.29 51.67 51.47 50.89 51.90 47.38 44.22 45.31 48.18 43.72 39.23 23.31 16.71 34.72 40.99 39.78 38.96 40.08 40.01 42.74 42.41 44.84 44.63 39.21 39.60 38.87 42.23 40.66 38.95 40.41 40.62 40.71 37.12 35.98 34.06 32.10 27.07
54.44 52.85 52.36 51.60 51.96 52.12 52.38 52.49 52.76 52.55 52.07 51.63 51.64 52.10 47.96 46.56 41.52 48.77 47.19 37.81 22.90 19.15 30.15 31.26 35.05 38.83 37.80 36.37 37.08 38.93 38.71 36.23 34.20 30.06 32.20 36.90 37.91 40.49 40.27 36.80 40.37 39.67 33.79 27.33 24.23 25.72 24.18
54.16 52.75 52.08 51.26 51.39 51.78 52.01 52.19 52.46 52.27 51.74 51.76 51.58 51.98 48.95 46.65 46.67 48.74 43.60 30.48 19.71 27.99 28.08 35.99 37.27 38.62 34.99 37.06 36.21 36.99 36.87 33.20 36.95 35.49 33.94 31.50 29.04 37.96 40.03 36.36 35.19 35.72 34.69 26.41 19.89 21.78 23.83
54.04 52.74 51.83 50.95 51.03 51.21 51.55 51.74 52.06 51.71 51.43 50.79 50.22 42.97 43.19 45.30 47.34 47.09 33.89 22.05 22.41 23.95 29.58 33.41 34.41 35.22 33.30 38.03 37.34 35.80 36.76 34.53 36.31 36.07 31.54 30.68 30.66 38.98 40.65 40.13 38.16 34.91 32.90 33.63 27.32 23.42 21.91
53.99 52.56 51.56 50.82 50.59 50.35 50.86 51.19 51.53 51.30 51.56 49.92 41.24 40.88 41.77 46.09 47.08 41.33 28.80 28.34 28.62 33.73 35.15 36.16 29.99 31.38 30.17 34.46 33.81 34.73 33.09 36.13 36.54 37.69 36.09 33.53 27.78 36.97 38.93 41.21 40.14 37.63 36.61 30.14 30.44 20.87 20.00
53.99 52.38 51.34 50.59 50.00 49.49 50.14 50.63 50.93 50.98 51.08 49.34 41.32 37.70 43.46 46.09 44.95 33.32 24.75 24.63 33.39 38.45 38.58 35.07 30.95 30.83 30.01 32.14 34.26 31.93 31.49 35.23 38.29 37.34 37.43 34.11 30.68 33.02 37.60 35.73 35.32 36.13 34.26 33.48 31.24 27.15 22.63
53.84 52.25 51.27 50.24 49.51 48.83 49.53 50.07 50.39 50.46 50.12 43.95 36.95 31.76 42.65 44.00 31.57 28.79 25.35 32.04 39.32 37.33 38.61 37.55 35.31 33.74 31.38 32.55 34.91 31.20 31.28 33.86 39.36 39.20 34.98 35.78 31.63 29.26 32.53 38.14 39.63 38.70 35.38 35.62 30.00 25.65 23.14
53.75 52.21 51.11 49.98 49.17 48.46 48.76 49.63 49.81 49.78 48.25 39.50 35.76 35.29 40.40 39.85 24.05 23.96 31.48 34.42 37.42 36.59 35.77 34.96 33.90 35.51 34.53 31.88 30.87 32.39 32.52 38.01 39.59 38.50 35.58 36.39 31.37 26.45 28.71 33.44 37.20 35.23 36.41 37.22 33.00 30.99 20.71
53.54 52.11 51.06 49.74 48.85 48.39 48.38 48.93 49.24 48.97 48.74 39.30 32.45 27.83 30.84 33.95 31.78 30.04 29.28 30.42 33.09 37.70 37.32 37.14 35.15 34.83 32.45 31.41 34.30 32.31 32.08 37.19 38.74 40.24 43.28 40.98 32.95 28.11 24.79 26.56 30.85 31.01 33.48 35.58 34.62 29.27 28.03
53.66 51.92 50.88 49.65 48.83 48.10 48.09 48.64 48.64 47.69 47.95 36.88 30.29 28.11 28.39 23.06 26.11 28.29 29.68 30.73 30.88 32.43 35.75 36.24 35.20 32.52 32.96 30.85 29.39 30.17 33.35 34.32 36.82 40.02 40.90 39.32 32.03 31.42 31.34 31.12 32.74 31.85 32.03 32.64 31.49 33.00 29.22
53.47 51.81 50.62 49.68 48.90 48.11 47.96 48.24 48.08 46.33 44.62 33.44 29.71 28.63 28.06 25.42 27.86 26.13 29.87 30.02 29.71 30.71 31.22 31.95 32.20 30.48 34.73 32.60 34.09 31.10 34.33 34.28 33.38 34.70 35.21 36.03 31.14 29.63 26.39 31.59 29.90 28.65 31.34 32.58 32.95 33.41 33.35
53.22 51.86 50.55 49.72 48.93 48.06 48.05 47.92 47.35 45.29 40.73 31.34 30.47 32.38 29.66 27.03 24.89 22.99 25.56 28.25 28.67 29.18 30.44 33.67 31.06 28.76 28.48 32.11 38.19 37.33 37.27 37.22 37.89 34.34 32.14 31.85 30.28 28.47 26.18 28.33 27.34 22.91 29.26 31.51 32.96 33.83 34.49
52.91 52.05 50.56 49.87 48.90 48.08 48.02 47.76 46.99 45.41 40.08 33.90 31.83 30.91 27.21 25.38 26.01 25.86 27.71 27.70 27.15 27.37 27.86 31.85 31.59 28.03 31.55 35.83 37.60 38.50 37.82 37.56 34.55 34.18 35.55 30.74 29.29 29.45 26.77 25.57 18.00 28.56 33.16 33.20 32.63 34.35 35.10
52.88 52.11 50.59 49.95 49.00 48.28 48.07 47.81 46.54 46.15 43.75 35.04 33.56 30.68 28.03 24.28 25.47 25.75 26.05 26.18 26.66 27.89 28.12 29.50 31.65 32.72 35.82 32.96 31.01 28.42 32.52 32.85 34.93 33.80 32.73 34.85 30.99 28.47 25.44 22.78 24.66 29.81 29.18 29.70 29.11 29.91 34.05
52.85 52.24 51.10 49.96 49.02 48.38 47.99 47.85 46.85 45.82 44.24 35.68 33.65 33.00 30.14 26.80 24.54 27.45 25.01 24.67 24.05 22.69 24.66 28.72 32.12 33.24 31.94 32.64 30.74 25.22 24.27 26.86 28.20 30.40 31.87 32.62 35.43 31.98 25.73 20.68 18.94 26.57 32.26 34.62 33.72 27.19 34.96
52.93 52.25 51.45 50.40 49.33 48.57 48.08 47.77 47.47 46.18 44.56 37.10 34.41 34.26 31.48 27.74 28.13 27.53 24.88 24.85 26.97 25.24 23.77 25.70 27.55 27.73 31.71 29.26 27.18 23.67 23.75 32.83 27.45 27.57 28.02 29.75 31.51 28.74 27.16 24.72 26.18 31.68 33.96 35.23 26.38 28.08 36.66
52.49 52.03 51.45 50.84 49.80 48.91 48.37 47.85 47.72 46.68 45.19 38.47 34.61 35.92 33.38 28.66 28.95 30.84 31.61 27.57 27.01 26.17 24.67 27.37 25.78 28.25 27.38 26.86 23.31 26.73 27.80 28.23 28.31 28.99 28.69 29.31 27.85 27.27 28.63 26.21 23.32 34.79 33.53 30.65 33.98 36.48 38.23
52.19 51.96 51.44 50.86 50.37 49.59 48.84 48.33 47.82 47.60 45.90 41.67 34.56 38.08 38.58 32.71 31.35 34.92 34.79 34.99 34.16 32.55 32.40 32.29 27.66 25.76 27.00 21.59 22.32 20.59 24.75 28.11 28.90 26.40 31.74 28.52 29.07 27.51 28.49 28.49 34.18 34.64 35.57 37.37 37.75 37.65 39.02

GFSGBSN_sfc_wetblb_084.txt.gz
Wetbulb
56.49 56.06 55.90 55.80 55.63 55.26 54.75 54.85 54.10 53.65 54.19 54.88 55.00 54.28 54.52 53.94 53.13 53.37 53.06 53.14 53.17 53.51 53.87 53.84 53.59 53.12 49.79 42.68 42.68 50.86 54.36 52.92 54.17 53.34 51.88 50.98 49.62 48.39 45.11 48.24 50.08 48.24 50.23 51.56 51.61 52.12 52.34
56.27 55.95 55.98 55.62 55.60 55.15 54.88 54.54 54.15 53.77 53.70 54.33 54.60 54.07 53.47 54.43 53.99 53.35 53.15 53.03 52.81 52.86 53.03 53.77 53.51 52.01 45.49 37.85 49.48 51.04 49.92 51.38 52.39 52.85 52.18 51.29 50.13 50.58 48.71 48.65 48.35 49.76 50.98 51.22 51.54 50.45 51.15
56.07 55.77 55.71 55.51 55.37 55.10 54.84 54.61 53.98 53.70 53.51 53.54 53.97 54.01 53.13 53.11 54.15 53.84 54.04 53.12 52.86 52.42 52.72 53.72 53.16 49.29 44.71 42.15 50.80 51.54 50.40 49.79 51.53 53.30 50.62 52.13 52.34 50.35 50.28 47.53 51.06 50.40 47.03 49.51 49.75 50.94 49.95
56.26 55.54 55.62 55.45 55.13 54.96 54.82 54.46 53.84 53.64 53.67 53.28 53.46 53.38 53.13 52.49 53.39 53.85 54.14 53.73 52.72 53.06 52.02 52.74 52.42 47.83 40.95 49.02 52.57 50.59 51.80 50.03 54.17 55.03 52.98 54.08 53.21 50.46 49.49 50.83 49.01 46.27 46.73 42.21 48.37 49.70 49.93
56.47 55.41 55.18 55.20 54.95 54.68 54.80 54.50 53.98 53.86 53.44 53.29 52.72 52.98 52.79 52.58 52.89 53.67 53.97 53.05 52.56 52.63 52.32 51.86 48.44 45.13 39.02 50.95 47.01 50.59 51.71 47.81 51.49 53.38 53.87 53.86 51.78 48.05 48.70 45.36 42.60 44.19 39.17 41.01 43.61 49.66 48.67
56.97 55.41 54.87 54.83 54.73 54.48 54.55 54.50 53.81 53.77 53.60 53.01 52.58 52.33 52.59 52.08 52.49 53.53 52.32 51.92 51.43 49.87 49.83 49.90 48.69 40.94 44.49 42.12 47.27 49.04 51.59 50.52 49.14 49.84 48.33 47.35 47.57 44.75 44.91 42.95 35.21 36.92 39.48 40.90 41.15 46.04 47.15
57.33 55.72 54.60 54.35 54.42 54.31 54.21 54.32 53.98 53.67 53.59 53.10 52.16 51.93 52.21 51.92 52.03 53.25 49.11 48.95 44.47 43.70 46.61 41.21 41.23 40.29 42.89 47.69 49.47 47.93 49.37 48.24 48.67 46.27 39.47 41.85 40.03 38.57 41.31 43.67 42.56 42.91 41.31 40.49 43.15 46.57 45.19
57.40 56.06 54.52 54.15 53.91 54.10 53.85 53.94 53.85 53.23 52.96 52.51 51.89 51.90 52.05 51.94 51.93 50.60 48.57 43.86 43.24 44.90 40.09 45.02 44.37 44.09 45.78 46.83 40.65 45.71 49.85 43.08 42.86 38.29 41.24 37.86 36.45 42.76 43.75 43.98 42.21 42.11 40.17 39.26 42.22 45.14 45.41
57.37 56.21 54.61 54.02 53.55 53.73 53.59 53.56 53.53 53.46 53.04 52.41 51.71 51.76 52.02 51.06 51.81 48.82 46.39 45.04 48.88 47.67 41.60 41.77 44.85 43.26 44.08 45.74 41.12 42.87 47.04 44.36 40.66 38.25 39.31 35.75 38.71 43.73 42.70 41.52 40.49 40.79 39.45 39.78 39.52 42.89 45.66
57.42 56.27 54.79 53.93 53.25 53.23 53.16 53.14 53.27 53.11 52.65 51.98 51.36 51.79 51.42 51.56 47.57 47.45 44.42 48.28 49.13 47.74 37.26 37.15 40.30 43.47 45.25 44.44 40.08 47.85 48.78 45.00 40.70 36.77 38.82 39.03 42.20 41.34 41.34 39.97 41.86 37.41 42.49 41.86 40.55 39.83 35.24
57.49 56.24 54.75 53.71 53.02 52.80 52.78 52.86 52.98 53.11 52.50 51.93 51.17 51.40 50.92 51.28 47.78 45.43 46.46 48.76 48.92 46.05 27.03 38.20 41.34 49.56 45.72 40.40 41.67 43.16 49.44 45.98 39.43 38.64 39.91 37.10 38.85 39.46 39.54 40.56 43.04 39.13 43.04 41.94 40.62 39.81 38.51
57.38 56.15 54.66 53.66 52.69 52.52 52.40 52.62 52.70 52.85 52.67 51.85 51.16 50.81 51.97 49.73 49.78 48.49 50.28 48.74 46.31 34.08 25.72 35.14 42.01 40.65 40.00 41.38 41.00 43.43 44.48 47.16 46.46 41.37 40.65 38.99 43.94 42.64 41.75 42.98 43.11 43.62 41.21 40.77 40.09 38.62 31.30
57.45 55.94 54.43 53.47 52.47 52.27 52.18 52.22 52.39 52.58 52.15 51.75 51.08 52.10 50.38 50.28 46.67 50.25 48.80 45.26 34.49 31.11 34.53 33.86 35.97 39.59 38.77 37.42 38.32 39.89 39.54 38.95 37.66 33.27 32.98 37.37 38.71 42.49 43.50 40.90 42.79 42.40 38.91 30.91 29.85 29.98 28.69
57.34 55.73 54.10 53.19 52.33 52.10 51.81 51.79 52.03 52.12 51.59 51.54 51.89 52.18 49.42 49.44 51.21 49.97 47.16 38.71 31.46 32.45 34.09 38.15 38.34 38.88 36.79 38.64 37.94 38.14 37.62 36.35 40.15 39.09 34.42 32.79 29.81 38.97 42.75 41.10 38.88 39.12 38.30 31.50 23.19 25.75 30.30
57.01 55.44 53.84 52.97 52.15 51.98 51.39 51.30 51.47 51.44 51.21 51.85 50.20 49.75 49.54 50.12 50.68 49.63 41.81 34.98 33.10 34.33 36.08 36.65 37.88 35.44 35.42 38.60 38.09 37.71 37.32 36.87 39.22 40.81 35.71 34.15 31.65 39.86 41.45 41.94 41.98 38.56 34.88 38.77 32.19 30.37 30.16
56.75 55.46 53.66 52.72 52.02 51.75 50.99 50.76 50.82 50.84 50.82 51.58 48.51 47.80 47.90 49.77 49.59 46.55 40.10 33.33 35.80 37.32 38.25 39.12 33.88 36.42 33.06 35.84 34.63 34.79 36.37 39.92 38.96 41.77 42.02 38.20 31.01 38.33 39.72 41.79 41.55 40.30 41.81 32.80 34.42 25.87 24.30
56.40 55.28 53.52 52.40 51.82 51.15 50.58 50.24 50.15 50.28 50.72 50.46 48.42 45.05 48.08 50.28 48.55 42.32 36.85 36.02 37.53 41.21 41.31 38.52 36.28 35.34 36.23 35.48 36.49 34.67 35.82 39.38 41.97 40.76 41.28 39.47 36.47 34.40 38.61 36.88 36.48 36.31 35.63 36.72 36.17 34.19 28.70
56.04 55.11 53.34 52.12 51.43 50.57 50.22 49.88 49.59 49.62 50.67 48.21 46.07 41.22 47.89 48.67 41.42 39.49 38.79 37.66 40.48 40.59 42.16 40.98 40.05 38.53 36.88 36.94 36.10 35.24 36.26 39.23 43.66 41.85 36.92 39.12 36.46 31.48 34.08 40.20 42.17 40.71 37.76 38.02 31.86 29.28 32.54
55.84 54.84 53.07 51.83 50.88 50.04 49.86 49.58 49.16 49.11 50.02 46.33 43.50 43.12 45.63 46.62 37.78 37.71 37.60 37.45 40.31 40.33 40.21 39.15 38.18 39.75 39.66 37.04 33.97 37.45 38.26 42.02 43.36 41.60 39.04 38.70 35.47 29.45 30.48 35.22 38.55 36.49 38.62 38.76 38.47 35.29 31.06
55.51 54.46 53.07 51.41 50.38 49.75 49.47 49.14 48.69 48.66 49.16 46.55 41.76 38.92 39.28 41.58 39.55 37.42 35.14 35.58 36.11 41.19 40.46 40.84 39.62 39.78 37.93 36.47 38.90 35.52 36.33 40.16 42.22 42.53 44.02 42.47 36.57 33.91 30.05 32.10 36.08 33.29 35.96 38.50 36.92 32.35 31.73
55.01 54.08 52.98 51.12 50.17 49.73 49.38 48.90 48.08 47.79 49.44 44.81 39.16 37.26 36.46 36.96 35.72 36.02 35.89 35.26 34.26 34.79 40.01 39.88 38.51 37.28 36.39 33.44 34.88 34.80 37.53 38.79 39.84 42.24 42.04 39.03 33.22 35.00 34.88 34.76 35.37 34.74 35.12 36.36 34.06 35.70 31.37
54.54 53.77 52.60 50.78 50.14 49.54 49.18 48.43 47.61 47.50 46.71 41.14 38.62 37.22 35.43 33.67 33.96 34.59 33.99 34.39 34.29 34.88 34.66 35.32 35.70 36.26 34.93 33.17 35.02 33.68 34.29 36.09 36.88 38.54 39.84 39.61 33.07 34.11 32.30 35.69 34.85 32.74 35.40 36.35 36.34 36.45 36.27
54.22 53.37 52.31 50.62 50.05 49.32 48.92 48.00 47.21 47.11 44.15 40.27 37.97 38.91 39.75 31.90 32.67 33.22 33.71 34.02 32.91 32.80 34.79 35.67 34.67 32.66 31.82 33.80 36.28 38.22 38.36 36.69 33.75 35.65 36.74 36.59 33.78 31.86 29.50 32.46 31.54 29.29 32.99 34.46 35.75 37.88 37.47
53.72 53.08 52.09 50.64 49.51 49.25 48.76 47.73 46.87 45.74 43.50 40.95 39.28 40.25 37.96 32.22 33.56 33.12 32.14 32.31 31.70 32.32 31.06 34.04 34.73 31.88 34.90 38.60 38.60 38.53 37.39 37.14 35.46 35.59 36.22 35.20 34.78 34.30 30.20 29.65 23.47 34.19 36.25 37.32 36.19 37.78 39.77
53.51 52.79 51.86 50.86 49.37 49.21 48.64 47.67 46.91 45.41 43.42 40.61 39.03 39.40 38.71 33.12 33.57 31.30 31.17 31.23 32.42 33.19 31.64 31.89 34.39 36.76 37.19 34.26 31.47 30.39 31.05 30.71 34.07 35.91 36.42 38.03 35.60 32.06 28.74 27.90 31.95 34.50 34.66 33.67 33.56 34.47 39.74
53.24 52.47 51.78 50.76 49.81 49.24 48.49 47.57 46.85 45.81 43.89 40.29 38.38 39.21 40.43 35.68 32.71 33.88 31.97 31.27 31.12 30.96 31.24 31.73 36.11 37.65 35.83 33.30 31.36 26.14 25.42 29.35 30.45 30.74 33.36 35.47 37.48 33.63 30.31 25.92 23.35 33.18 37.42 38.82 38.44 31.87 39.74
53.05 52.10 51.55 50.68 49.96 49.32 48.62 47.62 46.98 46.18 44.38 41.16 38.77 39.41 40.00 35.80 34.13 33.94 32.42 32.19 32.97 31.17 29.77 30.88 31.94 32.19 36.20 31.75 29.33 28.24 27.83 32.90 27.98 29.18 28.95 31.07 33.49 30.66 29.55 28.54 31.89 38.08 38.94 40.20 29.81 34.17 41.96
52.62 51.78 51.29 50.49 49.94 49.56 48.79 47.85 47.06 45.99 44.78 42.38 39.00 40.42 40.22 36.58 34.47 34.43 35.49 33.07 32.10 32.42 29.38 31.89 31.01 31.66 31.86 28.08 27.29 27.34 27.88 31.36 30.86 32.60 31.69 31.45 30.41 29.95 31.01 27.98 25.53 38.29 37.38 34.13 40.02 42.40 43.10
52.24 51.55 50.97 50.22 49.79 49.48 49.00 48.32 47.32 46.62 45.55 44.02 39.25 41.66 42.40 39.04 36.33 38.24 38.55 38.95 38.60 37.54 33.77 34.10 30.98 30.07 32.38 29.41 29.36 28.83 27.09 29.82 29.32 28.02 35.21 30.72 34.29 33.39 34.31 33.88 38.95 40.26 41.53 43.37 43.76 42.87 44.19

GFSGBSN_sfc_wetblb_087.txt.gz
Wetbulb
57.19 56.67 56.28 56.40 56.25 56.15 55.83 55.21 54.64 54.34 54.18 54.40 55.10 54.97 54.07 54.45 54.88 54.07 53.79 53.66 53.52 53.53 53.49 54.32 54.18 53.35 50.91 43.94 42.42 50.38 54.40 53.03 53.83 53.54 52.94 52.45 49.87 48.80 46.00 48.72 49.72 48.53 48.90 52.02 53.28 53.92 53.97
58.01 56.96 56.29 56.13 55.97 55.91 55.67 55.28 54.86 54.22 54.03 54.01 54.54 54.41 53.94 53.39 54.22 54.37 54.44 54.02 53.55 53.15 53.12 54.09 53.80 52.81 47.58 38.33 50.70 51.97 51.00 51.29 52.13 53.50 52.73 52.69 50.16 50.92 48.40 48.21 48.81 51.05 50.39 51.18 52.11 52.17 53.29
58.51 57.38 56.55 56.01 55.72 55.56 55.40 55.13 54.91 54.32 53.95 53.86 53.63 53.89 53.86 53.46 53.14 54.28 54.46 54.53 53.51 52.95 52.67 53.53 53.88 50.61 45.50 42.61 51.56 52.15 51.58 50.00 52.75 53.91 51.48 52.90 53.09 49.96 49.84 47.30 51.53 50.44 46.87 49.00 50.20 51.33 50.80
58.86 57.71 56.68 56.09 55.53 55.24 55.03 55.08 54.60 54.52 54.52 53.75 53.21 53.28 53.48 53.30 52.61 53.62 54.24 54.24 53.40 53.43 52.79 53.26 53.14 49.90 41.53 50.73 53.32 51.50 52.40 51.14 54.49 55.06 53.76 54.31 54.52 51.95 49.57 51.52 49.80 46.73 47.27 42.50 48.15 50.52 51.36
59.26 58.17 56.87 55.98 55.53 55.12 54.78 54.81 54.67 54.14 54.58 54.10 53.29 52.67 52.99 52.93 52.26 53.25 54.08 53.20 53.38 53.07 53.10 52.94 49.97 46.92 40.23 52.37 47.90 51.28 52.22 49.35 52.37 53.75 54.24 53.85 52.52 48.27 49.45 45.33 42.90 44.87 39.45 41.58 44.39 50.51 49.64
59.74 58.56 57.10 55.93 55.37 55.04 54.79 54.46 54.36 54.07 54.41 54.02 53.30 52.11 52.48 52.82 52.06 52.96 53.64 51.82 52.96 52.17 51.72 50.82 49.97 42.61 45.43 42.91 48.10 50.07 52.08 52.20 49.94 50.04 46.99 46.31 47.20 44.27 44.95 42.96 33.93 38.23 39.70 41.92 42.10 47.27 48.60
60.21 58.98 57.48 55.90 55.22 54.95 54.58 54.21 54.06 53.99 53.57 53.33 52.48 51.73 52.41 52.77 51.81 53.10 51.02 50.05 46.82 45.78 47.77 42.53 42.64 42.27 44.06 48.44 50.45 48.49 50.64 50.44 50.36 47.09 39.23 42.05 40.43 38.52 41.86 43.98 43.53 42.56 41.69 41.13 43.94 47.36 46.22
60.41 59.19 57.76 56.05 55.04 54.85 54.44 54.08 53.82 53.51 53.38 53.23 52.43 51.76 52.17 52.52 51.72 52.71 50.18 45.95 45.40 47.70 41.38 46.33 45.44 45.13 47.03 48.25 42.87 46.80 51.56 44.94 44.76 39.77 42.77 39.90 38.94 43.32 45.21 45.15 43.44 43.15 41.16 40.98 43.27 46.40 45.23
60.66 59.31 57.89 56.25 55.01 54.71 54.43 53.79 53.52 53.42 53.13 52.56 51.79 51.37 52.09 51.50 52.06 50.48 48.06 46.82 50.60 49.95 42.55 42.83 45.55 44.29 44.93 46.38 41.88 44.04 48.10 45.67 42.45 39.71 40.36 36.61 40.82 44.58 43.65 42.59 41.43 41.84 40.52 40.51 40.62 43.89 45.73
60.82 59.28 57.92 56.41 55.02 54.45 54.08 53.48 53.21 53.24 52.70 52.26 51.65 51.18 51.17 51.28 49.34 49.76 46.87 49.64 51.11 50.04 37.34 38.05 40.98 44.06 46.12 45.77 41.12 48.22 49.60 45.93 42.28 38.56 40.25 38.89 43.20 41.92 41.86 40.53 42.26 37.94 44.05 42.68 41.26 39.98 36.06
60.77 59.51 58.13 56.30 54.88 54.14 53.79 53.33 53.08 53.07 52.64 52.26 51.48 51.14 50.91 51.22 49.67 48.09 48.49 51.23 51.19 48.16 28.48 39.57 42.21 50.20 47.05 42.35 43.06 44.60 50.40 46.87 39.89 39.56 40.89 38.42 39.99 40.32 39.85 41.08 43.34 40.02 44.68 42.55 41.74 39.36 39.24
60.66 59.51 58.18 56.16 54.73 53.84 53.46 53.09 52.80 52.86 52.56 52.08 51.29 50.88 51.57 50.09 52.03 50.13 51.63 50.61 48.33 34.85 26.62 35.62 42.52 41.20 40.60 41.79 41.95 44.64 44.94 48.00 46.48 41.54 41.27 39.76 45.19 43.42 42.61 44.58 44.33 45.23 42.37 42.09 41.38 38.90 31.75
60.41 59.02 57.83 56.17 54.61 53.59 53.20 52.89 52.59 52.60 52.17 51.66 51.04 51.58 51.79 52.61 48.30 52.19 51.48 47.34 34.37 32.72 36.69 34.83 37.08 40.72 39.18 38.39 39.20 40.83 40.37 39.46 37.78 33.47 33.82 37.59 39.74 43.53 44.21 41.15 43.95 42.74 38.95 31.52 28.83 29.30 29.15
59.96 58.67 57.50 56.11 54.48 53.37 53.04 52.74 52.37 52.08 51.40 51.27 52.25 52.54 49.70 51.97 53.14 52.03 49.17 41.11 32.06 35.10 35.45 40.58 39.71 39.91 36.30 39.72 39.01 39.11 38.63 36.31 41.64 39.95 36.02 32.72 30.90 39.77 43.92 41.61 38.54 38.99 38.81 32.46 24.65 27.52 31.11
59.67 58.27 57.09 55.78 54.20 53.27 52.96 52.48 52.09 51.47 50.76 52.93 52.53 52.06 51.20 51.64 52.72 52.01 44.48 34.30 34.90 37.47 39.09 38.28 39.55 36.01 37.22 39.54 39.28 38.65 38.09 37.97 40.48 41.74 35.78 34.26 34.50 41.73 43.08 43.82 42.67 38.61 36.31 41.41 33.88 34.49 30.84
59.16 57.93 56.76 55.49 54.05 53.17 52.84 52.23 51.83 51.28 51.22 52.53 51.14 50.38 49.62 51.95 52.00 48.45 42.39 35.29 38.43 40.79 40.80 40.70 35.43 38.35 34.86 37.13 36.25 37.03 36.67 40.85 39.97 42.69 44.47 39.02 32.42 39.27 40.94 43.20 43.34 40.72 42.67 33.40 35.02 25.76 24.22
59.31 57.75 56.44 55.34 54.08 53.10 52.48 51.88 51.58 51.07 51.50 52.68 50.47 46.86 49.41 52.38 50.95 45.09 35.17 38.61 39.97 43.57 42.94 39.86 38.09 36.91 37.88 37.02 38.03 35.73 37.03 40.78 42.72 42.03 43.26 41.06 37.11 35.44 38.98 37.22 36.45 37.58 36.11 37.48 36.93 34.37 28.18
58.63 57.43 56.05 54.97 53.61 53.06 51.99 51.50 51.30 50.86 52.04 49.81 49.50 43.12 50.00 51.26 43.77 44.28 40.62 39.57 41.27 42.04 44.19 42.09 41.66 40.05 38.27 38.96 37.28 36.29 36.24 40.21 44.86 43.94 38.02 41.34 37.96 33.55 34.20 40.59 42.95 40.76 37.40 37.50 32.00 30.02 33.47
58.35 57.24 55.76 54.39 53.09 52.64 51.50 51.27 51.13 51.35 51.70 50.27 45.67 45.53 47.79 48.40 40.53 40.25 40.01 39.24 41.63 41.56 41.84 40.83 39.71 41.36 41.49 38.08 34.31 38.08 39.06 43.84 44.28 42.88 39.79 40.47 35.70 29.81 31.88 36.41 39.63 37.21 39.49 39.53 38.59 37.50 32.46
57.86 56.68 55.24 53.78 52.80 52.13 51.37 50.87 50.76 50.85 52.16 49.08 45.22 40.54 41.44 44.15 43.29 39.52 37.21 37.14 37.00 43.09 41.75 42.25 40.92 41.97 39.28 37.06 39.51 35.92 37.25 41.18 43.11 42.77 44.55 42.95 36.82 33.25 29.46 32.35 37.27 33.68 36.32 38.70 37.57 32.52 32.56
57.33 56.05 54.72 53.39 52.71 51.47 50.93 50.52 50.31 50.04 50.78 47.63 44.38 41.26 41.57 38.48 38.35 39.12 38.15 37.06 35.45 35.50 41.09 41.90 39.06 39.20 37.18 33.70 34.44 33.97 36.74 38.59 41.68 42.82 41.96 38.04 33.15 35.60 36.69 35.99 37.24 36.36 36.23 36.89 34.60 35.98 32.32
56.67 55.52 54.26 53.14 52.32 51.39 50.89 50.20 49.65 49.50 50.34 43.75 41.67 40.48 39.60 38.72 37.48 37.77 35.62 37.06 35.76 36.58 36.78 35.12 35.76 36.84 36.85 32.37 32.84 30.45 33.53 33.88 35.57 39.36 37.94 39.91 33.37 34.77 32.72 36.00 36.06 33.72 36.38 37.37 37.40 36.92 36.63
55.68 54.52 53.68 52.35 51.94 51.28 50.69 50.10 49.00 50.80 48.30 44.02 41.91 42.65 43.86 36.00 37.22 36.64 37.24 36.73 35.61 35.62 36.78 37.08 35.71 34.41 32.49 34.09 36.18 37.07 37.97 37.85 36.80 33.25 33.85 34.04 33.46 32.48 29.97 34.60 33.48 30.14 34.54 36.53 37.46 39.10 38.49
54.99 54.22 53.54 52.48 51.71 51.20 50.42 49.37 48.62 50.34 47.65 45.33 44.69 45.24 41.52 36.32 37.19 36.68 35.35 35.80 35.04 35.46 33.51 35.91 36.24 33.56 36.49 39.69 38.72 38.13 37.41 36.58 36.44 35.84 35.58 32.58 31.49 34.23 30.22 31.47 24.39 35.38 38.99 40.73 38.70 39.69 41.01
54.82 53.81 53.04 52.11 51.56 50.92 49.59 48.84 48.10 49.57 45.92 44.33 42.77 44.71 42.42 37.49 37.97 35.81 34.64 34.52 35.19 35.60 33.54 33.94 35.67 38.12 39.16 36.03 31.43 30.56 32.05 30.90 33.32 35.63 34.92 35.23 33.20 32.02 29.14 28.04 33.19 35.69 35.34 35.33 34.87 35.32 40.82
54.46 53.57 52.59 51.84 51.03 50.51 49.52 48.73 47.57 48.04 45.86 43.23 41.20 43.61 45.23 39.59 36.72 37.64 35.39 35.15 34.45 34.55 34.12 33.95 37.50 39.18 37.91 35.03 30.79 26.04 26.26 29.52 29.45 31.17 34.90 34.98 34.79 33.29 31.83 27.00 23.74 33.83 37.81 40.37 40.30 31.93 42.09
54.21 52.98 52.04 51.31 50.85 49.97 49.39 47.91 46.95 46.27 45.70 44.40 40.66 42.39 44.85 39.58 38.05 37.85 35.94 35.34 36.38 34.42 33.36 33.92 33.48 33.97 37.57 31.46 29.48 29.01 28.27 33.61 28.69 29.61 28.67 30.98 31.64 29.26 30.89 28.88 32.58 39.57 40.17 41.62 29.71 34.65 43.54
53.49 52.25 51.52 50.93 50.69 49.75 49.36 48.44 47.36 46.52 45.76 45.19 41.01 43.22 43.80 40.62 37.39 37.69 38.14 35.48 34.92 35.35 32.82 34.15 33.21 33.46 33.82 28.68 28.22 29.75 29.16 31.25 30.20 33.51 32.67 31.51 30.43 30.76 31.74 28.62 25.70 40.89 39.27 34.59 40.46 43.81 44.09
52.71 51.74 50.86 50.46 50.23 49.61 49.11 47.94 47.16 46.40 45.98 45.81 40.67 43.03 46.40 42.22 38.51 40.51 40.89 41.18 39.99 38.98 36.87 35.29 33.40 31.75 34.25 31.76 31.58 30.80 29.37 31.50 30.06 28.22 36.91 30.34 34.56 32.78 34.81 34.26 40.35 41.86 42.27 44.17 44.73 44.00 44.68

GFSGBSN_sfc_wetblb_090.txt.gz
Wetbulb
59.50 58.77 57.59 56.93 56.81 56.57 56.00 55.58 55.38 55.04 54.54 54.44 54.84 55.15 54.96 54.49 54.16 55.22 54.82 55.03 54.08 53.99 53.72 54.08 55.04 54.44 50.64 43.35 42.34 51.25 53.22 52.87 52.41 51.59 50.18 51.35 48.60 47.94 44.23 47.29 46.85 45.25 46.55 51.28 52.10 52.83 52.53
60.28 59.47 58.22 57.07 56.62 56.36 56.05 55.63 54.88 54.92 54.76 54.30 53.94 54.34 54.59 54.65 53.35 54.12 54.80 54.78 54.66 53.82 53.48 53.69 54.55 54.01 47.67 37.50 50.63 52.11 51.12 50.50 50.94 52.05 51.92 52.43 49.56 49.78 47.19 47.42 46.25 47.26 46.63 48.93 51.24 52.14 51.95
61.08 60.03 58.88 57.50 56.55 56.17 55.84 55.47 55.23 54.60 54.87 54.76 54.34 53.31 53.73 54.12 53.07 53.47 54.53 54.76 54.64 53.67 54.10 53.67 54.29 50.99 44.19 41.51 51.16 52.22 51.83 50.32 51.48 53.05 50.92 53.23 52.80 50.10 48.84 45.61 50.77 48.21 43.51 47.55 49.39 50.42 50.45
62.03 60.78 59.46 58.08 56.80 56.15 55.59 55.25 55.11 54.29 54.58 54.79 54.26 53.41 53.17 53.71 53.00 53.11 54.04 54.68 54.09 53.81 53.88 54.12 54.12 49.91 40.54 50.59 51.93 51.18 52.31 51.05 53.72 55.31 53.72 53.77 53.60 50.67 48.81 49.85 48.08 45.12 45.43 39.61 45.88 49.00 50.43
62.88 61.42 59.89 58.54 57.13 56.15 55.61 55.19 55.05 54.56 54.22 54.59 54.20 53.08 52.41 52.83 52.85 52.75 53.59 54.37 53.32 53.97 53.97 53.53 50.01 46.79 39.63 53.59 47.29 50.81 51.97 49.85 52.63 53.17 52.44 52.97 52.13 47.62 48.36 41.94 39.29 41.97 36.84 38.48 41.88 48.56 48.34
63.78 62.10 60.24 58.82 57.28 56.20 55.66 55.19 54.88 54.51 53.90 53.80 53.27 52.52 51.98 52.49 52.50 52.56 53.77 53.69 52.77 52.66 52.73 51.02 49.63 42.88 45.02 42.46 47.62 50.08 52.23 52.48 49.72 49.07 47.15 46.10 45.83 42.25 41.83 40.45 32.43 35.58 36.58 39.67 39.59 45.14 46.43
63.58 62.97 60.61 59.00 57.50 56.21 55.62 55.11 54.72 54.37 53.85 53.76 53.30 52.39 52.11 52.80 52.50 52.46 52.09 50.07 45.95 45.08 46.95 41.72 42.18 42.04 43.83 48.04 50.95 48.73 51.13 50.50 49.10 46.01 39.16 41.96 39.66 36.73 38.77 41.71 41.38 41.34 38.97 38.34 42.12 46.97 44.72
63.25 63.32 61.03 59.37 57.77 56.31 55.49 55.02 54.60 54.13 53.82 53.25 52.54 51.69 51.82 52.65 52.18 52.64 50.61 45.86 45.12 47.13 40.68 46.03 45.45 45.07 47.09 48.42 43.43 46.93 51.74 44.80 44.29 38.37 41.16 39.42 36.94 41.64 44.18 43.79 42.39 39.70 37.23 37.04 41.83 45.52 44.31
63.06 63.09 61.56 59.61 57.99 56.43 55.46 54.96 54.49 53.90 53.69 52.89 52.17 51.45 51.78 52.24 51.69 51.15 48.38 46.76 51.17 50.52 42.07 42.99 45.23 43.83 44.74 47.11 42.91 43.96 48.26 46.14 41.84 39.13 39.69 35.95 40.40 44.38 43.25 41.77 40.39 39.89 37.58 37.66 38.50 42.17 41.65
62.73 62.74 61.87 59.70 58.11 56.39 55.38 54.68 54.16 53.66 53.55 52.63 51.81 51.22 51.56 51.24 48.76 49.62 46.73 49.74 51.38 50.92 36.09 37.68 41.02 43.89 46.31 46.02 40.96 48.37 49.69 46.24 42.13 38.57 39.76 39.52 43.16 41.51 41.19 40.13 40.92 36.14 43.00 41.43 40.12 37.06 30.91
62.57 62.48 61.34 59.79 58.32 56.51 55.45 54.48 53.94 53.55 53.41 52.63 51.66 50.99 51.04 50.97 49.76 47.24 48.47 51.31 51.46 47.62 25.03 40.23 42.20 49.91 47.15 42.44 42.91 44.30 50.47 46.83 39.30 39.03 40.61 37.34 39.48 39.10 38.72 39.84 42.00 39.06 43.31 41.45 40.60 36.52 34.23
62.28 62.12 61.11 59.54 58.01 56.52 55.50 54.29 53.70 53.38 53.20 52.42 51.70 51.15 51.50 49.76 51.01 50.08 51.81 51.20 47.74 34.76 21.21 35.22 42.40 41.36 40.90 41.70 41.80 44.66 45.00 47.94 46.47 40.91 40.72 39.38 44.04 42.31 40.95 43.80 43.13 44.95 40.78 39.82 37.98 35.26 26.56
58.51 61.73 60.78 59.46 57.72 56.20 55.19 54.04 53.46 53.16 52.95 51.94 51.48 51.62 51.32 52.15 47.49 52.04 51.48 46.49 34.66 29.50 37.14 34.85 37.59 40.33 39.31 38.36 39.07 40.22 39.82 38.37 36.11 31.80 30.78 36.41 38.45 42.54 43.81 39.38 42.07 41.02 36.11 28.05 25.44 26.58 23.09
57.47 60.85 60.79 59.23 57.28 55.85 54.61 53.81 53.42 53.03 52.52 51.57 52.04 52.15 50.99 52.00 52.19 51.71 48.84 40.03 28.80 35.15 34.05 40.32 40.04 39.76 35.93 39.14 39.02 38.42 37.43 34.65 39.20 38.33 33.99 27.30 29.25 38.34 42.84 39.93 36.55 36.77 35.58 29.22 22.11 21.90 24.67
57.05 57.38 60.36 58.71 56.84 55.38 54.38 53.69 53.24 52.72 51.77 52.19 53.05 51.16 50.14 51.25 52.64 51.30 43.01 33.74 33.35 35.77 38.71 38.19 39.19 35.22 36.57 39.20 38.37 37.81 36.01 35.21 38.09 39.39 34.11 31.75 30.29 40.71 42.40 43.22 41.52 35.67 30.81 38.18 31.80 30.95 23.64
57.11 56.74 59.68 58.28 56.59 55.41 54.51 53.58 53.08 52.48 51.77 53.40 49.77 49.26 48.26 52.16 52.15 47.86 40.06 35.51 37.61 41.85 41.53 40.41 34.04 37.76 33.61 36.66 35.81 35.91 35.89 39.21 37.75 41.80 42.58 38.11 30.66 38.59 40.53 42.67 41.93 39.44 40.34 30.81 29.05 18.30 19.78
54.54 56.72 59.29 57.94 56.32 55.23 54.33 53.69 52.90 52.41 52.17 53.50 49.32 45.57 48.87 52.30 50.58 43.36 32.13 36.94 40.40 43.45 42.98 39.09 37.35 36.07 36.19 35.45 36.65 34.88 35.29 39.52 40.81 40.62 41.91 39.96 36.13 35.02 38.15 36.01 34.93 36.68 35.96 36.55 34.14 29.60 20.17
54.23 56.72 58.88 57.28 56.00 54.65 54.01 53.68 52.73 52.33 52.25 51.18 48.71 41.75 49.34 50.84 41.34 43.14 39.07 39.62 41.45 41.64 43.69 41.28 40.94 38.77 36.49 36.96 34.87 34.22 35.06 37.44 44.06 42.80 37.05 39.80 36.01 30.73 33.74 40.02 41.58 39.84 36.97 36.80 30.75 27.82 28.36
55.26 56.84 58.57 56.90 55.23 54.11 53.74 53.37 52.59 52.20 53.00 48.58 45.13 43.21 47.85 48.01 38.48 39.05 39.43 38.98 40.98 41.03 41.00 40.52 38.99 40.51 40.00 36.29 32.01 34.93 36.28 43.22 43.12 41.40 38.44 39.27 32.85 28.83 31.82 35.63 39.43 36.71 37.39 37.92 36.59 34.44 26.64
54.21 54.84 58.45 56.23 54.59 53.66 53.32 52.82 52.63 52.60 53.53 49.39 44.70 37.27 40.07 43.03 41.71 37.45 36.86 36.73 37.21 42.16 41.07 41.63 39.87 40.47 37.64 35.24 36.92 33.72 35.25 39.61 41.91 40.90 44.63 41.38 35.30 30.34 26.68 30.55 35.04 32.28 35.72 37.73 35.82 31.06 29.21
54.05 54.00 57.75 55.69 54.45 53.51 52.87 52.45 52.40 52.60 53.17 48.57 42.29 40.15 41.27 34.96 36.32 37.52 36.82 37.17 35.36 35.44 40.17 41.02 37.83 37.91 35.29 31.55 32.20 31.26 32.72 33.57 37.10 40.17 39.47 36.61 30.56 34.14 34.82 36.28 36.02 35.18 34.80 36.36 34.00 34.82 29.97
53.44 53.67 55.20 55.49 54.22 53.46 52.48 52.13 52.07 52.07 52.80 43.24 39.57 37.73 36.97 35.93 37.20 36.15 35.34 35.02 35.59 37.04 36.88 34.69 34.39 35.36 34.29 30.45 31.11 27.30 30.43 30.71 30.73 35.75 36.06 35.56 31.68 32.00 32.21 36.13 35.45 32.86 35.53 36.49 36.14 36.31 35.78
52.96 52.56 55.85 55.26 54.18 53.05 52.07 51.64 51.62 51.46 49.87 41.87 41.62 41.82 40.61 36.33 34.95 33.39 34.51 35.86 36.48 36.31 36.51 37.17 35.00 32.27 30.81 32.45 34.24 34.52 33.96 33.42 33.10 32.54 31.02 31.48 30.85 30.13 27.85 33.56 32.11 28.89 32.71 34.72 36.15 37.82 37.03
52.38 52.64 55.54 54.68 53.48 52.31 51.72 51.36 51.20 51.26 49.64 45.14 42.35 41.91 38.56 32.44 33.51 34.35 35.91 36.11 35.36 35.53 33.09 35.77 35.35 32.09 34.65 37.65 36.43 35.28 33.76 33.29 33.03 33.16 34.97 29.47 27.64 29.42 29.67 31.01 21.92 33.14 36.67 38.44 36.92 38.21 39.09
51.02 52.05 55.16 54.23 52.83 52.05 51.59 51.25 50.81 51.26 50.31 43.95 43.18 42.04 39.66 33.91 34.63 34.85 34.57 34.08 34.48 34.44 32.61 33.73 35.30 35.80 36.58 34.20 29.75 28.57 30.79 29.26 32.08 33.26 32.73 33.83 29.90 27.69 27.71 26.15 30.79 31.84 33.44 34.65 33.79 32.98 38.60
51.20 51.57 53.44 53.30 51.92 51.49 51.24 50.94 50.67 51.33 49.34 43.33 41.64 42.12 42.67 35.93 32.48 36.97 33.85 33.75 30.39 30.32 31.58 33.86 36.86 36.98 35.77 32.85 29.57 22.68 21.12 24.77 29.01 30.56 34.03 33.39 32.80 30.15 29.65 24.64 23.11 30.76 34.64 38.07 36.99 26.77 38.92
50.77 53.80 54.28 52.84 51.59 51.18 50.87 50.50 50.30 50.85 47.92 44.31 41.07 42.56 42.28 35.65 35.12 35.59 32.91 32.38 34.12 31.40 28.91 31.55 32.16 32.26 35.53 30.61 26.55 26.81 24.83 30.63 24.98 27.33 27.44 29.87 30.31 25.36 28.04 26.84 30.46 35.58 36.88 38.65 25.26 29.82 40.78
50.79 51.11 53.19 52.05 51.29 50.97 50.50 49.97 49.71 49.92 47.74 45.52 41.04 43.17 42.11 36.75 35.23 38.00 38.19 33.64 32.86 32.22 28.87 31.28 30.25 31.65 30.71 27.73 27.16 27.96 26.94 28.08 26.08 29.25 29.64 28.77 27.32 27.67 29.08 25.00 24.54 36.91 36.83 30.90 36.35 39.10 40.24
49.96 52.01 52.36 51.09 50.78 50.32 49.73 49.21 48.71 47.83 47.25 47.18 39.80 42.93 44.88 39.13 35.51 40.16 39.63 39.95 38.86 37.65 34.40 32.77 30.62 30.47 31.51 27.88 27.37 25.35 24.14 24.66 25.68 21.32 32.71 27.42 31.89 30.30 33.67 31.90 37.54 38.05 37.50 39.84 40.50 39.09 40.30

GFSGBSN_sfc_wetblb_093.txt.gz
Wetbulb
62.02 61.02 60.07 58.97 57.89 57.15 56.77 56.27 56.11 55.56 55.62 54.92 54.81 54.26 54.64 54.83 54.48 53.85 54.81 55.22 55.28 54.79 54.03 53.90 54.25 54.99 50.68 41.72 40.38 50.38 53.39 53.16 52.62 52.62 50.20 49.29 46.50 46.01 43.02 45.20 47.44 45.71 46.75 50.35 51.51 52.41 52.04
63.59 62.33 60.78 59.91 58.38 57.27 56.87 56.23 55.86 55.45 55.44 55.47 54.87 54.38 53.44 54.21 53.66 53.48 53.81 54.17 55.13 54.95 54.21 54.40 54.42 54.60 46.63 35.54 49.78 51.36 51.01 50.64 50.61 50.66 50.60 50.51 48.38 49.62 44.91 45.49 45.06 46.94 47.25 46.63 49.60 50.54 51.69
64.24 63.61 61.93 60.74 59.12 57.70 56.76 56.22 55.53 55.48 54.98 55.30 55.25 54.31 53.46 53.73 53.51 53.25 53.66 54.45 55.00 54.65 54.36 54.56 54.72 51.36 43.11 40.43 50.07 51.15 52.08 49.93 50.87 51.84 50.30 52.65 52.47 49.08 45.97 44.53 49.28 47.74 43.43 45.27 46.37 49.53 49.52
64.38 64.07 63.05 61.67 59.84 58.17 56.77 56.01 55.50 55.43 55.17 54.93 55.12 54.18 53.33 52.89 53.11 53.04 53.28 54.19 54.81 54.27 54.42 54.91 54.69 48.86 38.01 49.85 48.71 51.15 51.38 50.66 53.61 54.75 53.50 53.13 52.76 49.73 46.26 48.09 47.36 44.65 43.86 38.37 45.47 48.31 49.22
64.17 64.01 63.69 62.48 60.62 58.67 57.15 56.13 55.52 55.22 55.00 54.61 54.39 53.56 52.82 52.44 52.84 52.70 53.06 53.96 54.60 53.94 54.93 54.84 47.81 44.02 37.95 52.70 46.80 49.43 50.24 50.92 51.78 52.35 50.81 52.62 51.04 45.56 45.67 39.72 39.15 41.51 36.80 37.35 40.87 47.40 47.43
63.81 63.78 63.44 62.95 61.22 59.15 57.52 56.40 55.49 55.15 54.74 54.47 54.26 53.52 52.43 52.78 53.10 52.73 53.12 54.00 54.20 52.54 51.56 51.70 48.77 38.75 43.53 42.14 47.18 48.78 51.78 52.27 48.97 47.93 45.47 44.46 43.56 39.40 38.54 36.10 30.10 34.95 36.47 38.22 37.42 43.46 45.71
61.43 62.41 63.24 62.90 61.42 59.39 57.85 56.51 55.52 55.04 54.46 54.14 53.79 52.91 52.12 52.19 52.93 52.60 51.08 46.04 42.69 41.01 43.85 40.10 41.05 41.31 43.42 47.77 50.68 48.20 50.32 50.19 48.30 43.68 36.09 40.19 36.24 32.38 35.96 38.61 38.96 39.44 38.24 37.31 41.05 45.42 42.88
58.16 60.80 62.19 62.67 61.75 59.81 58.00 56.64 55.53 54.90 54.27 53.95 53.59 52.48 51.70 52.18 52.61 52.46 49.50 42.58 43.00 44.36 37.90 45.14 45.32 44.86 47.21 48.22 43.07 46.55 50.62 44.17 42.35 36.46 39.86 36.48 32.96 39.07 42.43 41.27 40.02 38.39 36.08 36.49 40.67 45.80 43.74
56.71 57.46 60.02 62.30 61.92 60.22 58.17 56.68 55.63 54.86 54.14 53.66 53.01 52.29 51.50 52.16 51.95 49.79 45.83 44.53 48.23 47.32 38.60 42.71 44.91 43.62 44.45 46.16 41.87 42.98 47.39 44.65 39.73 38.17 39.25 32.66 38.30 43.22 41.72 39.77 38.75 36.70 35.22 36.31 37.59 42.44 43.22
55.13 56.05 56.49 59.05 61.95 60.26 58.08 57.03 55.45 54.72 53.96 53.35 52.67 51.87 51.50 51.45 48.08 46.79 44.02 48.19 48.28 46.88 26.48 35.24 41.29 43.38 46.15 45.75 39.95 47.50 48.96 45.14 39.79 36.87 38.35 36.80 42.32 40.41 39.29 38.64 39.42 34.16 41.46 40.92 39.38 36.84 30.93
53.79 55.57 56.24 57.73 61.55 60.04 58.02 56.63 55.37 54.51 53.85 53.29 52.66 51.70 51.46 51.28 47.34 45.34 46.73 48.56 47.64 43.33 13.29 37.11 41.85 49.40 46.98 41.81 41.79 43.80 49.25 45.94 37.69 38.48 37.68 33.37 37.82 37.69 37.34 38.82 40.65 37.85 42.53 40.21 39.70 35.74 32.17
52.85 53.45 55.53 55.53 57.94 59.65 58.14 56.68 55.21 54.31 53.74 53.22 52.45 51.69 51.50 49.24 48.03 47.72 49.18 47.24 44.04 27.14 12.72 33.48 42.50 41.37 40.79 40.89 41.20 44.43 44.19 46.36 44.82 39.21 38.78 37.47 42.50 40.47 39.05 42.27 42.18 42.74 40.25 38.32 37.77 34.08 23.64
51.81 53.38 53.59 55.21 56.28 59.25 57.62 56.09 55.11 54.10 53.54 53.06 52.10 51.78 50.69 51.13 46.08 48.95 48.15 42.23 27.74 17.47 33.68 30.72 36.07 39.51 38.20 37.08 38.10 39.51 39.05 36.46 33.89 29.60 30.98 33.06 35.45 41.08 42.22 37.34 41.00 39.31 35.07 26.91 21.00 20.74 20.90
52.01 52.69 52.32 54.35 54.15 59.18 57.26 55.57 54.71 53.98 53.44 52.64 52.07 51.91 51.52 50.94 49.43 48.64 44.99 32.94 18.06 31.74 29.36 37.75 38.77 38.65 34.31 37.82 37.35 37.40 35.12 34.91 38.28 36.29 31.71 22.34 19.96 36.55 41.38 38.10 35.10 35.95 34.14 25.56 20.50 20.61 22.21
50.88 52.37 52.16 53.54 53.88 55.39 56.97 55.25 54.40 54.04 53.48 52.17 52.64 48.78 47.18 49.33 50.62 47.98 39.73 24.22 24.87 31.05 35.61 36.89 37.80 32.92 33.45 37.37 36.33 36.18 34.58 32.36 36.14 38.04 32.99 26.94 27.68 39.70 41.27 41.67 39.60 34.14 29.75 35.91 28.61 27.92 20.50
50.69 51.91 51.51 52.47 52.83 55.20 56.67 55.39 54.52 54.03 52.69 53.23 47.63 46.25 46.55 50.88 49.84 45.55 36.97 31.28 32.88 39.97 40.31 38.82 31.02 34.58 29.75 33.39 33.44 33.03 32.47 36.27 35.74 38.35 39.31 35.44 26.76 36.79 39.00 41.23 41.12 38.13 39.23 29.76 30.35 23.69 19.76
50.65 51.28 51.09 51.90 52.10 55.46 56.21 55.05 54.64 53.32 52.65 53.52 46.94 43.10 47.86 50.80 47.84 42.02 24.15 32.54 38.09 41.71 41.28 37.46 34.45 33.30 32.25 31.02 33.94 31.36 33.17 36.93 38.54 38.18 40.24 38.94 35.26 34.11 38.03 35.10 34.01 35.79 34.25 34.72 32.30 28.30 20.25
49.39 51.05 51.14 51.59 52.47 54.84 55.69 54.73 54.38 53.54 53.55 50.86 45.41 38.16 48.74 48.38 39.23 38.07 30.68 36.79 41.14 39.91 41.05 39.36 38.00 36.27 33.56 33.83 31.36 29.37 32.77 35.98 41.07 40.72 36.08 39.14 36.19 30.65 34.79 39.73 40.80 39.12 36.17 35.85 25.14 25.61 25.67
49.40 50.43 51.42 52.43 55.08 56.02 54.95 54.32 54.14 53.60 53.37 46.75 42.72 41.57 47.55 46.76 34.51 32.79 36.55 37.27 39.27 39.31 38.78 38.70 37.30 38.60 36.95 33.03 29.52 31.74 32.45 40.04 40.18 39.68 37.20 38.80 33.25 26.81 30.28 34.88 38.45 35.50 37.53 37.62 36.11 31.66 20.94
49.48 50.60 50.90 53.89 54.54 55.70 54.31 53.81 53.53 53.51 53.51 48.03 41.29 34.90 36.76 42.36 39.54 34.85 34.38 34.10 35.41 39.72 38.80 40.07 37.44 37.57 34.81 32.69 34.10 30.73 31.38 36.97 37.80 38.42 42.86 40.12 32.11 30.15 26.15 30.29 34.90 33.34 34.68 36.91 35.12 29.51 25.44
48.79 50.68 51.71 53.55 54.61 55.32 53.91 53.27 53.11 53.11 53.43 46.48 40.54 36.53 36.38 32.37 33.99 34.50 33.45 34.77 34.06 34.21 38.45 38.21 35.37 35.92 31.81 28.50 29.54 28.95 29.29 30.38 34.95 38.44 37.41 36.08 29.29 33.29 33.24 34.81 35.36 35.12 34.70 35.82 33.14 33.36 28.37
50.51 51.06 51.47 53.99 54.05 55.27 53.70 52.80 52.77 52.72 53.08 42.34 36.80 34.51 34.41 32.76 34.82 33.43 34.20 30.95 33.03 34.92 34.83 32.14 32.58 31.90 30.66 26.91 27.45 24.63 27.60 26.79 28.02 32.04 33.06 34.44 29.63 31.54 28.52 34.32 34.96 32.09 35.73 35.89 36.21 35.88 35.06
49.91 49.98 51.36 53.46 53.20 54.86 53.24 52.44 52.38 52.60 50.04 41.33 40.05 39.16 35.77 32.94 30.49 29.52 31.05 32.48 34.45 34.19 33.80 34.81 32.28 29.12 27.95 30.35 31.60 31.76 31.16 30.75 28.57 27.93 28.60 27.63 28.11 22.25 25.06 33.82 31.91 28.21 31.89 34.57 35.24 37.13 36.54
49.30 50.67 51.28 52.12 53.27 54.47 52.77 52.23 52.18 52.65 50.01 42.45 39.96 38.97 34.27 27.72 29.28 31.26 34.00 33.50 33.02 32.87 30.85 32.61 32.70 29.07 31.75 34.41 33.39 32.18 30.20 30.38 29.43 30.89 32.15 25.79 24.98 23.46 23.24 30.72 21.12 31.81 37.21 38.10 35.95 37.22 38.82
49.22 49.42 51.38 51.77 53.39 54.09 52.53 52.05 52.14 52.63 51.44 41.36 40.89 40.25 36.30 28.53 29.93 31.21 32.27 31.73 31.58 31.34 29.93 31.44 32.98 32.50 33.11 31.64 27.41 26.21 25.01 26.31 30.36 32.11 31.26 29.83 25.80 21.62 23.37 26.73 29.03 31.78 33.76 34.58 32.79 33.40 38.03
48.55 49.12 51.47 52.22 54.42 53.21 52.37 51.91 51.81 52.05 50.12 41.25 38.89 40.89 39.45 31.35 28.27 32.64 30.30 30.23 26.42 26.15 27.79 31.52 34.09 34.33 33.17 30.50 27.24 19.36 17.78 22.64 24.14 30.82 31.36 31.09 30.15 27.17 26.38 23.79 22.31 30.36 33.57 37.20 35.88 27.23 38.49
48.49 49.05 50.91 51.08 52.06 52.62 51.74 51.36 51.56 51.47 50.73 42.01 39.07 40.79 37.57 30.56 31.30 32.01 28.69 28.51 30.58 27.54 26.13 28.52 29.68 29.78 32.95 26.53 22.77 20.21 22.19 27.48 23.07 26.08 27.02 28.37 28.98 24.57 25.59 25.70 28.22 35.99 35.97 37.95 25.32 26.75 39.05
47.92 48.65 50.59 50.20 53.33 52.11 51.11 51.12 51.27 51.34 49.54 42.86 39.25 40.29 38.60 31.15 31.89 35.14 35.35 30.34 30.12 29.29 26.23 29.00 28.76 29.79 28.34 22.69 19.25 19.13 21.43 24.96 22.99 26.92 28.42 27.75 26.15 26.14 27.40 23.21 21.70 37.08 35.46 29.97 34.98 37.59 38.40
47.58 48.83 50.38 51.80 52.05 51.26 51.02 50.96 51.28 50.95 48.38 44.57 37.19 40.90 41.38 34.72 32.91 37.98 37.15 37.36 36.33 34.64 31.41 30.40 28.73 28.34 29.14 25.57 21.36 19.67 21.21 18.81 21.12 17.46 29.88 24.01 30.18 30.06 32.90 30.66 37.06 38.51 37.25 37.85 37.70 37.59 38.87

GFSGBSN_sfc_wetblb_096.txt.gz
Wetbulb
64.30 64.17 63.51 62.10 60.95 59.35 57.87 57.05 56.51 56.01 55.74 55.59 55.79 55.09 54.52 54.13 54.88 53.91 53.92 54.17 54.63 55.35 55.01 54.63 54.81 55.32 50.21 40.38 39.98 50.37 54.98 52.45 52.46 53.04 49.37 47.56 46.98 46.40 42.02 45.75 46.49 46.09 47.97 49.06 50.99 51.50 51.46
64.47 64.27 63.99 63.54 61.71 60.42 58.85 57.56 56.62 56.05 55.66 55.30 55.37 55.42 54.21 53.83 54.42 53.68 53.74 54.15 54.93 55.23 54.95 54.72 54.94 54.88 44.91 34.86 49.12 51.14 50.98 50.18 50.34 50.99 49.22 47.73 48.00 48.39 45.14 46.08 44.29 47.11 47.27 46.86 49.24 50.43 51.81
63.47 64.30 64.09 63.74 62.93 61.44 59.52 58.01 56.85 55.88 55.67 55.26 55.06 55.19 54.10 53.53 53.34 53.60 53.85 54.18 54.68 55.22 55.04 54.99 54.91 51.31 43.59 39.79 49.36 50.28 51.94 49.48 50.68 52.87 49.22 51.56 50.60 47.80 45.47 44.26 48.88 47.22 43.62 45.19 46.91 49.09 49.06
61.44 62.22 62.99 63.93 63.52 62.43 60.00 58.29 56.97 56.11 55.70 55.38 54.69 54.35 53.61 53.21 53.06 53.35 53.63 54.08 54.30 54.81 54.87 55.22 55.28 47.99 37.24 48.74 50.42 50.67 50.30 52.04 52.81 54.76 53.47 53.50 52.81 48.66 45.68 46.95 46.68 43.03 42.23 37.55 45.05 47.88 49.04
59.65 60.10 61.09 61.30 63.34 63.32 61.01 58.64 57.30 56.31 55.70 55.27 54.59 53.97 53.45 52.83 53.22 53.28 53.35 53.91 54.43 54.80 54.96 54.82 46.32 43.05 37.37 51.74 46.53 48.52 49.15 49.71 50.51 50.87 50.12 52.90 50.92 45.47 45.79 40.26 38.76 41.09 34.80 37.06 40.63 47.34 47.35
56.99 57.74 58.64 59.48 60.75 63.01 62.22 59.42 57.74 56.60 55.84 55.15 54.44 53.65 52.46 52.47 52.81 53.21 53.26 53.89 53.95 53.07 50.72 51.34 48.31 37.24 41.87 41.58 46.97 49.13 50.33 50.73 47.97 46.95 44.86 43.72 41.95 38.39 38.10 35.17 31.03 33.80 35.02 36.25 37.65 43.50 45.91
55.06 56.01 56.54 57.97 58.22 60.10 62.38 60.24 58.13 56.95 55.88 55.07 54.20 53.25 51.71 51.92 52.78 53.01 50.57 45.52 42.16 39.88 42.78 38.63 39.52 40.22 42.57 46.72 49.80 47.46 49.76 49.05 46.81 42.51 35.26 39.99 34.51 31.86 34.17 36.62 36.98 38.31 38.30 37.71 39.97 44.14 43.16
52.93 53.68 54.33 55.29 57.18 57.56 60.20 60.48 58.56 56.93 55.82 54.88 54.23 52.90 51.46 51.57 52.69 52.51 48.79 42.03 42.27 43.14 36.48 43.87 43.96 43.81 45.90 47.05 42.11 45.17 50.02 43.01 40.80 35.60 38.71 34.56 30.39 38.78 41.74 40.86 38.01 37.05 35.79 34.64 40.04 43.78 41.58
52.27 52.35 52.75 54.03 55.78 56.94 57.81 60.63 58.87 57.01 55.81 54.78 53.94 52.56 51.18 51.49 52.19 49.14 45.13 44.23 47.18 46.24 36.79 41.30 43.68 42.49 43.11 45.42 40.83 42.01 46.52 43.84 38.92 37.24 36.60 30.86 36.33 42.20 40.69 38.63 36.68 34.88 33.16 35.11 37.83 42.48 42.92
51.62 51.57 51.90 52.87 54.07 55.42 56.04 57.90 58.58 56.85 56.03 54.94 53.79 52.38 51.34 51.46 47.51 46.44 43.34 47.47 47.25 45.67 23.61 33.34 40.42 42.71 45.32 44.59 38.56 46.35 48.10 44.08 38.49 35.92 36.97 35.51 40.72 39.53 38.04 37.25 37.51 32.34 39.86 39.79 39.65 38.17 33.03
50.95 50.90 51.15 51.92 52.99 53.75 56.00 56.06 58.32 56.68 55.48 54.77 53.59 52.42 51.62 51.39 46.47 44.63 46.51 47.70 46.51 41.13 12.42 34.95 40.67 48.26 46.15 40.57 40.66 42.50 48.05 44.86 36.77 37.47 35.77 32.32 36.54 36.91 36.11 37.43 39.17 35.79 40.86 39.53 39.08 34.59 33.04
50.41 50.50 50.30 50.67 51.68 53.08 54.54 55.31 58.47 56.61 55.36 54.59 53.41 52.41 51.90 49.42 47.54 48.04 48.58 46.62 42.95 24.44 12.22 32.50 41.52 40.72 39.78 39.92 40.01 43.21 42.78 45.02 43.59 38.04 37.63 35.92 40.97 39.18 38.21 41.08 40.90 41.39 38.91 38.07 38.31 34.26 27.63
50.29 50.09 50.12 49.94 51.56 52.42 52.83 54.49 56.95 56.36 54.82 54.37 53.22 52.32 50.42 50.87 45.32 48.76 47.67 41.57 24.80 14.23 31.86 29.69 34.88 38.60 36.90 35.71 37.08 38.45 37.73 34.83 31.29 23.87 22.29 31.07 34.01 39.76 41.21 36.12 39.67 40.07 36.68 28.43 26.53 26.80 25.97
50.20 49.70 49.52 49.90 50.28 51.07 52.28 53.49 56.24 55.81 54.49 54.06 52.85 52.25 51.06 50.85 49.08 48.75 44.52 31.55 13.59 28.96 28.27 36.03 37.15 37.16 33.07 36.62 35.87 36.45 33.67 31.99 36.66 34.93 29.32 21.49 19.59 35.33 40.18 36.72 34.03 35.12 34.81 26.84 20.19 21.75 23.55
50.01 49.53 49.73 49.57 49.50 50.53 51.84 53.13 54.05 55.05 54.24 53.38 52.74 48.30 46.91 48.73 49.65 47.88 39.23 21.51 21.70 28.55 34.54 35.86 36.48 31.49 31.51 36.10 34.72 34.12 32.44 30.75 34.33 36.51 30.93 26.02 26.42 37.12 39.68 40.39 38.51 33.56 30.98 36.25 27.65 25.35 20.75
50.24 50.05 50.07 49.40 49.57 50.16 51.30 52.83 53.56 54.44 53.96 53.10 45.89 45.55 45.96 50.33 49.28 45.37 36.56 29.18 31.00 38.58 38.76 37.60 29.42 32.96 28.12 32.10 31.65 31.81 31.32 34.70 34.26 36.93 37.97 33.52 29.58 34.96 38.78 41.37 40.41 36.27 38.64 31.21 30.17 23.23 19.97
49.81 49.43 49.46 49.27 50.44 51.19 52.03 52.23 52.79 53.95 53.10 53.17 45.99 41.92 47.31 50.11 47.38 40.95 28.78 28.11 36.36 40.39 40.19 36.01 32.97 31.68 30.93 29.98 32.16 29.78 31.38 35.18 37.29 36.33 37.73 35.89 33.76 30.66 37.14 34.98 33.10 35.46 32.70 33.62 32.37 29.34 21.46
49.31 49.10 49.13 49.22 50.39 50.82 51.89 52.07 52.76 54.00 53.49 50.81 44.52 39.57 48.33 47.93 38.67 39.27 33.46 35.36 40.66 38.67 39.80 37.99 36.67 34.88 32.44 31.89 29.75 29.22 30.81 33.98 39.94 39.02 33.81 36.80 35.71 30.19 31.76 39.27 40.25 37.91 35.26 35.47 27.59 24.40 24.67
49.10 48.75 48.79 48.88 49.96 51.04 51.61 51.66 54.14 53.51 53.58 46.56 41.26 41.72 47.85 45.96 33.00 34.56 36.65 36.00 37.98 37.69 37.43 37.19 35.85 37.30 36.03 31.98 28.17 30.49 30.71 37.13 38.78 37.28 35.23 38.44 32.53 27.04 29.08 34.16 37.85 35.69 36.21 36.28 33.52 30.85 21.85
48.71 48.39 48.68 48.86 49.79 51.45 51.30 53.62 54.14 52.89 54.00 47.19 40.81 34.79 38.54 42.57 40.85 35.82 33.80 33.15 33.99 38.76 38.09 38.91 36.49 36.56 33.45 31.44 32.90 29.85 28.91 34.02 36.59 37.13 41.39 39.46 31.93 29.31 23.58 28.15 33.96 31.93 35.52 36.61 34.30 28.32 25.36
48.17 48.38 48.23 49.17 50.49 51.81 52.40 54.22 53.13 52.53 53.66 46.13 39.68 35.14 37.61 33.31 35.19 34.85 33.93 34.00 33.21 33.27 36.95 37.48 33.86 32.90 30.95 26.38 27.36 27.31 27.79 29.07 33.68 36.21 35.94 35.27 25.13 30.29 32.36 33.81 34.17 33.41 34.27 35.26 33.18 32.80 27.01
48.12 48.17 48.57 50.96 51.22 51.58 53.97 54.33 52.70 53.11 53.06 42.71 38.00 35.08 35.66 33.82 35.49 34.45 33.46 31.46 31.94 33.94 34.82 32.28 31.65 30.81 29.22 26.76 27.97 23.91 26.15 25.45 25.95 30.40 31.12 32.93 27.50 22.27 24.39 31.58 32.86 31.32 34.71 35.84 35.68 35.59 34.53
48.19 48.45 50.01 50.39 51.92 51.83 53.32 53.50 52.04 52.01 51.12 41.79 39.11 38.91 37.03 33.33 31.43 30.24 30.64 31.18 33.58 33.85 32.87 33.72 31.71 28.43 26.42 28.91 30.60 30.56 30.46 29.60 26.71 26.15 26.66 25.31 23.00 16.28 17.13 28.62 31.26 25.68 30.36 33.89 34.36 36.36 36.17
48.71 49.08 49.50 50.02 50.04 52.09 53.13 53.42 52.35 52.65 51.13 42.71 39.94 38.81 33.69 29.60 29.84 30.82 32.73 32.88 32.33 31.76 29.87 31.32 31.30 28.22 30.66 32.40 31.28 29.81 28.23 28.71 28.08 31.67 30.83 24.41 21.71 22.25 16.08 28.60 21.31 32.25 35.74 37.12 35.86 36.78 38.07
48.86 49.18 49.30 49.51 51.94 52.24 52.72 53.14 51.91 52.76 51.94 40.87 40.25 39.39 34.93 28.47 29.97 30.81 31.35 30.21 30.72 30.59 29.73 30.69 31.41 31.46 32.19 30.26 27.12 25.77 23.86 25.00 30.69 31.02 28.98 27.54 24.20 19.56 20.78 23.61 29.06 30.95 32.21 34.04 32.74 33.15 36.78
48.69 48.88 48.72 49.48 50.32 51.22 53.78 52.86 51.47 52.51 49.14 40.57 39.17 41.82 38.10 31.62 28.26 32.18 29.08 28.89 25.78 25.05 27.21 30.19 32.67 32.85 32.92 29.62 26.85 18.62 17.23 21.24 23.97 28.01 30.03 29.77 30.83 26.04 24.57 22.78 20.97 28.87 33.62 35.50 35.42 27.32 37.86
48.37 48.27 48.43 49.08 49.54 51.35 53.25 52.30 51.43 52.28 49.13 41.45 38.84 41.42 37.50 31.59 31.38 31.08 28.42 28.33 29.18 26.57 25.56 27.43 28.38 28.71 31.83 26.06 22.50 19.77 21.87 25.40 22.13 25.85 24.06 24.97 24.25 19.26 18.70 18.10 26.98 33.65 34.89 35.98 23.43 25.38 38.25
48.08 47.94 48.26 48.57 49.50 50.96 53.03 52.14 51.16 51.98 49.22 42.75 39.01 41.11 38.08 32.02 32.23 34.69 34.28 29.68 29.24 27.96 25.69 28.19 27.57 28.16 27.61 22.01 18.78 18.87 20.34 23.22 21.41 25.46 26.32 26.42 22.71 21.82 25.77 20.94 20.81 36.27 35.03 28.93 32.03 35.02 37.89
48.06 47.89 47.74 47.61 50.06 50.55 52.77 51.74 50.89 51.94 48.49 44.37 38.39 41.22 40.08 34.47 33.47 37.36 36.40 35.61 34.68 33.22 30.32 29.17 27.30 26.92 28.67 24.66 19.57 19.09 20.99 15.48 19.35 16.19 26.83 27.12 28.74 28.45 29.06 26.29 35.69 37.06 35.90 36.48 37.63 36.75 36.75

GFSGBSN_sfc_wetblb_099.txt.gz
Wetbulb
62.82 63.39 63.71 64.05 63.98 63.34 61.63 59.67 58.33 57.65 57.09 56.79 56.26 56.06 55.67 54.38 54.01 54.90 54.21 54.43 54.80 55.28 55.15 55.04 55.38 55.77 48.63 39.24 40.12 50.10 55.60 52.52 51.34 53.08 49.10 47.83 46.85 45.37 42.75 43.54 43.31 41.00 45.04 48.96 51.02 51.32 51.10
61.65 61.65 62.50 62.80 63.43 63.75 62.80 61.02 59.01 57.94 57.02 56.64 56.20 55.88 55.42 54.02 53.41 53.79 54.05 54.39 54.73 55.11 55.30 55.05 55.48 54.75 42.83 34.90 49.19 50.25 50.42 50.44 49.94 50.27 49.03 48.41 46.03 47.68 45.28 43.91 40.43 44.61 47.54 46.70 49.61 49.49 50.53
58.96 59.52 60.38 60.63 61.75 61.75 63.24 62.08 59.76 58.10 57.28 56.41 56.38 55.64 55.22 53.89 53.56 53.56 54.09 54.52 54.67 54.83 55.15 55.30 55.43 50.63 41.68 39.24 49.33 49.95 51.38 49.89 50.19 51.22 48.14 50.43 50.49 47.45 46.85 42.51 47.08 47.14 41.33 44.39 46.17 48.44 47.78
56.67 57.54 58.25 58.91 59.63 60.29 60.86 62.45 60.15 58.44 57.48 56.49 56.23 55.51 54.71 53.70 53.25 53.31 53.88 54.26 54.38 54.59 55.04 55.31 55.44 46.68 36.82 48.07 50.36 50.11 50.40 52.42 52.98 53.73 52.90 53.32 52.39 48.09 45.70 47.98 46.62 42.88 40.46 35.61 44.64 47.47 47.83
54.65 55.14 55.92 56.90 57.34 58.31 59.37 60.49 60.58 58.62 57.74 56.79 56.03 55.48 54.74 53.78 53.09 53.29 53.76 54.08 54.41 54.78 55.37 55.19 45.93 41.27 36.82 50.85 46.91 48.51 47.99 47.93 50.49 49.95 48.91 52.61 50.26 44.12 44.39 41.07 37.98 40.33 34.59 34.80 38.84 47.02 45.80
53.67 53.58 53.64 54.29 54.83 56.02 58.04 58.90 60.23 59.13 58.00 56.91 55.91 55.17 54.37 52.99 52.77 53.08 53.38 53.89 53.87 52.45 49.39 50.47 47.56 35.78 41.46 41.01 46.11 48.11 49.70 49.85 47.48 45.66 43.68 43.00 40.32 39.77 37.52 35.77 29.59 32.65 34.69 37.20 36.59 43.20 43.98
53.09 53.13 53.02 52.95 53.34 54.25 56.34 57.53 58.54 60.43 58.19 56.91 55.86 54.90 54.02 52.39 52.32 52.92 50.28 44.95 42.10 39.17 41.74 37.44 38.49 38.82 41.65 46.01 48.56 46.46 49.25 47.87 45.51 41.59 34.97 38.84 34.30 34.66 33.19 36.29 36.24 37.59 37.40 36.76 39.68 43.85 42.66
52.48 52.63 52.53 52.35 52.27 52.94 54.42 55.24 56.82 57.94 58.65 56.95 55.78 55.01 53.60 52.19 52.44 52.06 48.26 41.38 41.96 42.01 35.44 42.89 42.85 42.75 44.85 46.02 41.25 44.29 49.16 41.69 40.31 33.99 37.82 33.23 30.23 37.84 40.57 39.77 37.85 36.08 35.21 33.69 39.86 43.81 41.93
52.10 51.94 51.92 51.74 51.85 51.91 52.40 54.16 55.63 57.06 59.19 56.91 55.67 54.70 53.08 51.78 51.96 48.86 44.71 43.78 46.62 45.63 35.72 40.26 42.56 41.33 42.06 44.46 39.80 40.78 45.60 42.61 38.30 36.03 35.01 28.60 35.01 41.14 39.58 37.38 35.91 33.99 31.33 32.42 36.43 41.29 42.16
52.35 52.00 51.72 51.50 51.35 51.08 51.64 52.17 52.80 55.95 58.15 56.70 55.11 54.14 52.61 51.89 47.71 46.66 42.98 47.00 46.67 43.88 22.35 31.91 39.39 41.71 44.29 43.60 37.10 45.19 47.04 42.80 37.33 34.61 35.85 34.15 39.47 38.33 36.97 35.97 37.36 31.43 38.47 37.77 39.55 36.90 31.09
51.95 51.87 51.81 51.41 51.10 50.85 50.66 51.54 52.21 54.65 55.99 56.07 54.81 53.97 52.54 52.24 46.28 43.77 46.05 47.11 46.14 40.30 11.56 33.55 39.36 47.02 44.90 39.35 39.21 41.35 46.93 43.64 35.63 36.34 34.41 31.06 35.32 35.32 35.06 36.27 37.94 35.19 40.27 38.69 39.30 34.79 32.62
51.94 51.84 51.47 51.42 50.80 50.43 50.50 50.81 51.75 52.82 55.31 55.76 54.36 53.78 52.32 49.38 47.91 47.78 47.96 46.62 42.49 24.80 12.62 31.22 40.19 39.54 38.48 39.11 38.78 41.96 41.79 43.85 42.35 36.78 36.25 34.35 39.64 38.15 37.02 39.65 39.51 39.77 36.91 36.99 37.22 34.62 28.76
52.22 52.16 52.47 51.43 50.85 50.10 50.21 50.22 51.94 53.03 54.08 55.43 52.86 53.43 51.04 49.54 44.99 48.35 47.31 41.40 27.47 15.91 31.04 29.39 33.87 37.98 36.01 34.66 35.85 37.32 36.21 33.63 29.90 23.02 19.76 29.77 32.75 38.19 40.09 34.95 38.10 37.91 32.80 28.59 25.94 27.60 22.59
52.44 52.07 52.10 51.92 50.89 49.98 49.62 50.02 50.83 52.58 53.88 54.23 53.83 52.62 50.86 50.53 48.77 48.44 44.25 34.64 20.80 27.21 27.70 34.58 35.86 36.09 32.00 35.17 34.55 35.02 32.58 30.06 34.51 31.77 24.81 22.20 19.37 33.82 38.81 35.65 33.08 33.68 34.24 25.10 19.78 21.76 24.25
51.99 51.79 51.78 51.57 50.88 49.92 49.53 49.74 50.25 52.13 54.00 52.95 52.80 48.46 46.72 48.10 49.22 47.45 39.73 26.66 25.45 27.04 32.97 34.27 35.44 29.77 30.22 34.59 33.34 32.84 31.34 29.46 32.91 34.86 26.60 25.76 25.89 35.01 38.19 39.36 37.94 33.58 27.89 35.15 30.10 23.29 19.87
51.70 51.78 51.37 50.85 50.73 50.00 49.25 49.64 50.03 52.40 53.17 52.65 47.35 45.82 45.33 49.37 49.44 44.90 35.52 32.42 29.73 36.85 37.25 36.02 28.27 31.48 27.06 30.15 30.22 29.99 29.37 33.21 33.11 36.17 35.66 30.91 24.27 33.41 37.12 40.60 39.73 35.64 37.13 29.57 29.61 22.65 19.39
51.39 51.15 50.13 50.57 50.27 50.53 49.46 49.23 49.96 51.45 52.88 52.36 46.55 42.16 47.25 49.29 47.28 40.09 29.86 30.94 34.74 39.64 38.95 34.96 31.38 30.59 29.88 29.23 30.86 28.43 30.18 33.74 37.05 35.48 36.53 33.96 31.86 29.33 36.33 33.68 32.05 34.19 30.99 32.84 31.98 30.09 19.74
50.91 50.51 49.62 49.95 49.74 49.95 48.76 49.17 50.24 51.63 52.51 50.16 45.07 38.57 48.11 47.59 37.42 37.70 33.44 34.18 40.23 37.56 38.35 36.84 35.77 33.49 31.20 31.16 28.87 27.47 30.65 31.74 37.31 37.31 32.13 34.57 32.52 27.60 28.94 37.34 39.94 38.19 35.73 34.87 28.44 24.45 22.79
50.49 50.31 48.97 48.92 49.08 48.52 48.72 49.12 49.94 51.66 52.10 47.54 42.27 41.51 48.01 45.48 32.96 34.63 37.78 36.79 37.63 36.87 36.07 35.63 34.33 35.64 34.55 31.02 26.84 29.43 30.56 35.35 36.12 35.19 33.25 35.82 30.66 23.83 23.82 34.12 37.39 35.84 35.93 36.50 33.54 30.88 22.54
50.09 49.44 48.99 48.63 48.39 48.53 48.79 49.76 50.16 52.00 52.78 48.36 40.78 35.43 40.21 41.97 41.01 36.48 34.61 32.66 32.87 37.98 37.12 37.76 35.68 35.58 32.61 30.12 31.18 28.24 28.23 32.99 35.53 35.64 40.67 37.62 30.61 26.27 19.90 27.41 32.15 30.93 34.66 36.05 34.07 27.62 24.99
49.00 48.66 48.42 48.37 48.29 48.36 48.94 49.62 50.51 51.81 52.70 47.96 40.68 35.48 39.12 33.81 35.74 36.80 34.91 34.00 32.62 32.31 35.77 36.76 32.81 32.85 31.20 26.28 26.27 26.21 26.51 27.50 31.96 35.39 33.16 34.94 26.24 29.37 30.15 31.93 33.19 31.75 33.16 35.08 32.35 32.73 26.61
48.55 48.54 48.21 47.75 48.13 48.74 50.97 51.50 52.07 52.13 51.99 45.38 37.30 34.55 36.64 35.53 36.99 35.47 34.73 30.91 32.73 33.46 33.65 31.98 30.13 29.82 29.33 27.20 27.22 23.68 25.49 24.47 23.73 29.06 28.83 30.70 17.68 26.51 18.03 29.08 30.62 30.06 32.21 34.11 35.05 35.03 34.49
48.32 48.24 48.79 49.65 49.81 50.27 50.70 50.79 52.16 52.14 51.71 44.26 40.37 38.56 37.17 34.20 33.80 33.26 31.86 30.75 32.31 32.70 31.89 32.69 32.27 27.71 25.67 26.98 29.56 29.36 28.74 28.14 26.17 24.67 25.27 24.62 23.66 22.32 14.25 24.22 24.74 21.15 29.36 31.63 33.69 35.65 35.74
47.87 48.34 48.96 49.61 49.68 49.63 51.20 52.60 52.64 51.55 51.67 43.87 40.42 38.41 34.28 29.45 30.88 32.37 32.80 33.22 31.89 30.35 28.85 29.85 30.35 26.97 29.09 31.88 31.27 29.92 28.31 27.37 26.59 28.21 29.18 23.27 21.32 25.22 15.21 25.81 17.12 29.20 35.32 34.42 33.18 35.70 36.94
47.63 48.26 49.04 49.45 49.23 49.77 50.87 52.05 51.90 51.81 51.95 41.12 40.08 38.35 34.28 28.88 30.68 31.63 31.87 30.34 29.99 30.24 28.70 29.63 30.39 30.18 31.74 30.27 26.87 25.62 22.53 24.39 28.89 29.84 26.06 25.62 22.96 19.39 19.33 20.67 24.28 29.70 30.99 31.95 32.49 32.19 35.39
47.70 47.97 48.80 49.15 48.84 50.14 50.21 52.81 52.29 51.70 51.81 41.30 38.74 40.51 36.86 31.46 28.70 32.77 29.65 28.05 26.27 25.41 26.75 28.84 31.73 31.76 31.84 29.09 26.67 18.62 17.53 20.58 23.41 26.21 27.84 28.70 29.06 25.70 24.03 18.01 17.74 27.16 33.08 34.34 34.17 27.14 34.89
47.82 47.66 48.32 48.82 48.82 49.38 50.23 52.56 52.10 51.37 51.84 40.47 38.79 40.63 37.19 30.71 31.96 31.74 28.31 27.77 28.61 26.61 25.18 27.22 28.36 28.70 30.52 26.15 22.68 19.58 21.41 24.46 20.00 19.92 22.83 24.80 24.70 18.87 16.89 15.55 23.22 33.16 35.28 35.06 23.29 24.63 34.62
48.15 47.37 47.91 48.58 48.68 48.66 50.65 51.85 52.22 51.64 50.56 41.73 39.15 40.90 37.77 31.50 32.78 34.55 33.46 29.16 28.21 27.70 25.59 27.32 26.89 27.05 26.90 21.83 18.73 18.45 19.62 22.68 20.41 22.78 22.78 22.92 23.13 22.98 23.02 19.86 16.88 34.92 34.05 28.62 32.63 35.61 35.67
48.16 47.35 48.19 48.66 48.53 48.47 49.76 52.60 52.13 51.95 47.82 44.21 37.46 40.61 40.98 34.93 33.13 36.55 35.35 35.22 33.47 32.29 29.27 27.94 25.84 26.24 28.04 23.78 18.95 18.19 20.66 14.53 18.38 15.50 25.07 23.50 27.94 25.97 24.79 24.58 33.50 34.32 33.87 35.31 36.38 35.24 35.61

GFSGBSN_sfc_wetblb_102.txt.gz
Wetbulb
58.76 59.21 59.42 60.16 60.93 61.15 62.19 61.74 61.81 60.27 59.10 58.27 57.08 56.39 55.69 56.14 55.36 54.66 54.92 54.69 54.71 54.83 55.49 55.49 55.76 56.16 48.18 38.32 38.62 49.26 55.44 52.61 51.01 52.94 48.92 47.92 46.55 45.35 41.19 42.59 42.51 39.66 40.73 46.06 50.12 51.14 50.71
56.77 57.45 58.14 58.59 59.20 59.49 60.11 60.14 60.81 61.16 59.50 58.48 57.09 56.44 55.69 55.59 55.17 54.58 54.57 54.77 54.90 54.95 55.26 55.47 55.77 55.71 42.35 33.85 47.94 49.91 50.36 49.59 49.62 49.33 49.15 48.71 46.57 46.93 44.31 41.13 40.23 42.12 43.33 43.46 47.63 49.39 49.75
54.91 55.00 55.32 56.12 56.76 57.45 57.81 58.91 59.82 60.35 60.13 58.77 57.53 56.40 55.81 55.21 54.77 54.28 54.41 54.85 54.88 54.87 55.03 55.53 55.76 51.34 41.38 39.11 46.94 49.49 50.93 51.40 49.70 49.48 48.22 49.95 50.35 46.93 45.29 41.28 44.48 43.72 39.62 39.60 46.02 47.94 47.07
54.44 54.60 54.36 54.31 54.29 54.66 55.22 57.20 58.91 59.49 60.79 59.14 57.76 56.22 55.81 55.10 54.90 54.26 54.23 54.89 54.68 54.63 55.08 55.50 55.73 45.74 36.29 46.92 47.76 50.12 50.12 51.02 52.76 53.27 51.53 52.22 52.20 47.35 45.97 46.87 45.13 40.64 37.26 32.65 41.51 46.25 47.34
53.76 53.66 53.80 53.88 53.84 53.74 53.86 54.68 57.53 58.19 59.25 59.90 57.74 56.49 55.85 54.86 54.48 53.74 53.85 54.38 54.60 54.64 55.29 54.89 45.80 40.81 35.90 50.10 45.48 47.29 47.40 47.74 49.52 50.42 49.72 52.35 48.79 43.20 45.09 41.33 39.37 39.88 33.21 33.09 36.18 45.29 45.41
53.62 53.37 53.40 53.22 53.20 53.19 53.15 53.37 54.54 55.45 57.90 59.01 57.97 56.62 55.64 54.39 53.76 53.18 53.84 54.20 53.99 52.60 48.80 49.78 47.06 35.09 40.14 40.53 45.03 47.03 48.20 49.00 46.92 45.68 44.27 45.06 40.78 39.46 37.54 35.56 30.36 34.59 34.22 35.82 34.07 41.78 43.55
54.04 53.73 52.93 52.59 52.56 52.70 52.55 52.43 52.88 54.25 55.55 57.51 58.71 56.47 55.02 54.11 53.03 52.90 51.25 45.07 41.40 39.32 41.27 37.08 37.86 37.86 40.94 45.34 47.48 45.42 47.91 46.62 44.23 41.83 37.29 40.14 37.63 35.16 36.44 35.37 36.39 37.42 36.83 35.51 38.70 43.32 39.92
53.42 53.09 53.02 52.42 52.39 52.28 52.19 51.83 52.11 52.08 53.58 55.21 57.14 55.76 53.61 54.04 52.31 52.94 48.90 41.59 41.74 41.73 35.40 41.99 42.01 41.78 44.00 44.99 40.45 43.53 48.18 40.83 39.22 33.31 35.94 33.30 33.33 39.39 39.87 38.88 36.85 36.24 35.43 34.91 39.83 43.27 41.38
52.93 53.03 52.73 52.29 52.37 52.04 51.88 51.70 51.41 51.70 52.48 54.96 54.30 55.10 54.43 52.44 51.97 49.71 45.55 43.80 46.65 45.41 35.71 38.86 41.55 40.52 41.18 43.55 38.93 40.03 44.88 41.41 37.05 34.48 33.96 29.32 34.01 40.82 39.47 35.90 34.69 33.09 31.43 33.19 36.39 41.51 41.82
53.82 53.33 52.79 52.56 52.27 52.22 51.63 51.15 51.24 51.20 52.59 53.57 54.22 55.13 53.43 51.98 47.33 46.93 43.55 46.92 46.73 43.75 24.22 30.88 38.44 40.54 43.38 42.60 36.27 44.25 46.18 41.85 37.09 33.51 34.61 32.61 37.95 37.32 35.87 35.15 34.95 30.05 36.72 37.08 38.81 36.39 30.90
53.99 53.79 53.42 53.02 52.77 51.99 51.76 51.19 50.97 50.95 51.88 52.87 54.00 53.61 53.27 52.20 46.21 43.35 46.20 47.23 45.76 41.23 14.70 32.41 38.16 45.76 43.67 38.18 38.37 40.46 46.04 42.50 34.57 35.65 34.00 30.13 34.12 33.87 34.08 35.23 37.13 33.79 38.79 37.14 38.73 33.73 32.10
53.29 53.60 53.36 52.90 52.64 52.38 51.90 51.16 50.66 50.71 51.71 52.80 53.77 53.75 52.71 50.47 47.82 47.98 47.99 46.60 42.93 27.72 16.42 30.27 39.11 38.04 37.27 38.10 37.63 41.01 40.85 42.90 41.13 35.47 34.08 32.67 37.71 36.99 35.60 38.68 38.42 38.90 36.88 36.25 35.28 33.88 26.83
52.54 52.63 52.59 52.63 52.52 52.26 51.99 51.18 50.51 50.49 51.46 51.93 53.10 52.76 51.29 50.34 44.46 48.45 47.16 42.08 28.59 22.38 31.59 29.52 33.14 37.29 35.06 33.41 34.72 36.12 34.84 32.34 28.54 22.16 19.46 28.88 30.54 35.90 39.06 34.04 36.94 36.71 32.15 26.99 25.88 27.05 22.96
51.96 51.77 51.79 51.91 52.02 52.08 52.00 51.16 50.40 50.13 51.01 52.40 53.85 52.33 51.66 50.28 48.59 47.69 43.43 35.21 22.33 28.82 27.51 33.26 35.06 35.15 31.02 34.12 33.15 34.08 31.31 28.88 32.87 30.16 23.44 21.38 19.61 31.44 37.08 34.84 31.85 31.80 31.23 23.17 19.42 20.27 20.92
51.48 51.59 51.52 51.27 51.57 51.95 51.67 51.02 50.00 50.62 50.98 53.10 51.98 49.18 48.17 49.06 48.78 47.05 38.66 27.64 27.68 28.43 32.18 33.51 34.23 29.27 29.39 33.32 31.67 31.40 29.58 28.23 31.48 33.27 25.19 24.99 24.84 33.67 36.41 38.33 36.81 33.27 27.58 33.73 24.83 22.29 17.60
50.82 51.00 51.15 51.04 51.15 51.47 51.54 50.55 49.48 49.58 50.73 52.21 47.34 46.15 46.03 49.48 48.99 44.50 35.37 31.79 31.13 34.92 36.75 35.19 27.40 29.79 25.83 29.34 29.12 27.60 27.46 31.88 31.99 35.08 33.74 29.80 22.49 31.18 36.34 38.86 38.09 36.44 36.27 29.52 31.53 23.17 19.88
50.63 50.86 50.92 51.22 51.11 50.73 50.31 49.89 49.21 49.04 50.12 51.88 45.81 40.38 47.19 49.59 47.12 40.29 30.45 32.09 33.63 38.71 38.51 34.17 29.52 29.15 27.55 28.83 29.65 26.45 27.94 32.28 35.32 33.92 35.69 33.42 32.01 26.92 33.78 31.31 30.87 35.38 34.49 32.63 31.66 28.03 20.20
50.52 51.20 51.20 50.86 48.12 48.10 49.78 49.35 48.93 48.92 50.23 49.29 43.73 36.36 48.08 48.23 37.95 37.91 33.43 35.54 39.57 37.40 38.30 36.20 34.34 32.29 30.01 30.04 27.72 26.49 28.30 30.31 34.44 36.09 30.73 33.50 32.44 24.97 27.74 35.05 39.74 38.00 35.39 34.40 27.51 24.32 22.43
51.00 50.53 50.35 48.87 47.81 48.41 49.01 48.66 48.79 48.66 49.76 46.49 39.86 41.38 47.65 45.86 32.40 33.78 37.32 37.87 37.97 36.73 35.82 34.90 33.16 34.41 33.24 30.15 25.81 29.01 29.54 33.94 34.68 33.38 30.91 34.14 26.61 21.15 19.55 31.65 35.73 34.68 36.15 36.19 34.20 29.08 19.66
50.26 49.72 49.46 48.74 48.27 48.34 48.15 48.57 48.73 49.02 49.92 47.76 41.87 34.70 40.72 42.53 41.38 35.64 35.36 34.38 34.08 37.96 36.35 36.59 34.41 34.97 31.66 28.51 30.54 27.51 27.16 32.08 34.01 34.79 39.06 36.18 27.45 20.08 16.17 20.27 30.12 25.62 31.82 33.23 34.36 28.58 23.65
49.87 49.09 49.21 48.80 48.42 48.17 48.30 48.45 48.55 49.21 50.01 47.77 42.09 36.95 38.83 33.22 35.65 37.01 35.65 33.93 32.63 32.25 35.45 35.78 32.11 32.83 30.98 26.22 25.48 25.62 25.61 26.11 31.28 34.09 31.76 30.76 15.21 24.48 28.26 28.91 31.08 30.72 30.49 31.21 31.28 32.90 26.38
49.71 48.86 48.84 48.57 48.30 48.95 48.36 47.89 48.90 49.44 50.05 46.27 38.68 35.72 38.68 35.95 37.56 36.25 35.64 32.00 32.98 33.31 32.96 31.46 29.71 30.50 29.36 26.35 26.02 23.87 25.15 23.55 22.52 27.55 26.72 29.15 14.09 22.73 17.15 25.85 26.64 26.39 30.45 32.12 32.70 32.29 33.78
49.30 49.20 48.62 48.73 49.36 49.99 48.71 49.50 50.57 51.04 50.54 44.94 42.53 38.92 37.77 35.24 34.60 33.79 33.60 32.38 33.70 32.87 31.23 31.19 31.87 27.20 26.24 26.93 28.34 27.40 27.21 27.01 25.69 22.87 23.87 24.24 23.95 16.70 15.84 23.50 27.34 19.34 27.91 30.80 31.65 35.00 34.90
48.76 49.20 48.43 48.37 49.62 49.75 49.46 48.92 50.00 51.70 50.88 46.96 42.88 38.81 34.05 30.28 33.08 33.76 33.64 33.51 32.36 30.18 29.20 29.38 29.52 26.36 28.20 30.73 30.26 29.42 27.63 27.10 27.04 27.67 27.96 22.44 20.23 24.13 17.54 24.07 11.84 26.84 33.96 33.93 32.15 33.59 36.43
48.42 48.79 48.80 48.15 49.44 49.67 49.92 49.85 51.47 53.11 52.38 47.72 41.29 38.11 33.64 29.10 31.72 31.33 32.03 30.88 30.37 29.54 28.59 29.12 29.68 28.93 31.07 28.92 26.61 25.15 21.80 23.99 28.68 29.69 24.51 24.45 22.17 16.46 18.66 19.51 21.97 28.19 30.85 28.82 32.30 31.88 34.33
48.15 48.33 48.87 48.32 49.54 49.92 49.87 49.80 52.70 52.13 48.99 42.58 40.25 40.10 35.82 31.19 28.61 31.26 29.92 29.62 26.83 24.73 26.08 28.21 30.68 30.84 31.07 28.72 26.43 18.11 16.99 19.41 23.64 25.87 27.11 28.23 26.48 19.99 17.54 17.25 15.42 24.72 33.67 34.67 32.23 26.72 35.03
47.84 47.92 48.33 48.52 48.88 49.52 49.82 49.29 52.44 52.44 51.23 43.24 38.48 39.99 36.48 30.66 31.12 31.01 28.43 29.07 28.93 26.81 25.14 26.43 27.22 28.41 30.01 26.35 22.81 19.32 20.51 23.86 20.80 19.64 22.04 21.38 21.89 18.39 16.22 14.92 20.53 30.01 35.36 34.83 25.17 24.74 34.98
47.46 47.55 47.97 48.70 48.66 49.28 49.12 48.68 51.52 52.05 52.31 43.67 38.08 40.24 37.46 32.10 32.05 33.46 33.18 28.81 28.46 27.64 25.20 26.30 26.38 26.92 26.31 21.61 18.98 18.15 19.01 22.09 19.58 21.28 21.28 21.55 20.83 22.26 21.21 18.77 14.83 33.25 32.47 27.93 31.41 34.17 34.95
47.34 47.36 47.73 48.83 48.65 49.19 49.06 48.55 49.84 52.43 52.15 44.70 36.84 40.34 40.70 34.91 32.67 35.50 34.37 34.30 33.55 31.72 28.49 26.81 24.87 25.73 27.72 22.95 18.65 18.39 20.55 13.76 17.75 15.45 23.67 21.56 24.59 22.45 23.53 23.17 30.70 36.17 31.79 33.69 34.96 34.63 34.85

GFSGBSN_sfc_wetblb_105.txt.gz
Wetbulb
55.59 55.28 55.48 55.80 56.31 56.77 57.08 57.20 58.37 59.43 59.34 60.95 60.43 58.82 57.22 56.61 56.27 55.84 55.09 55.00 55.42 55.53 55.42 55.45 55.60 56.13 49.78 39.30 39.47 48.74 54.62 52.92 51.49 52.87 49.59 48.22 46.01 45.22 40.30 42.24 42.84 41.24 41.58 44.35 44.77 46.53 50.67
55.42 55.37 55.36 55.13 54.92 54.80 54.98 54.99 55.25 56.77 58.49 59.86 61.06 58.90 56.90 56.51 56.05 55.40 54.73 54.99 55.46 55.62 55.51 55.48 55.46 55.69 44.18 34.99 47.69 49.35 49.93 50.71 49.93 49.54 49.34 48.67 46.31 47.37 43.11 42.00 40.55 41.50 42.45 42.57 43.87 45.07 46.06
54.83 54.81 54.40 54.56 54.63 54.41 54.18 54.20 54.26 55.86 57.03 58.52 59.69 59.44 56.71 56.58 56.08 55.56 54.71 54.86 55.49 55.53 55.52 55.57 55.43 50.73 42.74 38.95 47.76 48.26 50.87 49.96 50.27 49.64 47.97 50.72 50.51 47.28 44.13 40.95 44.11 43.33 39.36 41.07 43.13 42.73 44.45
55.15 54.95 54.31 53.93 53.69 53.69 53.64 53.39 54.03 53.67 55.46 55.99 58.01 59.65 56.63 56.55 55.91 55.35 54.70 54.24 54.76 55.20 55.38 55.76 54.91 45.92 37.84 46.88 48.54 49.91 50.07 50.58 52.26 52.32 50.94 52.57 52.31 48.10 46.12 45.68 44.00 39.47 38.94 34.09 40.64 41.46 41.90
54.73 54.48 54.45 54.03 53.29 53.16 53.35 53.07 52.70 52.91 53.36 53.99 55.47 57.14 56.91 55.56 55.54 54.90 54.06 54.08 54.52 55.02 55.27 55.24 45.90 41.90 36.06 49.84 45.96 47.52 48.37 47.61 49.57 50.38 49.92 51.05 49.58 45.15 45.80 41.73 38.62 38.82 32.89 33.57 36.70 41.36 41.83
54.75 54.53 54.42 54.16 53.71 53.42 53.27 53.02 52.70 52.34 52.52 52.83 53.76 55.13 57.01 54.80 54.51 54.15 53.79 54.21 53.76 53.57 49.89 49.77 46.30 36.78 39.89 40.70 45.03 46.94 48.59 48.98 47.48 45.84 45.69 45.42 43.27 41.32 39.73 36.13 30.78 34.17 34.16 35.34 34.60 38.19 41.33
54.86 54.29 53.80 53.07 53.20 53.24 53.25 52.85 52.64 52.39 52.12 52.22 54.19 55.14 55.45 53.69 52.79 53.46 51.18 46.35 41.26 40.19 42.11 38.28 38.17 37.75 40.33 45.15 47.33 45.71 48.01 46.81 45.25 43.66 38.48 40.89 38.58 35.59 37.33 37.66 37.49 38.08 36.56 34.58 37.18 40.25 40.04
55.03 55.03 54.66 53.87 53.27 53.18 52.75 52.73 52.25 52.08 52.01 51.86 52.82 54.01 55.35 51.98 52.98 52.92 48.65 42.62 42.38 42.15 36.31 41.70 41.82 41.49 43.36 45.02 40.52 43.57 48.15 41.49 39.84 34.75 37.33 35.43 34.54 39.37 40.44 39.15 37.58 38.04 36.50 35.95 39.42 41.94 40.27
54.15 54.19 54.58 54.44 54.15 53.75 53.20 52.35 52.44 51.95 51.90 51.58 51.91 53.72 54.66 53.52 52.13 49.86 46.26 44.38 47.14 45.80 36.66 38.84 41.43 40.40 40.83 43.76 39.01 40.10 45.01 41.70 37.54 35.19 34.90 32.10 35.55 40.45 39.36 37.08 35.54 35.45 35.09 35.52 36.31 40.63 42.27
53.14 53.41 53.68 54.01 54.12 53.87 53.45 53.12 52.29 51.85 51.76 51.65 51.10 53.39 53.02 52.26 47.23 47.22 43.82 47.40 47.04 44.37 26.93 32.48 38.33 40.43 43.19 42.67 36.36 44.18 46.24 42.40 38.02 34.44 35.66 34.61 38.62 37.66 36.89 35.98 36.29 33.11 38.17 38.03 39.15 37.20 31.62
52.57 53.09 52.97 53.01 53.23 53.37 53.31 53.11 52.75 52.19 51.93 51.84 51.39 51.43 52.39 51.11 47.15 43.90 46.10 47.29 45.88 41.52 16.00 33.90 37.93 45.61 43.30 38.27 38.27 40.17 46.05 42.08 35.45 36.01 34.25 32.15 35.23 34.84 35.00 35.80 37.70 34.99 39.76 39.03 38.98 35.01 34.90
51.74 51.67 52.06 52.30 52.54 52.46 52.57 52.67 52.50 52.26 51.89 51.75 51.56 51.58 52.99 50.55 48.82 48.47 47.59 46.23 43.15 28.41 18.04 31.08 39.00 37.48 37.09 37.92 37.59 40.59 40.49 42.57 41.46 35.68 34.34 33.87 38.35 37.85 36.57 38.88 38.99 40.01 37.39 36.74 36.40 34.94 28.70
51.62 51.83 51.76 51.74 51.84 51.73 51.85 52.09 52.14 52.11 51.67 51.46 51.32 50.98 51.97 50.97 44.92 48.84 46.82 42.15 29.00 23.04 31.98 30.00 33.40 37.03 34.68 33.29 34.66 35.96 34.86 32.45 29.45 22.52 20.93 28.89 31.63 36.29 39.24 35.99 38.05 37.87 33.39 26.59 27.11 27.54 24.72
51.49 51.26 51.12 51.26 51.48 51.52 51.57 51.72 51.95 51.93 51.06 51.03 52.19 53.01 51.55 50.08 49.82 47.20 43.13 35.11 23.65 30.35 27.65 33.52 35.17 34.88 30.93 33.65 33.05 33.96 32.05 29.23 32.91 30.29 24.63 23.27 18.94 31.61 37.88 36.19 34.41 34.45 32.97 25.16 19.60 21.98 24.27
50.92 50.99 51.21 51.21 51.34 51.43 51.36 51.40 51.76 51.38 50.65 51.00 51.58 49.46 48.39 49.61 49.16 46.38 38.09 28.22 28.61 30.73 32.01 33.32 34.00 29.39 29.72 33.02 31.94 31.59 29.76 28.58 31.00 32.85 26.06 25.41 24.95 33.93 36.12 38.66 38.35 33.92 31.90 34.90 25.84 24.65 22.88
50.79 50.64 51.36 51.47 51.52 51.50 51.23 51.27 51.15 50.55 49.86 50.60 47.61 45.81 45.49 50.28 48.75 43.92 36.26 30.95 32.81 34.77 36.25 35.12 27.91 29.21 26.00 29.19 28.96 28.54 28.00 31.53 32.25 34.48 33.84 30.09 23.38 32.07 36.27 38.98 38.89 36.79 37.80 31.39 32.18 21.97 19.88
50.18 50.38 51.05 51.13 50.77 49.61 49.76 50.68 50.19 48.83 48.30 50.77 46.01 39.60 46.91 49.77 47.51 39.36 31.98 32.22 34.80 38.12 38.10 33.92 29.31 29.20 26.76 28.13 28.64 26.28 27.57 32.37 34.12 34.33 34.90 33.55 31.28 27.34 32.58 31.78 31.09 35.12 33.74 33.57 32.95 30.11 23.07
50.19 50.50 50.58 50.34 49.61 48.05 49.63 49.37 49.19 47.84 48.73 48.21 43.71 35.52 47.78 48.79 36.95 36.50 33.24 35.57 39.28 37.72 38.05 36.27 33.73 31.42 29.06 29.62 27.43 26.43 28.07 30.17 33.68 35.96 30.77 33.60 31.74 25.05 26.90 35.43 38.43 36.83 34.31 33.47 28.87 26.00 23.91
49.64 50.25 50.37 49.88 49.15 48.77 48.99 48.79 47.98 48.07 48.17 45.56 39.26 40.69 47.78 46.55 32.28 33.55 36.67 37.19 38.54 36.74 35.82 35.21 33.12 34.17 32.57 29.06 25.52 28.33 28.95 33.60 34.01 34.69 31.80 34.25 25.48 14.01 19.30 27.88 34.31 31.63 32.32 32.02 32.15 30.49 21.23
49.45 49.74 50.17 49.73 48.65 48.61 48.67 48.50 48.12 48.06 48.63 44.69 40.72 34.06 40.38 42.78 41.09 35.34 34.61 34.57 34.50 38.17 36.36 36.14 34.00 34.31 31.16 28.20 29.82 27.00 27.69 31.55 33.38 35.06 38.34 35.33 25.40 19.83 15.88 18.01 28.91 26.32 29.82 32.89 29.70 29.10 26.45
49.35 49.12 49.90 49.46 49.00 48.19 48.44 47.43 47.62 48.57 48.66 45.32 39.64 36.30 39.12 32.61 35.97 36.38 35.76 34.80 32.38 32.78 35.81 36.09 32.43 32.46 30.49 26.06 25.77 25.69 25.66 26.38 30.69 32.80 31.12 28.71 15.99 23.53 26.28 26.89 28.22 28.11 28.46 30.34 25.34 29.26 29.03
49.20 49.00 49.46 49.71 49.06 49.29 49.52 48.64 48.17 48.45 49.00 41.21 37.59 37.04 38.34 37.08 38.17 36.30 35.22 33.86 32.41 33.42 33.70 32.75 30.54 31.55 28.82 25.36 24.43 24.40 25.44 23.67 22.88 26.85 27.08 27.38 15.14 18.05 14.69 25.66 25.85 25.25 27.83 28.96 30.30 31.15 30.58
48.76 48.70 49.07 49.52 49.17 49.15 49.68 48.83 48.77 50.23 48.54 39.90 43.62 39.28 39.66 36.84 35.57 34.34 33.46 33.96 33.26 34.27 31.34 30.82 31.73 27.52 27.18 26.98 27.47 26.37 26.56 26.62 25.67 22.82 24.01 23.94 20.86 15.57 14.80 23.36 24.73 18.70 28.49 29.54 31.12 33.14 33.32
48.24 48.44 48.83 49.06 49.43 49.62 49.32 49.56 48.61 49.00 48.59 43.55 44.96 38.86 35.17 31.48 34.15 34.11 34.39 35.32 32.61 31.70 29.34 29.23 29.13 26.78 27.95 29.81 29.87 29.41 27.34 27.18 27.81 27.40 27.42 22.10 19.89 24.01 18.81 18.57 10.37 28.70 32.97 34.41 32.61 33.44 34.15
48.22 48.31 48.52 48.41 48.93 49.56 49.85 49.76 49.28 49.27 49.87 46.19 44.74 38.14 34.73 29.57 33.95 31.86 32.60 30.74 30.51 30.22 28.27 28.55 29.03 28.33 30.04 28.91 26.60 24.62 21.46 23.85 28.23 29.17 25.24 23.68 22.45 17.52 17.98 18.88 21.00 27.92 31.33 30.01 30.10 32.28 35.36
47.88 48.04 48.26 48.12 48.62 49.69 49.38 49.93 50.14 49.72 52.39 48.59 42.36 40.43 36.22 30.47 28.99 31.00 30.53 29.06 27.68 26.51 26.01 27.90 30.40 30.94 30.35 28.47 26.44 17.83 16.71 18.79 22.85 24.61 26.94 27.98 25.94 18.16 16.87 14.78 16.07 25.93 32.47 34.69 32.82 27.27 35.53
47.72 47.96 47.95 48.01 48.10 48.81 49.45 49.75 49.64 51.62 52.35 45.88 40.10 40.82 35.62 30.30 31.72 30.23 28.50 28.16 30.07 27.75 25.03 26.31 27.81 28.49 29.75 26.49 22.87 19.16 19.71 23.45 18.62 19.46 21.93 22.03 21.86 16.83 17.39 15.71 20.16 27.24 33.55 34.59 26.06 26.06 35.13
47.67 47.74 47.74 47.80 47.75 48.31 48.81 48.97 49.56 50.58 50.34 45.34 39.38 40.39 37.10 30.56 30.73 32.44 32.28 27.85 28.87 27.99 25.11 26.03 26.37 26.54 25.88 22.25 19.04 18.22 18.80 21.80 19.52 20.49 20.35 19.68 16.97 17.74 21.22 18.52 14.47 32.69 31.94 28.25 31.33 34.71 35.38
46.93 47.52 47.71 48.17 47.83 47.92 48.65 49.15 49.14 50.09 48.89 44.74 37.96 40.10 40.16 34.07 31.06 34.46 33.31 33.59 32.72 31.26 28.11 26.42 24.62 25.46 27.61 22.92 18.69 18.52 20.51 13.58 17.70 15.27 22.65 20.62 23.69 21.84 23.05 22.89 29.09 34.52 32.94 34.24 35.16 34.95 35.11

GFSGBSN_sfc_wetblb_108.txt.gz
Wetbulb
55.94 55.48 55.60 55.47 55.49 55.26 55.21 54.91 54.74 54.58 55.60 57.43 58.81 59.96 60.77 57.74 57.03 56.43 56.31 55.43 55.47 55.76 55.32 55.55 55.93 56.14 51.53 43.44 43.82 52.36 54.13 54.54 52.64 52.74 50.84 49.51 47.24 45.34 42.80 44.95 45.88 43.88 44.49 44.99 46.13 46.58 45.71
55.95 55.62 55.61 55.12 54.80 54.55 54.48 54.57 54.24 54.05 54.40 55.46 56.32 57.46 59.84 57.27 55.48 55.93 55.81 55.42 55.37 55.70 55.28 55.27 55.84 55.48 47.63 39.49 51.63 52.60 52.16 52.54 51.49 50.94 50.48 50.22 47.87 49.13 45.16 44.33 44.81 45.69 44.81 45.05 45.45 44.23 45.16
55.41 55.25 55.31 55.35 54.72 54.12 53.72 53.79 53.61 53.51 53.60 54.09 54.16 55.90 57.63 57.08 55.62 56.13 55.64 55.14 55.01 55.59 55.38 54.96 55.85 53.04 45.83 44.08 51.47 52.87 53.10 52.29 52.37 50.74 48.58 51.55 51.22 47.57 46.97 41.81 46.16 45.49 42.03 44.04 44.17 44.23 42.72
55.26 55.32 55.31 55.16 54.94 54.09 53.72 53.81 53.67 53.54 53.37 53.37 53.44 54.73 56.03 57.09 55.63 55.61 54.81 54.49 54.26 54.92 55.26 55.02 55.64 50.57 42.26 50.34 52.82 52.24 53.06 52.27 53.67 54.65 52.00 53.06 52.90 49.01 47.08 47.47 44.64 42.00 42.17 37.74 42.04 43.32 43.28
55.72 55.64 55.10 54.72 54.26 54.22 53.86 53.56 53.66 53.15 53.26 53.16 52.91 53.93 55.37 56.43 55.34 54.88 54.11 54.14 54.30 54.76 55.05 54.65 51.28 46.09 40.88 52.07 48.94 51.84 51.64 49.50 51.44 52.27 51.05 51.20 50.04 46.62 46.05 41.83 39.61 40.43 35.44 36.75 38.61 43.42 42.75
55.73 55.94 55.82 55.33 54.64 53.86 53.62 53.28 53.16 53.07 52.93 52.81 52.64 52.55 53.08 53.88 55.18 53.45 53.85 54.31 53.97 53.66 51.18 51.36 48.47 41.67 44.67 43.71 48.29 49.93 51.99 51.01 48.38 48.34 46.77 47.21 44.63 42.46 41.07 40.72 35.05 35.62 35.55 37.87 37.87 40.16 41.72
55.20 54.74 54.69 54.77 55.01 54.94 54.44 53.88 53.03 53.19 52.60 52.50 52.30 51.99 52.37 53.89 54.28 53.50 52.14 50.10 44.62 43.45 44.83 42.35 41.84 41.60 42.81 48.03 49.98 48.85 50.55 49.58 48.24 44.87 40.77 42.61 42.20 36.90 38.73 42.01 41.61 40.76 38.97 38.36 39.23 41.72 39.86
54.42 54.01 54.06 53.89 54.26 54.60 54.62 54.51 53.85 53.15 52.82 52.27 51.87 51.64 54.76 55.47 53.14 52.56 50.59 45.04 44.83 46.29 39.36 44.75 43.92 43.53 45.79 47.45 43.04 46.58 50.82 44.89 43.59 40.03 41.25 40.96 38.82 41.83 42.21 42.42 40.78 40.97 39.18 38.38 40.59 41.68 40.70
53.61 53.30 53.36 53.78 53.56 53.56 53.95 53.92 53.98 53.68 53.31 52.60 51.51 50.99 52.85 53.14 52.16 50.59 47.30 45.73 49.86 48.37 40.03 40.89 43.40 42.77 43.60 46.47 42.09 43.31 47.69 44.69 41.56 38.80 39.37 38.29 39.86 42.50 41.41 40.46 39.53 40.14 38.95 38.68 38.05 40.94 41.23
53.39 52.72 52.28 52.29 52.48 52.85 53.01 53.14 53.34 53.51 53.32 53.03 51.56 50.81 51.33 52.12 47.72 48.16 45.18 49.42 49.68 48.02 35.64 36.21 39.80 42.78 45.00 45.41 40.02 46.66 48.45 45.25 42.02 38.30 39.16 38.96 41.64 39.84 39.91 39.06 40.31 36.29 41.22 41.03 39.86 38.52 33.49
52.43 52.45 52.67 52.56 52.57 52.36 52.39 52.46 52.61 52.70 53.13 53.17 51.76 50.72 50.63 51.93 47.89 45.07 47.58 49.88 49.37 45.26 25.72 37.30 39.69 47.54 45.20 41.51 41.71 42.98 48.73 45.10 38.89 39.21 39.31 36.89 38.49 37.90 37.27 38.70 41.20 38.29 42.25 40.69 41.10 37.64 36.37
51.91 52.11 52.09 51.93 52.07 52.12 51.95 52.03 52.05 52.19 52.50 52.89 51.82 50.72 51.11 50.71 49.22 49.33 49.78 49.31 46.99 34.19 24.46 34.11 40.32 38.52 39.20 40.56 40.49 43.15 43.39 45.99 44.76 39.33 38.98 38.54 41.11 40.77 40.03 41.59 41.65 42.86 41.34 41.02 40.84 37.92 30.87
51.58 51.64 51.66 51.71 51.71 52.21 51.92 51.90 51.78 51.90 52.42 52.15 51.27 50.76 50.38 50.46 44.79 50.47 49.75 45.39 34.13 28.24 33.85 33.71 35.25 38.87 37.49 36.55 37.53 39.02 37.64 37.15 35.31 31.29 31.48 34.24 35.31 39.58 41.53 38.83 41.86 41.25 38.30 31.15 28.36 29.41 28.81
51.18 51.31 51.50 51.55 52.26 52.47 52.21 51.92 51.66 51.74 51.73 51.41 50.80 51.35 52.63 50.48 51.11 49.71 46.75 38.45 29.15 31.84 32.10 36.55 37.56 37.56 34.45 37.01 36.68 37.22 36.11 35.08 37.34 35.77 33.68 30.00 27.46 35.61 40.45 38.95 36.92 38.15 37.09 31.56 22.86 25.96 29.98
50.79 51.06 51.27 51.70 51.87 51.26 50.41 50.81 51.45 51.23 50.63 50.19 50.80 49.41 48.97 50.18 50.08 48.24 41.46 32.33 32.08 32.85 34.28 35.46 36.45 33.72 33.95 36.32 36.28 36.16 35.47 34.73 36.26 37.79 31.70 30.65 28.53 37.63 38.28 40.89 40.22 36.21 33.69 38.27 31.20 30.83 30.19
50.59 50.92 51.38 51.43 51.09 50.43 50.31 50.16 50.69 50.20 49.30 49.82 47.87 45.88 45.49 50.77 50.05 45.70 37.77 32.70 34.68 37.07 37.64 37.68 31.62 34.20 31.69 34.31 33.95 34.39 33.77 36.43 35.90 38.04 39.70 34.86 28.65 35.66 38.58 40.64 40.67 38.08 39.45 32.05 34.00 25.34 23.45
50.32 50.66 50.56 51.19 50.50 49.92 50.06 50.58 50.05 48.91 49.02 50.28 47.39 40.12 46.63 50.28 48.40 40.59 33.07 34.78 36.40 39.94 39.79 36.96 34.06 33.54 33.31 33.85 34.59 33.36 32.98 36.15 37.31 38.01 39.44 37.58 33.72 32.45 35.90 34.72 33.16 35.43 33.57 34.74 33.30 32.63 27.70
50.06 50.26 50.41 50.75 50.18 49.59 49.73 49.51 49.75 48.90 49.09 49.06 45.32 36.24 48.39 49.32 36.90 38.37 35.21 36.82 39.59 39.11 40.65 39.08 37.74 36.14 34.81 35.26 34.00 33.64 33.31 34.77 37.40 39.09 35.14 37.79 34.80 28.14 30.57 36.22 39.17 37.27 33.69 34.08 29.80 28.07 29.57
49.93 50.01 50.38 50.24 49.78 48.79 48.76 49.36 49.38 49.03 49.30 47.18 39.53 40.02 47.96 46.89 33.77 34.82 37.50 37.30 39.14 38.36 38.75 37.99 36.49 37.87 37.50 35.06 31.28 34.06 34.39 35.87 38.30 37.88 35.41 36.82 31.41 25.23 26.06 32.63 35.28 32.31 33.66 33.73 32.95 33.16 30.25
49.38 49.67 50.01 49.75 50.09 49.12 48.85 47.80 48.29 48.76 49.07 47.90 40.37 34.53 40.14 42.31 41.30 37.07 35.32 34.88 35.46 40.16 38.87 38.76 37.39 38.57 36.20 33.97 35.26 32.48 32.82 34.09 36.15 37.85 37.58 37.54 31.94 27.72 23.59 26.23 30.77 28.42 30.84 32.90 31.85 27.89 28.89
48.94 49.33 49.66 49.59 49.91 49.86 48.97 49.09 48.42 47.71 48.45 47.16 40.12 36.63 39.37 33.97 36.49 37.98 37.78 36.31 34.26 34.55 38.82 39.37 36.67 36.54 35.18 32.02 32.45 31.72 31.99 32.08 34.00 34.42 35.00 34.11 26.18 27.73 29.14 29.43 29.47 28.72 28.61 29.95 28.64 30.51 28.11
48.82 48.83 49.09 49.31 49.62 49.62 49.26 49.23 48.30 47.52 47.75 43.87 37.68 36.12 40.31 38.00 38.79 37.29 36.73 35.18 34.22 35.18 36.85 35.89 35.19 36.12 35.50 32.33 31.60 30.45 32.09 31.86 30.22 32.78 31.87 32.07 26.63 25.01 23.32 29.00 30.02 26.50 29.66 30.79 31.35 31.65 31.87
48.60 48.82 48.73 49.05 49.20 49.53 49.09 49.13 48.36 49.41 49.11 42.71 43.64 42.49 37.03 38.16 37.06 35.85 35.64 35.45 34.94 36.67 33.88 34.12 35.78 35.37 33.83 32.10 33.69 33.65 34.16 33.64 32.77 30.62 29.40 28.57 27.45 25.28 24.04 27.93 27.33 25.54 31.22 32.56 33.36 34.56 33.67
48.55 48.45 48.46 48.74 48.85 48.91 49.57 49.30 48.71 48.94 48.84 46.78 45.85 42.58 36.36 35.03 36.36 36.12 36.40 37.36 35.37 34.14 32.88 32.61 33.71 34.07 32.59 36.46 37.08 36.60 35.38 34.10 33.94 32.17 32.67 28.03 26.42 27.15 26.01 26.46 20.86 31.98 36.55 36.96 33.90 33.94 34.89
48.19 47.94 48.20 48.35 48.72 48.44 49.10 49.75 49.83 49.38 49.13 47.45 45.58 41.85 37.23 34.19 37.05 36.36 36.61 34.54 33.96 33.24 31.99 31.59 32.32 33.12 36.91 35.83 32.59 29.17 30.34 30.02 30.14 31.15 31.11 31.17 29.33 26.18 24.60 24.72 27.17 31.26 34.49 33.68 32.44 32.84 35.57
47.77 47.63 48.17 47.98 48.45 48.85 48.81 49.37 49.55 49.77 49.73 48.21 46.38 45.01 39.37 34.84 34.61 32.84 35.39 34.23 32.93 31.27 31.28 30.98 34.67 36.59 36.74 34.77 32.21 25.43 25.98 25.75 25.22 25.47 31.30 31.25 31.34 28.29 25.86 20.28 20.65 32.20 35.67 38.00 37.00 30.50 36.42
47.48 47.51 47.87 48.02 48.20 48.26 48.36 49.51 49.83 49.56 50.53 49.53 45.63 46.79 38.70 35.11 34.72 33.98 33.84 33.04 34.36 32.23 31.26 31.56 32.78 33.18 35.54 33.12 29.69 28.34 27.75 29.25 26.13 24.07 24.45 25.54 26.41 24.66 25.12 24.11 27.59 33.47 36.14 37.84 28.70 30.95 37.72
47.39 47.41 47.57 47.71 48.02 48.15 48.08 48.94 49.70 50.06 51.33 48.00 42.09 43.35 40.81 36.11 34.66 34.57 34.50 33.05 33.46 34.07 32.18 31.90 31.86 31.60 32.08 29.90 30.18 30.25 28.87 29.77 27.60 28.55 26.88 26.54 24.97 25.10 24.88 22.98 22.67 35.61 36.24 32.22 36.03 38.25 38.25
47.29 47.40 47.39 47.65 47.87 48.02 47.96 48.55 49.46 49.41 49.66 46.40 40.47 42.53 43.24 38.58 34.95 36.80 36.17 36.41 35.35 34.80 34.23 32.45 31.35 32.59 35.45 32.36 30.15 30.66 28.89 27.15 28.35 27.46 30.28 26.70 30.63 30.47 30.13 31.33 34.88 39.13 37.92 38.94 39.22 38.27 37.21

GFSGBSN_sfc_wetblb_111.txt.gz
Wetbulb
56.06 56.01 55.62 55.88 55.85 55.08 54.65 54.72 54.61 54.18 54.55 54.59 54.71 55.03 56.82 57.88 58.73 57.27 56.19 56.00 55.50 55.63 55.85 55.70 55.62 55.88 53.31 45.50 46.15 54.11 53.68 55.31 54.97 53.85 52.21 50.27 47.31 46.16 42.35 44.92 45.91 43.64 44.70 46.16 47.42 46.87 46.29
55.90 55.75 55.82 55.61 55.61 55.58 54.85 54.40 54.47 54.33 54.30 54.25 54.17 54.14 55.71 56.86 58.36 56.19 55.82 55.98 55.73 55.51 55.64 55.70 55.23 55.70 50.20 40.98 53.31 54.49 54.45 53.98 53.99 52.96 51.80 51.56 48.99 49.05 45.86 44.58 44.19 46.42 45.58 46.04 46.22 45.91 45.98
56.53 56.41 56.17 55.89 55.41 55.19 54.85 54.47 54.36 54.10 54.02 54.19 53.95 53.49 54.42 56.65 58.15 56.26 56.30 55.79 55.27 55.21 55.42 55.64 55.37 53.97 47.76 45.61 53.22 54.16 54.43 53.45 54.17 51.39 49.02 51.68 52.11 47.81 47.64 42.53 46.33 46.12 42.80 44.91 45.13 44.76 44.21
56.27 56.45 56.41 56.57 56.03 55.34 54.69 54.42 54.27 54.08 54.13 53.80 53.74 53.32 52.94 54.16 55.43 56.54 56.11 54.96 54.80 54.66 55.07 55.55 55.42 52.39 44.07 52.10 54.05 52.89 54.34 53.20 54.90 54.86 52.79 53.50 53.45 49.45 47.74 47.89 44.54 42.06 43.14 38.59 44.78 44.47 44.74
55.66 55.62 55.48 55.24 55.36 55.47 55.43 54.89 54.26 54.16 54.17 53.84 53.52 53.26 52.77 52.94 53.84 55.38 55.39 54.64 54.36 54.78 55.33 55.10 52.04 48.79 42.24 52.63 49.15 53.07 53.43 50.32 51.70 53.13 52.90 51.70 50.12 47.74 46.78 40.74 38.88 41.13 36.70 37.73 40.60 45.49 44.22
55.17 55.06 54.68 54.54 54.91 55.01 54.99 55.05 55.03 54.68 54.28 53.86 53.27 52.92 52.44 53.68 54.23 54.28 54.73 54.28 54.55 53.56 53.34 52.39 50.53 42.95 46.85 44.20 49.41 51.23 53.41 52.20 49.67 49.93 47.13 47.55 45.13 43.08 41.67 39.37 33.49 37.25 36.79 38.74 37.48 42.77 42.23
54.59 54.43 54.30 54.04 53.78 54.42 54.50 54.47 54.39 54.68 54.68 54.00 53.52 52.56 52.08 53.72 56.10 54.73 52.46 49.85 45.77 44.67 45.98 42.73 43.78 43.51 44.54 48.98 51.45 50.18 51.90 50.52 50.32 47.14 41.65 44.39 40.45 38.45 40.12 42.28 42.71 41.02 40.75 39.22 41.09 43.41 40.97
54.15 53.99 54.03 53.53 53.54 53.54 53.54 53.59 53.67 53.87 53.95 54.03 53.64 52.52 51.71 52.74 54.03 52.95 50.92 44.45 46.08 47.14 40.22 45.87 45.67 45.26 47.10 48.57 44.28 47.99 51.89 45.82 45.42 41.29 44.48 41.69 37.70 43.58 43.29 43.94 42.48 42.14 40.52 39.80 42.45 43.17 41.38
53.85 53.34 53.08 53.27 53.45 53.35 53.21 53.00 53.02 53.21 53.26 53.55 53.39 52.53 51.47 51.63 52.37 50.77 47.76 45.86 50.18 49.58 40.83 42.57 44.78 44.11 44.75 47.21 43.66 44.97 48.73 46.51 43.24 41.27 41.91 39.01 40.90 44.29 42.34 41.37 39.76 41.21 40.05 39.94 39.73 42.23 43.36
53.32 53.21 52.55 52.73 52.93 52.67 52.63 52.57 52.55 52.65 52.62 52.84 52.84 52.45 51.37 50.93 48.91 48.59 45.50 50.32 51.39 50.61 37.56 37.98 40.44 43.70 45.61 46.53 41.76 48.03 49.54 46.50 43.22 40.26 41.13 40.39 43.97 41.25 40.95 39.63 41.47 36.70 42.76 42.13 40.71 39.40 35.65
53.20 52.40 52.32 52.43 52.24 52.36 52.44 52.44 52.57 52.53 52.82 52.93 52.27 52.32 51.07 50.17 47.13 45.60 47.75 51.57 51.06 46.99 27.94 38.65 40.65 48.30 46.25 42.70 43.22 44.20 49.84 46.44 40.52 40.63 40.79 38.53 39.68 39.49 38.16 39.62 42.08 38.56 43.62 41.95 41.49 39.52 38.38
52.56 51.81 52.01 52.10 52.57 52.97 52.35 52.06 52.04 52.11 51.95 51.86 51.82 51.72 50.67 49.54 49.93 49.63 51.08 50.95 47.42 34.12 27.00 35.25 41.14 39.65 40.08 41.62 41.66 44.21 44.14 47.03 45.84 40.57 40.97 39.73 43.38 41.34 41.29 42.41 42.83 44.02 41.83 41.41 41.54 38.11 31.72
52.15 51.61 51.66 52.08 52.44 52.64 52.11 50.97 51.26 51.16 51.51 51.24 50.87 50.88 49.39 49.71 44.90 51.01 50.70 46.24 33.66 30.36 35.29 34.43 36.39 39.32 38.77 37.97 38.94 40.32 39.07 38.53 36.49 33.58 32.87 36.80 36.96 40.58 42.48 39.49 42.78 41.65 38.00 30.91 28.44 30.31 29.66
51.72 51.16 51.37 51.53 51.96 51.48 50.81 51.85 51.58 51.37 51.14 50.15 50.25 50.25 50.24 50.87 51.76 49.84 47.30 38.87 29.42 33.55 33.46 38.67 38.96 38.91 35.88 38.54 38.33 38.92 37.84 36.46 39.31 37.82 34.82 30.75 29.40 37.07 40.81 39.40 37.11 37.97 37.10 30.90 24.05 26.61 31.05
51.68 50.82 51.11 51.58 51.61 51.31 50.86 51.35 50.98 50.79 50.12 49.78 50.82 49.07 48.84 50.79 51.05 49.62 41.31 32.64 33.52 34.70 35.58 37.03 37.90 34.91 35.58 37.59 38.37 37.91 36.84 36.23 38.28 39.47 32.77 31.03 30.79 39.11 40.05 41.81 40.63 35.99 34.15 39.58 32.63 34.11 30.45
51.70 50.46 50.92 51.21 51.31 51.05 50.62 50.72 50.52 49.74 50.01 50.48 47.18 45.26 45.79 51.12 50.35 46.12 38.10 33.84 35.88 38.89 39.31 39.37 33.43 36.25 33.69 35.96 35.49 35.95 35.10 38.39 37.67 40.27 41.58 36.65 29.19 36.87 38.90 41.39 41.23 38.05 39.45 31.75 33.99 24.75 23.73
51.46 50.65 50.64 51.03 50.74 50.50 49.99 50.17 50.51 50.21 49.96 50.61 47.35 40.07 46.40 50.36 49.17 40.97 34.48 35.87 37.98 41.19 41.35 38.55 35.84 34.99 35.67 35.49 36.42 34.91 34.82 37.80 39.61 39.96 41.32 38.69 34.27 33.52 37.20 34.75 33.41 35.17 32.75 33.88 32.42 31.98 26.96
51.61 50.36 50.34 50.62 50.43 50.16 49.74 49.88 49.75 50.17 50.01 50.02 45.75 36.57 47.71 49.46 37.09 39.18 37.14 38.13 39.42 40.17 41.68 40.37 39.76 38.08 36.65 37.06 35.45 35.03 34.60 36.69 40.38 41.07 36.14 39.09 35.11 29.13 31.44 37.17 39.62 37.72 33.42 33.34 29.24 28.07 32.00
51.41 50.02 49.91 50.20 50.33 50.26 49.99 49.29 48.95 49.33 49.75 47.00 40.65 39.24 47.84 46.97 34.38 35.75 38.78 38.25 40.03 39.62 39.89 39.17 37.81 39.35 39.43 36.83 33.05 35.70 36.09 37.60 40.01 39.30 36.67 37.80 32.16 26.21 28.62 33.34 36.25 32.69 34.45 35.05 33.61 32.68 30.64
51.26 49.73 49.40 49.74 49.98 50.16 49.64 49.39 49.93 48.52 49.35 48.04 41.00 35.23 40.02 42.66 39.91 38.05 36.17 36.18 36.90 41.39 40.15 40.54 38.82 39.88 37.70 35.72 37.31 34.10 34.61 35.87 37.81 38.71 37.47 38.41 33.31 28.61 24.06 26.94 31.25 28.44 31.32 32.91 31.66 28.93 28.24
51.16 49.60 49.34 49.51 49.72 49.97 49.57 49.04 49.20 47.77 48.41 47.49 40.67 36.60 39.47 34.74 37.20 38.97 39.00 37.73 36.05 35.93 40.53 40.95 38.19 37.75 36.58 33.49 34.17 33.44 34.99 34.70 35.89 35.56 36.46 35.54 27.95 29.38 30.24 31.08 30.76 29.47 29.49 30.99 29.20 30.66 28.13
51.20 49.75 48.94 49.25 49.44 49.72 49.40 49.12 49.32 47.88 47.87 44.84 38.53 36.49 36.64 38.62 39.73 38.90 38.28 36.70 36.15 36.86 38.16 37.22 36.53 37.99 37.91 34.39 33.37 31.70 33.98 34.13 32.49 34.84 34.19 34.85 29.06 27.44 25.55 30.94 30.57 27.49 30.58 31.30 31.97 32.70 32.47
51.09 49.45 48.61 49.01 49.15 49.41 49.63 49.14 48.50 48.74 49.30 43.72 44.39 43.08 38.74 37.91 37.48 37.47 37.72 37.46 36.60 38.33 36.78 36.96 38.07 37.84 35.81 33.84 36.59 37.07 37.45 36.61 34.69 33.27 31.78 30.70 29.48 27.77 25.56 30.40 29.16 27.19 31.77 33.09 34.40 35.49 34.04
50.93 49.31 48.26 48.60 48.87 49.11 49.19 49.83 48.89 49.43 49.79 47.44 46.22 43.35 37.81 35.47 37.11 37.23 38.43 38.64 37.41 36.19 34.83 35.58 37.16 36.66 35.41 39.81 39.71 38.88 37.58 36.64 36.39 34.58 35.08 30.14 28.87 29.88 28.28 28.43 23.26 32.98 37.84 37.76 34.73 34.95 35.93
50.97 48.91 47.81 48.37 48.52 48.73 48.73 48.99 49.52 49.33 49.04 48.46 48.05 43.69 40.05 35.87 37.82 38.33 38.42 37.53 36.80 36.12 34.32 34.14 34.67 36.77 39.92 37.75 34.58 31.20 32.38 32.02 32.31 33.35 33.11 33.73 31.38 28.92 26.96 27.40 29.86 32.60 34.94 35.00 33.63 33.44 36.83
50.76 49.06 47.47 48.24 48.64 48.66 48.75 48.68 49.32 49.57 49.78 48.80 47.72 48.07 43.49 37.47 36.20 37.05 38.40 38.05 37.11 36.02 34.38 32.87 36.51 39.79 38.63 36.21 33.76 27.55 28.40 28.23 28.20 27.86 32.31 32.42 32.98 30.09 28.20 23.17 22.37 33.97 37.76 39.60 38.63 30.38 38.10
50.69 49.36 47.59 48.11 48.23 48.45 48.58 49.10 48.90 49.90 50.42 48.68 47.18 48.76 44.33 35.35 38.81 37.02 36.98 36.71 37.90 36.10 34.97 33.84 34.25 34.56 37.19 34.79 31.64 30.60 30.21 31.64 28.07 26.59 27.12 27.80 28.56 26.84 28.21 26.50 30.07 37.55 38.23 39.82 28.62 31.73 39.45
50.62 49.34 47.69 47.85 47.93 48.01 48.40 49.02 48.59 49.69 50.29 49.65 45.89 48.38 45.09 39.38 38.76 37.44 37.68 36.26 36.70 37.03 34.62 35.06 34.51 34.32 33.91 31.24 32.38 33.23 31.21 32.62 30.03 32.19 29.45 29.05 27.10 27.35 28.52 25.41 24.22 39.07 37.50 33.35 37.81 40.12 40.38
50.52 49.17 47.84 47.75 48.32 47.99 48.31 48.38 48.45 49.29 48.35 47.62 42.34 47.69 48.55 42.46 38.58 39.50 38.74 38.67 37.41 37.46 38.08 36.87 35.35 35.55 37.79 34.88 34.62 35.14 32.04 32.50 31.23 29.19 33.84 28.07 32.96 32.61 32.07 32.97 38.15 40.72 40.26 41.41 40.94 39.86 40.03

GFSGBSN_sfc_wetblb_114.txt.gz
Wetbulb
57.03 57.00 56.88 56.78 56.65 56.17 55.90 55.67 55.41 54.93 54.91 54.90 54.71 54.55 54.39 54.69 56.93 58.56 57.54 56.56 56.60 56.03 56.05 56.15 55.84 55.80 53.23 45.58 44.89 54.11 55.90 56.12 54.96 53.47 51.32 50.26 47.31 45.73 41.54 43.40 44.55 41.63 42.57 45.42 46.37 46.34 46.44
57.04 57.00 57.03 57.05 57.13 56.80 56.40 55.87 55.43 55.29 54.84 55.00 54.65 54.29 54.00 53.66 55.07 56.31 56.47 56.37 56.48 56.28 55.89 56.04 55.87 55.58 49.80 40.60 52.94 54.48 54.26 54.00 54.08 52.82 51.01 50.84 48.37 48.88 44.76 44.05 43.14 45.45 44.87 44.84 46.01 45.52 46.05
56.84 56.32 56.27 56.11 55.71 55.69 55.82 55.82 55.69 55.41 55.31 55.10 54.96 54.26 53.75 53.57 53.54 54.65 57.42 57.31 56.21 55.69 55.47 55.92 55.85 53.35 47.27 44.65 53.07 53.78 53.88 53.41 54.15 52.60 49.19 52.30 51.51 47.43 46.77 43.04 46.80 45.28 41.58 43.93 44.65 45.33 44.13
55.65 56.01 55.80 55.42 55.11 55.01 55.39 55.34 55.19 55.39 55.63 55.46 54.96 54.38 53.65 53.34 53.12 54.13 54.92 57.11 55.37 55.16 54.94 55.51 55.77 52.01 43.38 53.20 52.76 51.77 53.50 52.70 54.74 54.83 53.24 53.29 53.02 48.74 46.15 47.84 44.57 40.55 41.12 36.14 43.25 45.02 45.44
55.59 55.29 54.70 55.18 54.79 54.41 54.25 54.34 54.51 54.75 54.98 55.31 55.17 54.45 53.80 53.21 52.93 55.11 55.25 55.70 55.00 54.78 55.09 55.34 51.67 48.87 41.14 52.82 47.70 51.59 53.56 50.14 51.71 52.47 53.63 52.71 50.27 46.66 46.66 40.85 38.35 39.25 32.80 35.30 38.88 45.23 44.20
55.66 55.27 54.56 54.15 54.21 54.38 54.52 54.32 54.12 54.06 54.31 54.30 54.66 54.47 53.79 52.78 53.25 55.45 55.18 54.92 54.54 54.17 53.32 52.86 51.15 42.46 45.86 43.99 49.86 51.26 53.04 52.02 49.52 50.59 48.58 47.05 45.13 42.23 41.55 38.25 32.76 35.51 36.23 37.31 36.76 41.95 42.81
55.68 54.76 54.24 53.72 53.86 53.99 54.09 53.85 53.67 53.76 53.67 53.66 53.93 53.97 53.35 52.23 52.50 54.36 52.76 49.96 45.72 44.27 47.07 41.89 43.46 42.83 44.83 49.01 51.39 49.59 52.31 50.03 49.47 46.91 39.96 44.68 40.03 36.91 39.16 40.74 40.65 39.74 37.55 36.60 39.98 42.75 40.82
54.42 54.18 54.09 53.47 53.50 53.49 53.64 53.33 53.34 53.37 53.20 53.19 53.29 53.23 52.79 51.98 51.93 52.79 50.81 44.51 45.03 46.44 39.31 45.19 44.60 45.35 47.08 48.30 43.98 47.92 51.82 45.29 45.08 40.02 43.58 40.70 35.75 42.15 43.53 42.53 40.54 39.64 37.88 38.00 40.68 42.64 39.32
53.91 53.79 53.35 52.85 53.00 53.12 53.18 53.25 53.09 53.05 52.93 52.74 52.67 52.53 52.37 51.76 50.92 50.74 47.99 46.53 50.56 49.13 39.67 42.49 45.15 44.02 44.72 46.62 43.79 45.31 48.47 46.75 41.88 39.32 40.05 36.62 39.59 44.32 41.84 40.03 38.30 38.61 37.17 38.07 38.01 41.49 41.08
53.66 53.47 52.85 52.55 52.62 52.81 52.90 52.50 51.77 51.78 51.97 52.03 52.19 52.21 51.78 51.07 47.24 48.14 45.47 50.37 51.11 50.79 35.30 37.49 39.81 43.36 45.08 46.52 41.56 48.46 49.67 46.26 42.89 38.56 39.93 38.67 42.67 40.52 39.07 38.10 39.43 34.08 41.32 40.30 39.33 37.36 32.58
53.48 53.24 52.27 52.25 52.45 52.56 52.43 51.59 52.04 52.29 52.02 51.31 51.40 51.09 50.64 50.59 46.12 44.94 47.96 51.43 50.80 46.88 24.89 39.36 40.31 48.29 46.57 42.41 43.37 44.02 50.30 46.53 38.90 39.33 39.24 35.57 38.33 37.24 36.48 38.39 40.34 36.51 41.51 39.40 38.79 36.79 35.06
53.34 52.86 52.00 51.80 52.30 52.34 51.87 51.68 52.15 51.99 51.62 51.11 50.48 50.33 50.27 48.85 48.61 48.56 51.32 51.18 47.34 32.70 23.72 34.81 40.42 39.25 39.11 41.39 41.50 44.17 44.42 46.87 45.21 39.01 39.26 37.61 41.58 39.34 38.82 40.48 40.82 41.69 38.72 38.38 37.71 36.29 24.96
53.28 52.77 51.87 51.71 52.06 51.97 51.53 51.43 51.70 51.52 51.17 50.58 50.28 50.01 49.33 49.05 44.46 50.84 50.73 45.62 32.51 28.07 34.96 33.85 35.79 38.70 39.12 37.11 38.62 40.30 39.37 37.32 33.45 27.59 29.60 35.25 35.82 39.04 41.61 36.85 40.15 39.07 33.68 24.16 21.59 20.22 21.64
53.32 52.76 51.71 51.56 51.97 51.64 51.18 51.11 51.46 51.01 50.50 50.79 50.61 50.54 50.32 49.19 50.66 49.93 46.77 37.44 28.13 33.64 32.20 39.43 38.75 38.51 35.80 37.89 38.22 38.69 37.18 34.15 37.87 35.60 30.23 25.31 22.40 34.77 38.99 36.65 34.63 34.58 33.71 28.32 23.38 24.81 27.69
53.12 52.51 51.76 51.30 51.70 51.41 50.95 50.67 51.02 51.19 51.42 51.48 51.50 48.74 48.67 49.97 51.30 49.88 40.73 31.00 31.21 33.38 36.46 37.07 37.69 34.44 34.67 37.00 37.63 37.12 34.80 34.31 36.62 37.13 28.86 28.02 27.02 37.86 39.30 38.97 38.37 33.14 29.18 36.42 31.16 30.70 25.16
52.73 52.56 51.58 51.08 51.39 51.23 50.82 50.64 50.65 50.65 51.30 51.60 47.33 45.72 45.39 50.37 50.69 46.62 37.96 34.02 35.34 39.31 40.35 39.70 32.24 35.41 32.73 34.80 34.55 34.03 32.95 37.06 36.94 39.34 38.87 34.30 25.51 35.92 37.62 39.58 40.05 36.38 38.11 29.34 30.43 17.47 19.51
52.69 52.30 51.25 50.62 50.82 50.84 50.69 50.58 50.43 50.10 50.76 51.74 47.96 40.62 46.58 50.63 48.75 41.35 33.36 34.91 38.04 41.87 41.12 37.63 35.28 34.22 35.04 34.26 34.95 32.55 33.03 36.12 38.47 38.81 39.29 36.24 32.45 30.14 35.39 31.87 30.17 33.22 29.84 31.88 31.23 29.10 25.41
52.53 52.08 50.93 50.12 50.38 50.64 50.61 50.20 50.38 50.28 50.11 49.23 45.61 35.41 46.85 49.23 37.61 39.13 36.10 37.77 40.92 40.38 42.33 40.56 39.28 37.53 35.39 35.98 33.97 33.01 32.99 34.14 39.77 39.68 34.35 36.17 31.46 22.84 28.67 36.25 38.05 35.15 32.50 30.36 24.39 22.31 27.66
52.23 51.98 50.86 49.93 50.29 50.43 50.34 49.87 50.20 49.44 49.58 46.11 40.01 39.20 47.26 46.94 34.11 36.06 39.08 38.31 40.01 38.90 39.62 39.11 37.31 38.77 38.56 35.55 30.92 34.17 34.46 37.41 38.46 37.67 33.01 34.85 27.27 16.93 22.73 31.61 33.75 31.48 32.63 32.54 30.09 30.34 22.60
51.88 51.68 50.52 49.66 50.07 50.70 50.18 49.85 49.18 48.62 48.97 47.09 41.43 35.01 40.60 42.08 40.79 38.41 36.78 36.91 37.11 41.65 40.54 40.51 38.80 39.08 36.58 34.61 35.54 32.10 33.36 35.89 37.34 36.94 38.35 37.14 28.13 22.26 16.01 20.86 27.41 24.17 28.99 31.07 28.09 23.16 19.88
51.85 51.56 50.40 49.32 49.57 49.90 50.21 49.89 49.43 48.83 49.07 46.58 40.25 36.11 37.72 34.61 37.66 39.17 38.62 38.15 36.34 35.62 40.26 40.55 37.77 37.53 35.44 31.23 31.86 31.30 33.15 33.38 35.15 35.87 34.18 32.75 18.36 26.16 28.17 29.78 29.91 28.00 27.96 29.52 20.61 26.64 18.96
52.30 51.25 49.97 49.01 49.38 49.61 49.90 49.79 49.33 49.06 50.06 44.29 37.94 36.33 37.71 38.02 39.46 39.05 37.99 36.12 35.81 36.34 35.34 36.17 35.98 37.09 35.57 30.73 31.19 29.03 31.85 30.97 28.95 31.56 31.40 31.87 20.99 21.64 17.97 29.58 29.18 25.59 29.60 29.67 30.32 31.11 30.21
52.71 51.10 49.52 48.55 48.92 49.07 49.74 50.33 49.45 49.63 49.51 42.86 42.86 42.91 39.91 37.56 37.04 36.34 36.41 36.92 36.43 37.19 36.82 36.67 36.47 36.20 32.53 32.69 34.35 33.55 33.94 33.33 30.95 29.43 28.95 27.15 22.71 19.92 18.78 26.49 24.97 18.57 30.10 31.28 33.55 35.03 33.33
52.93 51.32 49.56 48.13 48.32 48.63 49.22 49.66 49.77 49.53 49.61 47.12 44.94 42.69 38.27 34.80 36.64 36.82 38.58 38.67 37.11 34.94 33.89 35.61 34.77 34.24 33.92 36.61 35.96 35.37 33.97 34.11 33.68 31.81 32.70 26.40 23.34 24.88 19.48 21.54 13.18 30.14 36.49 36.28 33.64 34.21 34.40
53.25 51.88 49.52 47.94 48.03 48.26 48.77 48.85 48.99 49.37 49.43 47.35 47.10 42.63 39.17 34.12 36.38 37.64 38.31 37.39 36.62 35.01 33.31 33.41 33.98 35.10 36.64 34.54 29.89 27.47 26.18 26.81 30.93 31.69 29.95 30.52 26.46 21.85 18.45 18.55 24.96 30.10 32.85 33.22 31.46 30.96 35.46
53.37 52.36 49.96 47.99 48.14 49.05 48.82 48.65 48.92 49.31 49.44 48.33 47.06 47.10 41.82 36.28 33.38 37.45 35.77 37.06 33.82 32.26 31.20 32.37 35.49 36.86 35.66 32.16 29.02 23.46 20.73 22.55 24.09 25.52 28.47 30.77 29.44 22.08 22.04 18.05 17.67 30.14 35.44 37.80 36.36 25.96 36.46
53.57 52.29 50.41 48.45 48.03 48.69 48.84 49.13 48.92 49.21 50.10 48.46 46.04 48.25 43.18 36.36 37.17 35.93 33.76 33.70 35.66 33.05 30.53 30.78 31.87 31.27 33.49 29.67 26.75 24.36 23.48 27.26 21.67 21.26 22.28 20.46 21.60 19.43 21.09 19.00 25.09 34.48 36.59 37.62 23.61 27.33 37.20
53.49 52.03 50.97 48.73 48.00 48.00 48.00 48.81 49.32 49.26 49.94 47.33 45.33 47.71 43.79 38.46 37.84 37.58 38.05 34.13 34.14 33.38 30.36 32.24 30.78 30.90 29.25 26.80 26.96 26.02 23.77 26.67 23.37 27.56 24.63 24.37 20.38 19.61 22.08 19.01 16.59 35.88 34.94 30.21 33.89 36.64 38.29
53.23 52.23 51.05 49.32 48.44 47.97 47.89 48.33 48.78 49.01 49.68 47.90 42.87 47.90 47.68 42.04 36.83 39.07 38.58 38.37 37.08 36.17 34.18 33.42 31.90 32.33 33.21 29.32 28.97 28.71 26.08 24.91 24.96 19.36 28.77 22.40 27.50 26.13 26.63 26.74 34.34 37.09 35.94 37.73 38.01 36.74 36.84

GFSGBSN_sfc_wetblb_117.txt.gz
Wetbulb
57.48 57.33 56.74 56.94 56.68 56.24 56.17 56.23 56.09 56.28 56.44 56.12 55.77 55.28 54.74 54.35 54.28 54.27 55.99 57.55 56.38 56.75 56.07 55.72 55.72 55.51 52.58 45.52 44.05 55.06 57.79 57.08 54.01 53.97 50.71 49.42 47.13 45.71 40.74 41.76 43.80 40.98 42.42 43.61 44.45 44.80 44.44
56.79 56.54 56.80 56.03 56.10 55.90 55.67 56.00 56.14 55.87 55.89 56.13 56.09 55.63 54.79 54.24 53.96 53.61 54.67 56.07 57.26 56.38 55.92 55.48 55.47 55.00 49.11 40.01 51.50 54.56 53.59 52.36 53.55 52.04 50.64 50.62 48.36 48.84 45.03 42.32 42.00 44.49 44.17 43.49 43.91 44.07 44.77
56.53 56.72 56.17 55.53 55.78 55.41 55.06 54.97 54.73 54.85 55.07 55.52 55.58 55.64 55.16 54.24 53.96 53.56 54.82 55.53 56.98 55.51 55.01 55.21 55.12 52.82 47.44 43.47 51.94 51.93 52.86 51.62 53.26 51.18 48.02 51.16 50.47 45.41 45.88 41.02 45.10 44.38 40.18 42.85 43.81 44.50 43.73
55.87 56.93 56.23 55.38 54.79 54.68 54.83 54.91 54.87 54.75 54.73 54.76 54.95 54.96 55.25 54.47 53.78 53.32 55.16 55.83 55.27 55.01 54.89 54.84 54.85 50.91 42.52 52.79 52.16 50.29 50.77 50.34 53.45 53.49 51.60 51.95 52.18 47.72 45.78 45.50 43.66 40.54 39.79 34.35 42.34 44.40 44.71
55.85 55.95 55.25 55.34 54.65 54.48 54.42 54.32 54.40 54.20 54.27 54.36 54.29 54.31 54.57 54.39 53.42 53.25 55.47 55.86 55.24 55.03 54.98 54.65 50.59 48.07 41.23 53.26 46.77 48.33 49.01 49.62 50.83 51.74 51.37 51.97 48.79 44.52 45.70 41.12 37.13 37.78 30.12 33.48 37.10 43.62 43.63
55.35 55.29 55.10 54.60 53.77 54.06 54.25 54.10 53.99 53.97 54.02 53.77 53.73 53.58 53.52 53.36 52.60 52.79 54.60 54.33 54.71 53.49 52.69 53.12 50.83 42.02 43.94 43.14 48.35 49.88 50.68 50.96 48.38 48.79 47.90 46.25 42.77 38.49 41.41 36.93 29.02 34.40 34.34 36.80 36.26 41.61 42.56
54.87 54.83 54.62 54.27 53.49 53.57 53.92 53.91 53.71 53.22 52.74 52.89 52.91 53.00 52.83 52.48 52.10 52.41 51.67 46.69 43.59 42.32 45.90 40.37 42.14 41.13 44.66 47.59 50.19 48.28 50.74 48.81 48.18 44.84 37.42 41.53 37.92 34.16 37.58 39.84 39.31 38.31 36.32 35.58 39.43 42.51 40.92
54.86 54.83 54.57 53.58 53.31 53.58 53.64 53.48 52.56 52.40 52.69 52.44 52.08 52.37 52.42 51.64 52.18 51.04 50.50 42.48 42.59 43.82 36.69 45.63 45.19 44.42 46.31 47.26 42.67 46.77 50.52 43.32 42.76 37.29 40.22 39.86 33.47 38.71 42.02 41.70 39.48 38.06 36.18 36.21 40.83 42.54 40.24
54.91 54.68 54.12 53.19 52.96 53.44 53.21 52.77 52.52 52.93 52.82 52.33 51.76 51.75 51.38 50.90 51.60 48.32 47.58 46.57 50.58 47.81 38.48 42.17 44.65 43.10 43.86 45.74 42.33 44.27 47.12 44.71 39.78 36.62 37.16 33.25 36.51 42.69 40.42 37.73 36.16 35.83 35.07 35.98 36.33 40.13 40.08
54.94 54.40 54.02 52.79 52.75 52.90 52.69 52.25 52.31 52.40 52.27 51.60 51.28 50.89 50.26 50.72 45.81 47.27 45.48 50.07 50.66 49.24 34.19 36.29 39.28 42.83 45.07 45.74 40.54 47.65 48.93 44.53 40.68 36.30 37.73 35.55 40.82 39.28 36.90 35.82 37.79 31.80 39.48 38.24 36.74 33.72 28.75
55.04 54.29 53.73 52.66 52.57 52.55 52.21 51.91 52.12 51.70 51.13 50.94 50.94 50.74 50.29 50.01 43.28 42.92 48.09 51.03 48.33 44.10 21.75 38.41 39.87 47.91 45.97 41.45 41.63 42.92 48.60 44.65 36.98 37.41 35.74 31.45 35.61 34.94 34.02 36.41 38.12 34.45 39.12 36.73 36.32 33.23 30.98
55.41 53.87 53.35 52.45 52.22 52.08 51.92 51.24 51.76 51.84 51.71 51.82 50.87 50.71 50.64 48.62 47.44 47.48 50.95 50.59 45.06 30.56 20.88 34.40 39.47 38.89 38.44 40.35 40.46 43.21 42.80 44.59 43.01 37.82 36.64 35.21 39.71 37.32 36.69 38.74 38.76 39.72 36.60 35.55 34.43 33.10 21.94
55.56 53.31 53.16 52.30 52.08 51.78 51.75 51.14 51.67 51.52 51.47 51.96 51.46 51.09 48.54 48.35 44.11 48.53 48.79 43.49 31.56 21.67 33.03 32.81 34.99 38.06 37.37 35.56 37.59 38.66 37.82 34.50 30.04 22.83 23.20 31.50 33.75 37.07 39.16 33.86 38.08 37.07 31.29 18.35 19.97 16.97 20.03
54.81 53.19 53.04 51.96 51.70 51.60 51.60 51.29 51.16 51.10 51.10 51.88 51.90 50.51 50.81 48.69 48.82 48.04 45.74 37.61 24.63 31.00 30.14 38.51 37.31 36.87 33.12 35.92 35.78 36.70 34.06 30.68 35.18 32.63 23.67 20.46 19.83 33.26 37.96 34.33 32.12 32.46 32.61 27.03 21.49 23.56 24.26
53.97 53.05 52.54 51.26 51.23 51.40 51.53 51.26 50.91 50.99 50.61 51.61 51.54 47.56 46.26 49.45 49.63 48.77 40.32 29.98 29.69 29.82 35.89 35.93 36.06 31.00 31.19 35.04 34.74 33.65 31.40 30.91 33.91 34.26 26.20 23.75 24.39 36.27 37.40 38.13 37.13 31.27 27.23 35.42 30.45 31.33 26.76
53.61 52.95 52.28 51.05 50.94 51.20 51.42 50.94 50.84 51.24 51.08 51.56 44.25 44.38 44.59 49.96 49.48 45.66 37.77 33.00 32.68 38.50 38.75 37.88 28.68 31.59 28.31 31.06 31.05 29.77 30.44 34.05 34.50 37.29 35.65 31.37 22.13 33.68 36.18 37.18 36.41 34.97 36.11 25.71 25.89 19.09 22.10
53.68 52.74 52.30 50.81 50.65 50.91 51.04 50.73 51.01 50.89 50.87 51.78 43.71 40.34 45.21 49.00 47.86 40.27 32.84 32.57 37.22 40.71 40.00 35.64 32.35 31.05 31.21 30.39 31.13 28.96 29.38 33.32 36.31 36.74 36.67 32.42 28.48 27.13 32.31 30.33 28.97 30.48 28.02 29.56 24.97 27.09 24.73
53.70 52.60 52.05 50.49 50.32 50.68 50.80 50.62 50.42 50.17 50.84 46.67 39.07 35.66 45.95 46.72 34.48 34.80 30.28 36.14 40.75 38.83 40.18 38.23 36.44 34.57 32.20 32.13 30.25 29.56 28.88 31.01 36.06 36.91 30.93 32.64 28.67 18.04 28.32 33.76 35.32 33.07 29.24 27.05 19.30 19.87 28.84
53.64 52.47 51.64 50.17 50.02 50.44 50.61 50.40 50.37 49.73 49.85 44.12 39.87 39.57 44.47 42.79 33.27 29.82 35.65 37.71 38.91 37.92 37.41 36.93 34.93 36.41 35.67 31.86 27.97 31.16 31.26 35.63 35.94 34.26 30.03 32.46 23.18 9.08 19.33 24.15 29.07 28.01 29.77 30.80 27.81 26.67 18.97
53.76 52.26 51.49 49.84 49.86 50.79 50.36 50.23 49.83 49.78 50.36 44.96 36.54 32.28 36.53 37.78 37.96 33.21 33.15 34.74 35.23 39.65 38.07 38.49 36.43 36.54 33.66 31.38 32.29 29.22 30.26 34.13 35.50 34.26 38.97 35.85 24.34 17.46 12.82 18.19 24.85 22.64 26.79 29.35 24.76 13.95 23.60
53.97 52.36 51.23 49.60 49.29 49.84 49.98 50.02 49.91 50.00 50.63 43.99 36.93 35.22 36.82 27.09 33.08 34.94 34.88 35.43 33.58 32.36 35.87 37.38 34.88 33.85 31.46 26.71 27.97 28.04 30.48 30.69 33.10 35.58 32.82 29.73 15.06 23.13 25.24 28.03 28.21 26.50 26.32 27.67 17.72 24.27 17.97
54.60 52.68 50.60 49.25 48.71 49.32 49.63 50.07 50.04 51.01 50.00 39.55 33.76 31.04 33.68 34.20 35.94 34.53 35.18 33.23 33.51 34.06 32.96 32.32 32.63 32.68 31.27 27.55 27.34 25.50 28.61 27.62 25.79 30.44 29.18 29.31 17.56 17.81 16.40 27.66 27.76 25.20 28.25 28.16 28.62 29.29 28.45
55.02 52.94 50.94 48.85 48.19 48.64 49.34 50.25 50.41 50.31 48.12 38.40 39.29 39.26 35.50 34.77 32.46 31.71 32.71 34.34 34.01 34.16 34.20 34.10 32.06 31.68 29.25 30.01 30.53 29.73 30.58 30.89 28.70 26.00 26.48 24.82 18.69 16.77 16.63 25.94 21.42 16.01 28.22 29.40 31.31 32.05 31.18
55.09 53.39 51.53 49.27 47.99 48.13 48.97 49.42 50.15 50.50 48.00 42.97 41.63 39.58 35.23 30.88 32.80 33.82 36.27 36.86 34.25 32.53 31.45 32.82 32.14 30.99 31.78 34.77 33.83 33.04 31.37 31.55 30.96 29.68 30.90 24.10 20.36 21.61 15.43 17.64 8.70 26.49 35.06 34.80 32.24 33.00 33.20
55.08 54.19 51.95 49.82 48.20 48.35 48.21 48.39 48.73 49.75 49.77 43.26 43.35 39.91 37.92 30.30 32.68 34.65 36.00 34.99 33.46 32.20 30.55 31.38 31.90 32.23 34.10 31.72 27.54 25.25 23.78 25.51 28.48 29.32 28.20 28.24 23.96 18.65 15.93 14.35 22.78 28.30 31.79 32.19 30.16 29.05 34.17
54.90 54.70 52.42 50.31 48.92 49.30 48.65 48.45 48.28 48.87 49.73 43.83 42.66 44.01 40.63 34.13 30.44 34.22 32.62 34.00 31.12 28.63 28.60 30.43 33.68 34.27 33.90 29.73 26.95 20.48 17.62 21.48 22.28 23.77 27.02 29.06 27.14 19.87 18.27 16.15 16.50 27.22 33.57 36.37 34.66 24.29 35.39
54.77 54.76 53.22 50.83 49.14 49.48 49.15 48.89 48.78 48.71 49.47 44.88 41.62 44.72 41.84 35.18 34.12 32.53 30.34 30.76 32.24 29.55 27.42 27.70 29.39 29.28 31.59 26.83 24.43 21.14 21.69 25.72 19.45 19.61 21.77 16.85 17.56 16.95 17.47 15.93 22.92 32.28 35.29 36.34 21.42 24.07 36.00
54.34 54.47 53.29 51.34 49.70 49.36 48.94 49.01 49.07 49.28 49.48 45.42 40.99 44.40 40.93 37.48 36.11 34.96 35.39 31.47 31.68 30.04 26.60 29.79 29.00 28.87 26.65 24.65 23.06 22.10 21.28 24.48 21.24 24.38 22.98 22.37 17.89 17.14 19.14 16.32 14.85 34.55 33.87 28.20 31.28 35.57 37.09
53.97 54.12 53.12 51.31 49.86 49.25 49.09 48.56 48.83 48.93 49.63 47.56 43.14 47.20 47.04 40.66 37.00 37.40 36.98 36.79 35.87 34.71 32.13 30.67 30.01 29.46 29.86 27.07 24.28 23.48 23.91 18.83 21.42 16.97 26.83 21.54 25.78 24.04 24.01 23.62 30.96 34.94 33.58 35.98 36.22 35.23 35.97